<?xml version='1.0' encoding='UTF-8'?><gpx version="1.1" creator="JPX - https://github.com/jenetics/jpx" xmlns="http://www.topografix.com/GPX/1/1"><trk><trkseg><trkpt lat="37.9774409" lon="13.298569"><ele>614.5</ele><time>2026-04-26T16:17:50.059Z</time></trkpt><trkpt lat="37.9775302" lon="13.2985219"><ele>615.0</ele><time>2026-04-26T16:17:53.06Z</time></trkpt><trkpt lat="37.9775924" lon="13.2984806"><ele>615.5</ele><time>2026-04-26T16:17:55.059Z</time></trkpt><trkpt lat="37.9776578" lon="13.2984302"><ele>616.0</ele><time>2026-04-26T16:17:57.059Z</time></trkpt><trkpt lat="37.9777204" lon="13.2983852"><ele>616.5</ele><time>2026-04-26T16:17:59.059Z</time></trkpt><trkpt lat="37.9777831" lon="13.2983453"><ele>617.0</ele><time>2026-04-26T16:18:01.06Z</time></trkpt><trkpt lat="37.9778465" lon="13.2983126"><ele>617.0</ele><time>2026-04-26T16:18:03.059Z</time></trkpt><trkpt lat="37.9779291" lon="13.2982588"><ele>617.0</ele><time>2026-04-26T16:18:05.059Z</time></trkpt><trkpt lat="37.9780201" lon="13.2982017"><ele>617.0</ele><time>2026-04-26T16:18:07.059Z</time></trkpt><trkpt lat="37.9781051" lon="13.2981179"><ele>617.0</ele><time>2026-04-26T16:18:09.059Z</time></trkpt><trkpt lat="37.9781845" lon="13.2980496"><ele>617.0</ele><time>2026-04-26T16:18:11.059Z</time></trkpt><trkpt lat="37.9782475" lon="13.2979939"><ele>616.8333333333333</ele><time>2026-04-26T16:18:13.059Z</time></trkpt><trkpt lat="37.9783182" lon="13.2979287"><ele>616.6666666666666</ele><time>2026-04-26T16:18:15.059Z</time></trkpt><trkpt lat="37.9783697" lon="13.2978708"><ele>616.5</ele><time>2026-04-26T16:18:17.059Z</time></trkpt><trkpt lat="37.9784223" lon="13.2978109"><ele>616.3333333333334</ele><time>2026-04-26T16:18:19.06Z</time></trkpt><trkpt lat="37.9784989" lon="13.2977422"><ele>616.1666666666667</ele><time>2026-04-26T16:18:22.059Z</time></trkpt><trkpt lat="37.9785627" lon="13.2976838"><ele>616.0</ele><time>2026-04-26T16:18:24.059Z</time></trkpt><trkpt lat="37.9786274" lon="13.2976555"><ele>616.0</ele><time>2026-04-26T16:18:26.059Z</time></trkpt><trkpt lat="37.9786927" lon="13.2976196"><ele>616.0</ele><time>2026-04-26T16:18:29.059Z</time></trkpt><trkpt lat="37.978743" lon="13.2975652"><ele>616.0</ele><time>2026-04-26T16:18:33.059Z</time></trkpt><trkpt lat="37.9788014" lon="13.2975289"><ele>616.0</ele><time>2026-04-26T16:18:36.059Z</time></trkpt><trkpt lat="37.9788951" lon="13.2974576"><ele>616.0</ele><time>2026-04-26T16:19:17.06Z</time></trkpt><trkpt lat="37.9789631" lon="13.2974148"><ele>616.0</ele><time>2026-04-26T16:19:19.059Z</time></trkpt><trkpt lat="37.9790287" lon="13.2973575"><ele>616.0</ele><time>2026-04-26T16:19:21.059Z</time></trkpt><trkpt lat="37.9791162" lon="13.2973"><ele>616.0</ele><time>2026-04-26T16:19:23.059Z</time></trkpt><trkpt lat="37.9792165" lon="13.2972357"><ele>616.0</ele><time>2026-04-26T16:19:25.06Z</time></trkpt><trkpt lat="37.979281" lon="13.2972034"><ele>616.0</ele><time>2026-04-26T16:19:54.059Z</time></trkpt><trkpt lat="37.9793988" lon="13.2971684"><ele>616.0</ele><time>2026-04-26T16:19:56.059Z</time></trkpt><trkpt lat="37.9795209" lon="13.2971244"><ele>615.8571428571429</ele><time>2026-04-26T16:19:58.06Z</time></trkpt><trkpt lat="37.9795938" lon="13.2971032"><ele>615.7142857142858</ele><time>2026-04-26T16:19:59.059Z</time></trkpt><trkpt lat="37.9796707" lon="13.2970871"><ele>615.5714285714286</ele><time>2026-04-26T16:20:00.059Z</time></trkpt><trkpt lat="37.9797429" lon="13.2970706"><ele>615.4285714285714</ele><time>2026-04-26T16:20:01.059Z</time></trkpt><trkpt lat="37.9798056" lon="13.2970522"><ele>615.2857142857143</ele><time>2026-04-26T16:20:02.059Z</time></trkpt><trkpt lat="37.9798709" lon="13.2970286"><ele>615.1428571428571</ele><time>2026-04-26T16:20:03.06Z</time></trkpt><trkpt lat="37.9799394" lon="13.2969973"><ele>615.0</ele><time>2026-04-26T16:20:04.059Z</time></trkpt><trkpt lat="37.9800178" lon="13.2969511"><ele>615.8</ele><time>2026-04-26T16:20:05.059Z</time></trkpt><trkpt lat="37.980104" lon="13.2968924"><ele>616.6</ele><time>2026-04-26T16:20:06.059Z</time></trkpt><trkpt lat="37.9801883" lon="13.2968238"><ele>617.4</ele><time>2026-04-26T16:20:07.059Z</time></trkpt><trkpt lat="37.9802628" lon="13.2967555"><ele>618.2</ele><time>2026-04-26T16:20:08.06Z</time></trkpt><trkpt lat="37.9803352" lon="13.2966861"><ele>619.0</ele><time>2026-04-26T16:20:09.059Z</time></trkpt><trkpt lat="37.9804153" lon="13.2966158"><ele>619.0</ele><time>2026-04-26T16:20:10.059Z</time></trkpt><trkpt lat="37.9804897" lon="13.2965482"><ele>619.0</ele><time>2026-04-26T16:20:11.059Z</time></trkpt><trkpt lat="37.9805622" lon="13.2964895"><ele>619.0</ele><time>2026-04-26T16:20:12.059Z</time></trkpt><trkpt lat="37.9806352" lon="13.2964403"><ele>619.0</ele><time>2026-04-26T16:20:13.059Z</time></trkpt><trkpt lat="37.9807103" lon="13.2964036"><ele>619.0</ele><time>2026-04-26T16:20:14.059Z</time></trkpt><trkpt lat="37.9807849" lon="13.2963772"><ele>619.0</ele><time>2026-04-26T16:20:15.06Z</time></trkpt><trkpt lat="37.9808577" lon="13.2963498"><ele>619.1666666666667</ele><time>2026-04-26T16:20:16.059Z</time></trkpt><trkpt lat="37.9809207" lon="13.2963203"><ele>619.3333333333334</ele><time>2026-04-26T16:20:17.06Z</time></trkpt><trkpt lat="37.9810241" lon="13.2962605"><ele>619.5</ele><time>2026-04-26T16:20:19.059Z</time></trkpt><trkpt lat="37.9811101" lon="13.2962206"><ele>619.6666666666666</ele><time>2026-04-26T16:20:21.059Z</time></trkpt><trkpt lat="37.9811975" lon="13.2961626"><ele>619.8333333333333</ele><time>2026-04-26T16:20:23.059Z</time></trkpt><trkpt lat="37.9812577" lon="13.296132"><ele>620.0</ele><time>2026-04-26T16:20:24.059Z</time></trkpt><trkpt lat="37.9813256" lon="13.2960998"><ele>620.0</ele><time>2026-04-26T16:20:25.059Z</time></trkpt><trkpt lat="37.981401" lon="13.2960651"><ele>620.0</ele><time>2026-04-26T16:20:26.059Z</time></trkpt><trkpt lat="37.9814773" lon="13.2960265"><ele>620.0</ele><time>2026-04-26T16:20:27.059Z</time></trkpt><trkpt lat="37.9815534" lon="13.2960006"><ele>620.0</ele><time>2026-04-26T16:20:28.059Z</time></trkpt><trkpt lat="37.9816181" lon="13.2959795"><ele>620.0</ele><time>2026-04-26T16:20:29.059Z</time></trkpt><trkpt lat="37.9816919" lon="13.2959644"><ele>620.0</ele><time>2026-04-26T16:20:30.059Z</time></trkpt><trkpt lat="37.9817595" lon="13.2959431"><ele>620.1666666666666</ele><time>2026-04-26T16:20:31.059Z</time></trkpt><trkpt lat="37.981833" lon="13.2959275"><ele>620.3333333333333</ele><time>2026-04-26T16:20:32.059Z</time></trkpt><trkpt lat="37.9819106" lon="13.295909"><ele>620.5</ele><time>2026-04-26T16:20:33.06Z</time></trkpt><trkpt lat="37.9819877" lon="13.2958853"><ele>620.6666666666666</ele><time>2026-04-26T16:20:34.06Z</time></trkpt><trkpt lat="37.9820637" lon="13.2958571"><ele>620.8333333333334</ele><time>2026-04-26T16:20:35.059Z</time></trkpt><trkpt lat="37.9821406" lon="13.295831"><ele>621.0</ele><time>2026-04-26T16:20:36.059Z</time></trkpt><trkpt lat="37.9822236" lon="13.2958087"><ele>621.0</ele><time>2026-04-26T16:20:37.06Z</time></trkpt><trkpt lat="37.9823083" lon="13.2957895"><ele>621.0</ele><time>2026-04-26T16:20:38.059Z</time></trkpt><trkpt lat="37.9823842" lon="13.2957706"><ele>621.0</ele><time>2026-04-26T16:20:39.059Z</time></trkpt><trkpt lat="37.9824661" lon="13.2957531"><ele>621.0</ele><time>2026-04-26T16:20:40.059Z</time></trkpt><trkpt lat="37.9825488" lon="13.2957358"><ele>621.0</ele><time>2026-04-26T16:20:41.059Z</time></trkpt><trkpt lat="37.9826309" lon="13.2957174"><ele>621.0</ele><time>2026-04-26T16:20:42.059Z</time></trkpt><trkpt lat="37.9827153" lon="13.2956971"><ele>621.3333333333334</ele><time>2026-04-26T16:20:43.059Z</time></trkpt><trkpt lat="37.982803" lon="13.2956714"><ele>621.6666666666666</ele><time>2026-04-26T16:20:44.059Z</time></trkpt><trkpt lat="37.9828899" lon="13.295641"><ele>622.0</ele><time>2026-04-26T16:20:45.06Z</time></trkpt><trkpt lat="37.9829761" lon="13.2956044"><ele>622.3333333333333</ele><time>2026-04-26T16:20:46.059Z</time></trkpt><trkpt lat="37.9830546" lon="13.2955616"><ele>622.6666666666666</ele><time>2026-04-26T16:20:47.059Z</time></trkpt><trkpt lat="37.9831298" lon="13.2955218"><ele>623.0</ele><time>2026-04-26T16:20:48.059Z</time></trkpt><trkpt lat="37.9832189" lon="13.2954895"><ele>623.1999999999999</ele><time>2026-04-26T16:20:49.059Z</time></trkpt><trkpt lat="37.9833221" lon="13.295443"><ele>623.4</ele><time>2026-04-26T16:20:50.059Z</time></trkpt><trkpt lat="37.9834333" lon="13.2953917"><ele>623.5999999999999</ele><time>2026-04-26T16:20:51.059Z</time></trkpt><trkpt lat="37.9835366" lon="13.2953409"><ele>623.8</ele><time>2026-04-26T16:20:52.059Z</time></trkpt><trkpt lat="37.983629" lon="13.2952929"><ele>624.0</ele><time>2026-04-26T16:20:53.06Z</time></trkpt><trkpt lat="37.9837171" lon="13.2952471"><ele>624.0</ele><time>2026-04-26T16:20:54.059Z</time></trkpt><trkpt lat="37.9837947" lon="13.2952017"><ele>624.0</ele><time>2026-04-26T16:20:55.059Z</time></trkpt><trkpt lat="37.9838612" lon="13.2951649"><ele>624.0</ele><time>2026-04-26T16:20:56.059Z</time></trkpt><trkpt lat="37.9839202" lon="13.2951369"><ele>624.0</ele><time>2026-04-26T16:20:57.059Z</time></trkpt><trkpt lat="37.9840092" lon="13.2950778"><ele>624.0</ele><time>2026-04-26T16:20:59.059Z</time></trkpt><trkpt lat="37.9840686" lon="13.295042"><ele>624.0</ele><time>2026-04-26T16:21:01.059Z</time></trkpt><trkpt lat="37.9841645" lon="13.2949923"><ele>624.2</ele><time>2026-04-26T16:21:05.059Z</time></trkpt><trkpt lat="37.9842299" lon="13.2948499"><ele>624.4</ele><time>2026-04-26T16:21:07.059Z</time></trkpt><trkpt lat="37.9842749" lon="13.2947553"><ele>624.6</ele><time>2026-04-26T16:21:08.059Z</time></trkpt><trkpt lat="37.9843204" lon="13.2946541"><ele>624.8</ele><time>2026-04-26T16:21:09.059Z</time></trkpt><trkpt lat="37.9843708" lon="13.294557"><ele>625.0</ele><time>2026-04-26T16:21:10.059Z</time></trkpt><trkpt lat="37.9844227" lon="13.2944762"><ele>625.0000000000001</ele><time>2026-04-26T16:21:11.059Z</time></trkpt><trkpt lat="37.984459" lon="13.294409"><ele>625.0</ele><time>2026-04-26T16:21:12.059Z</time></trkpt><trkpt lat="37.9844948" lon="13.2943362"><ele>625.0</ele><time>2026-04-26T16:21:13.059Z</time></trkpt><trkpt lat="37.9845358" lon="13.2942697"><ele>625.0</ele><time>2026-04-26T16:21:14.059Z</time></trkpt><trkpt lat="37.9845779" lon="13.2942003"><ele>625.0</ele><time>2026-04-26T16:21:15.059Z</time></trkpt><trkpt lat="37.9846185" lon="13.2941285"><ele>625.0000000000001</ele><time>2026-04-26T16:21:16.059Z</time></trkpt><trkpt lat="37.9846589" lon="13.2940455"><ele>625.0</ele><time>2026-04-26T16:21:17.059Z</time></trkpt><trkpt lat="37.9846971" lon="13.2939652"><ele>625.3333333333334</ele><time>2026-04-26T16:21:18.059Z</time></trkpt><trkpt lat="37.9847386" lon="13.2938872"><ele>625.6666666666667</ele><time>2026-04-26T16:21:19.059Z</time></trkpt><trkpt lat="37.9847756" lon="13.2938146"><ele>626.0</ele><time>2026-04-26T16:21:20.059Z</time></trkpt><trkpt lat="37.9848122" lon="13.2937482"><ele>626.3333333333334</ele><time>2026-04-26T16:21:21.059Z</time></trkpt><trkpt lat="37.9848546" lon="13.2936857"><ele>626.6666666666666</ele><time>2026-04-26T16:21:22.06Z</time></trkpt><trkpt lat="37.9848883" lon="13.2936178"><ele>627.0</ele><time>2026-04-26T16:21:23.059Z</time></trkpt><trkpt lat="37.9849502" lon="13.2934842"><ele>626.6666666666666</ele><time>2026-04-26T16:21:25.059Z</time></trkpt><trkpt lat="37.9850201" lon="13.2933512"><ele>626.3333333333334</ele><time>2026-04-26T16:21:27.06Z</time></trkpt><trkpt lat="37.985058" lon="13.2932817"><ele>626.0</ele><time>2026-04-26T16:21:28.06Z</time></trkpt><trkpt lat="37.9850957" lon="13.2932125"><ele>625.6666666666667</ele><time>2026-04-26T16:21:29.06Z</time></trkpt><trkpt lat="37.9851329" lon="13.293143"><ele>625.3333333333334</ele><time>2026-04-26T16:21:30.059Z</time></trkpt><trkpt lat="37.9851704" lon="13.2930747"><ele>625.0</ele><time>2026-04-26T16:21:31.059Z</time></trkpt><trkpt lat="37.9852087" lon="13.2930027"><ele>625.5714285714287</ele><time>2026-04-26T16:21:32.059Z</time></trkpt><trkpt lat="37.9852479" lon="13.2929296"><ele>626.1428571428571</ele><time>2026-04-26T16:21:33.059Z</time></trkpt><trkpt lat="37.9852864" lon="13.2928513"><ele>626.7142857142858</ele><time>2026-04-26T16:21:34.059Z</time></trkpt><trkpt lat="37.9853244" lon="13.2927782"><ele>627.2857142857143</ele><time>2026-04-26T16:21:35.059Z</time></trkpt><trkpt lat="37.9853649" lon="13.292707"><ele>627.8571428571429</ele><time>2026-04-26T16:21:36.059Z</time></trkpt><trkpt lat="37.9854111" lon="13.2926276"><ele>628.4285714285714</ele><time>2026-04-26T16:21:37.06Z</time></trkpt><trkpt lat="37.9854638" lon="13.2925344"><ele>629.0</ele><time>2026-04-26T16:21:38.059Z</time></trkpt><trkpt lat="37.985517" lon="13.2924285"><ele>629.0</ele><time>2026-04-26T16:21:39.059Z</time></trkpt><trkpt lat="37.9855735" lon="13.2923221"><ele>629.0</ele><time>2026-04-26T16:21:40.059Z</time></trkpt><trkpt lat="37.98564" lon="13.2921971"><ele>629.0</ele><time>2026-04-26T16:21:41.059Z</time></trkpt><trkpt lat="37.9857201" lon="13.2920528"><ele>629.0</ele><time>2026-04-26T16:21:42.059Z</time></trkpt><trkpt lat="37.9858055" lon="13.2918889"><ele>629.25</ele><time>2026-04-26T16:21:43.059Z</time></trkpt><trkpt lat="37.9858899" lon="13.2917333"><ele>629.5</ele><time>2026-04-26T16:21:44.06Z</time></trkpt><trkpt lat="37.985962" lon="13.2915926"><ele>629.75</ele><time>2026-04-26T16:21:45.059Z</time></trkpt><trkpt lat="37.9860275" lon="13.2914661"><ele>630.0</ele><time>2026-04-26T16:21:46.059Z</time></trkpt><trkpt lat="37.9860838" lon="13.2913516"><ele>630.0</ele><time>2026-04-26T16:21:47.06Z</time></trkpt><trkpt lat="37.9861362" lon="13.2912474"><ele>630.0</ele><time>2026-04-26T16:21:48.059Z</time></trkpt><trkpt lat="37.9861847" lon="13.2911528"><ele>630.0</ele><time>2026-04-26T16:21:49.059Z</time></trkpt><trkpt lat="37.9862272" lon="13.2910637"><ele>630.0</ele><time>2026-04-26T16:21:50.059Z</time></trkpt><trkpt lat="37.9862675" lon="13.2909858"><ele>630.0</ele><time>2026-04-26T16:21:51.059Z</time></trkpt><trkpt lat="37.9863135" lon="13.2909078"><ele>630.0</ele><time>2026-04-26T16:21:52.059Z</time></trkpt><trkpt lat="37.9863643" lon="13.290826"><ele>630.0</ele><time>2026-04-26T16:21:53.059Z</time></trkpt><trkpt lat="37.986414" lon="13.2907365"><ele>630.0</ele><time>2026-04-26T16:21:54.059Z</time></trkpt><trkpt lat="37.9864642" lon="13.2906475"><ele>630.0</ele><time>2026-04-26T16:21:55.059Z</time></trkpt><trkpt lat="37.9865145" lon="13.2905596"><ele>630.0</ele><time>2026-04-26T16:21:56.06Z</time></trkpt><trkpt lat="37.986558" lon="13.2904817"><ele>630.0</ele><time>2026-04-26T16:21:57.059Z</time></trkpt><trkpt lat="37.9865988" lon="13.2904069"><ele>630.0</ele><time>2026-04-26T16:21:58.059Z</time></trkpt><trkpt lat="37.9866415" lon="13.2903378"><ele>629.8333333333334</ele><time>2026-04-26T16:21:59.059Z</time></trkpt><trkpt lat="37.9866812" lon="13.2902749"><ele>629.6666666666666</ele><time>2026-04-26T16:22:00.06Z</time></trkpt><trkpt lat="37.986778" lon="13.2902139"><ele>629.5</ele><time>2026-04-26T16:22:02.059Z</time></trkpt><trkpt lat="37.986841" lon="13.290214"><ele>629.3333333333333</ele><time>2026-04-26T16:22:03.059Z</time></trkpt><trkpt lat="37.986921" lon="13.2902499"><ele>629.1666666666666</ele><time>2026-04-26T16:22:04.06Z</time></trkpt><trkpt lat="37.9870224" lon="13.2903173"><ele>629.0</ele><time>2026-04-26T16:22:05.059Z</time></trkpt><trkpt lat="37.9871388" lon="13.2904081"><ele>629.0</ele><time>2026-04-26T16:22:06.059Z</time></trkpt><trkpt lat="37.9872702" lon="13.2905131"><ele>629.0</ele><time>2026-04-26T16:22:07.059Z</time></trkpt><trkpt lat="37.9874142" lon="13.2906212"><ele>629.0</ele><time>2026-04-26T16:22:08.059Z</time></trkpt><trkpt lat="37.9875649" lon="13.2907308"><ele>627.3333333333333</ele><time>2026-04-26T16:22:09.059Z</time></trkpt><trkpt lat="37.9877172" lon="13.2908328"><ele>625.6666666666666</ele><time>2026-04-26T16:22:10.059Z</time></trkpt><trkpt lat="37.9878636" lon="13.2909331"><ele>624.0</ele><time>2026-04-26T16:22:11.059Z</time></trkpt><trkpt lat="37.9880132" lon="13.2910373"><ele>624.0</ele><time>2026-04-26T16:22:12.059Z</time></trkpt><trkpt lat="37.9881662" lon="13.2911395"><ele>624.0</ele><time>2026-04-26T16:22:13.059Z</time></trkpt><trkpt lat="37.9883205" lon="13.2912445"><ele>624.0</ele><time>2026-04-26T16:22:14.059Z</time></trkpt><trkpt lat="37.9884765" lon="13.2913532"><ele>622.6666666666666</ele><time>2026-04-26T16:22:15.059Z</time></trkpt><trkpt lat="37.9886293" lon="13.2914592"><ele>621.3333333333333</ele><time>2026-04-26T16:22:16.059Z</time></trkpt><trkpt lat="37.9887786" lon="13.2915672"><ele>620.0</ele><time>2026-04-26T16:22:17.059Z</time></trkpt><trkpt lat="37.9889221" lon="13.2916693"><ele>620.0</ele><time>2026-04-26T16:22:18.059Z</time></trkpt><trkpt lat="37.9890537" lon="13.2917607"><ele>620.0</ele><time>2026-04-26T16:22:19.059Z</time></trkpt><trkpt lat="37.9891793" lon="13.2918498"><ele>620.0</ele><time>2026-04-26T16:22:20.059Z</time></trkpt><trkpt lat="37.9892956" lon="13.2919249"><ele>620.0</ele><time>2026-04-26T16:22:21.059Z</time></trkpt><trkpt lat="37.9894035" lon="13.2919915"><ele>621.0</ele><time>2026-04-26T16:22:22.059Z</time></trkpt><trkpt lat="37.9895025" lon="13.2920512"><ele>622.0</ele><time>2026-04-26T16:22:23.059Z</time></trkpt><trkpt lat="37.9895908" lon="13.2921112"><ele>623.0</ele><time>2026-04-26T16:22:24.06Z</time></trkpt><trkpt lat="37.9896721" lon="13.2921689"><ele>624.0</ele><time>2026-04-26T16:22:25.059Z</time></trkpt><trkpt lat="37.9897535" lon="13.2922246"><ele>625.0</ele><time>2026-04-26T16:22:26.059Z</time></trkpt><trkpt lat="37.989839" lon="13.2922795"><ele>626.0</ele><time>2026-04-26T16:22:27.059Z</time></trkpt><trkpt lat="37.989923" lon="13.2923355"><ele>627.0</ele><time>2026-04-26T16:22:28.059Z</time></trkpt><trkpt lat="37.9900087" lon="13.2923932"><ele>628.0</ele><time>2026-04-26T16:22:29.059Z</time></trkpt><trkpt lat="37.9900987" lon="13.2924591"><ele>629.0</ele><time>2026-04-26T16:22:30.059Z</time></trkpt><trkpt lat="37.9901825" lon="13.2925158"><ele>630.0</ele><time>2026-04-26T16:22:31.059Z</time></trkpt><trkpt lat="37.9902558" lon="13.2925626"><ele>631.0</ele><time>2026-04-26T16:22:32.059Z</time></trkpt><trkpt lat="37.9903234" lon="13.2925943"><ele>632.0</ele><time>2026-04-26T16:22:33.059Z</time></trkpt><trkpt lat="37.9904458" lon="13.2926183"><ele>633.0</ele><time>2026-04-26T16:22:35.06Z</time></trkpt><trkpt lat="37.9905106" lon="13.2926156"><ele>634.0</ele><time>2026-04-26T16:22:36.059Z</time></trkpt><trkpt lat="37.9906311" lon="13.2926106"><ele>635.0</ele><time>2026-04-26T16:22:38.059Z</time></trkpt><trkpt lat="37.9907331" lon="13.2926016"><ele>635.4</ele><time>2026-04-26T16:22:40.059Z</time></trkpt><trkpt lat="37.990863" lon="13.2925819"><ele>635.8</ele><time>2026-04-26T16:22:42.059Z</time></trkpt><trkpt lat="37.9909322" lon="13.2925627"><ele>636.2</ele><time>2026-04-26T16:22:43.059Z</time></trkpt><trkpt lat="37.9910416" lon="13.2925253"><ele>636.6</ele><time>2026-04-26T16:22:45.059Z</time></trkpt><trkpt lat="37.9911267" lon="13.2924839"><ele>637.0</ele><time>2026-04-26T16:22:47.06Z</time></trkpt><trkpt lat="37.9911857" lon="13.292451"><ele>637.0</ele><time>2026-04-26T16:22:49.059Z</time></trkpt><trkpt lat="37.9912486" lon="13.2924182"><ele>637.0</ele><time>2026-04-26T16:22:52.059Z</time></trkpt><trkpt lat="37.9913132" lon="13.2923758"><ele>637.0</ele><time>2026-04-26T16:22:54.059Z</time></trkpt><trkpt lat="37.9913681" lon="13.2923226"><ele>637.0</ele><time>2026-04-26T16:22:56.059Z</time></trkpt><trkpt lat="37.9914481" lon="13.2922622"><ele>637.0</ele><time>2026-04-26T16:22:59.059Z</time></trkpt><trkpt lat="37.9915293" lon="13.2922248"><ele>637.0</ele><time>2026-04-26T16:23:02.059Z</time></trkpt><trkpt lat="37.9916382" lon="13.2921394"><ele>639.1666666666667</ele><time>2026-04-26T16:23:45.058Z</time></trkpt><trkpt lat="37.9917654" lon="13.2921262"><ele>641.3333333333334</ele><time>2026-04-26T16:23:47.058Z</time></trkpt><trkpt lat="37.9918354" lon="13.2921268"><ele>643.5</ele><time>2026-04-26T16:23:48.058Z</time></trkpt><trkpt lat="37.9919142" lon="13.2921192"><ele>645.6666666666666</ele><time>2026-04-26T16:23:49.058Z</time></trkpt><trkpt lat="37.991999" lon="13.2921137"><ele>647.8333333333333</ele><time>2026-04-26T16:23:50.058Z</time></trkpt><trkpt lat="37.9920856" lon="13.2920991"><ele>650.0</ele><time>2026-04-26T16:23:51.058Z</time></trkpt><trkpt lat="37.9921773" lon="13.2920833"><ele>650.0</ele><time>2026-04-26T16:23:52.058Z</time></trkpt><trkpt lat="37.9922705" lon="13.2920621"><ele>650.0</ele><time>2026-04-26T16:23:53.059Z</time></trkpt><trkpt lat="37.9923614" lon="13.2920402"><ele>650.0</ele><time>2026-04-26T16:23:54.058Z</time></trkpt><trkpt lat="37.9924451" lon="13.2920158"><ele>650.0</ele><time>2026-04-26T16:23:55.058Z</time></trkpt><trkpt lat="37.992522" lon="13.2919899"><ele>650.0</ele><time>2026-04-26T16:23:56.058Z</time></trkpt><trkpt lat="37.9925866" lon="13.2919537"><ele>650.0</ele><time>2026-04-26T16:23:57.059Z</time></trkpt><trkpt lat="37.9926486" lon="13.2919139"><ele>649.8333333333333</ele><time>2026-04-26T16:23:58.059Z</time></trkpt><trkpt lat="37.9927024" lon="13.2918721"><ele>649.6666666666666</ele><time>2026-04-26T16:23:59.059Z</time></trkpt><trkpt lat="37.9927486" lon="13.2918069"><ele>649.5</ele><time>2026-04-26T16:24:00.058Z</time></trkpt><trkpt lat="37.9927863" lon="13.2917293"><ele>649.3333333333334</ele><time>2026-04-26T16:24:01.058Z</time></trkpt><trkpt lat="37.9928088" lon="13.2916346"><ele>649.1666666666667</ele><time>2026-04-26T16:24:02.058Z</time></trkpt><trkpt lat="37.9928089" lon="13.2915284"><ele>649.0</ele><time>2026-04-26T16:24:03.058Z</time></trkpt><trkpt lat="37.9928023" lon="13.2914188"><ele>649.6666666666667</ele><time>2026-04-26T16:24:04.058Z</time></trkpt><trkpt lat="37.9927775" lon="13.2913075"><ele>650.3333333333334</ele><time>2026-04-26T16:24:05.058Z</time></trkpt><trkpt lat="37.9927506" lon="13.2912097"><ele>651.0</ele><time>2026-04-26T16:24:06.059Z</time></trkpt><trkpt lat="37.992732" lon="13.2911195"><ele>651.6666666666666</ele><time>2026-04-26T16:24:07.059Z</time></trkpt><trkpt lat="37.9927169" lon="13.2910298"><ele>652.3333333333333</ele><time>2026-04-26T16:24:08.058Z</time></trkpt><trkpt lat="37.9927022" lon="13.2909385"><ele>653.0</ele><time>2026-04-26T16:24:09.058Z</time></trkpt><trkpt lat="37.99269" lon="13.2908455"><ele>653.0000000000001</ele><time>2026-04-26T16:24:10.058Z</time></trkpt><trkpt lat="37.9926814" lon="13.2907603"><ele>653.0</ele><time>2026-04-26T16:24:11.058Z</time></trkpt><trkpt lat="37.9926652" lon="13.2906752"><ele>653.0</ele><time>2026-04-26T16:24:12.058Z</time></trkpt><trkpt lat="37.9926474" lon="13.2905814"><ele>653.0</ele><time>2026-04-26T16:24:13.058Z</time></trkpt><trkpt lat="37.9926287" lon="13.2904915"><ele>653.0</ele><time>2026-04-26T16:24:14.058Z</time></trkpt><trkpt lat="37.9926148" lon="13.2904043"><ele>653.0000000000001</ele><time>2026-04-26T16:24:15.059Z</time></trkpt><trkpt lat="37.9926067" lon="13.2903131"><ele>653.0</ele><time>2026-04-26T16:24:16.058Z</time></trkpt><trkpt lat="37.9926049" lon="13.2902195"><ele>652.5</ele><time>2026-04-26T16:24:17.058Z</time></trkpt><trkpt lat="37.9926169" lon="13.2901251"><ele>652.0</ele><time>2026-04-26T16:24:18.058Z</time></trkpt><trkpt lat="37.992645" lon="13.2900345"><ele>651.5</ele><time>2026-04-26T16:24:19.058Z</time></trkpt><trkpt lat="37.9926889" lon="13.2899457"><ele>651.0</ele><time>2026-04-26T16:24:20.058Z</time></trkpt><trkpt lat="37.9927436" lon="13.2898638"><ele>650.5</ele><time>2026-04-26T16:24:21.058Z</time></trkpt><trkpt lat="37.9928012" lon="13.2897879"><ele>650.0</ele><time>2026-04-26T16:24:22.059Z</time></trkpt><trkpt lat="37.9928608" lon="13.2897069"><ele>650.0</ele><time>2026-04-26T16:24:23.058Z</time></trkpt><trkpt lat="37.9929311" lon="13.2896073"><ele>650.0</ele><time>2026-04-26T16:24:24.058Z</time></trkpt><trkpt lat="37.9930138" lon="13.2894915"><ele>650.0</ele><time>2026-04-26T16:24:25.058Z</time></trkpt><trkpt lat="37.9931081" lon="13.2893623"><ele>650.0</ele><time>2026-04-26T16:24:26.058Z</time></trkpt><trkpt lat="37.9932067" lon="13.2892402"><ele>650.0</ele><time>2026-04-26T16:24:27.058Z</time></trkpt><trkpt lat="37.9933039" lon="13.2891161"><ele>650.0</ele><time>2026-04-26T16:24:28.058Z</time></trkpt><trkpt lat="37.993394" lon="13.2889941"><ele>650.0</ele><time>2026-04-26T16:24:29.058Z</time></trkpt><trkpt lat="37.993479" lon="13.2888814"><ele>650.0</ele><time>2026-04-26T16:24:30.058Z</time></trkpt><trkpt lat="37.9935566" lon="13.2887802"><ele>649.3333333333333</ele><time>2026-04-26T16:24:31.058Z</time></trkpt><trkpt lat="37.993622" lon="13.2886876"><ele>648.6666666666666</ele><time>2026-04-26T16:24:32.058Z</time></trkpt><trkpt lat="37.993681" lon="13.2886125"><ele>648.0</ele><time>2026-04-26T16:24:33.058Z</time></trkpt><trkpt lat="37.9937336" lon="13.2885456"><ele>647.3333333333334</ele><time>2026-04-26T16:24:34.058Z</time></trkpt><trkpt lat="37.9937843" lon="13.2884771"><ele>646.6666666666667</ele><time>2026-04-26T16:24:35.058Z</time></trkpt><trkpt lat="37.9938332" lon="13.2884141"><ele>646.0</ele><time>2026-04-26T16:24:36.058Z</time></trkpt><trkpt lat="37.9938807" lon="13.2883518"><ele>646.0</ele><time>2026-04-26T16:24:37.058Z</time></trkpt><trkpt lat="37.9939596" lon="13.2882579"><ele>646.0</ele><time>2026-04-26T16:24:39.058Z</time></trkpt><trkpt lat="37.9940082" lon="13.2881509"><ele>646.0</ele><time>2026-04-26T16:24:41.058Z</time></trkpt><trkpt lat="37.9940909" lon="13.2880351"><ele>646.0</ele><time>2026-04-26T16:24:43.058Z</time></trkpt><trkpt lat="37.9941421" lon="13.2879646"><ele>646.0</ele><time>2026-04-26T16:24:44.059Z</time></trkpt><trkpt lat="37.9941987" lon="13.2878997"><ele>647.3333333333334</ele><time>2026-04-26T16:24:45.059Z</time></trkpt><trkpt lat="37.994252" lon="13.2878286"><ele>648.6666666666667</ele><time>2026-04-26T16:24:46.059Z</time></trkpt><trkpt lat="37.994305" lon="13.2877618"><ele>650.0</ele><time>2026-04-26T16:24:47.058Z</time></trkpt><trkpt lat="37.9943518" lon="13.2876985"><ele>651.3333333333334</ele><time>2026-04-26T16:24:48.058Z</time></trkpt><trkpt lat="37.994437" lon="13.2875844"><ele>652.6666666666666</ele><time>2026-04-26T16:24:50.058Z</time></trkpt><trkpt lat="37.9944808" lon="13.2875239"><ele>654.0</ele><time>2026-04-26T16:24:51.058Z</time></trkpt><trkpt lat="37.9945283" lon="13.2874605"><ele>654.0</ele><time>2026-04-26T16:24:52.058Z</time></trkpt><trkpt lat="37.9945727" lon="13.2873978"><ele>654.0</ele><time>2026-04-26T16:24:53.058Z</time></trkpt><trkpt lat="37.9946215" lon="13.2873344"><ele>654.0</ele><time>2026-04-26T16:24:54.058Z</time></trkpt><trkpt lat="37.9946686" lon="13.2872652"><ele>654.0</ele><time>2026-04-26T16:24:55.058Z</time></trkpt><trkpt lat="37.9947236" lon="13.2872022"><ele>654.0</ele><time>2026-04-26T16:24:56.058Z</time></trkpt><trkpt lat="37.9947761" lon="13.2871341"><ele>654.0</ele><time>2026-04-26T16:24:57.058Z</time></trkpt><trkpt lat="37.9948255" lon="13.2870681"><ele>654.0</ele><time>2026-04-26T16:24:58.059Z</time></trkpt><trkpt lat="37.9948716" lon="13.2870042"><ele>654.2</ele><time>2026-04-26T16:24:59.058Z</time></trkpt><trkpt lat="37.9949138" lon="13.2869448"><ele>654.4000000000001</ele><time>2026-04-26T16:25:00.059Z</time></trkpt><trkpt lat="37.994995" lon="13.286839"><ele>654.6</ele><time>2026-04-26T16:25:02.058Z</time></trkpt><trkpt lat="37.9950376" lon="13.2867791"><ele>654.8</ele><time>2026-04-26T16:25:03.058Z</time></trkpt><trkpt lat="37.9951158" lon="13.2866703"><ele>655.0</ele><time>2026-04-26T16:25:05.059Z</time></trkpt><trkpt lat="37.9951946" lon="13.2865424"><ele>657.1666666666667</ele><time>2026-04-26T16:25:07.059Z</time></trkpt><trkpt lat="37.9952496" lon="13.2864458"><ele>659.3333333333334</ele><time>2026-04-26T16:25:08.058Z</time></trkpt><trkpt lat="37.9953094" lon="13.2863391"><ele>661.5</ele><time>2026-04-26T16:25:09.058Z</time></trkpt><trkpt lat="37.9953697" lon="13.2862448"><ele>663.6666666666666</ele><time>2026-04-26T16:25:10.058Z</time></trkpt><trkpt lat="37.9954178" lon="13.2861659"><ele>665.8333333333333</ele><time>2026-04-26T16:25:11.059Z</time></trkpt><trkpt lat="37.9954633" lon="13.2860956"><ele>668.0</ele><time>2026-04-26T16:25:12.058Z</time></trkpt><trkpt lat="37.9955255" lon="13.2859924"><ele>668.0</ele><time>2026-04-26T16:25:14.058Z</time></trkpt><trkpt lat="37.995588" lon="13.285905"><ele>668.0</ele><time>2026-04-26T16:25:17.058Z</time></trkpt><trkpt lat="37.9956405" lon="13.2858357"><ele>668.0</ele><time>2026-04-26T16:25:19.059Z</time></trkpt><trkpt lat="37.9956987" lon="13.2857576"><ele>668.0</ele><time>2026-04-26T16:25:22.058Z</time></trkpt><trkpt lat="37.9957453" lon="13.2856982"><ele>668.0</ele><time>2026-04-26T16:25:25.059Z</time></trkpt><trkpt lat="37.9958199" lon="13.2855889"><ele>668.0</ele><time>2026-04-26T16:25:27.058Z</time></trkpt><trkpt lat="37.9958686" lon="13.2855283"><ele>670.3333333333333</ele><time>2026-04-26T16:25:28.058Z</time></trkpt><trkpt lat="37.9959526" lon="13.2854112"><ele>672.6666666666666</ele><time>2026-04-26T16:25:30.058Z</time></trkpt><trkpt lat="37.9959992" lon="13.2853492"><ele>675.0</ele><time>2026-04-26T16:25:31.058Z</time></trkpt><trkpt lat="37.996046" lon="13.2852908"><ele>677.3333333333334</ele><time>2026-04-26T16:25:32.058Z</time></trkpt><trkpt lat="37.9960936" lon="13.2852287"><ele>679.6666666666667</ele><time>2026-04-26T16:25:33.059Z</time></trkpt><trkpt lat="37.9961434" lon="13.2851563"><ele>682.0</ele><time>2026-04-26T16:25:34.058Z</time></trkpt><trkpt lat="37.9962008" lon="13.2850826"><ele>682.0</ele><time>2026-04-26T16:25:35.058Z</time></trkpt><trkpt lat="37.9962586" lon="13.2850052"><ele>682.0</ele><time>2026-04-26T16:25:36.058Z</time></trkpt><trkpt lat="37.9963147" lon="13.2849268"><ele>682.0</ele><time>2026-04-26T16:25:37.058Z</time></trkpt><trkpt lat="37.99637" lon="13.2848554"><ele>682.0</ele><time>2026-04-26T16:25:38.058Z</time></trkpt><trkpt lat="37.9964219" lon="13.2847864"><ele>682.0</ele><time>2026-04-26T16:25:39.058Z</time></trkpt><trkpt lat="37.9964752" lon="13.2847169"><ele>682.0</ele><time>2026-04-26T16:25:40.058Z</time></trkpt><trkpt lat="37.996534" lon="13.2846393"><ele>682.0</ele><time>2026-04-26T16:25:41.058Z</time></trkpt><trkpt lat="37.9965984" lon="13.2845493"><ele>682.0</ele><time>2026-04-26T16:25:42.058Z</time></trkpt><trkpt lat="37.9966665" lon="13.2844554"><ele>682.0</ele><time>2026-04-26T16:25:43.058Z</time></trkpt><trkpt lat="37.9967371" lon="13.2843621"><ele>682.0</ele><time>2026-04-26T16:25:44.058Z</time></trkpt><trkpt lat="37.9968054" lon="13.2842645"><ele>682.0</ele><time>2026-04-26T16:25:45.058Z</time></trkpt><trkpt lat="37.996874" lon="13.2841665"><ele>683.8333333333334</ele><time>2026-04-26T16:25:46.059Z</time></trkpt><trkpt lat="37.9969396" lon="13.2840757"><ele>685.6666666666667</ele><time>2026-04-26T16:25:47.058Z</time></trkpt><trkpt lat="37.9969982" lon="13.2840003"><ele>687.5</ele><time>2026-04-26T16:25:48.059Z</time></trkpt><trkpt lat="37.9970436" lon="13.2839376"><ele>689.3333333333334</ele><time>2026-04-26T16:25:49.059Z</time></trkpt><trkpt lat="37.9971038" lon="13.2838388"><ele>691.1666666666666</ele><time>2026-04-26T16:25:51.058Z</time></trkpt><trkpt lat="37.9971516" lon="13.2837724"><ele>693.0</ele><time>2026-04-26T16:25:53.059Z</time></trkpt><trkpt lat="37.9972099" lon="13.283698"><ele>693.0</ele><time>2026-04-26T16:25:56.058Z</time></trkpt><trkpt lat="37.9972675" lon="13.2836433"><ele>693.0</ele><time>2026-04-26T16:25:59.058Z</time></trkpt><trkpt lat="37.9973183" lon="13.2835613"><ele>693.0</ele><time>2026-04-26T16:26:02.058Z</time></trkpt><trkpt lat="37.9973762" lon="13.2834769"><ele>693.0</ele><time>2026-04-26T16:26:04.058Z</time></trkpt><trkpt lat="37.9974349" lon="13.2833896"><ele>693.0</ele><time>2026-04-26T16:26:06.058Z</time></trkpt><trkpt lat="37.9974769" lon="13.2832925"><ele>693.0</ele><time>2026-04-26T16:26:08.058Z</time></trkpt><trkpt lat="37.9975167" lon="13.2832018"><ele>695.5</ele><time>2026-04-26T16:26:10.059Z</time></trkpt><trkpt lat="37.9975608" lon="13.2831202"><ele>698.0</ele><time>2026-04-26T16:26:12.058Z</time></trkpt><trkpt lat="37.9976079" lon="13.2830482"><ele>700.5</ele><time>2026-04-26T16:26:14.058Z</time></trkpt><trkpt lat="37.9976548" lon="13.2829663"><ele>703.0</ele><time>2026-04-26T16:26:16.059Z</time></trkpt><trkpt lat="37.9977053" lon="13.2828847"><ele>705.5</ele><time>2026-04-26T16:26:18.059Z</time></trkpt><trkpt lat="37.9977584" lon="13.2827806"><ele>708.0</ele><time>2026-04-26T16:26:20.113Z</time></trkpt><trkpt lat="37.9977792" lon="13.2826963"><ele>708.0</ele><time>2026-04-26T16:26:21.996Z</time></trkpt><trkpt lat="37.9977273" lon="13.282617"><ele>708.0</ele><time>2026-04-26T16:26:24.058Z</time></trkpt><trkpt lat="37.9976329" lon="13.2826278"><ele>708.0</ele><time>2026-04-26T16:26:26.053Z</time></trkpt><trkpt lat="37.997534" lon="13.2826475"><ele>708.0</ele><time>2026-04-26T16:26:28.058Z</time></trkpt><trkpt lat="37.9974402" lon="13.2826614"><ele>708.0</ele><time>2026-04-26T16:26:30.034Z</time></trkpt><trkpt lat="37.9973433" lon="13.2826669"><ele>706.0</ele><time>2026-04-26T16:26:32.072Z</time></trkpt><trkpt lat="37.9972441" lon="13.2826769"><ele>704.0</ele><time>2026-04-26T16:26:34.091Z</time></trkpt><trkpt lat="37.9971597" lon="13.282643"><ele>702.0</ele><time>2026-04-26T16:26:36.01Z</time></trkpt><trkpt lat="37.9970912" lon="13.2825655"><ele>700.0</ele><time>2026-04-26T16:26:38.058Z</time></trkpt><trkpt lat="37.9970262" lon="13.2824653"><ele>698.0</ele><time>2026-04-26T16:26:40.058Z</time></trkpt><trkpt lat="37.9969892" lon="13.2823485"><ele>698.0</ele><time>2026-04-26T16:26:42.058Z</time></trkpt><trkpt lat="37.9969248" lon="13.2822679"><ele>698.0</ele><time>2026-04-26T16:26:44.058Z</time></trkpt><trkpt lat="37.99685" lon="13.2822032"><ele>698.0</ele><time>2026-04-26T16:26:46.058Z</time></trkpt><trkpt lat="37.9967721" lon="13.2821431"><ele>698.0</ele><time>2026-04-26T16:26:48.059Z</time></trkpt><trkpt lat="37.9967032" lon="13.2820582"><ele>698.0</ele><time>2026-04-26T16:26:50.058Z</time></trkpt><trkpt lat="37.9966195" lon="13.2820089"><ele>699.4</ele><time>2026-04-26T16:26:52.058Z</time></trkpt><trkpt lat="37.996529" lon="13.2820117"><ele>700.8</ele><time>2026-04-26T16:26:54.058Z</time></trkpt><trkpt lat="37.9964519" lon="13.2819785"><ele>702.2</ele><time>2026-04-26T16:26:56.058Z</time></trkpt><trkpt lat="37.9964004" lon="13.281875"><ele>703.6</ele><time>2026-04-26T16:26:58.058Z</time></trkpt><trkpt lat="37.9963916" lon="13.2817443"><ele>705.0</ele><time>2026-04-26T16:27:00.058Z</time></trkpt><trkpt lat="37.9963902" lon="13.2816215"><ele>705.0</ele><time>2026-04-26T16:27:02.059Z</time></trkpt><trkpt lat="37.9963884" lon="13.2814996"><ele>705.0</ele><time>2026-04-26T16:27:04.058Z</time></trkpt><trkpt lat="37.9963948" lon="13.2813936"><ele>705.0</ele><time>2026-04-26T16:27:06.058Z</time></trkpt><trkpt lat="37.9964236" lon="13.2812937"><ele>705.0</ele><time>2026-04-26T16:27:08.058Z</time></trkpt><trkpt lat="37.9964477" lon="13.2811712"><ele>705.0</ele><time>2026-04-26T16:27:10.059Z</time></trkpt><trkpt lat="37.9964669" lon="13.2810354"><ele>706.6</ele><time>2026-04-26T16:27:12.058Z</time></trkpt><trkpt lat="37.9964782" lon="13.280921"><ele>708.2</ele><time>2026-04-26T16:27:14.059Z</time></trkpt><trkpt lat="37.9964832" lon="13.280815"><ele>709.8</ele><time>2026-04-26T16:27:16.058Z</time></trkpt><trkpt lat="37.9964534" lon="13.2807077"><ele>711.4</ele><time>2026-04-26T16:27:18.058Z</time></trkpt><trkpt lat="37.9963421" lon="13.2806644"><ele>713.0</ele><time>2026-04-26T16:27:20.058Z</time></trkpt><trkpt lat="37.9962347" lon="13.2806439"><ele>713.0</ele><time>2026-04-26T16:27:22.058Z</time></trkpt><trkpt lat="37.9961419" lon="13.2806273"><ele>713.0</ele><time>2026-04-26T16:27:24.059Z</time></trkpt><trkpt lat="37.9960459" lon="13.280623"><ele>713.0</ele><time>2026-04-26T16:27:26.058Z</time></trkpt><trkpt lat="37.9959607" lon="13.2806015"><ele>713.0</ele><time>2026-04-26T16:27:28.058Z</time></trkpt><trkpt lat="37.9958186" lon="13.2805662"><ele>713.0</ele><time>2026-04-26T16:27:30.058Z</time></trkpt><trkpt lat="37.9957261" lon="13.2805342"><ele>713.3333333333333</ele><time>2026-04-26T16:27:31.058Z</time></trkpt><trkpt lat="37.9956367" lon="13.2805024"><ele>713.6666666666666</ele><time>2026-04-26T16:27:32.058Z</time></trkpt><trkpt lat="37.9955663" lon="13.2804611"><ele>714.0</ele><time>2026-04-26T16:27:33.059Z</time></trkpt><trkpt lat="37.9955099" lon="13.2804067"><ele>714.3333333333334</ele><time>2026-04-26T16:27:34.058Z</time></trkpt><trkpt lat="37.9954678" lon="13.2803351"><ele>714.6666666666667</ele><time>2026-04-26T16:27:35.059Z</time></trkpt><trkpt lat="37.995448" lon="13.2802441"><ele>715.0</ele><time>2026-04-26T16:27:36.059Z</time></trkpt><trkpt lat="37.9954386" lon="13.2801493"><ele>715.0</ele><time>2026-04-26T16:27:37.059Z</time></trkpt><trkpt lat="37.9954335" lon="13.2800662"><ele>715.0</ele><time>2026-04-26T16:27:38.058Z</time></trkpt><trkpt lat="37.9954418" lon="13.279932"><ele>715.0</ele><time>2026-04-26T16:27:40.058Z</time></trkpt><trkpt lat="37.9954357" lon="13.2797763"><ele>715.0</ele><time>2026-04-26T16:27:42.059Z</time></trkpt><trkpt lat="37.9954293" lon="13.2796382"><ele>715.0</ele><time>2026-04-26T16:27:44.058Z</time></trkpt><trkpt lat="37.9954005" lon="13.2795251"><ele>716.4</ele><time>2026-04-26T16:27:46.058Z</time></trkpt><trkpt lat="37.9953821" lon="13.2794264"><ele>717.8</ele><time>2026-04-26T16:27:48.058Z</time></trkpt><trkpt lat="37.9953498" lon="13.2793256"><ele>719.2</ele><time>2026-04-26T16:27:51.058Z</time></trkpt><trkpt lat="37.9953188" lon="13.2792142"><ele>720.6</ele><time>2026-04-26T16:27:54.058Z</time></trkpt><trkpt lat="37.9952717" lon="13.2791215"><ele>722.0</ele><time>2026-04-26T16:27:56.058Z</time></trkpt><trkpt lat="37.9951537" lon="13.279078"><ele>722.0</ele><time>2026-04-26T16:27:58.058Z</time></trkpt><trkpt lat="37.9950753" lon="13.2790679"><ele>722.0</ele><time>2026-04-26T16:27:59.058Z</time></trkpt><trkpt lat="37.9949922" lon="13.2790656"><ele>722.0</ele><time>2026-04-26T16:28:00.058Z</time></trkpt><trkpt lat="37.9949114" lon="13.2790739"><ele>722.0</ele><time>2026-04-26T16:28:01.058Z</time></trkpt><trkpt lat="37.9948367" lon="13.2790936"><ele>722.0</ele><time>2026-04-26T16:28:02.058Z</time></trkpt><trkpt lat="37.9947686" lon="13.2791131"><ele>722.0</ele><time>2026-04-26T16:28:03.058Z</time></trkpt><trkpt lat="37.9946542" lon="13.2791446"><ele>722.1666666666666</ele><time>2026-04-26T16:28:05.058Z</time></trkpt><trkpt lat="37.994542" lon="13.2791157"><ele>722.3333333333333</ele><time>2026-04-26T16:28:07.058Z</time></trkpt><trkpt lat="37.994487" lon="13.2790752"><ele>722.5</ele><time>2026-04-26T16:28:08.058Z</time></trkpt><trkpt lat="37.9944467" lon="13.2790111"><ele>722.6666666666666</ele><time>2026-04-26T16:28:09.058Z</time></trkpt><trkpt lat="37.9944067" lon="13.2789259"><ele>722.8333333333334</ele><time>2026-04-26T16:28:10.058Z</time></trkpt><trkpt lat="37.9943747" lon="13.2787993"><ele>723.0</ele><time>2026-04-26T16:28:11.058Z</time></trkpt><trkpt lat="37.9943352" lon="13.2786412"><ele>723.0</ele><time>2026-04-26T16:28:12.058Z</time></trkpt><trkpt lat="37.9943006" lon="13.2784711"><ele>723.0</ele><time>2026-04-26T16:28:13.058Z</time></trkpt><trkpt lat="37.9942632" lon="13.2782892"><ele>723.0</ele><time>2026-04-26T16:28:14.058Z</time></trkpt><trkpt lat="37.9942304" lon="13.2781086"><ele>723.0</ele><time>2026-04-26T16:28:15.059Z</time></trkpt><trkpt lat="37.9941964" lon="13.2779474"><ele>722.5</ele><time>2026-04-26T16:28:16.059Z</time></trkpt><trkpt lat="37.9941628" lon="13.2777924"><ele>722.0</ele><time>2026-04-26T16:28:17.058Z</time></trkpt><trkpt lat="37.9941302" lon="13.2776424"><ele>721.5</ele><time>2026-04-26T16:28:18.058Z</time></trkpt><trkpt lat="37.994097" lon="13.2774885"><ele>721.0</ele><time>2026-04-26T16:28:19.058Z</time></trkpt><trkpt lat="37.9940647" lon="13.2773396"><ele>722.4</ele><time>2026-04-26T16:28:20.058Z</time></trkpt><trkpt lat="37.9940236" lon="13.2772001"><ele>723.8</ele><time>2026-04-26T16:28:21.059Z</time></trkpt><trkpt lat="37.9939715" lon="13.2770775"><ele>725.1999999999999</ele><time>2026-04-26T16:28:22.058Z</time></trkpt><trkpt lat="37.9939178" lon="13.2769766"><ele>726.5999999999999</ele><time>2026-04-26T16:28:23.058Z</time></trkpt><trkpt lat="37.9938653" lon="13.2768931"><ele>728.0</ele><time>2026-04-26T16:28:24.058Z</time></trkpt><trkpt lat="37.9938145" lon="13.2768185"><ele>728.0</ele><time>2026-04-26T16:28:25.058Z</time></trkpt><trkpt lat="37.9937633" lon="13.2767531"><ele>728.0</ele><time>2026-04-26T16:28:26.058Z</time></trkpt><trkpt lat="37.9937098" lon="13.2766952"><ele>728.0</ele><time>2026-04-26T16:28:27.058Z</time></trkpt><trkpt lat="37.9936515" lon="13.2766382"><ele>728.0</ele><time>2026-04-26T16:28:28.058Z</time></trkpt><trkpt lat="37.9935908" lon="13.2765762"><ele>728.0</ele><time>2026-04-26T16:28:29.058Z</time></trkpt><trkpt lat="37.9935313" lon="13.2765123"><ele>728.0</ele><time>2026-04-26T16:28:30.058Z</time></trkpt><trkpt lat="37.9934712" lon="13.276453"><ele>728.0</ele><time>2026-04-26T16:28:31.058Z</time></trkpt><trkpt lat="37.9934101" lon="13.2763992"><ele>729.4</ele><time>2026-04-26T16:28:32.058Z</time></trkpt><trkpt lat="37.9933487" lon="13.2763445"><ele>730.8</ele><time>2026-04-26T16:28:33.058Z</time></trkpt><trkpt lat="37.9932778" lon="13.2762987"><ele>732.2</ele><time>2026-04-26T16:28:34.058Z</time></trkpt><trkpt lat="37.9931874" lon="13.2762643"><ele>733.6</ele><time>2026-04-26T16:28:35.058Z</time></trkpt><trkpt lat="37.9930752" lon="13.2762486"><ele>735.0</ele><time>2026-04-26T16:28:36.059Z</time></trkpt><trkpt lat="37.9929463" lon="13.27624"><ele>735.0</ele><time>2026-04-26T16:28:37.059Z</time></trkpt><trkpt lat="37.9928103" lon="13.2762226"><ele>735.0</ele><time>2026-04-26T16:28:38.058Z</time></trkpt><trkpt lat="37.9926721" lon="13.2762065"><ele>735.0</ele><time>2026-04-26T16:28:39.058Z</time></trkpt><trkpt lat="37.9925253" lon="13.2761938"><ele>735.0</ele><time>2026-04-26T16:28:40.058Z</time></trkpt><trkpt lat="37.9923804" lon="13.276172"><ele>734.75</ele><time>2026-04-26T16:28:41.058Z</time></trkpt><trkpt lat="37.9922357" lon="13.276139"><ele>734.5</ele><time>2026-04-26T16:28:42.059Z</time></trkpt><trkpt lat="37.9920951" lon="13.2760855"><ele>734.25</ele><time>2026-04-26T16:28:43.058Z</time></trkpt><trkpt lat="37.9919668" lon="13.2760044"><ele>734.0</ele><time>2026-04-26T16:28:44.059Z</time></trkpt><trkpt lat="37.9918487" lon="13.2759115"><ele>734.0</ele><time>2026-04-26T16:28:45.058Z</time></trkpt><trkpt lat="37.9917332" lon="13.2758234"><ele>734.0</ele><time>2026-04-26T16:28:46.058Z</time></trkpt><trkpt lat="37.99162" lon="13.2757646"><ele>734.0</ele><time>2026-04-26T16:28:47.058Z</time></trkpt><trkpt lat="37.9915099" lon="13.2757365"><ele>734.0</ele><time>2026-04-26T16:28:48.058Z</time></trkpt><trkpt lat="37.9913813" lon="13.275746"><ele>734.6666666666666</ele><time>2026-04-26T16:28:49.058Z</time></trkpt><trkpt lat="37.9912402" lon="13.2757779"><ele>735.3333333333334</ele><time>2026-04-26T16:28:50.058Z</time></trkpt><trkpt lat="37.9910906" lon="13.275811"><ele>736.0</ele><time>2026-04-26T16:28:51.058Z</time></trkpt><trkpt lat="37.9909372" lon="13.2758453"><ele>737.0</ele><time>2026-04-26T16:28:52.058Z</time></trkpt><trkpt lat="37.9907784" lon="13.2758791"><ele>738.0</ele><time>2026-04-26T16:28:53.058Z</time></trkpt><trkpt lat="37.9906179" lon="13.2759147"><ele>739.0</ele><time>2026-04-26T16:28:54.058Z</time></trkpt><trkpt lat="37.9904646" lon="13.2759488"><ele>739.0</ele><time>2026-04-26T16:28:55.058Z</time></trkpt><trkpt lat="37.9903111" lon="13.2759771"><ele>739.0</ele><time>2026-04-26T16:28:56.058Z</time></trkpt><trkpt lat="37.9901591" lon="13.2760073"><ele>739.0</ele><time>2026-04-26T16:28:57.058Z</time></trkpt><trkpt lat="37.9900071" lon="13.2760405"><ele>740.6666666666667</ele><time>2026-04-26T16:28:58.058Z</time></trkpt><trkpt lat="37.9898576" lon="13.2760675"><ele>742.3333333333334</ele><time>2026-04-26T16:28:59.058Z</time></trkpt><trkpt lat="37.98971" lon="13.2760944"><ele>744.0</ele><time>2026-04-26T16:29:00.058Z</time></trkpt><trkpt lat="37.9895617" lon="13.276122"><ele>744.0</ele><time>2026-04-26T16:29:01.058Z</time></trkpt><trkpt lat="37.9894129" lon="13.2761519"><ele>744.0</ele><time>2026-04-26T16:29:02.058Z</time></trkpt><trkpt lat="37.9892707" lon="13.2761773"><ele>744.0</ele><time>2026-04-26T16:29:03.058Z</time></trkpt><trkpt lat="37.98914" lon="13.2761924"><ele>744.0</ele><time>2026-04-26T16:29:04.058Z</time></trkpt><trkpt lat="37.9890135" lon="13.2761856"><ele>744.5</ele><time>2026-04-26T16:29:05.058Z</time></trkpt><trkpt lat="37.9888901" lon="13.2761532"><ele>745.0</ele><time>2026-04-26T16:29:06.059Z</time></trkpt><trkpt lat="37.9887724" lon="13.2760851"><ele>745.5</ele><time>2026-04-26T16:29:07.058Z</time></trkpt><trkpt lat="37.9886544" lon="13.2759764"><ele>746.0</ele><time>2026-04-26T16:29:08.059Z</time></trkpt><trkpt lat="37.9885401" lon="13.2758318"><ele>746.0</ele><time>2026-04-26T16:29:09.058Z</time></trkpt><trkpt lat="37.9884305" lon="13.2756581"><ele>746.0</ele><time>2026-04-26T16:29:10.058Z</time></trkpt><trkpt lat="37.9883234" lon="13.2754808"><ele>746.0</ele><time>2026-04-26T16:29:11.058Z</time></trkpt><trkpt lat="37.9882123" lon="13.2752948"><ele>748.3333333333333</ele><time>2026-04-26T16:29:12.058Z</time></trkpt><trkpt lat="37.9880999" lon="13.2751151"><ele>750.6666666666666</ele><time>2026-04-26T16:29:13.058Z</time></trkpt><trkpt lat="37.9879922" lon="13.2749409"><ele>753.0</ele><time>2026-04-26T16:29:14.058Z</time></trkpt><trkpt lat="37.9878955" lon="13.2747796"><ele>753.25</ele><time>2026-04-26T16:29:15.058Z</time></trkpt><trkpt lat="37.9877985" lon="13.2746322"><ele>753.5</ele><time>2026-04-26T16:29:16.058Z</time></trkpt><trkpt lat="37.9877046" lon="13.2744989"><ele>753.75</ele><time>2026-04-26T16:29:17.058Z</time></trkpt><trkpt lat="37.9875957" lon="13.2743827"><ele>754.0</ele><time>2026-04-26T16:29:18.058Z</time></trkpt><trkpt lat="37.9874683" lon="13.274274"><ele>754.0</ele><time>2026-04-26T16:29:19.058Z</time></trkpt><trkpt lat="37.987328" lon="13.2741989"><ele>754.0</ele><time>2026-04-26T16:29:20.058Z</time></trkpt><trkpt lat="37.9871761" lon="13.2741635"><ele>754.0</ele><time>2026-04-26T16:29:21.058Z</time></trkpt><trkpt lat="37.9870062" lon="13.2741533"><ele>754.0</ele><time>2026-04-26T16:29:22.058Z</time></trkpt><trkpt lat="37.9868265" lon="13.274139"><ele>754.0</ele><time>2026-04-26T16:29:23.058Z</time></trkpt><trkpt lat="37.9866418" lon="13.2741235"><ele>754.0</ele><time>2026-04-26T16:29:24.059Z</time></trkpt><trkpt lat="37.9864616" lon="13.2741009"><ele>755.0</ele><time>2026-04-26T16:29:25.058Z</time></trkpt><trkpt lat="37.9862867" lon="13.274086"><ele>756.0</ele><time>2026-04-26T16:29:26.058Z</time></trkpt><trkpt lat="37.986117" lon="13.2740642"><ele>757.0</ele><time>2026-04-26T16:29:27.058Z</time></trkpt><trkpt lat="37.9859598" lon="13.2740341"><ele>757.25</ele><time>2026-04-26T16:29:28.058Z</time></trkpt><trkpt lat="37.9858206" lon="13.2739986"><ele>757.5</ele><time>2026-04-26T16:29:29.058Z</time></trkpt><trkpt lat="37.9856875" lon="13.2739582"><ele>757.75</ele><time>2026-04-26T16:29:30.058Z</time></trkpt><trkpt lat="37.9855534" lon="13.2738912"><ele>758.0</ele><time>2026-04-26T16:29:31.059Z</time></trkpt><trkpt lat="37.9854208" lon="13.2737943"><ele>764.0</ele><time>2026-04-26T16:29:32.058Z</time></trkpt><trkpt lat="37.9852932" lon="13.2736715"><ele>770.0</ele><time>2026-04-26T16:29:33.058Z</time></trkpt><trkpt lat="37.9851776" lon="13.2735231"><ele>776.0</ele><time>2026-04-26T16:29:34.058Z</time></trkpt><trkpt lat="37.9850719" lon="13.2733654"><ele>777.3333333333334</ele><time>2026-04-26T16:29:35.058Z</time></trkpt><trkpt lat="37.9849754" lon="13.273187"><ele>778.6666666666667</ele><time>2026-04-26T16:29:36.058Z</time></trkpt><trkpt lat="37.984878" lon="13.2730152"><ele>780.0</ele><time>2026-04-26T16:29:37.059Z</time></trkpt><trkpt lat="37.9847765" lon="13.2728473"><ele>780.0</ele><time>2026-04-26T16:29:38.058Z</time></trkpt><trkpt lat="37.9846696" lon="13.2726849"><ele>780.0</ele><time>2026-04-26T16:29:39.058Z</time></trkpt><trkpt lat="37.9845499" lon="13.2725296"><ele>780.0</ele><time>2026-04-26T16:29:40.058Z</time></trkpt><trkpt lat="37.9844174" lon="13.2723849"><ele>780.0</ele><time>2026-04-26T16:29:41.058Z</time></trkpt><trkpt lat="37.9842724" lon="13.2722479"><ele>780.0</ele><time>2026-04-26T16:29:42.059Z</time></trkpt><trkpt lat="37.9841221" lon="13.2721158"><ele>780.0</ele><time>2026-04-26T16:29:43.058Z</time></trkpt><trkpt lat="37.9839733" lon="13.2719879"><ele>780.0</ele><time>2026-04-26T16:29:44.058Z</time></trkpt><trkpt lat="37.9838249" lon="13.2718623"><ele>780.0</ele><time>2026-04-26T16:29:45.058Z</time></trkpt><trkpt lat="37.9836805" lon="13.2717373"><ele>780.0</ele><time>2026-04-26T16:29:46.058Z</time></trkpt><trkpt lat="37.9835423" lon="13.2716202"><ele>780.0</ele><time>2026-04-26T16:29:47.058Z</time></trkpt><trkpt lat="37.9834192" lon="13.271513"><ele>780.0</ele><time>2026-04-26T16:29:48.058Z</time></trkpt><trkpt lat="37.9833052" lon="13.2714159"><ele>780.0</ele><time>2026-04-26T16:29:49.058Z</time></trkpt><trkpt lat="37.9832023" lon="13.2713187"><ele>780.0</ele><time>2026-04-26T16:29:50.058Z</time></trkpt><trkpt lat="37.9831009" lon="13.2712053"><ele>783.3333333333333</ele><time>2026-04-26T16:29:51.058Z</time></trkpt><trkpt lat="37.9830087" lon="13.2710597"><ele>786.6666666666666</ele><time>2026-04-26T16:29:52.058Z</time></trkpt><trkpt lat="37.9829189" lon="13.2708843"><ele>790.0</ele><time>2026-04-26T16:29:53.059Z</time></trkpt><trkpt lat="37.9828412" lon="13.2706868"><ele>796.0</ele><time>2026-04-26T16:29:54.058Z</time></trkpt><trkpt lat="37.9827658" lon="13.2704827"><ele>802.0</ele><time>2026-04-26T16:29:55.058Z</time></trkpt><trkpt lat="37.982696" lon="13.2702946"><ele>808.0</ele><time>2026-04-26T16:29:56.059Z</time></trkpt><trkpt lat="37.9826303" lon="13.2701221"><ele>808.0</ele><time>2026-04-26T16:29:57.058Z</time></trkpt><trkpt lat="37.9825645" lon="13.2699719"><ele>808.0</ele><time>2026-04-26T16:29:58.058Z</time></trkpt><trkpt lat="37.9824925" lon="13.2698342"><ele>808.0</ele><time>2026-04-26T16:29:59.058Z</time></trkpt><trkpt lat="37.982392" lon="13.269709"><ele>808.0</ele><time>2026-04-26T16:30:00.058Z</time></trkpt><trkpt lat="37.9822651" lon="13.2696076"><ele>807.6666666666666</ele><time>2026-04-26T16:30:01.059Z</time></trkpt><trkpt lat="37.9821211" lon="13.2695097"><ele>807.3333333333333</ele><time>2026-04-26T16:30:02.058Z</time></trkpt><trkpt lat="37.9819714" lon="13.2694133"><ele>807.0</ele><time>2026-04-26T16:30:03.058Z</time></trkpt><trkpt lat="37.9818239" lon="13.2693187"><ele>807.0</ele><time>2026-04-26T16:30:04.058Z</time></trkpt><trkpt lat="37.9816881" lon="13.269225"><ele>807.0</ele><time>2026-04-26T16:30:05.058Z</time></trkpt><trkpt lat="37.9815564" lon="13.2691369"><ele>807.0</ele><time>2026-04-26T16:30:06.058Z</time></trkpt><trkpt lat="37.9814223" lon="13.2690587"><ele>807.75</ele><time>2026-04-26T16:30:07.058Z</time></trkpt><trkpt lat="37.9812819" lon="13.2690013"><ele>808.5</ele><time>2026-04-26T16:30:08.058Z</time></trkpt><trkpt lat="37.9811346" lon="13.2689626"><ele>809.25</ele><time>2026-04-26T16:30:09.058Z</time></trkpt><trkpt lat="37.9809916" lon="13.2689403"><ele>810.0</ele><time>2026-04-26T16:30:10.058Z</time></trkpt><trkpt lat="37.9808564" lon="13.2689196"><ele>808.75</ele><time>2026-04-26T16:30:11.058Z</time></trkpt><trkpt lat="37.9807351" lon="13.2688904"><ele>807.5</ele><time>2026-04-26T16:30:12.058Z</time></trkpt><trkpt lat="37.9806207" lon="13.2688463"><ele>806.25</ele><time>2026-04-26T16:30:13.058Z</time></trkpt><trkpt lat="37.9805121" lon="13.268785"><ele>805.0</ele><time>2026-04-26T16:30:14.058Z</time></trkpt><trkpt lat="37.9804032" lon="13.2687067"><ele>805.0</ele><time>2026-04-26T16:30:15.058Z</time></trkpt><trkpt lat="37.9802897" lon="13.2686"><ele>805.0</ele><time>2026-04-26T16:30:16.058Z</time></trkpt><trkpt lat="37.9801722" lon="13.2684774"><ele>805.0</ele><time>2026-04-26T16:30:17.058Z</time></trkpt><trkpt lat="37.9800549" lon="13.2683528"><ele>805.0</ele><time>2026-04-26T16:30:18.058Z</time></trkpt><trkpt lat="37.9799417" lon="13.2682219"><ele>806.5</ele><time>2026-04-26T16:30:19.058Z</time></trkpt><trkpt lat="37.9798295" lon="13.2680952"><ele>808.0</ele><time>2026-04-26T16:30:20.058Z</time></trkpt><trkpt lat="37.9797156" lon="13.267974"><ele>809.5</ele><time>2026-04-26T16:30:21.058Z</time></trkpt><trkpt lat="37.9796033" lon="13.2678476"><ele>811.0</ele><time>2026-04-26T16:30:22.058Z</time></trkpt><trkpt lat="37.9794962" lon="13.2677306"><ele>811.0</ele><time>2026-04-26T16:30:23.058Z</time></trkpt><trkpt lat="37.9794" lon="13.267619"><ele>811.0</ele><time>2026-04-26T16:30:24.058Z</time></trkpt><trkpt lat="37.9793176" lon="13.2675135"><ele>811.0</ele><time>2026-04-26T16:30:25.058Z</time></trkpt><trkpt lat="37.9792386" lon="13.2674005"><ele>811.0</ele><time>2026-04-26T16:30:26.059Z</time></trkpt><trkpt lat="37.9791681" lon="13.2672555"><ele>811.6666666666666</ele><time>2026-04-26T16:30:27.058Z</time></trkpt><trkpt lat="37.9791056" lon="13.2670853"><ele>812.3333333333333</ele><time>2026-04-26T16:30:28.058Z</time></trkpt><trkpt lat="37.9790601" lon="13.2668938"><ele>813.0</ele><time>2026-04-26T16:30:29.058Z</time></trkpt><trkpt lat="37.9790312" lon="13.2666975"><ele>813.0</ele><time>2026-04-26T16:30:30.058Z</time></trkpt><trkpt lat="37.9790249" lon="13.2664997"><ele>813.0</ele><time>2026-04-26T16:30:31.058Z</time></trkpt><trkpt lat="37.9790258" lon="13.2663029"><ele>813.0</ele><time>2026-04-26T16:30:32.058Z</time></trkpt><trkpt lat="37.9790019" lon="13.2661019"><ele>816.3333333333333</ele><time>2026-04-26T16:30:33.058Z</time></trkpt><trkpt lat="37.9789446" lon="13.2659021"><ele>819.6666666666666</ele><time>2026-04-26T16:30:34.058Z</time></trkpt><trkpt lat="37.9788608" lon="13.2656988"><ele>823.0</ele><time>2026-04-26T16:30:35.058Z</time></trkpt><trkpt lat="37.9787751" lon="13.2654946"><ele>828.6666666666666</ele><time>2026-04-26T16:30:36.058Z</time></trkpt><trkpt lat="37.9786989" lon="13.2652899"><ele>834.3333333333333</ele><time>2026-04-26T16:30:37.058Z</time></trkpt><trkpt lat="37.9786272" lon="13.2650808"><ele>840.0</ele><time>2026-04-26T16:30:38.058Z</time></trkpt><trkpt lat="37.978555" lon="13.264868"><ele>836.3333333333333</ele><time>2026-04-26T16:30:39.058Z</time></trkpt><trkpt lat="37.9784828" lon="13.2646509"><ele>832.6666666666666</ele><time>2026-04-26T16:30:40.058Z</time></trkpt><trkpt lat="37.9784124" lon="13.2644266"><ele>829.0</ele><time>2026-04-26T16:30:41.058Z</time></trkpt><trkpt lat="37.9783362" lon="13.264196"><ele>829.0</ele><time>2026-04-26T16:30:42.058Z</time></trkpt><trkpt lat="37.9782558" lon="13.263959"><ele>829.0</ele><time>2026-04-26T16:30:43.059Z</time></trkpt><trkpt lat="37.9781766" lon="13.2637131"><ele>829.0</ele><time>2026-04-26T16:30:44.058Z</time></trkpt><trkpt lat="37.9780965" lon="13.2634637"><ele>833.3333333333333</ele><time>2026-04-26T16:30:45.058Z</time></trkpt><trkpt lat="37.9780188" lon="13.263212"><ele>837.6666666666667</ele><time>2026-04-26T16:30:46.058Z</time></trkpt><trkpt lat="37.977944" lon="13.262969"><ele>842.0</ele><time>2026-04-26T16:30:47.058Z</time></trkpt><trkpt lat="37.9778703" lon="13.2627327"><ele>844.6666666666667</ele><time>2026-04-26T16:30:48.059Z</time></trkpt><trkpt lat="37.9778004" lon="13.2625053"><ele>847.3333333333333</ele><time>2026-04-26T16:30:49.059Z</time></trkpt><trkpt lat="37.9777313" lon="13.2622946"><ele>850.0</ele><time>2026-04-26T16:30:50.058Z</time></trkpt><trkpt lat="37.9776587" lon="13.2621014"><ele>852.0</ele><time>2026-04-26T16:30:51.058Z</time></trkpt><trkpt lat="37.9775702" lon="13.2619217"><ele>854.0</ele><time>2026-04-26T16:30:52.058Z</time></trkpt><trkpt lat="37.9774644" lon="13.2617561"><ele>856.0</ele><time>2026-04-26T16:30:53.058Z</time></trkpt><trkpt lat="37.9773417" lon="13.2616021"><ele>853.3333333333333</ele><time>2026-04-26T16:30:54.059Z</time></trkpt><trkpt lat="37.9772125" lon="13.2614471"><ele>850.6666666666667</ele><time>2026-04-26T16:30:55.058Z</time></trkpt><trkpt lat="37.9770809" lon="13.2612886"><ele>848.0</ele><time>2026-04-26T16:30:56.058Z</time></trkpt><trkpt lat="37.9769499" lon="13.2611243"><ele>848.0</ele><time>2026-04-26T16:30:57.058Z</time></trkpt><trkpt lat="37.9768306" lon="13.260948"><ele>848.0</ele><time>2026-04-26T16:30:58.058Z</time></trkpt><trkpt lat="37.9767246" lon="13.2607634"><ele>848.0</ele><time>2026-04-26T16:30:59.058Z</time></trkpt><trkpt lat="37.9766371" lon="13.2605799"><ele>846.6666666666667</ele><time>2026-04-26T16:31:00.058Z</time></trkpt><trkpt lat="37.976572" lon="13.2603722"><ele>845.3333333333333</ele><time>2026-04-26T16:31:01.058Z</time></trkpt><trkpt lat="37.9765208" lon="13.2601493"><ele>844.0</ele><time>2026-04-26T16:31:02.058Z</time></trkpt><trkpt lat="37.9764796" lon="13.2599175"><ele>847.3333333333333</ele><time>2026-04-26T16:31:03.058Z</time></trkpt><trkpt lat="37.9764316" lon="13.2596839"><ele>850.6666666666667</ele><time>2026-04-26T16:31:04.058Z</time></trkpt><trkpt lat="37.9763806" lon="13.2594455"><ele>854.0</ele><time>2026-04-26T16:31:05.058Z</time></trkpt><trkpt lat="37.9763261" lon="13.2592047"><ele>854.0</ele><time>2026-04-26T16:31:06.058Z</time></trkpt><trkpt lat="37.9762766" lon="13.2589674"><ele>854.0</ele><time>2026-04-26T16:31:07.059Z</time></trkpt><trkpt lat="37.976233" lon="13.2587416"><ele>854.0</ele><time>2026-04-26T16:31:08.058Z</time></trkpt><trkpt lat="37.9762013" lon="13.2585192"><ele>856.0</ele><time>2026-04-26T16:31:09.058Z</time></trkpt><trkpt lat="37.9761929" lon="13.258287"><ele>858.0</ele><time>2026-04-26T16:31:10.058Z</time></trkpt><trkpt lat="37.9761996" lon="13.2580572"><ele>860.0</ele><time>2026-04-26T16:31:11.058Z</time></trkpt><trkpt lat="37.9762104" lon="13.2578346"><ele>861.3333333333334</ele><time>2026-04-26T16:31:12.058Z</time></trkpt><trkpt lat="37.9762233" lon="13.257616"><ele>862.6666666666667</ele><time>2026-04-26T16:31:13.059Z</time></trkpt><trkpt lat="37.9762344" lon="13.257396"><ele>864.0</ele><time>2026-04-26T16:31:14.059Z</time></trkpt><trkpt lat="37.9762489" lon="13.2571694"><ele>864.3333333333333</ele><time>2026-04-26T16:31:15.058Z</time></trkpt><trkpt lat="37.9762632" lon="13.2569274"><ele>864.6666666666666</ele><time>2026-04-26T16:31:16.058Z</time></trkpt><trkpt lat="37.9762783" lon="13.2566735"><ele>865.0</ele><time>2026-04-26T16:31:17.059Z</time></trkpt><trkpt lat="37.9762946" lon="13.2564111"><ele>863.6666666666666</ele><time>2026-04-26T16:31:18.058Z</time></trkpt><trkpt lat="37.9763107" lon="13.2561524"><ele>862.3333333333333</ele><time>2026-04-26T16:31:19.058Z</time></trkpt><trkpt lat="37.9763265" lon="13.2559078"><ele>861.0</ele><time>2026-04-26T16:31:20.059Z</time></trkpt><trkpt lat="37.9763389" lon="13.2556748"><ele>860.0</ele><time>2026-04-26T16:31:21.058Z</time></trkpt><trkpt lat="37.9763465" lon="13.2554531"><ele>859.0</ele><time>2026-04-26T16:31:22.058Z</time></trkpt><trkpt lat="37.9763567" lon="13.2552359"><ele>858.0</ele><time>2026-04-26T16:31:23.058Z</time></trkpt><trkpt lat="37.9763693" lon="13.2550164"><ele>857.3333333333333</ele><time>2026-04-26T16:31:24.059Z</time></trkpt><trkpt lat="37.9763821" lon="13.2547874"><ele>856.6666666666666</ele><time>2026-04-26T16:31:25.059Z</time></trkpt><trkpt lat="37.9763947" lon="13.2545444"><ele>856.0</ele><time>2026-04-26T16:31:26.058Z</time></trkpt><trkpt lat="37.9764062" lon="13.2543003"><ele>856.0</ele><time>2026-04-26T16:31:27.058Z</time></trkpt><trkpt lat="37.9764178" lon="13.2540518"><ele>856.0</ele><time>2026-04-26T16:31:28.058Z</time></trkpt><trkpt lat="37.9764287" lon="13.2537945"><ele>856.0</ele><time>2026-04-26T16:31:29.058Z</time></trkpt><trkpt lat="37.9764436" lon="13.2535318"><ele>855.0</ele><time>2026-04-26T16:31:30.058Z</time></trkpt><trkpt lat="37.9764502" lon="13.2532683"><ele>854.0</ele><time>2026-04-26T16:31:31.058Z</time></trkpt><trkpt lat="37.9764437" lon="13.2530009"><ele>853.0</ele><time>2026-04-26T16:31:32.059Z</time></trkpt><trkpt lat="37.9764164" lon="13.252727"><ele>851.6666666666666</ele><time>2026-04-26T16:31:33.059Z</time></trkpt><trkpt lat="37.9763836" lon="13.2524494"><ele>850.3333333333333</ele><time>2026-04-26T16:31:34.058Z</time></trkpt><trkpt lat="37.976347" lon="13.2521661"><ele>849.0</ele><time>2026-04-26T16:31:35.059Z</time></trkpt><trkpt lat="37.9763158" lon="13.2518857"><ele>847.3333333333333</ele><time>2026-04-26T16:31:36.058Z</time></trkpt><trkpt lat="37.9762845" lon="13.2516126"><ele>845.6666666666666</ele><time>2026-04-26T16:31:37.058Z</time></trkpt><trkpt lat="37.9762578" lon="13.2513616"><ele>844.0</ele><time>2026-04-26T16:31:38.058Z</time></trkpt><trkpt lat="37.9762528" lon="13.2511451"><ele>843.0</ele><time>2026-04-26T16:31:39.059Z</time></trkpt><trkpt lat="37.9762763" lon="13.2509718"><ele>842.0</ele><time>2026-04-26T16:31:40.058Z</time></trkpt><trkpt lat="37.9763207" lon="13.2508243"><ele>841.0</ele><time>2026-04-26T16:31:41.058Z</time></trkpt><trkpt lat="37.9763868" lon="13.2506817"><ele>840.0</ele><time>2026-04-26T16:31:42.058Z</time></trkpt><trkpt lat="37.9764569" lon="13.2505322"><ele>839.75</ele><time>2026-04-26T16:31:43.059Z</time></trkpt><trkpt lat="37.9765266" lon="13.250372"><ele>839.5</ele><time>2026-04-26T16:31:44.058Z</time></trkpt><trkpt lat="37.9765926" lon="13.2502081"><ele>839.25</ele><time>2026-04-26T16:31:45.059Z</time></trkpt><trkpt lat="37.9766509" lon="13.2500534"><ele>839.0</ele><time>2026-04-26T16:31:46.058Z</time></trkpt><trkpt lat="37.9766762" lon="13.2498978"><ele>837.25</ele><time>2026-04-26T16:31:47.058Z</time></trkpt><trkpt lat="37.9766579" lon="13.2497475"><ele>835.5</ele><time>2026-04-26T16:31:48.059Z</time></trkpt><trkpt lat="37.9766006" lon="13.249616"><ele>833.75</ele><time>2026-04-26T16:31:49.058Z</time></trkpt><trkpt lat="37.9765273" lon="13.2495057"><ele>832.0</ele><time>2026-04-26T16:31:50.058Z</time></trkpt><trkpt lat="37.9764369" lon="13.2493846"><ele>832.0</ele><time>2026-04-26T16:31:51.058Z</time></trkpt><trkpt lat="37.9763386" lon="13.249254"><ele>832.0</ele><time>2026-04-26T16:31:52.058Z</time></trkpt><trkpt lat="37.9762443" lon="13.2491265"><ele>832.0</ele><time>2026-04-26T16:31:53.058Z</time></trkpt><trkpt lat="37.9761594" lon="13.2490023"><ele>832.0</ele><time>2026-04-26T16:31:54.058Z</time></trkpt><trkpt lat="37.9760915" lon="13.2488632"><ele>830.75</ele><time>2026-04-26T16:31:55.058Z</time></trkpt><trkpt lat="37.9760539" lon="13.2487077"><ele>829.5</ele><time>2026-04-26T16:31:56.059Z</time></trkpt><trkpt lat="37.9760389" lon="13.2485247"><ele>828.25</ele><time>2026-04-26T16:31:57.058Z</time></trkpt><trkpt lat="37.9760375" lon="13.2483332"><ele>827.0</ele><time>2026-04-26T16:31:58.059Z</time></trkpt><trkpt lat="37.976035" lon="13.248137"><ele>824.6666666666667</ele><time>2026-04-26T16:31:59.058Z</time></trkpt><trkpt lat="37.97603" lon="13.2479389"><ele>822.3333333333333</ele><time>2026-04-26T16:32:00.058Z</time></trkpt><trkpt lat="37.9760229" lon="13.2477463"><ele>820.0</ele><time>2026-04-26T16:32:01.058Z</time></trkpt><trkpt lat="37.9760095" lon="13.2475554"><ele>820.0</ele><time>2026-04-26T16:32:02.058Z</time></trkpt><trkpt lat="37.9760014" lon="13.2473701"><ele>820.0</ele><time>2026-04-26T16:32:03.058Z</time></trkpt><trkpt lat="37.9759944" lon="13.2471909"><ele>820.0</ele><time>2026-04-26T16:32:04.058Z</time></trkpt><trkpt lat="37.9759946" lon="13.2470171"><ele>820.0</ele><time>2026-04-26T16:32:05.058Z</time></trkpt><trkpt lat="37.9760145" lon="13.2468598"><ele>818.5</ele><time>2026-04-26T16:32:06.058Z</time></trkpt><trkpt lat="37.9760656" lon="13.2467084"><ele>817.0</ele><time>2026-04-26T16:32:07.058Z</time></trkpt><trkpt lat="37.9761492" lon="13.2465659"><ele>815.5</ele><time>2026-04-26T16:32:08.058Z</time></trkpt><trkpt lat="37.9762424" lon="13.2464402"><ele>814.0</ele><time>2026-04-26T16:32:09.059Z</time></trkpt><trkpt lat="37.9763267" lon="13.2463134"><ele>813.75</ele><time>2026-04-26T16:32:10.059Z</time></trkpt><trkpt lat="37.9763818" lon="13.2461729"><ele>813.5</ele><time>2026-04-26T16:32:11.058Z</time></trkpt><trkpt lat="37.9764109" lon="13.2460176"><ele>813.25</ele><time>2026-04-26T16:32:12.058Z</time></trkpt><trkpt lat="37.9764178" lon="13.2458561"><ele>813.0</ele><time>2026-04-26T16:32:13.058Z</time></trkpt><trkpt lat="37.9763996" lon="13.2456906"><ele>812.5</ele><time>2026-04-26T16:32:14.058Z</time></trkpt><trkpt lat="37.9763728" lon="13.2455218"><ele>812.0</ele><time>2026-04-26T16:32:15.058Z</time></trkpt><trkpt lat="37.9763504" lon="13.245349"><ele>811.5</ele><time>2026-04-26T16:32:16.058Z</time></trkpt><trkpt lat="37.9763419" lon="13.245178"><ele>811.0</ele><time>2026-04-26T16:32:17.058Z</time></trkpt><trkpt lat="37.9763569" lon="13.2449971"><ele>811.0</ele><time>2026-04-26T16:32:18.058Z</time></trkpt><trkpt lat="37.9763917" lon="13.2448144"><ele>811.0</ele><time>2026-04-26T16:32:19.058Z</time></trkpt><trkpt lat="37.9764342" lon="13.2446223"><ele>811.0</ele><time>2026-04-26T16:32:20.059Z</time></trkpt><trkpt lat="37.9764913" lon="13.2444392"><ele>810.5</ele><time>2026-04-26T16:32:21.058Z</time></trkpt><trkpt lat="37.9765606" lon="13.2442797"><ele>810.0</ele><time>2026-04-26T16:32:22.058Z</time></trkpt><trkpt lat="37.9766234" lon="13.2441472"><ele>809.5</ele><time>2026-04-26T16:32:23.058Z</time></trkpt><trkpt lat="37.976676" lon="13.2440339"><ele>809.0</ele><time>2026-04-26T16:32:24.059Z</time></trkpt><trkpt lat="37.9767193" lon="13.2439221"><ele>808.2</ele><time>2026-04-26T16:32:25.058Z</time></trkpt><trkpt lat="37.976747" lon="13.2438132"><ele>807.4000000000001</ele><time>2026-04-26T16:32:26.058Z</time></trkpt><trkpt lat="37.9767491" lon="13.2436885"><ele>806.6</ele><time>2026-04-26T16:32:27.058Z</time></trkpt><trkpt lat="37.9767206" lon="13.2435451"><ele>805.8</ele><time>2026-04-26T16:32:28.058Z</time></trkpt><trkpt lat="37.9766624" lon="13.2434037"><ele>805.0</ele><time>2026-04-26T16:32:29.058Z</time></trkpt><trkpt lat="37.9765738" lon="13.243272"><ele>805.0</ele><time>2026-04-26T16:32:30.058Z</time></trkpt><trkpt lat="37.9764729" lon="13.2431397"><ele>805.0</ele><time>2026-04-26T16:32:31.058Z</time></trkpt><trkpt lat="37.9763718" lon="13.2430053"><ele>805.0</ele><time>2026-04-26T16:32:32.058Z</time></trkpt><trkpt lat="37.9762767" lon="13.2428692"><ele>805.0</ele><time>2026-04-26T16:32:33.058Z</time></trkpt><trkpt lat="37.9761959" lon="13.2427243"><ele>802.75</ele><time>2026-04-26T16:32:34.058Z</time></trkpt><trkpt lat="37.9761201" lon="13.2425697"><ele>800.5</ele><time>2026-04-26T16:32:35.058Z</time></trkpt><trkpt lat="37.9760499" lon="13.242411"><ele>798.25</ele><time>2026-04-26T16:32:36.058Z</time></trkpt><trkpt lat="37.9759799" lon="13.2422452"><ele>796.0</ele><time>2026-04-26T16:32:37.058Z</time></trkpt><trkpt lat="37.9759134" lon="13.2420829"><ele>795.0</ele><time>2026-04-26T16:32:38.058Z</time></trkpt><trkpt lat="37.9758596" lon="13.2419184"><ele>794.0</ele><time>2026-04-26T16:32:39.058Z</time></trkpt><trkpt lat="37.9758155" lon="13.2417621"><ele>793.0</ele><time>2026-04-26T16:32:40.058Z</time></trkpt><trkpt lat="37.9757857" lon="13.2416021"><ele>792.0</ele><time>2026-04-26T16:32:41.058Z</time></trkpt><trkpt lat="37.9757752" lon="13.2414475"><ele>791.75</ele><time>2026-04-26T16:32:42.058Z</time></trkpt><trkpt lat="37.9757892" lon="13.2412986"><ele>791.5</ele><time>2026-04-26T16:32:43.058Z</time></trkpt><trkpt lat="37.975817" lon="13.2411484"><ele>791.25</ele><time>2026-04-26T16:32:44.058Z</time></trkpt><trkpt lat="37.9758625" lon="13.2409815"><ele>791.0</ele><time>2026-04-26T16:32:45.058Z</time></trkpt><trkpt lat="37.9759117" lon="13.2407922"><ele>790.3333333333334</ele><time>2026-04-26T16:32:46.058Z</time></trkpt><trkpt lat="37.9759623" lon="13.2406003"><ele>789.6666666666667</ele><time>2026-04-26T16:32:47.058Z</time></trkpt><trkpt lat="37.9760125" lon="13.2404151"><ele>789.0</ele><time>2026-04-26T16:32:48.059Z</time></trkpt><trkpt lat="37.9760578" lon="13.2402319"><ele>789.0</ele><time>2026-04-26T16:32:49.058Z</time></trkpt><trkpt lat="37.9761005" lon="13.2400626"><ele>789.0</ele><time>2026-04-26T16:32:50.058Z</time></trkpt><trkpt lat="37.9761389" lon="13.2399075"><ele>789.0</ele><time>2026-04-26T16:32:51.058Z</time></trkpt><trkpt lat="37.9761727" lon="13.2397595"><ele>789.0</ele><time>2026-04-26T16:32:52.059Z</time></trkpt><trkpt lat="37.9761932" lon="13.2396188"><ele>787.75</ele><time>2026-04-26T16:32:53.058Z</time></trkpt><trkpt lat="37.9761869" lon="13.2394739"><ele>786.5</ele><time>2026-04-26T16:32:54.058Z</time></trkpt><trkpt lat="37.9761464" lon="13.239331"><ele>785.25</ele><time>2026-04-26T16:32:55.059Z</time></trkpt><trkpt lat="37.9760679" lon="13.2391738"><ele>784.0</ele><time>2026-04-26T16:32:56.058Z</time></trkpt><trkpt lat="37.9759993" lon="13.2390209"><ele>782.25</ele><time>2026-04-26T16:32:57.058Z</time></trkpt><trkpt lat="37.9759514" lon="13.2388513"><ele>780.5</ele><time>2026-04-26T16:32:58.058Z</time></trkpt><trkpt lat="37.9759369" lon="13.2386618"><ele>778.75</ele><time>2026-04-26T16:32:59.058Z</time></trkpt><trkpt lat="37.9759509" lon="13.2384657"><ele>777.0</ele><time>2026-04-26T16:33:00.058Z</time></trkpt><trkpt lat="37.9759703" lon="13.2382579"><ele>775.6666666666667</ele><time>2026-04-26T16:33:01.058Z</time></trkpt><trkpt lat="37.9759889" lon="13.238051"><ele>774.3333333333334</ele><time>2026-04-26T16:33:02.058Z</time></trkpt><trkpt lat="37.9759996" lon="13.2378455"><ele>773.0</ele><time>2026-04-26T16:33:03.058Z</time></trkpt><trkpt lat="37.976005" lon="13.2376359"><ele>773.0</ele><time>2026-04-26T16:33:04.058Z</time></trkpt><trkpt lat="37.9759954" lon="13.2374124"><ele>773.0</ele><time>2026-04-26T16:33:05.058Z</time></trkpt><trkpt lat="37.9759725" lon="13.2371673"><ele>773.0</ele><time>2026-04-26T16:33:06.058Z</time></trkpt><trkpt lat="37.9759522" lon="13.2369088"><ele>771.6666666666667</ele><time>2026-04-26T16:33:07.058Z</time></trkpt><trkpt lat="37.9759388" lon="13.2366418"><ele>770.3333333333333</ele><time>2026-04-26T16:33:08.059Z</time></trkpt><trkpt lat="37.9759296" lon="13.236379"><ele>769.0</ele><time>2026-04-26T16:33:09.058Z</time></trkpt><trkpt lat="37.9759202" lon="13.2361215"><ele>768.0</ele><time>2026-04-26T16:33:10.058Z</time></trkpt><trkpt lat="37.9759102" lon="13.2358741"><ele>767.0</ele><time>2026-04-26T16:33:11.058Z</time></trkpt><trkpt lat="37.9758986" lon="13.2356391"><ele>766.0</ele><time>2026-04-26T16:33:12.058Z</time></trkpt><trkpt lat="37.975886" lon="13.2354119"><ele>765.5</ele><time>2026-04-26T16:33:13.058Z</time></trkpt><trkpt lat="37.975873" lon="13.2352118"><ele>765.0</ele><time>2026-04-26T16:33:14.058Z</time></trkpt><trkpt lat="37.9758625" lon="13.2350425"><ele>764.5</ele><time>2026-04-26T16:33:15.058Z</time></trkpt><trkpt lat="37.975855" lon="13.2349099"><ele>764.0</ele><time>2026-04-26T16:33:16.058Z</time></trkpt><trkpt lat="37.9758574" lon="13.2348067"><ele>763.3333333333333</ele><time>2026-04-26T16:33:17.059Z</time></trkpt><trkpt lat="37.9758756" lon="13.2347223"><ele>762.6666666666666</ele><time>2026-04-26T16:33:18.059Z</time></trkpt><trkpt lat="37.9759228" lon="13.2346467"><ele>762.0</ele><time>2026-04-26T16:33:19.059Z</time></trkpt><trkpt lat="37.9759966" lon="13.2346072"><ele>761.3333333333334</ele><time>2026-04-26T16:33:20.058Z</time></trkpt><trkpt lat="37.9760896" lon="13.2346069"><ele>760.6666666666667</ele><time>2026-04-26T16:33:21.058Z</time></trkpt><trkpt lat="37.976177" lon="13.23466"><ele>760.0</ele><time>2026-04-26T16:33:22.058Z</time></trkpt><trkpt lat="37.976234" lon="13.2347545"><ele>761.0</ele><time>2026-04-26T16:33:23.058Z</time></trkpt><trkpt lat="37.9762737" lon="13.2348956"><ele>762.0</ele><time>2026-04-26T16:33:24.058Z</time></trkpt><trkpt lat="37.976315" lon="13.2350405"><ele>763.0</ele><time>2026-04-26T16:33:25.058Z</time></trkpt><trkpt lat="37.9763681" lon="13.2352087"><ele>764.0</ele><time>2026-04-26T16:33:26.058Z</time></trkpt><trkpt lat="37.9764224" lon="13.2353845"><ele>764.0</ele><time>2026-04-26T16:33:27.058Z</time></trkpt><trkpt lat="37.9764757" lon="13.2355634"><ele>764.0</ele><time>2026-04-26T16:33:28.059Z</time></trkpt><trkpt lat="37.9765279" lon="13.2357315"><ele>764.0</ele><time>2026-04-26T16:33:29.058Z</time></trkpt><trkpt lat="37.9765788" lon="13.2358947"><ele>764.0</ele><time>2026-04-26T16:33:30.058Z</time></trkpt><trkpt lat="37.9766359" lon="13.2360611"><ele>762.0</ele><time>2026-04-26T16:33:31.058Z</time></trkpt><trkpt lat="37.9766922" lon="13.2362245"><ele>760.0</ele><time>2026-04-26T16:33:32.058Z</time></trkpt><trkpt lat="37.9767427" lon="13.236388"><ele>758.0</ele><time>2026-04-26T16:33:33.058Z</time></trkpt><trkpt lat="37.9767885" lon="13.2365473"><ele>756.0</ele><time>2026-04-26T16:33:34.058Z</time></trkpt><trkpt lat="37.9768311" lon="13.2367034"><ele>756.0</ele><time>2026-04-26T16:33:35.058Z</time></trkpt><trkpt lat="37.9768863" lon="13.2368493"><ele>756.0</ele><time>2026-04-26T16:33:36.058Z</time></trkpt><trkpt lat="37.9769594" lon="13.2369819"><ele>756.0</ele><time>2026-04-26T16:33:37.059Z</time></trkpt><trkpt lat="37.9770459" lon="13.2371065"><ele>756.0</ele><time>2026-04-26T16:33:38.058Z</time></trkpt><trkpt lat="37.977141" lon="13.2372135"><ele>756.0</ele><time>2026-04-26T16:33:39.058Z</time></trkpt><trkpt lat="37.9772464" lon="13.2372898"><ele>756.0</ele><time>2026-04-26T16:33:40.058Z</time></trkpt><trkpt lat="37.9773521" lon="13.2373384"><ele>756.0</ele><time>2026-04-26T16:33:41.058Z</time></trkpt><trkpt lat="37.9774616" lon="13.2373445"><ele>756.0</ele><time>2026-04-26T16:33:42.058Z</time></trkpt><trkpt lat="37.977555" lon="13.2373032"><ele>756.0</ele><time>2026-04-26T16:33:43.059Z</time></trkpt><trkpt lat="37.977611" lon="13.2372239"><ele>755.0</ele><time>2026-04-26T16:33:44.058Z</time></trkpt><trkpt lat="37.9776465" lon="13.2371103"><ele>754.0</ele><time>2026-04-26T16:33:45.059Z</time></trkpt><trkpt lat="37.9776408" lon="13.236961"><ele>753.0</ele><time>2026-04-26T16:33:46.058Z</time></trkpt><trkpt lat="37.9776277" lon="13.2367958"><ele>752.0</ele><time>2026-04-26T16:33:47.058Z</time></trkpt><trkpt lat="37.9776065" lon="13.23661"><ele>747.6666666666666</ele><time>2026-04-26T16:33:48.058Z</time></trkpt><trkpt lat="37.9775839" lon="13.236397"><ele>743.3333333333334</ele><time>2026-04-26T16:33:49.058Z</time></trkpt><trkpt lat="37.9775711" lon="13.2361629"><ele>739.0</ele><time>2026-04-26T16:33:50.058Z</time></trkpt><trkpt lat="37.9775557" lon="13.2359223"><ele>739.0</ele><time>2026-04-26T16:33:51.058Z</time></trkpt><trkpt lat="37.9775419" lon="13.2356815"><ele>739.0</ele><time>2026-04-26T16:33:52.058Z</time></trkpt><trkpt lat="37.977528" lon="13.2354348"><ele>739.0</ele><time>2026-04-26T16:33:53.059Z</time></trkpt><trkpt lat="37.9775131" lon="13.2351831"><ele>740.3333333333334</ele><time>2026-04-26T16:33:54.058Z</time></trkpt><trkpt lat="37.9775004" lon="13.234927"><ele>741.6666666666666</ele><time>2026-04-26T16:33:55.058Z</time></trkpt><trkpt lat="37.977488" lon="13.2346637"><ele>743.0</ele><time>2026-04-26T16:33:56.058Z</time></trkpt><trkpt lat="37.9774753" lon="13.2343957"><ele>743.0</ele><time>2026-04-26T16:33:57.058Z</time></trkpt><trkpt lat="37.9774601" lon="13.234132"><ele>743.0</ele><time>2026-04-26T16:33:58.058Z</time></trkpt><trkpt lat="37.9774463" lon="13.2338811"><ele>743.0</ele><time>2026-04-26T16:33:59.058Z</time></trkpt><trkpt lat="37.9774316" lon="13.2336351"><ele>738.6666666666666</ele><time>2026-04-26T16:34:00.059Z</time></trkpt><trkpt lat="37.9774146" lon="13.2334037"><ele>734.3333333333334</ele><time>2026-04-26T16:34:01.059Z</time></trkpt><trkpt lat="37.9773944" lon="13.2331871"><ele>730.0</ele><time>2026-04-26T16:34:02.059Z</time></trkpt><trkpt lat="37.9773687" lon="13.2329811"><ele>726.25</ele><time>2026-04-26T16:34:03.058Z</time></trkpt><trkpt lat="37.9773358" lon="13.2327814"><ele>722.5</ele><time>2026-04-26T16:34:04.058Z</time></trkpt><trkpt lat="37.9772915" lon="13.2326032"><ele>718.75</ele><time>2026-04-26T16:34:05.058Z</time></trkpt><trkpt lat="37.9772437" lon="13.2324644"><ele>715.0</ele><time>2026-04-26T16:34:06.059Z</time></trkpt><trkpt lat="37.9771729" lon="13.232367"><ele>710.6</ele><time>2026-04-26T16:34:07.058Z</time></trkpt><trkpt lat="37.9770894" lon="13.2323013"><ele>706.2</ele><time>2026-04-26T16:34:08.058Z</time></trkpt><trkpt lat="37.9769893" lon="13.2322691"><ele>701.8</ele><time>2026-04-26T16:34:09.058Z</time></trkpt><trkpt lat="37.9768993" lon="13.2322348"><ele>697.4</ele><time>2026-04-26T16:34:10.058Z</time></trkpt><trkpt lat="37.9768225" lon="13.2321833"><ele>693.0</ele><time>2026-04-26T16:34:11.059Z</time></trkpt><trkpt lat="37.9767748" lon="13.2321017"><ele>693.0</ele><time>2026-04-26T16:34:12.058Z</time></trkpt><trkpt lat="37.9767571" lon="13.2319763"><ele>693.0</ele><time>2026-04-26T16:34:13.058Z</time></trkpt><trkpt lat="37.9767717" lon="13.2318345"><ele>693.0</ele><time>2026-04-26T16:34:14.058Z</time></trkpt><trkpt lat="37.9767971" lon="13.2316872"><ele>693.0</ele><time>2026-04-26T16:34:15.058Z</time></trkpt><trkpt lat="37.9768002" lon="13.2315269"><ele>689.5</ele><time>2026-04-26T16:34:16.058Z</time></trkpt><trkpt lat="37.9767675" lon="13.2313637"><ele>686.0</ele><time>2026-04-26T16:34:17.058Z</time></trkpt><trkpt lat="37.9767074" lon="13.2311989"><ele>682.5</ele><time>2026-04-26T16:34:18.058Z</time></trkpt><trkpt lat="37.9766434" lon="13.2310371"><ele>679.0</ele><time>2026-04-26T16:34:19.058Z</time></trkpt><trkpt lat="37.9765887" lon="13.2308811"><ele>682.5</ele><time>2026-04-26T16:34:20.058Z</time></trkpt><trkpt lat="37.9765455" lon="13.2307239"><ele>686.0</ele><time>2026-04-26T16:34:21.059Z</time></trkpt><trkpt lat="37.9764997" lon="13.2305524"><ele>689.5</ele><time>2026-04-26T16:34:22.058Z</time></trkpt><trkpt lat="37.9764313" lon="13.2303766"><ele>693.0</ele><time>2026-04-26T16:34:23.058Z</time></trkpt><trkpt lat="37.9763466" lon="13.2302158"><ele>693.0</ele><time>2026-04-26T16:34:24.058Z</time></trkpt><trkpt lat="37.9762705" lon="13.2300632"><ele>693.0</ele><time>2026-04-26T16:34:25.058Z</time></trkpt><trkpt lat="37.976206" lon="13.2299077"><ele>693.0</ele><time>2026-04-26T16:34:26.058Z</time></trkpt><trkpt lat="37.9761575" lon="13.2297476"><ele>693.0</ele><time>2026-04-26T16:34:27.059Z</time></trkpt><trkpt lat="37.9761312" lon="13.2295861"><ele>689.5</ele><time>2026-04-26T16:34:28.058Z</time></trkpt><trkpt lat="37.9761169" lon="13.2294027"><ele>686.0</ele><time>2026-04-26T16:34:29.059Z</time></trkpt><trkpt lat="37.9760925" lon="13.2292204"><ele>682.5</ele><time>2026-04-26T16:34:30.059Z</time></trkpt><trkpt lat="37.9760503" lon="13.2290374"><ele>679.0</ele><time>2026-04-26T16:34:31.059Z</time></trkpt><trkpt lat="37.9759873" lon="13.2288674"><ele>677.75</ele><time>2026-04-26T16:34:32.058Z</time></trkpt><trkpt lat="37.9759255" lon="13.2287125"><ele>676.5</ele><time>2026-04-26T16:34:33.058Z</time></trkpt><trkpt lat="37.9758681" lon="13.2285615"><ele>675.25</ele><time>2026-04-26T16:34:34.058Z</time></trkpt><trkpt lat="37.9758189" lon="13.2284112"><ele>674.0</ele><time>2026-04-26T16:34:35.058Z</time></trkpt><trkpt lat="37.9757797" lon="13.2282706"><ele>679.25</ele><time>2026-04-26T16:34:36.058Z</time></trkpt><trkpt lat="37.9757504" lon="13.2281269"><ele>684.5</ele><time>2026-04-26T16:34:37.059Z</time></trkpt><trkpt lat="37.9757367" lon="13.2279862"><ele>689.75</ele><time>2026-04-26T16:34:38.058Z</time></trkpt><trkpt lat="37.9757507" lon="13.2278502"><ele>695.0</ele><time>2026-04-26T16:34:39.058Z</time></trkpt><trkpt lat="37.9757931" lon="13.2277134"><ele>687.75</ele><time>2026-04-26T16:34:40.058Z</time></trkpt><trkpt lat="37.9758656" lon="13.22759"><ele>680.5</ele><time>2026-04-26T16:34:41.058Z</time></trkpt><trkpt lat="37.9759688" lon="13.2274954"><ele>673.25</ele><time>2026-04-26T16:34:42.058Z</time></trkpt><trkpt lat="37.9760894" lon="13.2274453"><ele>666.0</ele><time>2026-04-26T16:34:43.058Z</time></trkpt><trkpt lat="37.9762189" lon="13.2274393"><ele>666.0</ele><time>2026-04-26T16:34:44.058Z</time></trkpt><trkpt lat="37.9763324" lon="13.2274716"><ele>666.0</ele><time>2026-04-26T16:34:45.058Z</time></trkpt><trkpt lat="37.9764366" lon="13.2275388"><ele>666.0</ele><time>2026-04-26T16:34:46.058Z</time></trkpt><trkpt lat="37.9765274" lon="13.2276476"><ele>666.0</ele><time>2026-04-26T16:34:47.059Z</time></trkpt><trkpt lat="37.9765915" lon="13.2277837"><ele>666.0</ele><time>2026-04-26T16:34:48.058Z</time></trkpt><trkpt lat="37.9766203" lon="13.2279329"><ele>666.0</ele><time>2026-04-26T16:34:49.058Z</time></trkpt><trkpt lat="37.9766108" lon="13.2280986"><ele>666.0</ele><time>2026-04-26T16:34:50.058Z</time></trkpt><trkpt lat="37.9765605" lon="13.2282782"><ele>666.0</ele><time>2026-04-26T16:34:51.058Z</time></trkpt><trkpt lat="37.9765076" lon="13.2284498"><ele>668.0</ele><time>2026-04-26T16:34:52.058Z</time></trkpt><trkpt lat="37.9764597" lon="13.2286144"><ele>670.0</ele><time>2026-04-26T16:34:53.058Z</time></trkpt><trkpt lat="37.9764235" lon="13.228772"><ele>672.0</ele><time>2026-04-26T16:34:54.058Z</time></trkpt><trkpt lat="37.9764025" lon="13.2289403"><ele>674.0</ele><time>2026-04-26T16:34:55.058Z</time></trkpt><trkpt lat="37.9763969" lon="13.2291143"><ele>675.25</ele><time>2026-04-26T16:34:56.058Z</time></trkpt><trkpt lat="37.9764011" lon="13.2292803"><ele>676.5</ele><time>2026-04-26T16:34:57.059Z</time></trkpt><trkpt lat="37.9764365" lon="13.2294433"><ele>677.75</ele><time>2026-04-26T16:34:58.058Z</time></trkpt><trkpt lat="37.9764949" lon="13.2296027"><ele>679.0</ele><time>2026-04-26T16:34:59.058Z</time></trkpt><trkpt lat="37.9765732" lon="13.2297601"><ele>676.5</ele><time>2026-04-26T16:35:00.058Z</time></trkpt><trkpt lat="37.9766606" lon="13.2299113"><ele>674.0</ele><time>2026-04-26T16:35:01.058Z</time></trkpt><trkpt lat="37.9767555" lon="13.2300516"><ele>671.5</ele><time>2026-04-26T16:35:02.058Z</time></trkpt><trkpt lat="37.9768435" lon="13.2301819"><ele>669.0</ele><time>2026-04-26T16:35:03.058Z</time></trkpt><trkpt lat="37.9769248" lon="13.2303125"><ele>669.0</ele><time>2026-04-26T16:35:04.058Z</time></trkpt><trkpt lat="37.9769974" lon="13.2304385"><ele>669.0</ele><time>2026-04-26T16:35:05.058Z</time></trkpt><trkpt lat="37.977065" lon="13.2305639"><ele>669.0</ele><time>2026-04-26T16:35:06.058Z</time></trkpt><trkpt lat="37.9771273" lon="13.2306872"><ele>669.0</ele><time>2026-04-26T16:35:07.059Z</time></trkpt><trkpt lat="37.9771793" lon="13.230808"><ele>667.4000000000001</ele><time>2026-04-26T16:35:08.058Z</time></trkpt><trkpt lat="37.9772338" lon="13.2309208"><ele>665.8</ele><time>2026-04-26T16:35:09.058Z</time></trkpt><trkpt lat="37.977293" lon="13.2310132"><ele>664.2</ele><time>2026-04-26T16:35:10.059Z</time></trkpt><trkpt lat="37.9773703" lon="13.2310764"><ele>662.5999999999999</ele><time>2026-04-26T16:35:11.058Z</time></trkpt><trkpt lat="37.9774702" lon="13.2311346"><ele>661.0</ele><time>2026-04-26T16:35:12.058Z</time></trkpt><trkpt lat="37.9775941" lon="13.2312023"><ele>661.0</ele><time>2026-04-26T16:35:13.058Z</time></trkpt><trkpt lat="37.9777446" lon="13.231293"><ele>661.0</ele><time>2026-04-26T16:35:14.058Z</time></trkpt><trkpt lat="37.9779053" lon="13.2313914"><ele>661.0</ele><time>2026-04-26T16:35:15.059Z</time></trkpt><trkpt lat="37.9780814" lon="13.2315094"><ele>664.0</ele><time>2026-04-26T16:35:16.058Z</time></trkpt><trkpt lat="37.9782671" lon="13.2316376"><ele>667.0</ele><time>2026-04-26T16:35:17.059Z</time></trkpt><trkpt lat="37.9784621" lon="13.2317765"><ele>670.0</ele><time>2026-04-26T16:35:18.059Z</time></trkpt><trkpt lat="37.978666" lon="13.2319224"><ele>661.0</ele><time>2026-04-26T16:35:19.058Z</time></trkpt><trkpt lat="37.9788737" lon="13.23207"><ele>652.0</ele><time>2026-04-26T16:35:20.058Z</time></trkpt><trkpt lat="37.9790873" lon="13.2322187"><ele>652.0</ele><time>2026-04-26T16:35:21.058Z</time></trkpt><trkpt lat="37.9793064" lon="13.232364"><ele>652.0</ele><time>2026-04-26T16:35:22.058Z</time></trkpt><trkpt lat="37.97952" lon="13.2324966"><ele>652.0</ele><time>2026-04-26T16:35:23.058Z</time></trkpt><trkpt lat="37.979727" lon="13.2326216"><ele>652.0</ele><time>2026-04-26T16:35:24.058Z</time></trkpt><trkpt lat="37.9799245" lon="13.2327408"><ele>652.0</ele><time>2026-04-26T16:35:25.059Z</time></trkpt><trkpt lat="37.9801151" lon="13.2328543"><ele>651.6666666666667</ele><time>2026-04-26T16:35:26.059Z</time></trkpt><trkpt lat="37.9802975" lon="13.2329685"><ele>651.3333333333334</ele><time>2026-04-26T16:35:27.059Z</time></trkpt><trkpt lat="37.980474" lon="13.2330813"><ele>651.0</ele><time>2026-04-26T16:35:28.059Z</time></trkpt><trkpt lat="37.9806379" lon="13.2331869"><ele>651.0</ele><time>2026-04-26T16:35:29.058Z</time></trkpt><trkpt lat="37.9807827" lon="13.2332825"><ele>651.0</ele><time>2026-04-26T16:35:30.058Z</time></trkpt><trkpt lat="37.9809155" lon="13.2333789"><ele>651.0</ele><time>2026-04-26T16:35:31.058Z</time></trkpt><trkpt lat="37.9810452" lon="13.233491"><ele>648.75</ele><time>2026-04-26T16:35:32.058Z</time></trkpt><trkpt lat="37.9811598" lon="13.2336145"><ele>646.5</ele><time>2026-04-26T16:35:33.058Z</time></trkpt><trkpt lat="37.9812519" lon="13.2337464"><ele>644.25</ele><time>2026-04-26T16:35:34.057Z</time></trkpt><trkpt lat="37.9813239" lon="13.2338931"><ele>642.0</ele><time>2026-04-26T16:35:35.057Z</time></trkpt><trkpt lat="37.9813864" lon="13.2340429"><ele>642.0</ele><time>2026-04-26T16:35:36.058Z</time></trkpt><trkpt lat="37.9814492" lon="13.2341898"><ele>642.0</ele><time>2026-04-26T16:35:37.057Z</time></trkpt><trkpt lat="37.981498" lon="13.2343329"><ele>642.0</ele><time>2026-04-26T16:35:38.057Z</time></trkpt><trkpt lat="37.9815413" lon="13.2344724"><ele>642.0</ele><time>2026-04-26T16:35:39.057Z</time></trkpt><trkpt lat="37.9815816" lon="13.2346117"><ele>642.0</ele><time>2026-04-26T16:35:40.058Z</time></trkpt><trkpt lat="37.981632" lon="13.2347571"><ele>642.0</ele><time>2026-04-26T16:35:41.058Z</time></trkpt><trkpt lat="37.981692" lon="13.2349112"><ele>642.0</ele><time>2026-04-26T16:35:42.057Z</time></trkpt><trkpt lat="37.9817566" lon="13.2350726"><ele>642.0</ele><time>2026-04-26T16:35:43.057Z</time></trkpt><trkpt lat="37.9818235" lon="13.2352274"><ele>640.4</ele><time>2026-04-26T16:35:44.057Z</time></trkpt><trkpt lat="37.9818965" lon="13.2353601"><ele>638.8000000000001</ele><time>2026-04-26T16:35:45.057Z</time></trkpt><trkpt lat="37.9819635" lon="13.2354656"><ele>637.2</ele><time>2026-04-26T16:35:46.057Z</time></trkpt><trkpt lat="37.9820251" lon="13.2355575"><ele>635.6</ele><time>2026-04-26T16:35:47.057Z</time></trkpt><trkpt lat="37.9820807" lon="13.2356352"><ele>634.0</ele><time>2026-04-26T16:35:48.057Z</time></trkpt><trkpt lat="37.9821217" lon="13.2356972"><ele>634.0</ele><time>2026-04-26T16:35:49.058Z</time></trkpt><trkpt lat="37.9821728" lon="13.2357732"><ele>634.0</ele><time>2026-04-26T16:35:51.057Z</time></trkpt><trkpt lat="37.982258" lon="13.2359008"><ele>634.0</ele><time>2026-04-26T16:35:58.057Z</time></trkpt><trkpt lat="37.9822989" lon="13.235992"><ele>634.0</ele><time>2026-04-26T16:35:59.057Z</time></trkpt><trkpt lat="37.9823448" lon="13.2361153"><ele>634.0</ele><time>2026-04-26T16:36:00.058Z</time></trkpt><trkpt lat="37.9824003" lon="13.2362598"><ele>634.0</ele><time>2026-04-26T16:36:01.057Z</time></trkpt><trkpt lat="37.9824621" lon="13.2364117"><ele>634.0</ele><time>2026-04-26T16:36:02.057Z</time></trkpt><trkpt lat="37.9825325" lon="13.2365751"><ele>634.0</ele><time>2026-04-26T16:36:03.057Z</time></trkpt><trkpt lat="37.9826169" lon="13.2367456"><ele>634.0</ele><time>2026-04-26T16:36:04.057Z</time></trkpt><trkpt lat="37.9827079" lon="13.2369172"><ele>632.6666666666667</ele><time>2026-04-26T16:36:05.058Z</time></trkpt><trkpt lat="37.982809" lon="13.2370883"><ele>631.3333333333334</ele><time>2026-04-26T16:36:06.057Z</time></trkpt><trkpt lat="37.9829235" lon="13.2372611"><ele>630.0</ele><time>2026-04-26T16:36:07.057Z</time></trkpt><trkpt lat="37.9830533" lon="13.2374274"><ele>633.3333333333334</ele><time>2026-04-26T16:36:08.057Z</time></trkpt><trkpt lat="37.9831812" lon="13.2375922"><ele>636.6666666666667</ele><time>2026-04-26T16:36:09.057Z</time></trkpt><trkpt lat="37.9833181" lon="13.2377457"><ele>640.0</ele><time>2026-04-26T16:36:10.058Z</time></trkpt><trkpt lat="37.9834666" lon="13.2379064"><ele>640.0</ele><time>2026-04-26T16:36:11.058Z</time></trkpt><trkpt lat="37.9836174" lon="13.2380495"><ele>640.0</ele><time>2026-04-26T16:36:12.057Z</time></trkpt><trkpt lat="37.9837772" lon="13.2381854"><ele>640.0</ele><time>2026-04-26T16:36:13.057Z</time></trkpt><trkpt lat="37.9839373" lon="13.2383191"><ele>645.3333333333334</ele><time>2026-04-26T16:36:14.057Z</time></trkpt><trkpt lat="37.9840987" lon="13.2384482"><ele>650.6666666666666</ele><time>2026-04-26T16:36:15.057Z</time></trkpt><trkpt lat="37.9842595" lon="13.2385723"><ele>656.0</ele><time>2026-04-26T16:36:16.057Z</time></trkpt><trkpt lat="37.9844202" lon="13.2386853"><ele>658.0</ele><time>2026-04-26T16:36:17.057Z</time></trkpt><trkpt lat="37.9845812" lon="13.2387916"><ele>660.0</ele><time>2026-04-26T16:36:18.057Z</time></trkpt><trkpt lat="37.9847417" lon="13.2388927"><ele>662.0</ele><time>2026-04-26T16:36:19.057Z</time></trkpt><trkpt lat="37.9849043" lon="13.2389913"><ele>665.3333333333333</ele><time>2026-04-26T16:36:20.057Z</time></trkpt><trkpt lat="37.9850704" lon="13.2390944"><ele>668.6666666666666</ele><time>2026-04-26T16:36:21.057Z</time></trkpt><trkpt lat="37.9852413" lon="13.2392016"><ele>672.0</ele><time>2026-04-26T16:36:22.058Z</time></trkpt><trkpt lat="37.9854137" lon="13.2393055"><ele>672.0</ele><time>2026-04-26T16:36:23.057Z</time></trkpt><trkpt lat="37.9855892" lon="13.2394114"><ele>672.0</ele><time>2026-04-26T16:36:24.057Z</time></trkpt><trkpt lat="37.9857676" lon="13.239519"><ele>672.0</ele><time>2026-04-26T16:36:25.057Z</time></trkpt><trkpt lat="37.9859474" lon="13.2396281"><ele>670.6666666666666</ele><time>2026-04-26T16:36:26.057Z</time></trkpt><trkpt lat="37.9861234" lon="13.239736"><ele>669.3333333333333</ele><time>2026-04-26T16:36:27.058Z</time></trkpt><trkpt lat="37.9862991" lon="13.2398469"><ele>668.0</ele><time>2026-04-26T16:36:28.057Z</time></trkpt><trkpt lat="37.9864734" lon="13.2399667"><ele>669.6666666666666</ele><time>2026-04-26T16:36:29.058Z</time></trkpt><trkpt lat="37.9866518" lon="13.240086"><ele>671.3333333333334</ele><time>2026-04-26T16:36:30.057Z</time></trkpt><trkpt lat="37.9868306" lon="13.2401985"><ele>673.0</ele><time>2026-04-26T16:36:31.057Z</time></trkpt><trkpt lat="37.9870195" lon="13.2402982"><ele>673.0</ele><time>2026-04-26T16:36:32.057Z</time></trkpt><trkpt lat="37.9872155" lon="13.2403732"><ele>673.0</ele><time>2026-04-26T16:36:33.057Z</time></trkpt><trkpt lat="37.9874133" lon="13.2404343"><ele>673.0</ele><time>2026-04-26T16:36:34.058Z</time></trkpt><trkpt lat="37.9876178" lon="13.2404752"><ele>672.0</ele><time>2026-04-26T16:36:35.057Z</time></trkpt><trkpt lat="37.9878196" lon="13.240504"><ele>671.0</ele><time>2026-04-26T16:36:36.057Z</time></trkpt><trkpt lat="37.9880149" lon="13.240521"><ele>670.0</ele><time>2026-04-26T16:36:37.057Z</time></trkpt><trkpt lat="37.9882032" lon="13.2405282"><ele>670.6666666666667</ele><time>2026-04-26T16:36:38.057Z</time></trkpt><trkpt lat="37.9883811" lon="13.2405209"><ele>671.3333333333334</ele><time>2026-04-26T16:36:39.057Z</time></trkpt><trkpt lat="37.9885583" lon="13.2404963"><ele>672.0</ele><time>2026-04-26T16:36:40.057Z</time></trkpt><trkpt lat="37.988747" lon="13.2404561"><ele>672.0</ele><time>2026-04-26T16:36:41.057Z</time></trkpt><trkpt lat="37.9889418" lon="13.240401"><ele>672.0</ele><time>2026-04-26T16:36:42.057Z</time></trkpt><trkpt lat="37.9891457" lon="13.240335"><ele>672.0</ele><time>2026-04-26T16:36:43.057Z</time></trkpt><trkpt lat="37.9893412" lon="13.2402574"><ele>673.6666666666666</ele><time>2026-04-26T16:36:44.058Z</time></trkpt><trkpt lat="37.9895298" lon="13.2401692"><ele>675.3333333333333</ele><time>2026-04-26T16:36:45.057Z</time></trkpt><trkpt lat="37.9897125" lon="13.240071"><ele>677.0</ele><time>2026-04-26T16:36:46.057Z</time></trkpt><trkpt lat="37.9898888" lon="13.2399633"><ele>679.0</ele><time>2026-04-26T16:36:47.058Z</time></trkpt><trkpt lat="37.9900652" lon="13.2398325"><ele>681.0</ele><time>2026-04-26T16:36:48.057Z</time></trkpt><trkpt lat="37.990251" lon="13.2396877"><ele>683.0</ele><time>2026-04-26T16:36:49.057Z</time></trkpt><trkpt lat="37.990436" lon="13.2395306"><ele>679.0</ele><time>2026-04-26T16:36:50.057Z</time></trkpt><trkpt lat="37.9906157" lon="13.2393787"><ele>675.0</ele><time>2026-04-26T16:36:51.057Z</time></trkpt><trkpt lat="37.9907953" lon="13.2392264"><ele>671.0</ele><time>2026-04-26T16:36:52.057Z</time></trkpt><trkpt lat="37.9909823" lon="13.2390696"><ele>677.0</ele><time>2026-04-26T16:36:53.057Z</time></trkpt><trkpt lat="37.9911748" lon="13.238912"><ele>683.0</ele><time>2026-04-26T16:36:54.058Z</time></trkpt><trkpt lat="37.9913659" lon="13.2387525"><ele>683.0</ele><time>2026-04-26T16:36:55.058Z</time></trkpt><trkpt lat="37.9915539" lon="13.2385976"><ele>683.0</ele><time>2026-04-26T16:36:56.057Z</time></trkpt><trkpt lat="37.9917379" lon="13.238442"><ele>683.0</ele><time>2026-04-26T16:36:57.057Z</time></trkpt><trkpt lat="37.9919215" lon="13.2382946"><ele>680.6666666666666</ele><time>2026-04-26T16:36:58.057Z</time></trkpt><trkpt lat="37.9921039" lon="13.23815"><ele>678.3333333333334</ele><time>2026-04-26T16:36:59.057Z</time></trkpt><trkpt lat="37.9922879" lon="13.2380148"><ele>676.0</ele><time>2026-04-26T16:37:00.057Z</time></trkpt><trkpt lat="37.9924724" lon="13.2378829"><ele>682.3333333333334</ele><time>2026-04-26T16:37:01.058Z</time></trkpt><trkpt lat="37.9926608" lon="13.2377603"><ele>688.6666666666666</ele><time>2026-04-26T16:37:02.057Z</time></trkpt><trkpt lat="37.992853" lon="13.2376531"><ele>695.0</ele><time>2026-04-26T16:37:03.057Z</time></trkpt><trkpt lat="37.9930498" lon="13.2375563"><ele>695.0</ele><time>2026-04-26T16:37:04.057Z</time></trkpt><trkpt lat="37.9932474" lon="13.2374769"><ele>695.0</ele><time>2026-04-26T16:37:05.057Z</time></trkpt><trkpt lat="37.9934476" lon="13.2374124"><ele>695.0</ele><time>2026-04-26T16:37:06.057Z</time></trkpt><trkpt lat="37.993652" lon="13.237362"><ele>695.6666666666666</ele><time>2026-04-26T16:37:07.057Z</time></trkpt><trkpt lat="37.9938557" lon="13.2373323"><ele>696.3333333333334</ele><time>2026-04-26T16:37:08.057Z</time></trkpt><trkpt lat="37.9940585" lon="13.2373224"><ele>697.0</ele><time>2026-04-26T16:37:09.057Z</time></trkpt><trkpt lat="37.9942605" lon="13.2373308"><ele>686.6666666666667</ele><time>2026-04-26T16:37:10.057Z</time></trkpt><trkpt lat="37.9944627" lon="13.237359"><ele>676.3333333333334</ele><time>2026-04-26T16:37:11.058Z</time></trkpt><trkpt lat="37.9946654" lon="13.2374079"><ele>666.0</ele><time>2026-04-26T16:37:12.057Z</time></trkpt><trkpt lat="37.9948663" lon="13.2374785"><ele>658.6666666666666</ele><time>2026-04-26T16:37:13.057Z</time></trkpt><trkpt lat="37.9950659" lon="13.2375634"><ele>651.3333333333333</ele><time>2026-04-26T16:37:14.057Z</time></trkpt><trkpt lat="37.9952616" lon="13.2376595"><ele>644.0</ele><time>2026-04-26T16:37:15.057Z</time></trkpt><trkpt lat="37.9954558" lon="13.2377652"><ele>644.0</ele><time>2026-04-26T16:37:16.058Z</time></trkpt><trkpt lat="37.9956483" lon="13.2378788"><ele>644.0</ele><time>2026-04-26T16:37:17.057Z</time></trkpt><trkpt lat="37.9958379" lon="13.2380039"><ele>644.0</ele><time>2026-04-26T16:37:18.057Z</time></trkpt><trkpt lat="37.9960212" lon="13.2381345"><ele>653.6666666666666</ele><time>2026-04-26T16:37:19.057Z</time></trkpt><trkpt lat="37.9962092" lon="13.2382667"><ele>663.3333333333334</ele><time>2026-04-26T16:37:20.057Z</time></trkpt><trkpt lat="37.9963954" lon="13.2384028"><ele>673.0</ele><time>2026-04-26T16:37:21.057Z</time></trkpt><trkpt lat="37.9965806" lon="13.2385452"><ele>670.6666666666667</ele><time>2026-04-26T16:37:22.057Z</time></trkpt><trkpt lat="37.996763" lon="13.238686"><ele>668.3333333333334</ele><time>2026-04-26T16:37:23.057Z</time></trkpt><trkpt lat="37.9969456" lon="13.2388155"><ele>666.0</ele><time>2026-04-26T16:37:24.057Z</time></trkpt><trkpt lat="37.9971255" lon="13.2389416"><ele>673.3333333333334</ele><time>2026-04-26T16:37:25.057Z</time></trkpt><trkpt lat="37.9973059" lon="13.239069"><ele>680.6666666666667</ele><time>2026-04-26T16:37:26.057Z</time></trkpt><trkpt lat="37.9974821" lon="13.239199"><ele>688.0</ele><time>2026-04-26T16:37:27.057Z</time></trkpt><trkpt lat="37.9976595" lon="13.2393306"><ele>688.0</ele><time>2026-04-26T16:37:28.057Z</time></trkpt><trkpt lat="37.997835" lon="13.2394585"><ele>688.0</ele><time>2026-04-26T16:37:29.057Z</time></trkpt><trkpt lat="37.9980119" lon="13.239588"><ele>688.0</ele><time>2026-04-26T16:37:30.057Z</time></trkpt><trkpt lat="37.9981871" lon="13.2397186"><ele>695.6666666666667</ele><time>2026-04-26T16:37:31.057Z</time></trkpt><trkpt lat="37.9983633" lon="13.2398512"><ele>703.3333333333334</ele><time>2026-04-26T16:37:32.058Z</time></trkpt><trkpt lat="37.9985452" lon="13.2399847"><ele>711.0</ele><time>2026-04-26T16:37:33.057Z</time></trkpt><trkpt lat="37.9987251" lon="13.2401169"><ele>711.0</ele><time>2026-04-26T16:37:34.057Z</time></trkpt><trkpt lat="37.9989027" lon="13.240249"><ele>711.0</ele><time>2026-04-26T16:37:35.057Z</time></trkpt><trkpt lat="37.9990816" lon="13.2403792"><ele>711.0</ele><time>2026-04-26T16:37:36.057Z</time></trkpt><trkpt lat="37.9992599" lon="13.2405118"><ele>716.6666666666666</ele><time>2026-04-26T16:37:37.057Z</time></trkpt><trkpt lat="37.9994416" lon="13.2406444"><ele>722.3333333333333</ele><time>2026-04-26T16:37:38.057Z</time></trkpt><trkpt lat="37.9996245" lon="13.2407801"><ele>728.0</ele><time>2026-04-26T16:37:39.057Z</time></trkpt><trkpt lat="37.9998035" lon="13.2409115"><ele>728.0</ele><time>2026-04-26T16:37:40.058Z</time></trkpt><trkpt lat="37.9999812" lon="13.2410429"><ele>728.0</ele><time>2026-04-26T16:37:41.057Z</time></trkpt><trkpt lat="38.0001555" lon="13.2411698"><ele>728.0</ele><time>2026-04-26T16:37:42.057Z</time></trkpt><trkpt lat="38.0003364" lon="13.241293"><ele>728.0</ele><time>2026-04-26T16:37:43.057Z</time></trkpt><trkpt lat="38.0005236" lon="13.2414095"><ele>728.0</ele><time>2026-04-26T16:37:44.057Z</time></trkpt><trkpt lat="38.0007173" lon="13.241516"><ele>728.0</ele><time>2026-04-26T16:37:45.057Z</time></trkpt><trkpt lat="38.0009157" lon="13.2416177"><ele>727.6666666666666</ele><time>2026-04-26T16:37:46.057Z</time></trkpt><trkpt lat="38.001118" lon="13.2417075"><ele>727.3333333333334</ele><time>2026-04-26T16:37:47.057Z</time></trkpt><trkpt lat="38.0013281" lon="13.241787"><ele>727.0</ele><time>2026-04-26T16:37:48.058Z</time></trkpt><trkpt lat="38.0015391" lon="13.2418559"><ele>729.3333333333334</ele><time>2026-04-26T16:37:49.057Z</time></trkpt><trkpt lat="38.0017567" lon="13.2419122"><ele>731.6666666666666</ele><time>2026-04-26T16:37:50.057Z</time></trkpt><trkpt lat="38.0019741" lon="13.2419522"><ele>734.0</ele><time>2026-04-26T16:37:51.058Z</time></trkpt><trkpt lat="38.0021944" lon="13.2419852"><ele>734.0</ele><time>2026-04-26T16:37:52.057Z</time></trkpt><trkpt lat="38.0024185" lon="13.2419985"><ele>734.0</ele><time>2026-04-26T16:37:53.057Z</time></trkpt><trkpt lat="38.0026414" lon="13.2420092"><ele>734.0</ele><time>2026-04-26T16:37:54.057Z</time></trkpt><trkpt lat="38.0028676" lon="13.2420126"><ele>732.0</ele><time>2026-04-26T16:37:55.057Z</time></trkpt><trkpt lat="38.0030948" lon="13.2420092"><ele>730.0</ele><time>2026-04-26T16:37:56.057Z</time></trkpt><trkpt lat="38.0033203" lon="13.242006"><ele>736.0</ele><time>2026-04-26T16:37:57.057Z</time></trkpt><trkpt lat="38.0035471" lon="13.2420042"><ele>742.0</ele><time>2026-04-26T16:37:58.057Z</time></trkpt><trkpt lat="38.0037698" lon="13.2419963"><ele>742.0</ele><time>2026-04-26T16:37:59.057Z</time></trkpt><trkpt lat="38.0039917" lon="13.2419884"><ele>742.0</ele><time>2026-04-26T16:38:00.057Z</time></trkpt><trkpt lat="38.0042137" lon="13.2419802"><ele>742.0</ele><time>2026-04-26T16:38:01.057Z</time></trkpt><trkpt lat="38.0044355" lon="13.2419709"><ele>740.6666666666667</ele><time>2026-04-26T16:38:02.058Z</time></trkpt><trkpt lat="38.0046585" lon="13.2419682"><ele>739.3333333333334</ele><time>2026-04-26T16:38:03.057Z</time></trkpt><trkpt lat="38.0048753" lon="13.2419614"><ele>738.0</ele><time>2026-04-26T16:38:04.057Z</time></trkpt><trkpt lat="38.0050903" lon="13.2419539"><ele>742.6666666666666</ele><time>2026-04-26T16:38:05.057Z</time></trkpt><trkpt lat="38.0053034" lon="13.2419484"><ele>747.3333333333333</ele><time>2026-04-26T16:38:06.057Z</time></trkpt><trkpt lat="38.0055166" lon="13.2419428"><ele>752.0</ele><time>2026-04-26T16:38:07.057Z</time></trkpt><trkpt lat="38.0057247" lon="13.2419346"><ele>761.6666666666666</ele><time>2026-04-26T16:38:08.057Z</time></trkpt><trkpt lat="38.0059278" lon="13.2419257"><ele>771.3333333333333</ele><time>2026-04-26T16:38:09.057Z</time></trkpt><trkpt lat="38.0061296" lon="13.241922"><ele>781.0</ele><time>2026-04-26T16:38:10.057Z</time></trkpt><trkpt lat="38.0063328" lon="13.2419213"><ele>781.0</ele><time>2026-04-26T16:38:11.057Z</time></trkpt><trkpt lat="38.0065396" lon="13.2419204"><ele>781.0</ele><time>2026-04-26T16:38:12.057Z</time></trkpt><trkpt lat="38.0067493" lon="13.2419312"><ele>781.0</ele><time>2026-04-26T16:38:13.057Z</time></trkpt><trkpt lat="38.0069606" lon="13.2419502"><ele>786.3333333333333</ele><time>2026-04-26T16:38:14.057Z</time></trkpt><trkpt lat="38.007176" lon="13.2419835"><ele>791.6666666666667</ele><time>2026-04-26T16:38:15.057Z</time></trkpt><trkpt lat="38.0073897" lon="13.2420341"><ele>797.0</ele><time>2026-04-26T16:38:16.057Z</time></trkpt><trkpt lat="38.0075999" lon="13.2420936"><ele>797.0</ele><time>2026-04-26T16:38:17.057Z</time></trkpt><trkpt lat="38.0078097" lon="13.2421681"><ele>797.0</ele><time>2026-04-26T16:38:18.057Z</time></trkpt><trkpt lat="38.0080172" lon="13.2422519"><ele>797.0</ele><time>2026-04-26T16:38:19.057Z</time></trkpt><trkpt lat="38.0082194" lon="13.2423438"><ele>793.0</ele><time>2026-04-26T16:38:20.058Z</time></trkpt><trkpt lat="38.0084174" lon="13.2424421"><ele>789.0</ele><time>2026-04-26T16:38:21.057Z</time></trkpt><trkpt lat="38.0086143" lon="13.2425527"><ele>785.0</ele><time>2026-04-26T16:38:22.057Z</time></trkpt><trkpt lat="38.0088084" lon="13.2426733"><ele>785.0</ele><time>2026-04-26T16:38:23.057Z</time></trkpt><trkpt lat="38.0090024" lon="13.2427953"><ele>785.0</ele><time>2026-04-26T16:38:24.057Z</time></trkpt><trkpt lat="38.0091994" lon="13.242919"><ele>785.0</ele><time>2026-04-26T16:38:25.057Z</time></trkpt><trkpt lat="38.0093955" lon="13.2430494"><ele>788.3333333333334</ele><time>2026-04-26T16:38:26.057Z</time></trkpt><trkpt lat="38.0095901" lon="13.2431822"><ele>791.6666666666667</ele><time>2026-04-26T16:38:27.057Z</time></trkpt><trkpt lat="38.0097832" lon="13.243322"><ele>795.0</ele><time>2026-04-26T16:38:28.057Z</time></trkpt><trkpt lat="38.0099757" lon="13.2434653"><ele>794.0</ele><time>2026-04-26T16:38:29.057Z</time></trkpt><trkpt lat="38.0101698" lon="13.2436132"><ele>793.0</ele><time>2026-04-26T16:38:30.057Z</time></trkpt><trkpt lat="38.0103621" lon="13.2437612"><ele>793.0</ele><time>2026-04-26T16:38:31.057Z</time></trkpt><trkpt lat="38.0105565" lon="13.2439086"><ele>793.0</ele><time>2026-04-26T16:38:32.057Z</time></trkpt><trkpt lat="38.0107553" lon="13.2440558"><ele>798.0</ele><time>2026-04-26T16:38:33.057Z</time></trkpt><trkpt lat="38.0109561" lon="13.2442082"><ele>803.0</ele><time>2026-04-26T16:38:34.057Z</time></trkpt><trkpt lat="38.0111617" lon="13.2443597"><ele>803.0</ele><time>2026-04-26T16:38:35.057Z</time></trkpt><trkpt lat="38.0113704" lon="13.2445047"><ele>803.0</ele><time>2026-04-26T16:38:36.057Z</time></trkpt><trkpt lat="38.0115827" lon="13.2446454"><ele>801.5</ele><time>2026-04-26T16:38:37.058Z</time></trkpt><trkpt lat="38.0118001" lon="13.2447869"><ele>800.0</ele><time>2026-04-26T16:38:38.057Z</time></trkpt><trkpt lat="38.0120197" lon="13.2449267"><ele>798.0</ele><time>2026-04-26T16:38:39.057Z</time></trkpt><trkpt lat="38.0122415" lon="13.2450679"><ele>796.0</ele><time>2026-04-26T16:38:40.057Z</time></trkpt><trkpt lat="38.0124688" lon="13.245203"><ele>796.5</ele><time>2026-04-26T16:38:41.057Z</time></trkpt><trkpt lat="38.0126982" lon="13.2453304"><ele>797.0</ele><time>2026-04-26T16:38:42.057Z</time></trkpt><trkpt lat="38.0129305" lon="13.2454551"><ele>797.0</ele><time>2026-04-26T16:38:43.057Z</time></trkpt><trkpt lat="38.0131657" lon="13.2455757"><ele>797.0</ele><time>2026-04-26T16:38:44.057Z</time></trkpt><trkpt lat="38.0134022" lon="13.2456952"><ele>791.0</ele><time>2026-04-26T16:38:45.057Z</time></trkpt><trkpt lat="38.0136472" lon="13.2458088"><ele>785.0</ele><time>2026-04-26T16:38:46.057Z</time></trkpt><trkpt lat="38.0138948" lon="13.2459258"><ele>785.0</ele><time>2026-04-26T16:38:47.057Z</time></trkpt><trkpt lat="38.0141368" lon="13.2460297"><ele>785.0</ele><time>2026-04-26T16:38:48.057Z</time></trkpt><trkpt lat="38.0143864" lon="13.2461313"><ele>784.5</ele><time>2026-04-26T16:38:49.057Z</time></trkpt><trkpt lat="38.0146286" lon="13.2462266"><ele>784.0</ele><time>2026-04-26T16:38:50.058Z</time></trkpt><trkpt lat="38.0148654" lon="13.2463224"><ele>780.5</ele><time>2026-04-26T16:38:51.057Z</time></trkpt><trkpt lat="38.0151026" lon="13.2464206"><ele>777.0</ele><time>2026-04-26T16:38:52.057Z</time></trkpt><trkpt lat="38.0153281" lon="13.2465195"><ele>772.5</ele><time>2026-04-26T16:38:53.057Z</time></trkpt><trkpt lat="38.0155488" lon="13.2466144"><ele>768.0</ele><time>2026-04-26T16:38:54.057Z</time></trkpt><trkpt lat="38.0157705" lon="13.2467042"><ele>766.0</ele><time>2026-04-26T16:38:55.058Z</time></trkpt><trkpt lat="38.0159923" lon="13.2467962"><ele>764.0</ele><time>2026-04-26T16:38:56.057Z</time></trkpt><trkpt lat="38.0162136" lon="13.246888"><ele>764.0</ele><time>2026-04-26T16:38:57.057Z</time></trkpt><trkpt lat="38.0164374" lon="13.2469837"><ele>764.0</ele><time>2026-04-26T16:38:58.057Z</time></trkpt><trkpt lat="38.0166605" lon="13.2470768"><ele>762.5</ele><time>2026-04-26T16:38:59.058Z</time></trkpt><trkpt lat="38.0168819" lon="13.2471671"><ele>761.0</ele><time>2026-04-26T16:39:00.057Z</time></trkpt><trkpt lat="38.0171008" lon="13.2472597"><ele>756.5</ele><time>2026-04-26T16:39:01.057Z</time></trkpt><trkpt lat="38.0173184" lon="13.2473525"><ele>752.0</ele><time>2026-04-26T16:39:02.058Z</time></trkpt><trkpt lat="38.0175289" lon="13.2474392"><ele>751.0</ele><time>2026-04-26T16:39:03.057Z</time></trkpt><trkpt lat="38.0177306" lon="13.2475286"><ele>750.0</ele><time>2026-04-26T16:39:04.057Z</time></trkpt><trkpt lat="38.0179287" lon="13.2476143"><ele>749.0</ele><time>2026-04-26T16:39:05.058Z</time></trkpt><trkpt lat="38.018119" lon="13.2476895"><ele>749.0</ele><time>2026-04-26T16:39:06.057Z</time></trkpt><trkpt lat="38.0183061" lon="13.2477555"><ele>749.0</ele><time>2026-04-26T16:39:07.057Z</time></trkpt><trkpt lat="38.0184873" lon="13.2478129"><ele>749.0</ele><time>2026-04-26T16:39:08.058Z</time></trkpt><trkpt lat="38.0186631" lon="13.2478653"><ele>749.0</ele><time>2026-04-26T16:39:09.057Z</time></trkpt><trkpt lat="38.0188327" lon="13.2479152"><ele>749.0</ele><time>2026-04-26T16:39:10.057Z</time></trkpt><trkpt lat="38.0189964" lon="13.2479625"><ele>749.0</ele><time>2026-04-26T16:39:11.057Z</time></trkpt><trkpt lat="38.0191542" lon="13.2480017"><ele>748.0</ele><time>2026-04-26T16:39:12.057Z</time></trkpt><trkpt lat="38.0193123" lon="13.2480344"><ele>747.0</ele><time>2026-04-26T16:39:13.058Z</time></trkpt><trkpt lat="38.0194763" lon="13.2480554"><ele>746.0</ele><time>2026-04-26T16:39:14.057Z</time></trkpt><trkpt lat="38.0196416" lon="13.2480645"><ele>746.0</ele><time>2026-04-26T16:39:15.057Z</time></trkpt><trkpt lat="38.0198134" lon="13.2480637"><ele>746.0</ele><time>2026-04-26T16:39:16.058Z</time></trkpt><trkpt lat="38.0199857" lon="13.2480449"><ele>746.0</ele><time>2026-04-26T16:39:17.057Z</time></trkpt><trkpt lat="38.0201521" lon="13.2480155"><ele>743.6666666666666</ele><time>2026-04-26T16:39:18.058Z</time></trkpt><trkpt lat="38.0203163" lon="13.2479721"><ele>741.3333333333334</ele><time>2026-04-26T16:39:19.057Z</time></trkpt><trkpt lat="38.0204861" lon="13.2479134"><ele>739.0</ele><time>2026-04-26T16:39:20.057Z</time></trkpt><trkpt lat="38.0206596" lon="13.2478385"><ele>736.3333333333334</ele><time>2026-04-26T16:39:21.057Z</time></trkpt><trkpt lat="38.0208336" lon="13.2477527"><ele>733.6666666666666</ele><time>2026-04-26T16:39:22.058Z</time></trkpt><trkpt lat="38.0210136" lon="13.2476617"><ele>731.0</ele><time>2026-04-26T16:39:23.058Z</time></trkpt><trkpt lat="38.0211926" lon="13.2475722"><ele>731.0</ele><time>2026-04-26T16:39:24.057Z</time></trkpt><trkpt lat="38.0213637" lon="13.2474835"><ele>731.0</ele><time>2026-04-26T16:39:25.057Z</time></trkpt><trkpt lat="38.0215237" lon="13.2474045"><ele>731.0</ele><time>2026-04-26T16:39:26.057Z</time></trkpt><trkpt lat="38.0216622" lon="13.2473373"><ele>731.4</ele><time>2026-04-26T16:39:27.058Z</time></trkpt><trkpt lat="38.0217816" lon="13.247283"><ele>731.8</ele><time>2026-04-26T16:39:28.057Z</time></trkpt><trkpt lat="38.0218914" lon="13.2472498"><ele>732.1999999999999</ele><time>2026-04-26T16:39:29.058Z</time></trkpt><trkpt lat="38.0219942" lon="13.2472404"><ele>732.5999999999999</ele><time>2026-04-26T16:39:30.058Z</time></trkpt><trkpt lat="38.0220909" lon="13.2472628"><ele>733.0</ele><time>2026-04-26T16:39:31.057Z</time></trkpt><trkpt lat="38.0221653" lon="13.2473183"><ele>731.5714285714286</ele><time>2026-04-26T16:39:32.057Z</time></trkpt><trkpt lat="38.0222174" lon="13.2473979"><ele>730.1428571428571</ele><time>2026-04-26T16:39:33.057Z</time></trkpt><trkpt lat="38.0222527" lon="13.2474891"><ele>728.7142857142858</ele><time>2026-04-26T16:39:34.057Z</time></trkpt><trkpt lat="38.0222659" lon="13.2475891"><ele>727.2857142857142</ele><time>2026-04-26T16:39:35.058Z</time></trkpt><trkpt lat="38.0222661" lon="13.2476787"><ele>725.8571428571429</ele><time>2026-04-26T16:39:36.057Z</time></trkpt><trkpt lat="38.0222536" lon="13.2477612"><ele>724.4285714285714</ele><time>2026-04-26T16:39:37.057Z</time></trkpt><trkpt lat="38.0222255" lon="13.2478348"><ele>723.0</ele><time>2026-04-26T16:39:38.057Z</time></trkpt><trkpt lat="38.0221895" lon="13.2479014"><ele>723.0</ele><time>2026-04-26T16:39:39.057Z</time></trkpt><trkpt lat="38.0221001" lon="13.2479861"><ele>723.0</ele><time>2026-04-26T16:39:41.057Z</time></trkpt><trkpt lat="38.0219871" lon="13.2480449"><ele>723.0</ele><time>2026-04-26T16:39:43.057Z</time></trkpt><trkpt lat="38.0219253" lon="13.2480721"><ele>723.0</ele><time>2026-04-26T16:39:44.058Z</time></trkpt><trkpt lat="38.0218357" lon="13.2480995"><ele>723.0</ele><time>2026-04-26T16:39:45.058Z</time></trkpt><trkpt lat="38.021721" lon="13.2481347"><ele>721.75</ele><time>2026-04-26T16:39:46.057Z</time></trkpt><trkpt lat="38.021601" lon="13.2481588"><ele>720.5</ele><time>2026-04-26T16:39:47.057Z</time></trkpt><trkpt lat="38.0214671" lon="13.2481881"><ele>719.25</ele><time>2026-04-26T16:39:48.057Z</time></trkpt><trkpt lat="38.0213101" lon="13.2482129"><ele>718.0</ele><time>2026-04-26T16:39:49.057Z</time></trkpt><trkpt lat="38.0211451" lon="13.2482292"><ele>718.0</ele><time>2026-04-26T16:39:50.057Z</time></trkpt><trkpt lat="38.0209833" lon="13.2482424"><ele>718.0</ele><time>2026-04-26T16:39:51.057Z</time></trkpt><trkpt lat="38.0208164" lon="13.2482612"><ele>718.0</ele><time>2026-04-26T16:39:52.057Z</time></trkpt><trkpt lat="38.0206451" lon="13.2482818"><ele>721.3333333333334</ele><time>2026-04-26T16:39:53.057Z</time></trkpt><trkpt lat="38.0204758" lon="13.2482946"><ele>724.6666666666666</ele><time>2026-04-26T16:39:54.057Z</time></trkpt><trkpt lat="38.0203041" lon="13.2483094"><ele>728.0</ele><time>2026-04-26T16:39:55.057Z</time></trkpt><trkpt lat="38.020135" lon="13.2483185"><ele>729.6666666666666</ele><time>2026-04-26T16:39:56.057Z</time></trkpt><trkpt lat="38.0199672" lon="13.2483178"><ele>731.3333333333334</ele><time>2026-04-26T16:39:57.057Z</time></trkpt><trkpt lat="38.0198043" lon="13.2483106"><ele>733.0</ele><time>2026-04-26T16:39:58.057Z</time></trkpt><trkpt lat="38.0196454" lon="13.2482992"><ele>733.0</ele><time>2026-04-26T16:39:59.057Z</time></trkpt><trkpt lat="38.0194872" lon="13.2482819"><ele>733.0</ele><time>2026-04-26T16:40:00.057Z</time></trkpt><trkpt lat="38.0193321" lon="13.2482602"><ele>733.0</ele><time>2026-04-26T16:40:01.057Z</time></trkpt><trkpt lat="38.019173" lon="13.2482365"><ele>734.0</ele><time>2026-04-26T16:40:02.057Z</time></trkpt><trkpt lat="38.0190168" lon="13.2482043"><ele>735.0</ele><time>2026-04-26T16:40:03.057Z</time></trkpt><trkpt lat="38.0188587" lon="13.2481638"><ele>736.0</ele><time>2026-04-26T16:40:04.057Z</time></trkpt><trkpt lat="38.0187029" lon="13.2481135"><ele>740.3333333333334</ele><time>2026-04-26T16:40:05.057Z</time></trkpt><trkpt lat="38.0185471" lon="13.2480573"><ele>744.6666666666666</ele><time>2026-04-26T16:40:06.057Z</time></trkpt><trkpt lat="38.0183912" lon="13.2480003"><ele>749.0</ele><time>2026-04-26T16:40:07.057Z</time></trkpt><trkpt lat="38.0182364" lon="13.2479461"><ele>749.0</ele><time>2026-04-26T16:40:08.057Z</time></trkpt><trkpt lat="38.0180846" lon="13.2478858"><ele>749.0</ele><time>2026-04-26T16:40:09.057Z</time></trkpt><trkpt lat="38.0179339" lon="13.2478202"><ele>749.0</ele><time>2026-04-26T16:40:10.057Z</time></trkpt><trkpt lat="38.0177786" lon="13.247756"><ele>749.0</ele><time>2026-04-26T16:40:11.057Z</time></trkpt><trkpt lat="38.0176213" lon="13.2476825"><ele>749.0</ele><time>2026-04-26T16:40:12.057Z</time></trkpt><trkpt lat="38.0174591" lon="13.2476132"><ele>749.0</ele><time>2026-04-26T16:40:13.058Z</time></trkpt><trkpt lat="38.0173027" lon="13.2475438"><ele>750.0</ele><time>2026-04-26T16:40:14.057Z</time></trkpt><trkpt lat="38.0171421" lon="13.2474766"><ele>751.0</ele><time>2026-04-26T16:40:15.057Z</time></trkpt><trkpt lat="38.0169756" lon="13.2474029"><ele>752.0</ele><time>2026-04-26T16:40:16.057Z</time></trkpt><trkpt lat="38.0168059" lon="13.2473283"><ele>756.0</ele><time>2026-04-26T16:40:17.057Z</time></trkpt><trkpt lat="38.0166307" lon="13.2472528"><ele>760.0</ele><time>2026-04-26T16:40:18.058Z</time></trkpt><trkpt lat="38.0164578" lon="13.247177"><ele>764.0</ele><time>2026-04-26T16:40:19.057Z</time></trkpt><trkpt lat="38.0162809" lon="13.247099"><ele>764.0</ele><time>2026-04-26T16:40:20.057Z</time></trkpt><trkpt lat="38.0161025" lon="13.2470226"><ele>764.0</ele><time>2026-04-26T16:40:21.057Z</time></trkpt><trkpt lat="38.0159231" lon="13.2469435"><ele>764.0</ele><time>2026-04-26T16:40:22.057Z</time></trkpt><trkpt lat="38.0157466" lon="13.2468637"><ele>765.3333333333333</ele><time>2026-04-26T16:40:23.057Z</time></trkpt><trkpt lat="38.0155755" lon="13.2467819"><ele>766.6666666666666</ele><time>2026-04-26T16:40:24.057Z</time></trkpt><trkpt lat="38.0154077" lon="13.2467024"><ele>768.0</ele><time>2026-04-26T16:40:25.057Z</time></trkpt><trkpt lat="38.0152429" lon="13.2466234"><ele>768.0</ele><time>2026-04-26T16:40:26.057Z</time></trkpt><trkpt lat="38.0150764" lon="13.2465469"><ele>768.0</ele><time>2026-04-26T16:40:27.058Z</time></trkpt><trkpt lat="38.0149098" lon="13.2464655"><ele>768.0</ele><time>2026-04-26T16:40:28.057Z</time></trkpt><trkpt lat="38.0147488" lon="13.2463836"><ele>773.3333333333333</ele><time>2026-04-26T16:40:29.058Z</time></trkpt><trkpt lat="38.0145893" lon="13.246304"><ele>778.6666666666666</ele><time>2026-04-26T16:40:30.057Z</time></trkpt><trkpt lat="38.0144299" lon="13.2462358"><ele>784.0</ele><time>2026-04-26T16:40:31.057Z</time></trkpt><trkpt lat="38.0142626" lon="13.2461853"><ele>784.3333333333333</ele><time>2026-04-26T16:40:32.057Z</time></trkpt><trkpt lat="38.0140895" lon="13.2461566"><ele>784.6666666666667</ele><time>2026-04-26T16:40:33.057Z</time></trkpt><trkpt lat="38.0139096" lon="13.2461454"><ele>785.0</ele><time>2026-04-26T16:40:34.057Z</time></trkpt><trkpt lat="38.013728" lon="13.2461445"><ele>785.0</ele><time>2026-04-26T16:40:35.057Z</time></trkpt><trkpt lat="38.0135611" lon="13.2461438"><ele>785.0</ele><time>2026-04-26T16:40:36.057Z</time></trkpt><trkpt lat="38.0134128" lon="13.2461423"><ele>785.0</ele><time>2026-04-26T16:40:37.057Z</time></trkpt><trkpt lat="38.0132728" lon="13.2461396"><ele>786.0</ele><time>2026-04-26T16:40:38.057Z</time></trkpt><trkpt lat="38.0131381" lon="13.2461172"><ele>787.0</ele><time>2026-04-26T16:40:39.057Z</time></trkpt><trkpt lat="38.013002" lon="13.2460589"><ele>788.0</ele><time>2026-04-26T16:40:40.057Z</time></trkpt><trkpt lat="38.0128617" lon="13.2459768"><ele>789.0</ele><time>2026-04-26T16:40:41.057Z</time></trkpt><trkpt lat="38.0127306" lon="13.2458699"><ele>789.0</ele><time>2026-04-26T16:40:42.057Z</time></trkpt><trkpt lat="38.0125939" lon="13.245757"><ele>789.0</ele><time>2026-04-26T16:40:43.057Z</time></trkpt><trkpt lat="38.01245" lon="13.2456436"><ele>789.0</ele><time>2026-04-26T16:40:44.057Z</time></trkpt><trkpt lat="38.0123052" lon="13.2455244"><ele>791.3333333333333</ele><time>2026-04-26T16:40:45.057Z</time></trkpt><trkpt lat="38.012158" lon="13.2454095"><ele>793.6666666666666</ele><time>2026-04-26T16:40:46.057Z</time></trkpt><trkpt lat="38.0120135" lon="13.2452926"><ele>796.0</ele><time>2026-04-26T16:40:47.057Z</time></trkpt><trkpt lat="38.011874" lon="13.2451794"><ele>796.0</ele><time>2026-04-26T16:40:48.057Z</time></trkpt><trkpt lat="38.0117438" lon="13.2450771"><ele>796.0</ele><time>2026-04-26T16:40:49.057Z</time></trkpt><trkpt lat="38.0116343" lon="13.2449885"><ele>796.0</ele><time>2026-04-26T16:40:50.057Z</time></trkpt><trkpt lat="38.0115498" lon="13.244917"><ele>796.0</ele><time>2026-04-26T16:40:51.058Z</time></trkpt><trkpt lat="38.0114799" lon="13.2448603"><ele>797.4</ele><time>2026-04-26T16:40:52.057Z</time></trkpt><trkpt lat="38.0113874" lon="13.2447889"><ele>798.8</ele><time>2026-04-26T16:40:54.057Z</time></trkpt><trkpt lat="38.0113116" lon="13.244806"><ele>800.1999999999999</ele><time>2026-04-26T16:40:56.057Z</time></trkpt><trkpt lat="38.0112468" lon="13.2449343"><ele>801.5999999999999</ele><time>2026-04-26T16:40:58.057Z</time></trkpt><trkpt lat="38.0112212" lon="13.2450267"><ele>803.0</ele><time>2026-04-26T16:40:59.057Z</time></trkpt><trkpt lat="38.0111927" lon="13.2451194"><ele>803.5999999999999</ele><time>2026-04-26T16:41:00.057Z</time></trkpt><trkpt lat="38.0111465" lon="13.2452049"><ele>804.1999999999999</ele><time>2026-04-26T16:41:01.057Z</time></trkpt><trkpt lat="38.0110773" lon="13.2452714"><ele>804.8</ele><time>2026-04-26T16:41:02.057Z</time></trkpt><trkpt lat="38.0109751" lon="13.2453164"><ele>805.4</ele><time>2026-04-26T16:41:03.057Z</time></trkpt><trkpt lat="38.0108658" lon="13.2453347"><ele>806.0</ele><time>2026-04-26T16:41:04.058Z</time></trkpt><trkpt lat="38.0107465" lon="13.2453512"><ele>806.25</ele><time>2026-04-26T16:41:05.057Z</time></trkpt><trkpt lat="38.0106215" lon="13.2453742"><ele>806.5</ele><time>2026-04-26T16:41:06.058Z</time></trkpt><trkpt lat="38.0104931" lon="13.2454032"><ele>806.75</ele><time>2026-04-26T16:41:07.057Z</time></trkpt><trkpt lat="38.0103613" lon="13.2454218"><ele>807.0</ele><time>2026-04-26T16:41:08.057Z</time></trkpt><trkpt lat="38.0102333" lon="13.2454369"><ele>807.0</ele><time>2026-04-26T16:41:09.057Z</time></trkpt><trkpt lat="38.0101115" lon="13.2454582"><ele>807.0</ele><time>2026-04-26T16:41:10.057Z</time></trkpt><trkpt lat="38.0099989" lon="13.2454869"><ele>807.0</ele><time>2026-04-26T16:41:11.057Z</time></trkpt><trkpt lat="38.0098973" lon="13.2455466"><ele>807.0</ele><time>2026-04-26T16:41:12.057Z</time></trkpt><trkpt lat="38.0098116" lon="13.2456282"><ele>806.75</ele><time>2026-04-26T16:41:13.057Z</time></trkpt><trkpt lat="38.0097191" lon="13.2457299"><ele>806.5</ele><time>2026-04-26T16:41:14.057Z</time></trkpt><trkpt lat="38.0096191" lon="13.2458373"><ele>806.25</ele><time>2026-04-26T16:41:15.057Z</time></trkpt><trkpt lat="38.0095149" lon="13.2459342"><ele>806.0</ele><time>2026-04-26T16:41:16.057Z</time></trkpt><trkpt lat="38.0094023" lon="13.2460243"><ele>806.0</ele><time>2026-04-26T16:41:17.057Z</time></trkpt><trkpt lat="38.0092986" lon="13.2460999"><ele>806.0</ele><time>2026-04-26T16:41:18.058Z</time></trkpt><trkpt lat="38.0091961" lon="13.2461689"><ele>806.0</ele><time>2026-04-26T16:41:19.058Z</time></trkpt><trkpt lat="38.009103" lon="13.2462357"><ele>806.0</ele><time>2026-04-26T16:41:20.057Z</time></trkpt><trkpt lat="38.0090253" lon="13.2463084"><ele>806.0</ele><time>2026-04-26T16:41:21.058Z</time></trkpt><trkpt lat="38.0089587" lon="13.2463999"><ele>807.5</ele><time>2026-04-26T16:41:22.057Z</time></trkpt><trkpt lat="38.0089085" lon="13.2465333"><ele>809.0</ele><time>2026-04-26T16:41:23.057Z</time></trkpt><trkpt lat="38.0088761" lon="13.246698"><ele>810.5</ele><time>2026-04-26T16:41:24.058Z</time></trkpt><trkpt lat="38.0088688" lon="13.2468775"><ele>812.0</ele><time>2026-04-26T16:41:25.058Z</time></trkpt><trkpt lat="38.0088613" lon="13.247062"><ele>812.0</ele><time>2026-04-26T16:41:26.057Z</time></trkpt><trkpt lat="38.0088603" lon="13.2472621"><ele>812.0</ele><time>2026-04-26T16:41:27.057Z</time></trkpt><trkpt lat="38.0088563" lon="13.2474665"><ele>812.0</ele><time>2026-04-26T16:41:28.057Z</time></trkpt><trkpt lat="38.0088456" lon="13.2476628"><ele>811.5</ele><time>2026-04-26T16:41:29.057Z</time></trkpt><trkpt lat="38.0088391" lon="13.2478554"><ele>811.0</ele><time>2026-04-26T16:41:30.057Z</time></trkpt><trkpt lat="38.0088447" lon="13.2480373"><ele>810.5</ele><time>2026-04-26T16:41:31.057Z</time></trkpt><trkpt lat="38.0088573" lon="13.2482129"><ele>810.0</ele><time>2026-04-26T16:41:32.057Z</time></trkpt><trkpt lat="38.0088848" lon="13.2483775"><ele>809.5</ele><time>2026-04-26T16:41:33.057Z</time></trkpt><trkpt lat="38.0089309" lon="13.2485357"><ele>809.0</ele><time>2026-04-26T16:41:34.057Z</time></trkpt><trkpt lat="38.0089932" lon="13.248704"><ele>808.5</ele><time>2026-04-26T16:41:35.057Z</time></trkpt><trkpt lat="38.0090665" lon="13.2488816"><ele>808.0</ele><time>2026-04-26T16:41:36.057Z</time></trkpt><trkpt lat="38.009132" lon="13.249053"><ele>805.0</ele><time>2026-04-26T16:41:37.057Z</time></trkpt><trkpt lat="38.0091997" lon="13.2492313"><ele>802.0</ele><time>2026-04-26T16:41:38.057Z</time></trkpt><trkpt lat="38.0092662" lon="13.2494137"><ele>799.0</ele><time>2026-04-26T16:41:39.057Z</time></trkpt><trkpt lat="38.0093286" lon="13.2495808"><ele>799.0</ele><time>2026-04-26T16:41:40.057Z</time></trkpt><trkpt lat="38.0093807" lon="13.2497169"><ele>799.0</ele><time>2026-04-26T16:41:41.057Z</time></trkpt><trkpt lat="38.009427" lon="13.2498396"><ele>799.0</ele><time>2026-04-26T16:41:42.057Z</time></trkpt><trkpt lat="38.0094731" lon="13.2499513"><ele>799.0</ele><time>2026-04-26T16:41:43.057Z</time></trkpt><trkpt lat="38.0095149" lon="13.2500661"><ele>799.0</ele><time>2026-04-26T16:41:44.057Z</time></trkpt><trkpt lat="38.0095585" lon="13.2501962"><ele>800.25</ele><time>2026-04-26T16:41:45.057Z</time></trkpt><trkpt lat="38.009592" lon="13.2503341"><ele>801.5</ele><time>2026-04-26T16:41:46.057Z</time></trkpt><trkpt lat="38.0096177" lon="13.2504827"><ele>802.75</ele><time>2026-04-26T16:41:47.057Z</time></trkpt><trkpt lat="38.0096388" lon="13.2506268"><ele>804.0</ele><time>2026-04-26T16:41:48.058Z</time></trkpt><trkpt lat="38.0096534" lon="13.2507608"><ele>804.3333333333334</ele><time>2026-04-26T16:41:49.058Z</time></trkpt><trkpt lat="38.00966" lon="13.2508667"><ele>804.6666666666667</ele><time>2026-04-26T16:41:50.057Z</time></trkpt><trkpt lat="38.009672" lon="13.2509485"><ele>805.0</ele><time>2026-04-26T16:41:51.057Z</time></trkpt><trkpt lat="38.0097133" lon="13.2510905"><ele>805.3333333333334</ele><time>2026-04-26T16:41:53.057Z</time></trkpt><trkpt lat="38.0097429" lon="13.2511681"><ele>805.6666666666667</ele><time>2026-04-26T16:41:54.057Z</time></trkpt><trkpt lat="38.0097806" lon="13.2512589"><ele>806.0</ele><time>2026-04-26T16:41:55.058Z</time></trkpt><trkpt lat="38.0098325" lon="13.2513724"><ele>807.0</ele><time>2026-04-26T16:41:56.058Z</time></trkpt><trkpt lat="38.0098858" lon="13.2515076"><ele>808.0</ele><time>2026-04-26T16:41:57.057Z</time></trkpt><trkpt lat="38.0099484" lon="13.2516568"><ele>809.0</ele><time>2026-04-26T16:41:58.057Z</time></trkpt><trkpt lat="38.0100178" lon="13.2518093"><ele>810.0</ele><time>2026-04-26T16:41:59.057Z</time></trkpt><trkpt lat="38.0100854" lon="13.2519691"><ele>808.75</ele><time>2026-04-26T16:42:00.057Z</time></trkpt><trkpt lat="38.0101551" lon="13.2521291"><ele>807.5</ele><time>2026-04-26T16:42:01.057Z</time></trkpt><trkpt lat="38.0102314" lon="13.252283"><ele>806.25</ele><time>2026-04-26T16:42:02.057Z</time></trkpt><trkpt lat="38.0103107" lon="13.2524285"><ele>805.0</ele><time>2026-04-26T16:42:03.057Z</time></trkpt><trkpt lat="38.0103956" lon="13.252572"><ele>805.0</ele><time>2026-04-26T16:42:04.057Z</time></trkpt><trkpt lat="38.0104784" lon="13.2527164"><ele>805.0</ele><time>2026-04-26T16:42:05.057Z</time></trkpt><trkpt lat="38.0105567" lon="13.2528622"><ele>805.0</ele><time>2026-04-26T16:42:06.057Z</time></trkpt><trkpt lat="38.0106318" lon="13.2530157"><ele>805.0</ele><time>2026-04-26T16:42:07.057Z</time></trkpt><trkpt lat="38.010695" lon="13.2531831"><ele>806.6666666666666</ele><time>2026-04-26T16:42:08.058Z</time></trkpt><trkpt lat="38.0107539" lon="13.253364"><ele>808.3333333333333</ele><time>2026-04-26T16:42:09.057Z</time></trkpt><trkpt lat="38.010807" lon="13.253551"><ele>810.0</ele><time>2026-04-26T16:42:10.058Z</time></trkpt><trkpt lat="38.0108608" lon="13.2537342"><ele>805.5</ele><time>2026-04-26T16:42:11.058Z</time></trkpt><trkpt lat="38.0109147" lon="13.2539095"><ele>801.0</ele><time>2026-04-26T16:42:12.058Z</time></trkpt><trkpt lat="38.0109579" lon="13.2540799"><ele>796.5</ele><time>2026-04-26T16:42:13.057Z</time></trkpt><trkpt lat="38.010999" lon="13.2542596"><ele>792.0</ele><time>2026-04-26T16:42:14.057Z</time></trkpt><trkpt lat="38.0110358" lon="13.2544449"><ele>792.0</ele><time>2026-04-26T16:42:15.057Z</time></trkpt><trkpt lat="38.0110558" lon="13.2546339"><ele>792.0</ele><time>2026-04-26T16:42:16.057Z</time></trkpt><trkpt lat="38.01107" lon="13.2548152"><ele>792.0</ele><time>2026-04-26T16:42:17.057Z</time></trkpt><trkpt lat="38.0110867" lon="13.2549879"><ele>792.0</ele><time>2026-04-26T16:42:18.057Z</time></trkpt><trkpt lat="38.0111197" lon="13.2551655"><ele>791.6666666666667</ele><time>2026-04-26T16:42:19.057Z</time></trkpt><trkpt lat="38.0111704" lon="13.2553472"><ele>791.3333333333334</ele><time>2026-04-26T16:42:20.057Z</time></trkpt><trkpt lat="38.0112363" lon="13.2555254"><ele>791.0</ele><time>2026-04-26T16:42:21.057Z</time></trkpt><trkpt lat="38.0113084" lon="13.255689"><ele>791.5</ele><time>2026-04-26T16:42:22.057Z</time></trkpt><trkpt lat="38.0113778" lon="13.2558414"><ele>792.0</ele><time>2026-04-26T16:42:23.057Z</time></trkpt><trkpt lat="38.0114439" lon="13.2559988"><ele>792.5</ele><time>2026-04-26T16:42:24.057Z</time></trkpt><trkpt lat="38.0115032" lon="13.2561707"><ele>793.0</ele><time>2026-04-26T16:42:25.058Z</time></trkpt><trkpt lat="38.011553" lon="13.2563535"><ele>795.0</ele><time>2026-04-26T16:42:26.057Z</time></trkpt><trkpt lat="38.011598" lon="13.2565378"><ele>797.0</ele><time>2026-04-26T16:42:27.057Z</time></trkpt><trkpt lat="38.0116378" lon="13.256725"><ele>799.0</ele><time>2026-04-26T16:42:28.057Z</time></trkpt><trkpt lat="38.0116749" lon="13.2569142"><ele>799.75</ele><time>2026-04-26T16:42:29.057Z</time></trkpt><trkpt lat="38.0116955" lon="13.2570961"><ele>800.5</ele><time>2026-04-26T16:42:30.057Z</time></trkpt><trkpt lat="38.011693" lon="13.2572709"><ele>801.25</ele><time>2026-04-26T16:42:31.057Z</time></trkpt><trkpt lat="38.0116746" lon="13.2574174"><ele>802.0</ele><time>2026-04-26T16:42:32.057Z</time></trkpt><trkpt lat="38.0116432" lon="13.2575372"><ele>802.0</ele><time>2026-04-26T16:42:33.057Z</time></trkpt><trkpt lat="38.0115958" lon="13.2576518"><ele>802.0</ele><time>2026-04-26T16:42:34.057Z</time></trkpt><trkpt lat="38.011544" lon="13.2577562"><ele>802.0</ele><time>2026-04-26T16:42:35.057Z</time></trkpt><trkpt lat="38.0115142" lon="13.257888"><ele>802.0</ele><time>2026-04-26T16:42:36.057Z</time></trkpt><trkpt lat="38.0114902" lon="13.258037"><ele>802.0</ele><time>2026-04-26T16:42:37.057Z</time></trkpt><trkpt lat="38.0114847" lon="13.2581954"><ele>802.25</ele><time>2026-04-26T16:42:38.057Z</time></trkpt><trkpt lat="38.0114924" lon="13.2583627"><ele>802.5</ele><time>2026-04-26T16:42:39.057Z</time></trkpt><trkpt lat="38.0115228" lon="13.2585273"><ele>802.75</ele><time>2026-04-26T16:42:40.058Z</time></trkpt><trkpt lat="38.011578" lon="13.2586866"><ele>803.0</ele><time>2026-04-26T16:42:41.058Z</time></trkpt><trkpt lat="38.0116552" lon="13.2588298"><ele>801.0</ele><time>2026-04-26T16:42:42.057Z</time></trkpt><trkpt lat="38.0117393" lon="13.2589662"><ele>799.0</ele><time>2026-04-26T16:42:43.057Z</time></trkpt><trkpt lat="38.0118326" lon="13.2591071"><ele>797.0</ele><time>2026-04-26T16:42:44.057Z</time></trkpt><trkpt lat="38.0119427" lon="13.2592533"><ele>795.0</ele><time>2026-04-26T16:42:45.057Z</time></trkpt><trkpt lat="38.0120681" lon="13.2593848"><ele>795.0</ele><time>2026-04-26T16:42:46.057Z</time></trkpt><trkpt lat="38.0121918" lon="13.2595142"><ele>795.0</ele><time>2026-04-26T16:42:47.057Z</time></trkpt><trkpt lat="38.0123016" lon="13.2596446"><ele>795.0</ele><time>2026-04-26T16:42:48.057Z</time></trkpt><trkpt lat="38.0124057" lon="13.2597806"><ele>793.6666666666667</ele><time>2026-04-26T16:42:49.057Z</time></trkpt><trkpt lat="38.0124944" lon="13.2599374"><ele>792.3333333333334</ele><time>2026-04-26T16:42:50.057Z</time></trkpt><trkpt lat="38.0125747" lon="13.2601069"><ele>791.0</ele><time>2026-04-26T16:42:51.057Z</time></trkpt><trkpt lat="38.0126478" lon="13.2602808"><ele>791.0</ele><time>2026-04-26T16:42:52.057Z</time></trkpt><trkpt lat="38.0127219" lon="13.26044"><ele>791.0</ele><time>2026-04-26T16:42:53.057Z</time></trkpt><trkpt lat="38.0128127" lon="13.2605776"><ele>791.0</ele><time>2026-04-26T16:42:54.057Z</time></trkpt><trkpt lat="38.0129169" lon="13.2606933"><ele>791.0</ele><time>2026-04-26T16:42:55.057Z</time></trkpt><trkpt lat="38.0130276" lon="13.2608009"><ele>791.0</ele><time>2026-04-26T16:42:56.058Z</time></trkpt><trkpt lat="38.013127" lon="13.2608857"><ele>791.0</ele><time>2026-04-26T16:42:57.057Z</time></trkpt><trkpt lat="38.0132102" lon="13.2609565"><ele>791.0</ele><time>2026-04-26T16:42:58.057Z</time></trkpt><trkpt lat="38.0132924" lon="13.2610197"><ele>791.0</ele><time>2026-04-26T16:42:59.057Z</time></trkpt><trkpt lat="38.0133688" lon="13.2610769"><ele>791.0</ele><time>2026-04-26T16:43:00.057Z</time></trkpt><trkpt lat="38.0134364" lon="13.2611365"><ele>791.0000000000001</ele><time>2026-04-26T16:43:01.057Z</time></trkpt><trkpt lat="38.0134993" lon="13.2611872"><ele>791.0</ele><time>2026-04-26T16:43:02.057Z</time></trkpt><trkpt lat="38.0135588" lon="13.2612372"><ele>791.0</ele><time>2026-04-26T16:43:03.057Z</time></trkpt><trkpt lat="38.0136142" lon="13.2612911"><ele>791.0</ele><time>2026-04-26T16:43:04.057Z</time></trkpt><trkpt lat="38.0136704" lon="13.2613507"><ele>791.0000000000001</ele><time>2026-04-26T16:43:05.057Z</time></trkpt><trkpt lat="38.0137292" lon="13.2614243"><ele>791.0</ele><time>2026-04-26T16:43:06.057Z</time></trkpt><trkpt lat="38.0137917" lon="13.2615149"><ele>793.0</ele><time>2026-04-26T16:43:07.057Z</time></trkpt><trkpt lat="38.0138529" lon="13.2616114"><ele>795.0</ele><time>2026-04-26T16:43:08.057Z</time></trkpt><trkpt lat="38.0139122" lon="13.2617189"><ele>797.0</ele><time>2026-04-26T16:43:09.057Z</time></trkpt><trkpt lat="38.0139547" lon="13.2618391"><ele>799.0</ele><time>2026-04-26T16:43:10.058Z</time></trkpt><trkpt lat="38.0139851" lon="13.2619692"><ele>801.0</ele><time>2026-04-26T16:43:11.058Z</time></trkpt><trkpt lat="38.0140021" lon="13.2621035"><ele>801.0</ele><time>2026-04-26T16:43:12.057Z</time></trkpt><trkpt lat="38.0140131" lon="13.2622404"><ele>801.0</ele><time>2026-04-26T16:43:13.057Z</time></trkpt><trkpt lat="38.0140346" lon="13.2623632"><ele>801.0</ele><time>2026-04-26T16:43:14.057Z</time></trkpt><trkpt lat="38.0140751" lon="13.2624672"><ele>801.0</ele><time>2026-04-26T16:43:15.057Z</time></trkpt><trkpt lat="38.0141312" lon="13.2625645"><ele>801.0</ele><time>2026-04-26T16:43:16.057Z</time></trkpt><trkpt lat="38.0142042" lon="13.2626552"><ele>800.5999999999999</ele><time>2026-04-26T16:43:17.058Z</time></trkpt><trkpt lat="38.0142808" lon="13.2627384"><ele>800.2</ele><time>2026-04-26T16:43:18.057Z</time></trkpt><trkpt lat="38.0143648" lon="13.2628239"><ele>799.8</ele><time>2026-04-26T16:43:19.057Z</time></trkpt><trkpt lat="38.0144533" lon="13.2629164"><ele>799.4000000000001</ele><time>2026-04-26T16:43:20.057Z</time></trkpt><trkpt lat="38.0145394" lon="13.2630204"><ele>799.0</ele><time>2026-04-26T16:43:21.057Z</time></trkpt><trkpt lat="38.0146195" lon="13.2631276"><ele>799.0</ele><time>2026-04-26T16:43:22.057Z</time></trkpt><trkpt lat="38.0146918" lon="13.2632435"><ele>799.0</ele><time>2026-04-26T16:43:23.058Z</time></trkpt><trkpt lat="38.0147426" lon="13.2633586"><ele>799.0</ele><time>2026-04-26T16:43:24.058Z</time></trkpt><trkpt lat="38.0147791" lon="13.2634735"><ele>799.0</ele><time>2026-04-26T16:43:25.057Z</time></trkpt><trkpt lat="38.014806" lon="13.2635923"><ele>799.0</ele><time>2026-04-26T16:43:26.057Z</time></trkpt><trkpt lat="38.0148295" lon="13.2637161"><ele>799.0</ele><time>2026-04-26T16:43:27.057Z</time></trkpt><trkpt lat="38.0148533" lon="13.2638412"><ele>799.0</ele><time>2026-04-26T16:43:28.057Z</time></trkpt><trkpt lat="38.0148776" lon="13.263972"><ele>799.0</ele><time>2026-04-26T16:43:29.058Z</time></trkpt><trkpt lat="38.014907" lon="13.2641088"><ele>799.0</ele><time>2026-04-26T16:43:30.057Z</time></trkpt><trkpt lat="38.0149425" lon="13.264247"><ele>799.0</ele><time>2026-04-26T16:43:31.057Z</time></trkpt><trkpt lat="38.0149905" lon="13.2643795"><ele>797.5</ele><time>2026-04-26T16:43:32.057Z</time></trkpt><trkpt lat="38.0150605" lon="13.2644986"><ele>796.0</ele><time>2026-04-26T16:43:33.057Z</time></trkpt><trkpt lat="38.0151429" lon="13.264591"><ele>794.5</ele><time>2026-04-26T16:43:34.057Z</time></trkpt><trkpt lat="38.0152398" lon="13.2646738"><ele>793.0</ele><time>2026-04-26T16:43:35.057Z</time></trkpt><trkpt lat="38.0153464" lon="13.2647527"><ele>793.5</ele><time>2026-04-26T16:43:36.058Z</time></trkpt><trkpt lat="38.0154598" lon="13.2648335"><ele>794.0</ele><time>2026-04-26T16:43:37.058Z</time></trkpt><trkpt lat="38.0155772" lon="13.2649187"><ele>794.5</ele><time>2026-04-26T16:43:38.058Z</time></trkpt><trkpt lat="38.0156926" lon="13.2650074"><ele>795.0</ele><time>2026-04-26T16:43:39.057Z</time></trkpt><trkpt lat="38.0158021" lon="13.2650912"><ele>792.0</ele><time>2026-04-26T16:43:40.058Z</time></trkpt><trkpt lat="38.0159104" lon="13.2651738"><ele>789.0</ele><time>2026-04-26T16:43:41.057Z</time></trkpt><trkpt lat="38.0160133" lon="13.2652537"><ele>786.0</ele><time>2026-04-26T16:43:42.057Z</time></trkpt><trkpt lat="38.0161145" lon="13.2653305"><ele>783.0</ele><time>2026-04-26T16:43:43.057Z</time></trkpt><trkpt lat="38.0162093" lon="13.2654051"><ele>783.0</ele><time>2026-04-26T16:43:44.058Z</time></trkpt><trkpt lat="38.0162999" lon="13.2654728"><ele>783.0</ele><time>2026-04-26T16:43:45.057Z</time></trkpt><trkpt lat="38.0163809" lon="13.2655377"><ele>783.0</ele><time>2026-04-26T16:43:46.057Z</time></trkpt><trkpt lat="38.0164396" lon="13.2655911"><ele>783.0</ele><time>2026-04-26T16:43:47.057Z</time></trkpt><trkpt lat="38.016522" lon="13.2656274"><ele>783.0</ele><time>2026-04-26T16:43:49.057Z</time></trkpt><trkpt lat="38.0165941" lon="13.2655775"><ele>783.0</ele><time>2026-04-26T16:43:52.057Z</time></trkpt><trkpt lat="38.0166118" lon="13.2654927"><ele>783.0</ele><time>2026-04-26T16:43:55.058Z</time></trkpt><trkpt lat="38.0165233" lon="13.2655258"><ele>783.0</ele><time>2026-04-26T16:44:33.057Z</time></trkpt><trkpt lat="38.0165442" lon="13.2656546"><ele>783.0</ele><time>2026-04-26T16:44:39.057Z</time></trkpt><trkpt lat="38.0166019" lon="13.265797"><ele>783.0</ele><time>2026-04-26T16:44:41.058Z</time></trkpt><trkpt lat="38.0166634" lon="13.2659377"><ele>783.0</ele><time>2026-04-26T16:44:43.058Z</time></trkpt><trkpt lat="38.0166951" lon="13.2660292"><ele>782.5999999999999</ele><time>2026-04-26T16:44:44.057Z</time></trkpt><trkpt lat="38.0167241" lon="13.2661267"><ele>782.1999999999999</ele><time>2026-04-26T16:44:45.057Z</time></trkpt><trkpt lat="38.0167563" lon="13.2662355"><ele>781.8</ele><time>2026-04-26T16:44:46.057Z</time></trkpt><trkpt lat="38.0167884" lon="13.2663481"><ele>781.4</ele><time>2026-04-26T16:44:47.057Z</time></trkpt><trkpt lat="38.0168276" lon="13.2664623"><ele>781.0</ele><time>2026-04-26T16:44:48.057Z</time></trkpt><trkpt lat="38.0168653" lon="13.2665833"><ele>782.1999999999999</ele><time>2026-04-26T16:44:49.057Z</time></trkpt><trkpt lat="38.0169042" lon="13.2667061"><ele>783.4</ele><time>2026-04-26T16:44:50.057Z</time></trkpt><trkpt lat="38.0169403" lon="13.2668248"><ele>784.6</ele><time>2026-04-26T16:44:51.057Z</time></trkpt><trkpt lat="38.0169812" lon="13.2669383"><ele>785.8</ele><time>2026-04-26T16:44:52.057Z</time></trkpt><trkpt lat="38.0170267" lon="13.267054"><ele>787.0</ele><time>2026-04-26T16:44:53.057Z</time></trkpt><trkpt lat="38.0170825" lon="13.2671657"><ele>787.0</ele><time>2026-04-26T16:44:54.057Z</time></trkpt><trkpt lat="38.0171444" lon="13.2672695"><ele>787.0</ele><time>2026-04-26T16:44:55.057Z</time></trkpt><trkpt lat="38.0172095" lon="13.267376"><ele>787.0</ele><time>2026-04-26T16:44:56.057Z</time></trkpt><trkpt lat="38.0172781" lon="13.2674788"><ele>787.0</ele><time>2026-04-26T16:44:57.057Z</time></trkpt><trkpt lat="38.017351" lon="13.2675874"><ele>787.0</ele><time>2026-04-26T16:44:58.057Z</time></trkpt><trkpt lat="38.0174303" lon="13.2677091"><ele>786.75</ele><time>2026-04-26T16:44:59.057Z</time></trkpt><trkpt lat="38.0175151" lon="13.2678336"><ele>786.5</ele><time>2026-04-26T16:45:00.057Z</time></trkpt><trkpt lat="38.0176073" lon="13.2679485"><ele>786.25</ele><time>2026-04-26T16:45:01.057Z</time></trkpt><trkpt lat="38.0177057" lon="13.2680612"><ele>786.0</ele><time>2026-04-26T16:45:02.057Z</time></trkpt><trkpt lat="38.0178043" lon="13.2681642"><ele>784.25</ele><time>2026-04-26T16:45:03.057Z</time></trkpt><trkpt lat="38.0178987" lon="13.2682651"><ele>782.5</ele><time>2026-04-26T16:45:04.057Z</time></trkpt><trkpt lat="38.0179869" lon="13.2683596"><ele>780.75</ele><time>2026-04-26T16:45:05.057Z</time></trkpt><trkpt lat="38.0180723" lon="13.2684523"><ele>779.0</ele><time>2026-04-26T16:45:06.057Z</time></trkpt><trkpt lat="38.0181513" lon="13.2685611"><ele>779.0</ele><time>2026-04-26T16:45:07.058Z</time></trkpt><trkpt lat="38.018222" lon="13.2686839"><ele>779.0</ele><time>2026-04-26T16:45:08.057Z</time></trkpt><trkpt lat="38.0182742" lon="13.2688335"><ele>779.0</ele><time>2026-04-26T16:45:09.058Z</time></trkpt><trkpt lat="38.0183222" lon="13.2690022"><ele>779.0</ele><time>2026-04-26T16:45:10.057Z</time></trkpt><trkpt lat="38.018365" lon="13.2691763"><ele>776.5</ele><time>2026-04-26T16:45:11.057Z</time></trkpt><trkpt lat="38.0184056" lon="13.2693423"><ele>774.0</ele><time>2026-04-26T16:45:12.057Z</time></trkpt><trkpt lat="38.0184486" lon="13.269501"><ele>771.5</ele><time>2026-04-26T16:45:13.057Z</time></trkpt><trkpt lat="38.0184935" lon="13.2696539"><ele>769.0</ele><time>2026-04-26T16:45:14.057Z</time></trkpt><trkpt lat="38.0185455" lon="13.2697947"><ele>767.5</ele><time>2026-04-26T16:45:15.057Z</time></trkpt><trkpt lat="38.0186116" lon="13.2699237"><ele>766.0</ele><time>2026-04-26T16:45:16.057Z</time></trkpt><trkpt lat="38.0186842" lon="13.2700405"><ele>764.5</ele><time>2026-04-26T16:45:17.057Z</time></trkpt><trkpt lat="38.0187624" lon="13.2701456"><ele>763.0</ele><time>2026-04-26T16:45:18.057Z</time></trkpt><trkpt lat="38.0188406" lon="13.270245"><ele>763.0</ele><time>2026-04-26T16:45:19.057Z</time></trkpt><trkpt lat="38.0189142" lon="13.2703327"><ele>763.0</ele><time>2026-04-26T16:45:20.057Z</time></trkpt><trkpt lat="38.0189866" lon="13.2704304"><ele>763.0</ele><time>2026-04-26T16:45:21.057Z</time></trkpt><trkpt lat="38.019065" lon="13.2705494"><ele>763.0</ele><time>2026-04-26T16:45:22.058Z</time></trkpt><trkpt lat="38.0191478" lon="13.2706854"><ele>760.6666666666667</ele><time>2026-04-26T16:45:23.057Z</time></trkpt><trkpt lat="38.0192375" lon="13.2708323"><ele>758.3333333333334</ele><time>2026-04-26T16:45:24.058Z</time></trkpt><trkpt lat="38.0193244" lon="13.2709909"><ele>756.0</ele><time>2026-04-26T16:45:25.057Z</time></trkpt><trkpt lat="38.0194183" lon="13.2711636"><ele>756.0</ele><time>2026-04-26T16:45:26.057Z</time></trkpt><trkpt lat="38.0195204" lon="13.2713514"><ele>756.0</ele><time>2026-04-26T16:45:27.057Z</time></trkpt><trkpt lat="38.0196309" lon="13.2715388"><ele>756.0</ele><time>2026-04-26T16:45:28.058Z</time></trkpt><trkpt lat="38.0197398" lon="13.2717205"><ele>756.6666666666666</ele><time>2026-04-26T16:45:29.057Z</time></trkpt><trkpt lat="38.019845" lon="13.2718911"><ele>757.3333333333333</ele><time>2026-04-26T16:45:30.057Z</time></trkpt><trkpt lat="38.0199432" lon="13.2720522"><ele>758.0</ele><time>2026-04-26T16:45:31.058Z</time></trkpt><trkpt lat="38.0200281" lon="13.2721932"><ele>756.5</ele><time>2026-04-26T16:45:32.057Z</time></trkpt><trkpt lat="38.0201115" lon="13.2723087"><ele>755.0</ele><time>2026-04-26T16:45:33.057Z</time></trkpt><trkpt lat="38.020195" lon="13.2724024"><ele>753.5</ele><time>2026-04-26T16:45:34.058Z</time></trkpt><trkpt lat="38.0202841" lon="13.2724629"><ele>752.0</ele><time>2026-04-26T16:45:35.057Z</time></trkpt><trkpt lat="38.0203949" lon="13.2725195"><ele>752.0</ele><time>2026-04-26T16:45:36.057Z</time></trkpt><trkpt lat="38.0205261" lon="13.2725765"><ele>752.0</ele><time>2026-04-26T16:45:37.057Z</time></trkpt><trkpt lat="38.0206729" lon="13.272634"><ele>752.0</ele><time>2026-04-26T16:45:38.057Z</time></trkpt><trkpt lat="38.0208197" lon="13.2726966"><ele>752.0</ele><time>2026-04-26T16:45:39.057Z</time></trkpt><trkpt lat="38.0209565" lon="13.2727535"><ele>749.75</ele><time>2026-04-26T16:45:40.057Z</time></trkpt><trkpt lat="38.0210822" lon="13.2728031"><ele>747.5</ele><time>2026-04-26T16:45:41.057Z</time></trkpt><trkpt lat="38.0211943" lon="13.2728505"><ele>745.25</ele><time>2026-04-26T16:45:42.057Z</time></trkpt><trkpt lat="38.0212993" lon="13.2728835"><ele>743.0</ele><time>2026-04-26T16:45:43.057Z</time></trkpt><trkpt lat="38.0214006" lon="13.2728935"><ele>743.0</ele><time>2026-04-26T16:45:44.057Z</time></trkpt><trkpt lat="38.0214861" lon="13.2728736"><ele>743.0</ele><time>2026-04-26T16:45:45.057Z</time></trkpt><trkpt lat="38.0215673" lon="13.2728201"><ele>743.0</ele><time>2026-04-26T16:45:46.057Z</time></trkpt><trkpt lat="38.02165" lon="13.2727349"><ele>743.0</ele><time>2026-04-26T16:45:47.057Z</time></trkpt><trkpt lat="38.0217303" lon="13.2726315"><ele>743.0</ele><time>2026-04-26T16:45:48.057Z</time></trkpt><trkpt lat="38.0218127" lon="13.2725294"><ele>743.0</ele><time>2026-04-26T16:45:49.057Z</time></trkpt><trkpt lat="38.0218945" lon="13.2724314"><ele>743.0</ele><time>2026-04-26T16:45:50.057Z</time></trkpt><trkpt lat="38.0219749" lon="13.2723362"><ele>743.0</ele><time>2026-04-26T16:45:51.057Z</time></trkpt><trkpt lat="38.0220583" lon="13.2722628"><ele>743.0</ele><time>2026-04-26T16:45:52.058Z</time></trkpt><trkpt lat="38.0221405" lon="13.2722168"><ele>743.0</ele><time>2026-04-26T16:45:53.057Z</time></trkpt><trkpt lat="38.0222291" lon="13.2721983"><ele>743.0</ele><time>2026-04-26T16:45:54.058Z</time></trkpt><trkpt lat="38.02233" lon="13.2721918"><ele>743.0</ele><time>2026-04-26T16:45:55.058Z</time></trkpt><trkpt lat="38.0224379" lon="13.2722077"><ele>743.0</ele><time>2026-04-26T16:45:56.057Z</time></trkpt><trkpt lat="38.0225385" lon="13.272245"><ele>743.0</ele><time>2026-04-26T16:45:57.057Z</time></trkpt><trkpt lat="38.0226261" lon="13.2723128"><ele>743.0</ele><time>2026-04-26T16:45:58.057Z</time></trkpt><trkpt lat="38.0227025" lon="13.272399"><ele>742.0</ele><time>2026-04-26T16:45:59.058Z</time></trkpt><trkpt lat="38.0227695" lon="13.2724832"><ele>741.0</ele><time>2026-04-26T16:46:00.057Z</time></trkpt><trkpt lat="38.0228301" lon="13.2725682"><ele>740.0</ele><time>2026-04-26T16:46:01.057Z</time></trkpt><trkpt lat="38.0228711" lon="13.2726729"><ele>739.0</ele><time>2026-04-26T16:46:02.057Z</time></trkpt><trkpt lat="38.0228896" lon="13.2727992"><ele>738.0</ele><time>2026-04-26T16:46:03.057Z</time></trkpt><trkpt lat="38.0228889" lon="13.272922"><ele>738.0</ele><time>2026-04-26T16:46:04.057Z</time></trkpt><trkpt lat="38.022877" lon="13.273051"><ele>738.0</ele><time>2026-04-26T16:46:05.057Z</time></trkpt><trkpt lat="38.0228639" lon="13.2731701"><ele>738.0</ele><time>2026-04-26T16:46:06.057Z</time></trkpt><trkpt lat="38.0228627" lon="13.2732878"><ele>738.0</ele><time>2026-04-26T16:46:07.057Z</time></trkpt><trkpt lat="38.0228771" lon="13.2734012"><ele>738.0</ele><time>2026-04-26T16:46:08.057Z</time></trkpt><trkpt lat="38.0229153" lon="13.2735068"><ele>738.5</ele><time>2026-04-26T16:46:09.057Z</time></trkpt><trkpt lat="38.0229839" lon="13.2736001"><ele>739.0</ele><time>2026-04-26T16:46:10.057Z</time></trkpt><trkpt lat="38.0230784" lon="13.2736793"><ele>739.5</ele><time>2026-04-26T16:46:11.057Z</time></trkpt><trkpt lat="38.0231795" lon="13.2737503"><ele>740.0</ele><time>2026-04-26T16:46:12.057Z</time></trkpt><trkpt lat="38.0232923" lon="13.2738279"><ele>738.0</ele><time>2026-04-26T16:46:13.058Z</time></trkpt><trkpt lat="38.023407" lon="13.2739137"><ele>736.0</ele><time>2026-04-26T16:46:14.057Z</time></trkpt><trkpt lat="38.0235202" lon="13.2739969"><ele>734.0</ele><time>2026-04-26T16:46:15.057Z</time></trkpt><trkpt lat="38.0236304" lon="13.2740726"><ele>732.0</ele><time>2026-04-26T16:46:16.057Z</time></trkpt><trkpt lat="38.0237449" lon="13.27412"><ele>732.0</ele><time>2026-04-26T16:46:17.057Z</time></trkpt><trkpt lat="38.0238622" lon="13.2741536"><ele>732.0</ele><time>2026-04-26T16:46:18.057Z</time></trkpt><trkpt lat="38.0239751" lon="13.2741632"><ele>732.0</ele><time>2026-04-26T16:46:19.057Z</time></trkpt><trkpt lat="38.0240887" lon="13.2741704"><ele>732.0</ele><time>2026-04-26T16:46:20.057Z</time></trkpt><trkpt lat="38.0242054" lon="13.2742026"><ele>728.0</ele><time>2026-04-26T16:46:21.057Z</time></trkpt><trkpt lat="38.0243227" lon="13.2742616"><ele>724.0</ele><time>2026-04-26T16:46:22.057Z</time></trkpt><trkpt lat="38.0244426" lon="13.2743325"><ele>720.0</ele><time>2026-04-26T16:46:23.057Z</time></trkpt><trkpt lat="38.0245615" lon="13.2744053"><ele>716.0</ele><time>2026-04-26T16:46:24.057Z</time></trkpt><trkpt lat="38.0246776" lon="13.2744776"><ele>716.0</ele><time>2026-04-26T16:46:25.057Z</time></trkpt><trkpt lat="38.0247889" lon="13.274546"><ele>716.0</ele><time>2026-04-26T16:46:26.057Z</time></trkpt><trkpt lat="38.0248932" lon="13.2746159"><ele>716.0</ele><time>2026-04-26T16:46:27.057Z</time></trkpt><trkpt lat="38.0249878" lon="13.2746827"><ele>716.0</ele><time>2026-04-26T16:46:28.057Z</time></trkpt><trkpt lat="38.0250835" lon="13.2747264"><ele>713.1999999999999</ele><time>2026-04-26T16:46:29.057Z</time></trkpt><trkpt lat="38.0251771" lon="13.2747373"><ele>710.4</ele><time>2026-04-26T16:46:30.057Z</time></trkpt><trkpt lat="38.0252578" lon="13.2747058"><ele>707.6</ele><time>2026-04-26T16:46:31.057Z</time></trkpt><trkpt lat="38.0253284" lon="13.2746466"><ele>704.8</ele><time>2026-04-26T16:46:32.057Z</time></trkpt><trkpt lat="38.0253781" lon="13.274553"><ele>702.0</ele><time>2026-04-26T16:46:33.057Z</time></trkpt><trkpt lat="38.0254072" lon="13.2744266"><ele>702.0</ele><time>2026-04-26T16:46:34.057Z</time></trkpt><trkpt lat="38.025395" lon="13.2743026"><ele>702.0</ele><time>2026-04-26T16:46:35.057Z</time></trkpt><trkpt lat="38.025367" lon="13.2741949"><ele>702.0</ele><time>2026-04-26T16:46:36.057Z</time></trkpt><trkpt lat="38.025292" lon="13.2741048"><ele>702.0</ele><time>2026-04-26T16:46:37.057Z</time></trkpt><trkpt lat="38.0252048" lon="13.2740127"><ele>702.0</ele><time>2026-04-26T16:46:38.057Z</time></trkpt><trkpt lat="38.0251153" lon="13.27391"><ele>702.0</ele><time>2026-04-26T16:46:39.057Z</time></trkpt><trkpt lat="38.025024" lon="13.2738034"><ele>702.0</ele><time>2026-04-26T16:46:40.058Z</time></trkpt><trkpt lat="38.0249336" lon="13.2737027"><ele>702.0</ele><time>2026-04-26T16:46:41.057Z</time></trkpt><trkpt lat="38.0248503" lon="13.2736121"><ele>702.0</ele><time>2026-04-26T16:46:42.057Z</time></trkpt><trkpt lat="38.024776" lon="13.273534"><ele>702.0</ele><time>2026-04-26T16:46:43.057Z</time></trkpt><trkpt lat="38.0247125" lon="13.2734648"><ele>702.0</ele><time>2026-04-26T16:46:44.058Z</time></trkpt><trkpt lat="38.0246627" lon="13.2733975"><ele>702.0</ele><time>2026-04-26T16:46:45.057Z</time></trkpt><trkpt lat="38.0246221" lon="13.2733242"><ele>702.0</ele><time>2026-04-26T16:46:46.057Z</time></trkpt><trkpt lat="38.0245949" lon="13.2732394"><ele>702.0</ele><time>2026-04-26T16:46:47.057Z</time></trkpt><trkpt lat="38.0245819" lon="13.2731463"><ele>702.0</ele><time>2026-04-26T16:46:48.057Z</time></trkpt><trkpt lat="38.0245859" lon="13.2730484"><ele>700.5</ele><time>2026-04-26T16:46:49.057Z</time></trkpt><trkpt lat="38.0246112" lon="13.2729583"><ele>699.0</ele><time>2026-04-26T16:46:50.057Z</time></trkpt><trkpt lat="38.0246625" lon="13.2728772"><ele>697.5</ele><time>2026-04-26T16:46:51.057Z</time></trkpt><trkpt lat="38.0247374" lon="13.272826"><ele>696.0</ele><time>2026-04-26T16:46:52.057Z</time></trkpt><trkpt lat="38.0248239" lon="13.2727969"><ele>694.5</ele><time>2026-04-26T16:46:53.058Z</time></trkpt><trkpt lat="38.0249215" lon="13.2727905"><ele>693.0</ele><time>2026-04-26T16:46:54.057Z</time></trkpt><trkpt lat="38.0250185" lon="13.2728065"><ele>689.5999999999999</ele><time>2026-04-26T16:46:55.058Z</time></trkpt><trkpt lat="38.0251161" lon="13.2728423"><ele>686.1999999999999</ele><time>2026-04-26T16:46:56.058Z</time></trkpt><trkpt lat="38.0252148" lon="13.2728939"><ele>682.8</ele><time>2026-04-26T16:46:57.057Z</time></trkpt><trkpt lat="38.0253098" lon="13.2729445"><ele>679.4</ele><time>2026-04-26T16:46:58.057Z</time></trkpt><trkpt lat="38.0254007" lon="13.2729932"><ele>676.0</ele><time>2026-04-26T16:46:59.057Z</time></trkpt><trkpt lat="38.025487" lon="13.2730355"><ele>676.0</ele><time>2026-04-26T16:47:00.057Z</time></trkpt><trkpt lat="38.0255689" lon="13.2730713"><ele>676.0</ele><time>2026-04-26T16:47:01.057Z</time></trkpt><trkpt lat="38.0256489" lon="13.2731025"><ele>676.0</ele><time>2026-04-26T16:47:02.058Z</time></trkpt><trkpt lat="38.0257244" lon="13.2731306"><ele>676.0</ele><time>2026-04-26T16:47:03.057Z</time></trkpt><trkpt lat="38.0257983" lon="13.2731481"><ele>676.0</ele><time>2026-04-26T16:47:04.057Z</time></trkpt><trkpt lat="38.0258717" lon="13.2731463"><ele>676.0</ele><time>2026-04-26T16:47:05.057Z</time></trkpt><trkpt lat="38.0259406" lon="13.2731294"><ele>673.5</ele><time>2026-04-26T16:47:06.057Z</time></trkpt><trkpt lat="38.0260208" lon="13.2730952"><ele>671.0</ele><time>2026-04-26T16:47:07.058Z</time></trkpt><trkpt lat="38.0261423" lon="13.2730204"><ele>668.5</ele><time>2026-04-26T16:47:08.057Z</time></trkpt><trkpt lat="38.0262743" lon="13.272938"><ele>666.0</ele><time>2026-04-26T16:47:09.057Z</time></trkpt><trkpt lat="38.0264145" lon="13.27285"><ele>666.0</ele><time>2026-04-26T16:47:10.057Z</time></trkpt><trkpt lat="38.0265508" lon="13.2727609"><ele>666.0</ele><time>2026-04-26T16:47:11.057Z</time></trkpt><trkpt lat="38.0266809" lon="13.2726728"><ele>666.0</ele><time>2026-04-26T16:47:12.058Z</time></trkpt><trkpt lat="38.0268057" lon="13.2725832"><ele>666.0</ele><time>2026-04-26T16:47:13.057Z</time></trkpt><trkpt lat="38.0269216" lon="13.2724906"><ele>665.0</ele><time>2026-04-26T16:47:14.058Z</time></trkpt><trkpt lat="38.0270271" lon="13.2723972"><ele>664.0</ele><time>2026-04-26T16:47:15.057Z</time></trkpt><trkpt lat="38.0271312" lon="13.2723297"><ele>663.0</ele><time>2026-04-26T16:47:16.057Z</time></trkpt><trkpt lat="38.0272378" lon="13.2722851"><ele>662.0</ele><time>2026-04-26T16:47:17.057Z</time></trkpt><trkpt lat="38.0273633" lon="13.2722699"><ele>663.6666666666666</ele><time>2026-04-26T16:47:18.058Z</time></trkpt><trkpt lat="38.02751" lon="13.2722745"><ele>665.3333333333334</ele><time>2026-04-26T16:47:19.057Z</time></trkpt><trkpt lat="38.0276744" lon="13.2722963"><ele>667.0</ele><time>2026-04-26T16:47:20.057Z</time></trkpt><trkpt lat="38.0278265" lon="13.2723251"><ele>667.0</ele><time>2026-04-26T16:47:21.057Z</time></trkpt><trkpt lat="38.0279743" lon="13.2723497"><ele>667.0</ele><time>2026-04-26T16:47:22.058Z</time></trkpt><trkpt lat="38.0281139" lon="13.2723704"><ele>667.0</ele><time>2026-04-26T16:47:23.057Z</time></trkpt><trkpt lat="38.0282488" lon="13.272399"><ele>667.0</ele><time>2026-04-26T16:47:24.058Z</time></trkpt><trkpt lat="38.0283779" lon="13.2724177"><ele>665.25</ele><time>2026-04-26T16:47:25.057Z</time></trkpt><trkpt lat="38.0284995" lon="13.272419"><ele>663.5</ele><time>2026-04-26T16:47:26.057Z</time></trkpt><trkpt lat="38.028616" lon="13.2723941"><ele>661.75</ele><time>2026-04-26T16:47:27.057Z</time></trkpt><trkpt lat="38.0287223" lon="13.2723465"><ele>660.0</ele><time>2026-04-26T16:47:28.057Z</time></trkpt><trkpt lat="38.028823" lon="13.2722534"><ele>652.5</ele><time>2026-04-26T16:47:29.057Z</time></trkpt><trkpt lat="38.0289195" lon="13.2721183"><ele>645.0</ele><time>2026-04-26T16:47:30.057Z</time></trkpt><trkpt lat="38.0289984" lon="13.2719638"><ele>637.5</ele><time>2026-04-26T16:47:31.057Z</time></trkpt><trkpt lat="38.0290676" lon="13.2718116"><ele>630.0</ele><time>2026-04-26T16:47:32.057Z</time></trkpt><trkpt lat="38.0291295" lon="13.2716652"><ele>629.0</ele><time>2026-04-26T16:47:33.057Z</time></trkpt><trkpt lat="38.0292042" lon="13.2715258"><ele>628.0</ele><time>2026-04-26T16:47:34.057Z</time></trkpt><trkpt lat="38.0292935" lon="13.271413"><ele>627.0</ele><time>2026-04-26T16:47:35.057Z</time></trkpt><trkpt lat="38.0294044" lon="13.2713197"><ele>626.0</ele><time>2026-04-26T16:47:36.057Z</time></trkpt><trkpt lat="38.0295317" lon="13.2712562"><ele>626.0</ele><time>2026-04-26T16:47:37.057Z</time></trkpt><trkpt lat="38.029674" lon="13.2712221"><ele>626.0</ele><time>2026-04-26T16:47:38.057Z</time></trkpt><trkpt lat="38.0298309" lon="13.2711844"><ele>626.0</ele><time>2026-04-26T16:47:39.057Z</time></trkpt><trkpt lat="38.0299884" lon="13.2711514"><ele>625.0</ele><time>2026-04-26T16:47:40.058Z</time></trkpt><trkpt lat="38.0301357" lon="13.2711098"><ele>624.0</ele><time>2026-04-26T16:47:41.057Z</time></trkpt><trkpt lat="38.0302733" lon="13.271061"><ele>623.0</ele><time>2026-04-26T16:47:42.057Z</time></trkpt><trkpt lat="38.0303925" lon="13.2710064"><ele>622.0</ele><time>2026-04-26T16:47:43.057Z</time></trkpt><trkpt lat="38.0304767" lon="13.2709686"><ele>622.0</ele><time>2026-04-26T16:47:44.057Z</time></trkpt><trkpt lat="38.0305961" lon="13.2709966"><ele>622.0</ele><time>2026-04-26T16:47:46.057Z</time></trkpt><trkpt lat="38.0306848" lon="13.2711213"><ele>622.0</ele><time>2026-04-26T16:47:48.057Z</time></trkpt><trkpt lat="38.0307122" lon="13.2712307"><ele>622.0</ele><time>2026-04-26T16:47:49.057Z</time></trkpt><trkpt lat="38.0307236" lon="13.2713488"><ele>622.0</ele><time>2026-04-26T16:47:50.058Z</time></trkpt><trkpt lat="38.0307322" lon="13.2714774"><ele>621.4</ele><time>2026-04-26T16:47:51.057Z</time></trkpt><trkpt lat="38.0307465" lon="13.2716041"><ele>620.8000000000001</ele><time>2026-04-26T16:47:52.057Z</time></trkpt><trkpt lat="38.0307559" lon="13.271724"><ele>620.2</ele><time>2026-04-26T16:47:53.057Z</time></trkpt><trkpt lat="38.0307755" lon="13.2718429"><ele>619.6</ele><time>2026-04-26T16:47:54.058Z</time></trkpt><trkpt lat="38.0308131" lon="13.2719434"><ele>619.0</ele><time>2026-04-26T16:47:55.057Z</time></trkpt><trkpt lat="38.0308791" lon="13.2720374"><ele>619.0</ele><time>2026-04-26T16:47:56.058Z</time></trkpt><trkpt lat="38.0309656" lon="13.272115"><ele>619.0</ele><time>2026-04-26T16:47:57.057Z</time></trkpt><trkpt lat="38.0310715" lon="13.2721885"><ele>619.0</ele><time>2026-04-26T16:47:58.057Z</time></trkpt><trkpt lat="38.0311847" lon="13.2722532"><ele>619.0</ele><time>2026-04-26T16:47:59.057Z</time></trkpt><trkpt lat="38.0313015" lon="13.2723101"><ele>620.25</ele><time>2026-04-26T16:48:00.057Z</time></trkpt><trkpt lat="38.0314121" lon="13.2723698"><ele>621.5</ele><time>2026-04-26T16:48:01.057Z</time></trkpt><trkpt lat="38.0315144" lon="13.2724278"><ele>622.75</ele><time>2026-04-26T16:48:02.057Z</time></trkpt><trkpt lat="38.0316191" lon="13.2724896"><ele>624.0</ele><time>2026-04-26T16:48:03.057Z</time></trkpt><trkpt lat="38.0317338" lon="13.2725441"><ele>621.25</ele><time>2026-04-26T16:48:04.057Z</time></trkpt><trkpt lat="38.0318534" lon="13.2725854"><ele>618.5</ele><time>2026-04-26T16:48:05.057Z</time></trkpt><trkpt lat="38.0319766" lon="13.2726228"><ele>615.75</ele><time>2026-04-26T16:48:06.057Z</time></trkpt><trkpt lat="38.0321026" lon="13.2726547"><ele>613.0</ele><time>2026-04-26T16:48:07.057Z</time></trkpt><trkpt lat="38.0322258" lon="13.2726857"><ele>613.0</ele><time>2026-04-26T16:48:08.057Z</time></trkpt><trkpt lat="38.0323472" lon="13.2727123"><ele>613.0</ele><time>2026-04-26T16:48:09.057Z</time></trkpt><trkpt lat="38.0324613" lon="13.2727428"><ele>613.0</ele><time>2026-04-26T16:48:10.057Z</time></trkpt><trkpt lat="38.0325672" lon="13.2727757"><ele>613.0</ele><time>2026-04-26T16:48:11.058Z</time></trkpt><trkpt lat="38.0326631" lon="13.2728189"><ele>611.5</ele><time>2026-04-26T16:48:12.057Z</time></trkpt><trkpt lat="38.0327398" lon="13.272877"><ele>610.0</ele><time>2026-04-26T16:48:13.057Z</time></trkpt><trkpt lat="38.0327928" lon="13.2729573"><ele>608.5</ele><time>2026-04-26T16:48:14.057Z</time></trkpt><trkpt lat="38.0328266" lon="13.2730517"><ele>607.0</ele><time>2026-04-26T16:48:15.057Z</time></trkpt><trkpt lat="38.0328292" lon="13.2731586"><ele>605.5</ele><time>2026-04-26T16:48:16.057Z</time></trkpt><trkpt lat="38.0328147" lon="13.2732772"><ele>604.0</ele><time>2026-04-26T16:48:17.057Z</time></trkpt><trkpt lat="38.0327724" lon="13.2733991"><ele>604.0</ele><time>2026-04-26T16:48:18.057Z</time></trkpt><trkpt lat="38.032721" lon="13.2735296"><ele>604.0</ele><time>2026-04-26T16:48:19.057Z</time></trkpt><trkpt lat="38.0326572" lon="13.273662"><ele>604.0</ele><time>2026-04-26T16:48:20.057Z</time></trkpt><trkpt lat="38.0325837" lon="13.2737938"><ele>604.0</ele><time>2026-04-26T16:48:21.057Z</time></trkpt><trkpt lat="38.032505" lon="13.2739313"><ele>606.0</ele><time>2026-04-26T16:48:22.057Z</time></trkpt><trkpt lat="38.0324163" lon="13.2740626"><ele>608.0</ele><time>2026-04-26T16:48:23.057Z</time></trkpt><trkpt lat="38.0323193" lon="13.2741821"><ele>610.0</ele><time>2026-04-26T16:48:24.057Z</time></trkpt><trkpt lat="38.0322218" lon="13.2742887"><ele>612.0</ele><time>2026-04-26T16:48:25.058Z</time></trkpt><trkpt lat="38.0321306" lon="13.274388"><ele>612.0</ele><time>2026-04-26T16:48:26.057Z</time></trkpt><trkpt lat="38.0320529" lon="13.2744856"><ele>612.0</ele><time>2026-04-26T16:48:27.058Z</time></trkpt><trkpt lat="38.0319979" lon="13.2745912"><ele>612.0</ele><time>2026-04-26T16:48:28.057Z</time></trkpt><trkpt lat="38.0319765" lon="13.2747093"><ele>612.0</ele><time>2026-04-26T16:48:29.057Z</time></trkpt><trkpt lat="38.0319871" lon="13.2748359"><ele>612.0</ele><time>2026-04-26T16:48:30.057Z</time></trkpt><trkpt lat="38.0320133" lon="13.2749654"><ele>607.5</ele><time>2026-04-26T16:48:31.057Z</time></trkpt><trkpt lat="38.0320553" lon="13.2751088"><ele>603.0</ele><time>2026-04-26T16:48:32.057Z</time></trkpt><trkpt lat="38.0321221" lon="13.2752347"><ele>598.5</ele><time>2026-04-26T16:48:33.057Z</time></trkpt><trkpt lat="38.0322104" lon="13.2753266"><ele>594.0</ele><time>2026-04-26T16:48:34.057Z</time></trkpt><trkpt lat="38.0323078" lon="13.2753995"><ele>594.0</ele><time>2026-04-26T16:48:35.057Z</time></trkpt><trkpt lat="38.0324196" lon="13.2754411"><ele>594.0</ele><time>2026-04-26T16:48:36.057Z</time></trkpt><trkpt lat="38.0325388" lon="13.2754675"><ele>594.0</ele><time>2026-04-26T16:48:37.057Z</time></trkpt><trkpt lat="38.0326555" lon="13.2754938"><ele>594.0</ele><time>2026-04-26T16:48:38.057Z</time></trkpt><trkpt lat="38.0327621" lon="13.2755359"><ele>591.25</ele><time>2026-04-26T16:48:39.057Z</time></trkpt><trkpt lat="38.0328601" lon="13.275605"><ele>588.5</ele><time>2026-04-26T16:48:40.057Z</time></trkpt><trkpt lat="38.0329464" lon="13.2757109"><ele>585.75</ele><time>2026-04-26T16:48:41.058Z</time></trkpt><trkpt lat="38.0330348" lon="13.2758447"><ele>583.0</ele><time>2026-04-26T16:48:42.057Z</time></trkpt><trkpt lat="38.033124" lon="13.2760057"><ele>583.0</ele><time>2026-04-26T16:48:43.057Z</time></trkpt><trkpt lat="38.0332135" lon="13.2761816"><ele>583.0</ele><time>2026-04-26T16:48:44.057Z</time></trkpt><trkpt lat="38.0333002" lon="13.2763636"><ele>583.0</ele><time>2026-04-26T16:48:45.057Z</time></trkpt><trkpt lat="38.0333784" lon="13.2765428"><ele>579.0</ele><time>2026-04-26T16:48:46.057Z</time></trkpt><trkpt lat="38.03345" lon="13.2767188"><ele>575.0</ele><time>2026-04-26T16:48:47.058Z</time></trkpt><trkpt lat="38.0335197" lon="13.2768854"><ele>571.0</ele><time>2026-04-26T16:48:48.057Z</time></trkpt><trkpt lat="38.0335869" lon="13.2770427"><ele>567.0</ele><time>2026-04-26T16:48:49.058Z</time></trkpt><trkpt lat="38.033651" lon="13.2772037"><ele>567.5</ele><time>2026-04-26T16:48:50.057Z</time></trkpt><trkpt lat="38.0337153" lon="13.2773583"><ele>568.0</ele><time>2026-04-26T16:48:51.057Z</time></trkpt><trkpt lat="38.0337769" lon="13.2775077"><ele>568.5</ele><time>2026-04-26T16:48:52.057Z</time></trkpt><trkpt lat="38.0338538" lon="13.2776433"><ele>569.0</ele><time>2026-04-26T16:48:53.057Z</time></trkpt><trkpt lat="38.0339519" lon="13.2777612"><ele>569.0</ele><time>2026-04-26T16:48:54.057Z</time></trkpt><trkpt lat="38.0340637" lon="13.2778643"><ele>569.0</ele><time>2026-04-26T16:48:55.057Z</time></trkpt><trkpt lat="38.0341847" lon="13.2779573"><ele>569.0</ele><time>2026-04-26T16:48:56.057Z</time></trkpt><trkpt lat="38.0343048" lon="13.2780455"><ele>569.0</ele><time>2026-04-26T16:48:57.058Z</time></trkpt><trkpt lat="38.0344185" lon="13.2781363"><ele>567.0</ele><time>2026-04-26T16:48:58.057Z</time></trkpt><trkpt lat="38.0345289" lon="13.2782202"><ele>565.0</ele><time>2026-04-26T16:48:59.057Z</time></trkpt><trkpt lat="38.034646" lon="13.2782897"><ele>563.0</ele><time>2026-04-26T16:49:00.057Z</time></trkpt><trkpt lat="38.034772" lon="13.2783339"><ele>561.0</ele><time>2026-04-26T16:49:01.057Z</time></trkpt><trkpt lat="38.0349056" lon="13.278357"><ele>559.0</ele><time>2026-04-26T16:49:02.057Z</time></trkpt><trkpt lat="38.0350432" lon="13.2783606"><ele>557.0</ele><time>2026-04-26T16:49:03.057Z</time></trkpt><trkpt lat="38.0351818" lon="13.278344"><ele>555.0</ele><time>2026-04-26T16:49:04.057Z</time></trkpt><trkpt lat="38.0353208" lon="13.2782981"><ele>553.0</ele><time>2026-04-26T16:49:05.058Z</time></trkpt><trkpt lat="38.0354602" lon="13.2782342"><ele>553.0</ele><time>2026-04-26T16:49:06.058Z</time></trkpt><trkpt lat="38.0356042" lon="13.2781618"><ele>553.0</ele><time>2026-04-26T16:49:07.057Z</time></trkpt><trkpt lat="38.0357496" lon="13.2780939"><ele>553.0</ele><time>2026-04-26T16:49:08.057Z</time></trkpt><trkpt lat="38.0358824" lon="13.2780297"><ele>550.5</ele><time>2026-04-26T16:49:09.057Z</time></trkpt><trkpt lat="38.0360142" lon="13.2779684"><ele>548.0</ele><time>2026-04-26T16:49:10.057Z</time></trkpt><trkpt lat="38.0361384" lon="13.2779212"><ele>545.5</ele><time>2026-04-26T16:49:11.057Z</time></trkpt><trkpt lat="38.0362652" lon="13.2778827"><ele>543.0</ele><time>2026-04-26T16:49:12.057Z</time></trkpt><trkpt lat="38.0364067" lon="13.2778488"><ele>543.0</ele><time>2026-04-26T16:49:13.057Z</time></trkpt><trkpt lat="38.0365572" lon="13.2778247"><ele>543.0</ele><time>2026-04-26T16:49:14.057Z</time></trkpt><trkpt lat="38.0367082" lon="13.2778063"><ele>543.0</ele><time>2026-04-26T16:49:15.057Z</time></trkpt><trkpt lat="38.0368516" lon="13.2777873"><ele>543.0</ele><time>2026-04-26T16:49:16.057Z</time></trkpt><trkpt lat="38.0369871" lon="13.277768"><ele>541.75</ele><time>2026-04-26T16:49:17.057Z</time></trkpt><trkpt lat="38.0371168" lon="13.2777516"><ele>540.5</ele><time>2026-04-26T16:49:18.057Z</time></trkpt><trkpt lat="38.0372431" lon="13.2777405"><ele>539.25</ele><time>2026-04-26T16:49:19.057Z</time></trkpt><trkpt lat="38.0373708" lon="13.2777517"><ele>538.0</ele><time>2026-04-26T16:49:20.058Z</time></trkpt><trkpt lat="38.0374985" lon="13.2777954"><ele>539.5</ele><time>2026-04-26T16:49:21.057Z</time></trkpt><trkpt lat="38.0376341" lon="13.2778716"><ele>541.0</ele><time>2026-04-26T16:49:22.057Z</time></trkpt><trkpt lat="38.0377618" lon="13.2779539"><ele>542.5</ele><time>2026-04-26T16:49:23.057Z</time></trkpt><trkpt lat="38.0378866" lon="13.2780304"><ele>544.0</ele><time>2026-04-26T16:49:24.057Z</time></trkpt><trkpt lat="38.0380129" lon="13.2781163"><ele>544.0</ele><time>2026-04-26T16:49:25.057Z</time></trkpt><trkpt lat="38.0381356" lon="13.2782061"><ele>544.0</ele><time>2026-04-26T16:49:26.057Z</time></trkpt><trkpt lat="38.0382593" lon="13.2783091"><ele>544.0</ele><time>2026-04-26T16:49:27.057Z</time></trkpt><trkpt lat="38.0383831" lon="13.2784153"><ele>544.0</ele><time>2026-04-26T16:49:28.058Z</time></trkpt><trkpt lat="38.0385075" lon="13.2785215"><ele>540.75</ele><time>2026-04-26T16:49:29.058Z</time></trkpt><trkpt lat="38.0386236" lon="13.2786255"><ele>537.5</ele><time>2026-04-26T16:49:30.058Z</time></trkpt><trkpt lat="38.038733" lon="13.2787216"><ele>534.25</ele><time>2026-04-26T16:49:31.057Z</time></trkpt><trkpt lat="38.0388345" lon="13.2788056"><ele>531.0</ele><time>2026-04-26T16:49:32.057Z</time></trkpt><trkpt lat="38.0389336" lon="13.278869"><ele>531.0</ele><time>2026-04-26T16:49:33.058Z</time></trkpt><trkpt lat="38.039038" lon="13.2789037"><ele>531.0</ele><time>2026-04-26T16:49:34.057Z</time></trkpt><trkpt lat="38.0391583" lon="13.2789102"><ele>531.0</ele><time>2026-04-26T16:49:35.057Z</time></trkpt><trkpt lat="38.0392849" lon="13.2788963"><ele>531.0</ele><time>2026-04-26T16:49:36.057Z</time></trkpt><trkpt lat="38.0394133" lon="13.2788633"><ele>527.75</ele><time>2026-04-26T16:49:37.057Z</time></trkpt><trkpt lat="38.0395476" lon="13.2788287"><ele>524.5</ele><time>2026-04-26T16:49:38.057Z</time></trkpt><trkpt lat="38.039674" lon="13.2787938"><ele>521.25</ele><time>2026-04-26T16:49:39.057Z</time></trkpt><trkpt lat="38.0398026" lon="13.2787677"><ele>518.0</ele><time>2026-04-26T16:49:40.057Z</time></trkpt><trkpt lat="38.039926" lon="13.2787554"><ele>519.0</ele><time>2026-04-26T16:49:41.057Z</time></trkpt><trkpt lat="38.0400517" lon="13.2787578"><ele>520.0</ele><time>2026-04-26T16:49:42.057Z</time></trkpt><trkpt lat="38.0401664" lon="13.2788009"><ele>521.0</ele><time>2026-04-26T16:49:43.057Z</time></trkpt><trkpt lat="38.0402714" lon="13.2788856"><ele>522.0</ele><time>2026-04-26T16:49:44.057Z</time></trkpt><trkpt lat="38.0403699" lon="13.2789957"><ele>522.0</ele><time>2026-04-26T16:49:45.057Z</time></trkpt><trkpt lat="38.0404488" lon="13.2791324"><ele>522.0</ele><time>2026-04-26T16:49:46.057Z</time></trkpt><trkpt lat="38.0404952" lon="13.2792807"><ele>522.0</ele><time>2026-04-26T16:49:47.057Z</time></trkpt><trkpt lat="38.0405102" lon="13.2794265"><ele>522.0</ele><time>2026-04-26T16:49:48.057Z</time></trkpt><trkpt lat="38.0405044" lon="13.2795668"><ele>522.0</ele><time>2026-04-26T16:49:49.057Z</time></trkpt><trkpt lat="38.0404849" lon="13.2797131"><ele>522.0</ele><time>2026-04-26T16:49:50.058Z</time></trkpt><trkpt lat="38.0404655" lon="13.2798602"><ele>522.0</ele><time>2026-04-26T16:49:51.057Z</time></trkpt><trkpt lat="38.0404495" lon="13.2799989"><ele>522.0</ele><time>2026-04-26T16:49:52.057Z</time></trkpt><trkpt lat="38.0404378" lon="13.2801431"><ele>523.25</ele><time>2026-04-26T16:49:53.057Z</time></trkpt><trkpt lat="38.0404555" lon="13.2802891"><ele>524.5</ele><time>2026-04-26T16:49:54.058Z</time></trkpt><trkpt lat="38.0405092" lon="13.2804348"><ele>525.75</ele><time>2026-04-26T16:49:55.057Z</time></trkpt><trkpt lat="38.0405945" lon="13.2805762"><ele>527.0</ele><time>2026-04-26T16:49:56.057Z</time></trkpt><trkpt lat="38.0406866" lon="13.2807034"><ele>527.25</ele><time>2026-04-26T16:49:57.057Z</time></trkpt><trkpt lat="38.0407837" lon="13.2808393"><ele>527.5</ele><time>2026-04-26T16:49:58.057Z</time></trkpt><trkpt lat="38.0408715" lon="13.2809752"><ele>527.75</ele><time>2026-04-26T16:49:59.057Z</time></trkpt><trkpt lat="38.0409427" lon="13.2811105"><ele>528.0</ele><time>2026-04-26T16:50:00.057Z</time></trkpt><trkpt lat="38.0409899" lon="13.2812548"><ele>523.0</ele><time>2026-04-26T16:50:01.057Z</time></trkpt><trkpt lat="38.0410265" lon="13.2814075"><ele>518.0</ele><time>2026-04-26T16:50:02.058Z</time></trkpt><trkpt lat="38.0410554" lon="13.2815608"><ele>513.0</ele><time>2026-04-26T16:50:03.057Z</time></trkpt><trkpt lat="38.0410831" lon="13.2817194"><ele>508.0</ele><time>2026-04-26T16:50:04.057Z</time></trkpt><trkpt lat="38.0411001" lon="13.2818869"><ele>508.0</ele><time>2026-04-26T16:50:05.058Z</time></trkpt><trkpt lat="38.0410979" lon="13.282055"><ele>508.0</ele><time>2026-04-26T16:50:06.057Z</time></trkpt><trkpt lat="38.0410853" lon="13.2822159"><ele>508.0</ele><time>2026-04-26T16:50:07.057Z</time></trkpt><trkpt lat="38.041079" lon="13.2823695"><ele>508.0</ele><time>2026-04-26T16:50:08.058Z</time></trkpt><trkpt lat="38.0410838" lon="13.2825124"><ele>507.4</ele><time>2026-04-26T16:50:09.057Z</time></trkpt><trkpt lat="38.0411125" lon="13.2826367"><ele>506.79999999999995</ele><time>2026-04-26T16:50:10.057Z</time></trkpt><trkpt lat="38.0411701" lon="13.2827426"><ele>506.2</ele><time>2026-04-26T16:50:11.057Z</time></trkpt><trkpt lat="38.041261" lon="13.2828192"><ele>505.6</ele><time>2026-04-26T16:50:12.057Z</time></trkpt><trkpt lat="38.0413825" lon="13.2828881"><ele>505.0</ele><time>2026-04-26T16:50:13.057Z</time></trkpt><trkpt lat="38.0415126" lon="13.2829581"><ele>501.0</ele><time>2026-04-26T16:50:14.057Z</time></trkpt><trkpt lat="38.0416432" lon="13.283023"><ele>497.0</ele><time>2026-04-26T16:50:15.057Z</time></trkpt><trkpt lat="38.0417688" lon="13.2830853"><ele>493.0</ele><time>2026-04-26T16:50:16.057Z</time></trkpt><trkpt lat="38.0418839" lon="13.2831687"><ele>489.0</ele><time>2026-04-26T16:50:17.057Z</time></trkpt><trkpt lat="38.0419805" lon="13.2832651"><ele>489.0</ele><time>2026-04-26T16:50:18.057Z</time></trkpt><trkpt lat="38.0420467" lon="13.2833689"><ele>489.0</ele><time>2026-04-26T16:50:19.057Z</time></trkpt><trkpt lat="38.0420675" lon="13.2834743"><ele>489.0</ele><time>2026-04-26T16:50:20.058Z</time></trkpt><trkpt lat="38.0420374" lon="13.2835764"><ele>489.0</ele><time>2026-04-26T16:50:21.057Z</time></trkpt><trkpt lat="38.0419789" lon="13.2836593"><ele>489.0</ele><time>2026-04-26T16:50:22.058Z</time></trkpt><trkpt lat="38.0419032" lon="13.2837101"><ele>489.0</ele><time>2026-04-26T16:50:23.057Z</time></trkpt><trkpt lat="38.0418184" lon="13.2837471"><ele>489.0</ele><time>2026-04-26T16:50:24.057Z</time></trkpt><trkpt lat="38.0417299" lon="13.2837878"><ele>489.0</ele><time>2026-04-26T16:50:25.058Z</time></trkpt><trkpt lat="38.0416354" lon="13.2838291"><ele>489.0</ele><time>2026-04-26T16:50:26.057Z</time></trkpt><trkpt lat="38.0415385" lon="13.2838716"><ele>489.0</ele><time>2026-04-26T16:50:27.057Z</time></trkpt><trkpt lat="38.0414447" lon="13.2839166"><ele>487.79999999999995</ele><time>2026-04-26T16:50:28.057Z</time></trkpt><trkpt lat="38.0413589" lon="13.2839688"><ele>486.59999999999997</ele><time>2026-04-26T16:50:29.057Z</time></trkpt><trkpt lat="38.0412806" lon="13.2840369"><ele>485.4</ele><time>2026-04-26T16:50:30.057Z</time></trkpt><trkpt lat="38.0412066" lon="13.2841301"><ele>484.2</ele><time>2026-04-26T16:50:31.057Z</time></trkpt><trkpt lat="38.0411423" lon="13.2842372"><ele>483.0</ele><time>2026-04-26T16:50:32.057Z</time></trkpt><trkpt lat="38.0410883" lon="13.2843461"><ele>483.0</ele><time>2026-04-26T16:50:33.057Z</time></trkpt><trkpt lat="38.0410398" lon="13.2844553"><ele>482.99999999999994</ele><time>2026-04-26T16:50:34.057Z</time></trkpt><trkpt lat="38.0409889" lon="13.2845642"><ele>482.99999999999994</ele><time>2026-04-26T16:50:35.057Z</time></trkpt><trkpt lat="38.0409333" lon="13.2846748"><ele>483.0</ele><time>2026-04-26T16:50:36.057Z</time></trkpt><trkpt lat="38.0408764" lon="13.2847836"><ele>483.0</ele><time>2026-04-26T16:50:37.057Z</time></trkpt><trkpt lat="38.0408163" lon="13.2848914"><ele>484.2</ele><time>2026-04-26T16:50:38.057Z</time></trkpt><trkpt lat="38.0407583" lon="13.2849964"><ele>485.4</ele><time>2026-04-26T16:50:39.058Z</time></trkpt><trkpt lat="38.0407016" lon="13.2851014"><ele>486.59999999999997</ele><time>2026-04-26T16:50:40.058Z</time></trkpt><trkpt lat="38.0406459" lon="13.2852066"><ele>487.79999999999995</ele><time>2026-04-26T16:50:41.057Z</time></trkpt><trkpt lat="38.040595" lon="13.2853091"><ele>489.0</ele><time>2026-04-26T16:50:42.057Z</time></trkpt><trkpt lat="38.0405469" lon="13.2854109"><ele>489.0</ele><time>2026-04-26T16:50:43.057Z</time></trkpt><trkpt lat="38.0405127" lon="13.2855081"><ele>489.0</ele><time>2026-04-26T16:50:44.057Z</time></trkpt><trkpt lat="38.0404917" lon="13.2856101"><ele>489.0</ele><time>2026-04-26T16:50:45.057Z</time></trkpt><trkpt lat="38.0404787" lon="13.2857111"><ele>489.0</ele><time>2026-04-26T16:50:46.057Z</time></trkpt><trkpt lat="38.0404731" lon="13.2858119"><ele>489.0</ele><time>2026-04-26T16:50:47.057Z</time></trkpt><trkpt lat="38.0404659" lon="13.2859077"><ele>489.0</ele><time>2026-04-26T16:50:48.058Z</time></trkpt><trkpt lat="38.0404484" lon="13.2860118"><ele>487.79999999999995</ele><time>2026-04-26T16:50:49.057Z</time></trkpt><trkpt lat="38.0404204" lon="13.2861208"><ele>486.59999999999997</ele><time>2026-04-26T16:50:50.057Z</time></trkpt><trkpt lat="38.0403802" lon="13.286224"><ele>485.4</ele><time>2026-04-26T16:50:51.057Z</time></trkpt><trkpt lat="38.0403377" lon="13.2863234"><ele>484.2</ele><time>2026-04-26T16:50:52.057Z</time></trkpt><trkpt lat="38.0402905" lon="13.2864277"><ele>483.0</ele><time>2026-04-26T16:50:53.057Z</time></trkpt><trkpt lat="38.040247" lon="13.2865443"><ele>481.2</ele><time>2026-04-26T16:50:54.057Z</time></trkpt><trkpt lat="38.0402153" lon="13.2866715"><ele>479.4</ele><time>2026-04-26T16:50:55.057Z</time></trkpt><trkpt lat="38.0401879" lon="13.2867964"><ele>477.59999999999997</ele><time>2026-04-26T16:50:56.058Z</time></trkpt><trkpt lat="38.0401659" lon="13.2869181"><ele>475.79999999999995</ele><time>2026-04-26T16:50:57.058Z</time></trkpt><trkpt lat="38.0401471" lon="13.2870339"><ele>474.0</ele><time>2026-04-26T16:50:58.057Z</time></trkpt><trkpt lat="38.0401267" lon="13.287143"><ele>474.0</ele><time>2026-04-26T16:50:59.057Z</time></trkpt><trkpt lat="38.0400982" lon="13.287245"><ele>474.0</ele><time>2026-04-26T16:51:00.057Z</time></trkpt><trkpt lat="38.0400549" lon="13.287331"><ele>474.0</ele><time>2026-04-26T16:51:01.057Z</time></trkpt><trkpt lat="38.0399984" lon="13.2874"><ele>474.0</ele><time>2026-04-26T16:51:02.057Z</time></trkpt><trkpt lat="38.0399347" lon="13.2874519"><ele>474.0</ele><time>2026-04-26T16:51:03.057Z</time></trkpt><trkpt lat="38.0398698" lon="13.2875071"><ele>474.0</ele><time>2026-04-26T16:51:04.057Z</time></trkpt><trkpt lat="38.0398204" lon="13.2875784"><ele>474.3333333333333</ele><time>2026-04-26T16:51:05.057Z</time></trkpt><trkpt lat="38.0397819" lon="13.2876591"><ele>474.66666666666663</ele><time>2026-04-26T16:51:06.057Z</time></trkpt><trkpt lat="38.0397515" lon="13.2877436"><ele>475.0</ele><time>2026-04-26T16:51:07.058Z</time></trkpt><trkpt lat="38.0397399" lon="13.2878308"><ele>475.3333333333333</ele><time>2026-04-26T16:51:08.058Z</time></trkpt><trkpt lat="38.0397383" lon="13.2879241"><ele>475.66666666666663</ele><time>2026-04-26T16:51:09.058Z</time></trkpt><trkpt lat="38.0397549" lon="13.2880231"><ele>476.0</ele><time>2026-04-26T16:51:10.057Z</time></trkpt><trkpt lat="38.039787" lon="13.2881189"><ele>475.3333333333333</ele><time>2026-04-26T16:51:11.057Z</time></trkpt><trkpt lat="38.0398207" lon="13.2882129"><ele>474.66666666666663</ele><time>2026-04-26T16:51:12.057Z</time></trkpt><trkpt lat="38.0398491" lon="13.2883032"><ele>474.0</ele><time>2026-04-26T16:51:13.057Z</time></trkpt><trkpt lat="38.039863" lon="13.2883984"><ele>473.33333333333337</ele><time>2026-04-26T16:51:14.057Z</time></trkpt><trkpt lat="38.0398715" lon="13.2885044"><ele>472.6666666666667</ele><time>2026-04-26T16:51:15.057Z</time></trkpt><trkpt lat="38.0398593" lon="13.2886049"><ele>472.0</ele><time>2026-04-26T16:51:16.057Z</time></trkpt><trkpt lat="38.03984" lon="13.2886986"><ele>472.0</ele><time>2026-04-26T16:51:17.057Z</time></trkpt><trkpt lat="38.0398169" lon="13.2887886"><ele>472.00000000000006</ele><time>2026-04-26T16:51:18.057Z</time></trkpt><trkpt lat="38.0397949" lon="13.2889111"><ele>472.00000000000006</ele><time>2026-04-26T16:51:20.057Z</time></trkpt><trkpt lat="38.0397596" lon="13.2890163"><ele>472.0</ele><time>2026-04-26T16:51:24.057Z</time></trkpt><trkpt lat="38.0397235" lon="13.2891215"><ele>472.0</ele><time>2026-04-26T16:51:26.057Z</time></trkpt><trkpt lat="38.0396941" lon="13.2892519"><ele>471.50000000000006</ele><time>2026-04-26T16:51:28.058Z</time></trkpt><trkpt lat="38.0396588" lon="13.289391"><ele>471.0</ele><time>2026-04-26T16:51:30.057Z</time></trkpt><trkpt lat="38.0396545" lon="13.2894721"><ele>470.5</ele><time>2026-04-26T16:51:31.057Z</time></trkpt><trkpt lat="38.0396571" lon="13.2895556"><ele>470.0</ele><time>2026-04-26T16:51:32.057Z</time></trkpt><trkpt lat="38.0396715" lon="13.2896462"><ele>469.50000000000006</ele><time>2026-04-26T16:51:33.057Z</time></trkpt><trkpt lat="38.0397035" lon="13.2897375"><ele>469.0</ele><time>2026-04-26T16:51:34.058Z</time></trkpt><trkpt lat="38.039743" lon="13.2898232"><ele>468.79999999999995</ele><time>2026-04-26T16:51:35.057Z</time></trkpt><trkpt lat="38.0397861" lon="13.2899137"><ele>468.59999999999997</ele><time>2026-04-26T16:51:36.057Z</time></trkpt><trkpt lat="38.0398367" lon="13.2900127"><ele>468.4</ele><time>2026-04-26T16:51:37.058Z</time></trkpt><trkpt lat="38.0398923" lon="13.2901259"><ele>468.2</ele><time>2026-04-26T16:51:38.057Z</time></trkpt><trkpt lat="38.0399514" lon="13.2902449"><ele>468.0</ele><time>2026-04-26T16:51:39.057Z</time></trkpt><trkpt lat="38.0400108" lon="13.2903735"><ele>464.0</ele><time>2026-04-26T16:51:40.057Z</time></trkpt><trkpt lat="38.0400652" lon="13.2905065"><ele>460.0</ele><time>2026-04-26T16:51:41.057Z</time></trkpt><trkpt lat="38.040117" lon="13.2906396"><ele>456.0</ele><time>2026-04-26T16:51:42.057Z</time></trkpt><trkpt lat="38.0401691" lon="13.2907747"><ele>452.0</ele><time>2026-04-26T16:51:43.057Z</time></trkpt><trkpt lat="38.0402222" lon="13.2909074"><ele>452.0</ele><time>2026-04-26T16:51:44.057Z</time></trkpt><trkpt lat="38.0402698" lon="13.2910423"><ele>452.00000000000006</ele><time>2026-04-26T16:51:45.057Z</time></trkpt><trkpt lat="38.040321" lon="13.2911748"><ele>452.00000000000006</ele><time>2026-04-26T16:51:46.057Z</time></trkpt><trkpt lat="38.0403661" lon="13.2913015"><ele>452.0</ele><time>2026-04-26T16:51:47.057Z</time></trkpt><trkpt lat="38.0404071" lon="13.2914219"><ele>452.0</ele><time>2026-04-26T16:51:48.057Z</time></trkpt><trkpt lat="38.0404402" lon="13.2915382"><ele>452.40000000000003</ele><time>2026-04-26T16:51:49.057Z</time></trkpt><trkpt lat="38.0404592" lon="13.2916553"><ele>452.80000000000007</ele><time>2026-04-26T16:51:50.057Z</time></trkpt><trkpt lat="38.0404589" lon="13.291783"><ele>453.2</ele><time>2026-04-26T16:51:51.057Z</time></trkpt><trkpt lat="38.0404418" lon="13.2919186"><ele>453.6</ele><time>2026-04-26T16:51:52.058Z</time></trkpt><trkpt lat="38.0404176" lon="13.2920568"><ele>454.0</ele><time>2026-04-26T16:51:53.057Z</time></trkpt><trkpt lat="38.040392" lon="13.292194"><ele>453.79999999999995</ele><time>2026-04-26T16:51:54.057Z</time></trkpt><trkpt lat="38.0403617" lon="13.2923299"><ele>453.59999999999997</ele><time>2026-04-26T16:51:55.057Z</time></trkpt><trkpt lat="38.0403363" lon="13.2924593"><ele>453.4</ele><time>2026-04-26T16:51:56.057Z</time></trkpt><trkpt lat="38.0403092" lon="13.2925806"><ele>453.2</ele><time>2026-04-26T16:51:57.057Z</time></trkpt><trkpt lat="38.0402804" lon="13.2926974"><ele>453.0</ele><time>2026-04-26T16:51:58.057Z</time></trkpt><trkpt lat="38.0402594" lon="13.2928096"><ele>453.0</ele><time>2026-04-26T16:51:59.058Z</time></trkpt><trkpt lat="38.0402444" lon="13.2929223"><ele>453.0</ele><time>2026-04-26T16:52:00.057Z</time></trkpt><trkpt lat="38.0402367" lon="13.2930318"><ele>453.0</ele><time>2026-04-26T16:52:01.057Z</time></trkpt><trkpt lat="38.0402495" lon="13.2931363"><ele>453.0</ele><time>2026-04-26T16:52:02.057Z</time></trkpt><trkpt lat="38.0402885" lon="13.2932352"><ele>453.0</ele><time>2026-04-26T16:52:03.057Z</time></trkpt><trkpt lat="38.0403439" lon="13.2933197"><ele>453.0</ele><time>2026-04-26T16:52:04.057Z</time></trkpt><trkpt lat="38.0404157" lon="13.2933961"><ele>455.0</ele><time>2026-04-26T16:52:05.057Z</time></trkpt><trkpt lat="38.0404922" lon="13.293459"><ele>457.0</ele><time>2026-04-26T16:52:06.057Z</time></trkpt><trkpt lat="38.0405747" lon="13.2935104"><ele>459.0</ele><time>2026-04-26T16:52:07.058Z</time></trkpt><trkpt lat="38.0406569" lon="13.293545"><ele>461.0</ele><time>2026-04-26T16:52:08.057Z</time></trkpt><trkpt lat="38.0407385" lon="13.2935673"><ele>463.0</ele><time>2026-04-26T16:52:09.057Z</time></trkpt><trkpt lat="38.0408195" lon="13.2935958"><ele>465.0</ele><time>2026-04-26T16:52:10.057Z</time></trkpt><trkpt lat="38.0408919" lon="13.2936528"><ele>463.4</ele><time>2026-04-26T16:52:11.057Z</time></trkpt><trkpt lat="38.0409399" lon="13.2937364"><ele>461.8</ele><time>2026-04-26T16:52:12.057Z</time></trkpt><trkpt lat="38.0409697" lon="13.2938419"><ele>460.20000000000005</ele><time>2026-04-26T16:52:13.057Z</time></trkpt><trkpt lat="38.040992" lon="13.2939594"><ele>458.6</ele><time>2026-04-26T16:52:14.057Z</time></trkpt><trkpt lat="38.0410167" lon="13.2940775"><ele>457.0</ele><time>2026-04-26T16:52:15.057Z</time></trkpt><trkpt lat="38.0410418" lon="13.2941916"><ele>457.00000000000006</ele><time>2026-04-26T16:52:16.058Z</time></trkpt><trkpt lat="38.0410584" lon="13.2943141"><ele>457.0</ele><time>2026-04-26T16:52:17.058Z</time></trkpt><trkpt lat="38.0410764" lon="13.2944322"><ele>457.0</ele><time>2026-04-26T16:52:18.057Z</time></trkpt><trkpt lat="38.0410864" lon="13.2945418"><ele>457.0</ele><time>2026-04-26T16:52:19.057Z</time></trkpt><trkpt lat="38.0410955" lon="13.2946425"><ele>457.00000000000006</ele><time>2026-04-26T16:52:20.058Z</time></trkpt><trkpt lat="38.0411023" lon="13.2947238"><ele>457.0</ele><time>2026-04-26T16:52:21.057Z</time></trkpt><trkpt lat="38.0411041" lon="13.2948249"><ele>457.00000000000006</ele><time>2026-04-26T16:52:23.057Z</time></trkpt><trkpt lat="38.0411778" lon="13.2948861"><ele>457.0</ele><time>2026-04-26T16:52:26.057Z</time></trkpt><trkpt lat="38.0412504" lon="13.2947774"><ele>457.0</ele><time>2026-04-26T16:52:28.057Z</time></trkpt><trkpt lat="38.0412906" lon="13.294706"><ele>457.0</ele><time>2026-04-26T16:52:29.057Z</time></trkpt><trkpt lat="38.041323" lon="13.2946285"><ele>457.00000000000006</ele><time>2026-04-26T16:52:30.057Z</time></trkpt><trkpt lat="38.0413253" lon="13.2945391"><ele>457.0</ele><time>2026-04-26T16:52:31.058Z</time></trkpt><trkpt lat="38.0413093" lon="13.2944527"><ele>457.00000000000006</ele><time>2026-04-26T16:52:32.057Z</time></trkpt><trkpt lat="38.0412775" lon="13.2943511"><ele>457.0</ele><time>2026-04-26T16:52:33.057Z</time></trkpt><trkpt lat="38.0412494" lon="13.2942459"><ele>457.0</ele><time>2026-04-26T16:52:34.057Z</time></trkpt><trkpt lat="38.0412263" lon="13.2941479"><ele>457.0</ele><time>2026-04-26T16:52:35.057Z</time></trkpt><trkpt lat="38.0412008" lon="13.2940464"><ele>457.00000000000006</ele><time>2026-04-26T16:52:36.057Z</time></trkpt><trkpt lat="38.0411772" lon="13.2939499"><ele>457.0</ele><time>2026-04-26T16:52:37.057Z</time></trkpt><trkpt lat="38.0411618" lon="13.2938615"><ele>453.50000000000006</ele><time>2026-04-26T16:52:38.057Z</time></trkpt><trkpt lat="38.041164" lon="13.2937734"><ele>450.0</ele><time>2026-04-26T16:52:39.057Z</time></trkpt><trkpt lat="38.0412024" lon="13.2937048"><ele>446.5</ele><time>2026-04-26T16:52:40.057Z</time></trkpt><trkpt lat="38.0412629" lon="13.2936771"><ele>443.0</ele><time>2026-04-26T16:52:41.057Z</time></trkpt><trkpt lat="38.0413287" lon="13.2936913"><ele>439.50000000000006</ele><time>2026-04-26T16:52:42.057Z</time></trkpt><trkpt lat="38.0414224" lon="13.2938056"><ele>436.0</ele><time>2026-04-26T16:52:44.057Z</time></trkpt><trkpt lat="38.0414642" lon="13.2939024"><ele>439.50000000000006</ele><time>2026-04-26T16:52:45.057Z</time></trkpt><trkpt lat="38.0414983" lon="13.2940048"><ele>443.0</ele><time>2026-04-26T16:52:46.058Z</time></trkpt><trkpt lat="38.0415267" lon="13.2941106"><ele>446.5</ele><time>2026-04-26T16:52:47.057Z</time></trkpt><trkpt lat="38.0415585" lon="13.2942152"><ele>450.0</ele><time>2026-04-26T16:52:48.057Z</time></trkpt><trkpt lat="38.0415863" lon="13.2943142"><ele>453.50000000000006</ele><time>2026-04-26T16:52:49.058Z</time></trkpt><trkpt lat="38.041611" lon="13.2944135"><ele>457.0</ele><time>2026-04-26T16:52:50.058Z</time></trkpt><trkpt lat="38.0416239" lon="13.2945102"><ele>452.1666666666667</ele><time>2026-04-26T16:52:51.057Z</time></trkpt><trkpt lat="38.0416351" lon="13.2946079"><ele>447.33333333333337</ele><time>2026-04-26T16:52:52.057Z</time></trkpt><trkpt lat="38.0416426" lon="13.2947112"><ele>442.5</ele><time>2026-04-26T16:52:53.057Z</time></trkpt><trkpt lat="38.0416447" lon="13.2948181"><ele>437.66666666666663</ele><time>2026-04-26T16:52:54.057Z</time></trkpt><trkpt lat="38.0416437" lon="13.2949155"><ele>432.8333333333333</ele><time>2026-04-26T16:52:55.057Z</time></trkpt><trkpt lat="38.0416397" lon="13.2950162"><ele>428.0</ele><time>2026-04-26T16:52:56.057Z</time></trkpt><trkpt lat="38.0416431" lon="13.2951183"><ele>427.99999999999994</ele><time>2026-04-26T16:52:57.057Z</time></trkpt><trkpt lat="38.0416481" lon="13.2952189"><ele>428.0</ele><time>2026-04-26T16:52:58.058Z</time></trkpt><trkpt lat="38.0416656" lon="13.2953238"><ele>428.0</ele><time>2026-04-26T16:52:59.057Z</time></trkpt><trkpt lat="38.0416929" lon="13.2954306"><ele>428.0</ele><time>2026-04-26T16:53:00.057Z</time></trkpt><trkpt lat="38.0417247" lon="13.2955419"><ele>427.99999999999994</ele><time>2026-04-26T16:53:01.057Z</time></trkpt><trkpt lat="38.0417573" lon="13.2956507"><ele>428.0</ele><time>2026-04-26T16:53:02.057Z</time></trkpt><trkpt lat="38.0417915" lon="13.295754"><ele>427.99999999999994</ele><time>2026-04-26T16:53:03.057Z</time></trkpt><trkpt lat="38.041825" lon="13.2958585"><ele>428.0</ele><time>2026-04-26T16:53:04.057Z</time></trkpt><trkpt lat="38.0418577" lon="13.2959589"><ele>428.0</ele><time>2026-04-26T16:53:05.058Z</time></trkpt><trkpt lat="38.0418902" lon="13.2960568"><ele>428.0</ele><time>2026-04-26T16:53:06.057Z</time></trkpt><trkpt lat="38.0419281" lon="13.296164"><ele>427.99999999999994</ele><time>2026-04-26T16:53:07.057Z</time></trkpt><trkpt lat="38.0419825" lon="13.2962608"><ele>428.0</ele><time>2026-04-26T16:53:08.057Z</time></trkpt><trkpt lat="38.0420621" lon="13.2963349"><ele>428.0</ele><time>2026-04-26T16:53:09.057Z</time></trkpt><trkpt lat="38.0421477" lon="13.296403"><ele>427.99999999999994</ele><time>2026-04-26T16:53:10.057Z</time></trkpt><trkpt lat="38.0422268" lon="13.2964747"><ele>427.99999999999994</ele><time>2026-04-26T16:53:11.058Z</time></trkpt><trkpt lat="38.0422955" lon="13.2965727"><ele>428.0</ele><time>2026-04-26T16:53:12.058Z</time></trkpt><trkpt lat="38.0423464" lon="13.2966892"><ele>428.0</ele><time>2026-04-26T16:53:13.057Z</time></trkpt><trkpt lat="38.0423814" lon="13.2968193"><ele>428.79999999999995</ele><time>2026-04-26T16:53:14.057Z</time></trkpt><trkpt lat="38.0424074" lon="13.2969463"><ele>429.59999999999997</ele><time>2026-04-26T16:53:15.057Z</time></trkpt><trkpt lat="38.0424315" lon="13.2970718"><ele>430.40000000000003</ele><time>2026-04-26T16:53:16.057Z</time></trkpt><trkpt lat="38.0424512" lon="13.29719"><ele>431.20000000000005</ele><time>2026-04-26T16:53:17.057Z</time></trkpt><trkpt lat="38.0424759" lon="13.2972975"><ele>432.0</ele><time>2026-04-26T16:53:18.057Z</time></trkpt><trkpt lat="38.0425144" lon="13.2973899"><ele>428.5</ele><time>2026-04-26T16:53:19.057Z</time></trkpt><trkpt lat="38.042576" lon="13.2974711"><ele>425.0</ele><time>2026-04-26T16:53:20.057Z</time></trkpt><trkpt lat="38.0426425" lon="13.2975455"><ele>421.5</ele><time>2026-04-26T16:53:21.057Z</time></trkpt><trkpt lat="38.0427146" lon="13.2976073"><ele>418.0</ele><time>2026-04-26T16:53:22.057Z</time></trkpt><trkpt lat="38.0427844" lon="13.297659"><ele>414.5</ele><time>2026-04-26T16:53:23.057Z</time></trkpt><trkpt lat="38.0428526" lon="13.2977049"><ele>411.0</ele><time>2026-04-26T16:53:24.057Z</time></trkpt><trkpt lat="38.0429183" lon="13.2977419"><ele>411.0</ele><time>2026-04-26T16:53:25.057Z</time></trkpt></trkseg><trkseg><trkpt lat="38.0467244" lon="13.3030318"><ele>367.5</ele><time>2026-04-26T16:59:05.056Z</time></trkpt><trkpt lat="38.0467499" lon="13.303121"><ele>373.0</ele><time>2026-04-26T16:59:07.056Z</time></trkpt><trkpt lat="38.046776" lon="13.3032032"><ele>378.5</ele><time>2026-04-26T16:59:09.056Z</time></trkpt><trkpt lat="38.0468108" lon="13.3033038"><ele>384.0</ele><time>2026-04-26T16:59:11.056Z</time></trkpt><trkpt lat="38.0464798" lon="13.3024043"><ele>387.2</ele><time>2026-04-26T16:59:56.056Z</time></trkpt><trkpt lat="38.0465143" lon="13.3025282"><ele>390.4</ele><time>2026-04-26T17:00:12.056Z</time></trkpt><trkpt lat="38.0465591" lon="13.302591"><ele>393.6</ele><time>2026-04-26T17:00:13.056Z</time></trkpt><trkpt lat="38.0466313" lon="13.3027039"><ele>396.8</ele><time>2026-04-26T17:00:15.056Z</time></trkpt><trkpt lat="38.046675" lon="13.3028066"><ele>400.0</ele><time>2026-04-26T17:00:17.056Z</time></trkpt><trkpt lat="38.0467157" lon="13.3029464"><ele>397.33333333333337</ele><time>2026-04-26T17:00:19.056Z</time></trkpt><trkpt lat="38.0467433" lon="13.303034"><ele>394.6666666666667</ele><time>2026-04-26T17:00:20.056Z</time></trkpt><trkpt lat="38.0467733" lon="13.303122"><ele>392.0</ele><time>2026-04-26T17:00:21.057Z</time></trkpt><trkpt lat="38.0468003" lon="13.3032188"><ele>389.33333333333337</ele><time>2026-04-26T17:00:22.056Z</time></trkpt><trkpt lat="38.0468284" lon="13.3033148"><ele>386.6666666666667</ele><time>2026-04-26T17:00:23.056Z</time></trkpt><trkpt lat="38.0468558" lon="13.3034102"><ele>384.0</ele><time>2026-04-26T17:00:24.056Z</time></trkpt><trkpt lat="38.0468717" lon="13.3035014"><ele>384.0</ele><time>2026-04-26T17:00:25.056Z</time></trkpt><trkpt lat="38.046892" lon="13.3036057"><ele>384.0</ele><time>2026-04-26T17:00:26.056Z</time></trkpt><trkpt lat="38.0469091" lon="13.3037127"><ele>384.0</ele><time>2026-04-26T17:00:27.056Z</time></trkpt><trkpt lat="38.0469244" lon="13.3038063"><ele>384.0</ele><time>2026-04-26T17:00:28.057Z</time></trkpt><trkpt lat="38.0469386" lon="13.303901"><ele>384.0</ele><time>2026-04-26T17:00:29.056Z</time></trkpt><trkpt lat="38.0469509" lon="13.3039933"><ele>384.0</ele><time>2026-04-26T17:00:30.056Z</time></trkpt><trkpt lat="38.0469566" lon="13.3040881"><ele>386.2</ele><time>2026-04-26T17:00:31.056Z</time></trkpt><trkpt lat="38.0469575" lon="13.3042002"><ele>388.4</ele><time>2026-04-26T17:00:32.057Z</time></trkpt><trkpt lat="38.0469563" lon="13.304315"><ele>390.6</ele><time>2026-04-26T17:00:33.056Z</time></trkpt><trkpt lat="38.0469571" lon="13.3044313"><ele>392.8</ele><time>2026-04-26T17:00:34.056Z</time></trkpt><trkpt lat="38.0469692" lon="13.3045603"><ele>395.0</ele><time>2026-04-26T17:00:35.056Z</time></trkpt><trkpt lat="38.0469948" lon="13.3046947"><ele>398.75</ele><time>2026-04-26T17:00:36.056Z</time></trkpt><trkpt lat="38.0470288" lon="13.3048341"><ele>402.5</ele><time>2026-04-26T17:00:37.056Z</time></trkpt><trkpt lat="38.0470683" lon="13.304975"><ele>406.25</ele><time>2026-04-26T17:00:38.057Z</time></trkpt><trkpt lat="38.0471018" lon="13.3051072"><ele>410.0</ele><time>2026-04-26T17:00:39.056Z</time></trkpt><trkpt lat="38.0471304" lon="13.3052423"><ele>410.0</ele><time>2026-04-26T17:00:40.056Z</time></trkpt><trkpt lat="38.0471573" lon="13.3053722"><ele>410.0</ele><time>2026-04-26T17:00:41.056Z</time></trkpt><trkpt lat="38.0471915" lon="13.3054904"><ele>410.0</ele><time>2026-04-26T17:00:42.057Z</time></trkpt><trkpt lat="38.0472321" lon="13.3055794"><ele>410.0</ele><time>2026-04-26T17:00:43.056Z</time></trkpt><trkpt lat="38.0472933" lon="13.3056585"><ele>410.0</ele><time>2026-04-26T17:00:44.056Z</time></trkpt><trkpt lat="38.0473603" lon="13.3057291"><ele>411.3333333333333</ele><time>2026-04-26T17:00:45.056Z</time></trkpt><trkpt lat="38.047429" lon="13.3058004"><ele>412.66666666666663</ele><time>2026-04-26T17:00:46.056Z</time></trkpt><trkpt lat="38.0475" lon="13.30587"><ele>414.0</ele><time>2026-04-26T17:00:47.056Z</time></trkpt><trkpt lat="38.0475665" lon="13.3059249"><ele>415.33333333333337</ele><time>2026-04-26T17:00:48.056Z</time></trkpt><trkpt lat="38.0476266" lon="13.3059766"><ele>416.6666666666667</ele><time>2026-04-26T17:00:49.057Z</time></trkpt><trkpt lat="38.0476739" lon="13.3060849"><ele>418.0</ele><time>2026-04-26T17:00:51.056Z</time></trkpt><trkpt lat="38.0476178" lon="13.3061649"><ele>418.2</ele><time>2026-04-26T17:00:53.056Z</time></trkpt><trkpt lat="38.0475467" lon="13.3062936"><ele>418.4</ele><time>2026-04-26T17:00:55.056Z</time></trkpt><trkpt lat="38.0475229" lon="13.306387"><ele>418.59999999999997</ele><time>2026-04-26T17:00:56.056Z</time></trkpt><trkpt lat="38.0474936" lon="13.3064825"><ele>418.79999999999995</ele><time>2026-04-26T17:00:57.057Z</time></trkpt><trkpt lat="38.0474641" lon="13.3065846"><ele>419.0</ele><time>2026-04-26T17:00:58.056Z</time></trkpt><trkpt lat="38.0474336" lon="13.306687"><ele>419.0</ele><time>2026-04-26T17:00:59.056Z</time></trkpt><trkpt lat="38.047404" lon="13.3067955"><ele>419.0</ele><time>2026-04-26T17:01:00.056Z</time></trkpt><trkpt lat="38.0473789" lon="13.3069045"><ele>419.0</ele><time>2026-04-26T17:01:01.056Z</time></trkpt><trkpt lat="38.0473507" lon="13.3070127"><ele>419.0</ele><time>2026-04-26T17:01:02.056Z</time></trkpt><trkpt lat="38.0473227" lon="13.3071251"><ele>419.0</ele><time>2026-04-26T17:01:03.056Z</time></trkpt><trkpt lat="38.0472983" lon="13.3072397"><ele>419.6</ele><time>2026-04-26T17:01:04.056Z</time></trkpt><trkpt lat="38.0472718" lon="13.3073562"><ele>420.2</ele><time>2026-04-26T17:01:05.056Z</time></trkpt><trkpt lat="38.047241" lon="13.3074742"><ele>420.8</ele><time>2026-04-26T17:01:06.056Z</time></trkpt><trkpt lat="38.0472061" lon="13.3075869"><ele>421.40000000000003</ele><time>2026-04-26T17:01:07.056Z</time></trkpt><trkpt lat="38.0471742" lon="13.3076972"><ele>422.0</ele><time>2026-04-26T17:01:08.057Z</time></trkpt><trkpt lat="38.0471441" lon="13.3077975"><ele>421.99999999999994</ele><time>2026-04-26T17:01:09.056Z</time></trkpt><trkpt lat="38.0471259" lon="13.3078912"><ele>422.0</ele><time>2026-04-26T17:01:10.056Z</time></trkpt><trkpt lat="38.0471206" lon="13.3079811"><ele>422.0</ele><time>2026-04-26T17:01:11.056Z</time></trkpt><trkpt lat="38.0471271" lon="13.308124"><ele>422.0</ele><time>2026-04-26T17:01:13.056Z</time></trkpt><trkpt lat="38.0471171" lon="13.3082333"><ele>421.99999999999994</ele><time>2026-04-26T17:01:15.056Z</time></trkpt><trkpt lat="38.0471093" lon="13.3083573"><ele>422.0</ele><time>2026-04-26T17:01:17.056Z</time></trkpt><trkpt lat="38.0471032" lon="13.3084387"><ele>421.8333333333333</ele><time>2026-04-26T17:01:18.057Z</time></trkpt><trkpt lat="38.0470835" lon="13.3085286"><ele>421.66666666666663</ele><time>2026-04-26T17:01:19.056Z</time></trkpt><trkpt lat="38.0470547" lon="13.3086282"><ele>421.5</ele><time>2026-04-26T17:01:20.056Z</time></trkpt><trkpt lat="38.0470115" lon="13.3087277"><ele>421.33333333333337</ele><time>2026-04-26T17:01:21.056Z</time></trkpt><trkpt lat="38.046968" lon="13.3088335"><ele>421.1666666666667</ele><time>2026-04-26T17:01:22.056Z</time></trkpt><trkpt lat="38.0469235" lon="13.3089408"><ele>421.0</ele><time>2026-04-26T17:01:23.057Z</time></trkpt><trkpt lat="38.0468627" lon="13.3090304"><ele>423.6666666666667</ele><time>2026-04-26T17:01:24.056Z</time></trkpt><trkpt lat="38.0468083" lon="13.3091223"><ele>426.33333333333337</ele><time>2026-04-26T17:01:25.056Z</time></trkpt><trkpt lat="38.0467554" lon="13.3091993"><ele>429.0</ele><time>2026-04-26T17:01:26.056Z</time></trkpt><trkpt lat="38.046706" lon="13.309269"><ele>431.66666666666663</ele><time>2026-04-26T17:01:27.056Z</time></trkpt><trkpt lat="38.0466595" lon="13.309341"><ele>434.3333333333333</ele><time>2026-04-26T17:01:28.057Z</time></trkpt><trkpt lat="38.0466136" lon="13.3094068"><ele>437.0</ele><time>2026-04-26T17:01:29.056Z</time></trkpt><trkpt lat="38.0465648" lon="13.309468"><ele>436.99999999999994</ele><time>2026-04-26T17:01:30.056Z</time></trkpt><trkpt lat="38.0465116" lon="13.3095369"><ele>437.0</ele><time>2026-04-26T17:01:31.056Z</time></trkpt><trkpt lat="38.04646" lon="13.3096074"><ele>437.0</ele><time>2026-04-26T17:01:32.056Z</time></trkpt><trkpt lat="38.0464099" lon="13.3096798"><ele>437.0</ele><time>2026-04-26T17:01:33.057Z</time></trkpt><trkpt lat="38.0463595" lon="13.3097563"><ele>436.99999999999994</ele><time>2026-04-26T17:01:34.057Z</time></trkpt><trkpt lat="38.0463158" lon="13.3098422"><ele>437.0</ele><time>2026-04-26T17:01:35.056Z</time></trkpt><trkpt lat="38.0462743" lon="13.3099276"><ele>432.40000000000003</ele><time>2026-04-26T17:01:36.056Z</time></trkpt><trkpt lat="38.0462316" lon="13.310005"><ele>427.80000000000007</ele><time>2026-04-26T17:01:37.056Z</time></trkpt><trkpt lat="38.0461917" lon="13.3100819"><ele>423.2</ele><time>2026-04-26T17:01:38.056Z</time></trkpt><trkpt lat="38.0461563" lon="13.3101517"><ele>418.6</ele><time>2026-04-26T17:01:39.056Z</time></trkpt><trkpt lat="38.0460982" lon="13.3102855"><ele>414.0</ele><time>2026-04-26T17:01:41.056Z</time></trkpt><trkpt lat="38.0460284" lon="13.3104195"><ele>414.0</ele><time>2026-04-26T17:01:43.056Z</time></trkpt><trkpt lat="38.045994" lon="13.3104989"><ele>414.0</ele><time>2026-04-26T17:01:44.057Z</time></trkpt><trkpt lat="38.0459563" lon="13.3105805"><ele>414.0</ele><time>2026-04-26T17:01:45.057Z</time></trkpt><trkpt lat="38.0459239" lon="13.3106747"><ele>414.0</ele><time>2026-04-26T17:01:46.057Z</time></trkpt><trkpt lat="38.0458913" lon="13.3107693"><ele>414.0</ele><time>2026-04-26T17:01:47.056Z</time></trkpt><trkpt lat="38.0458587" lon="13.3108593"><ele>414.0</ele><time>2026-04-26T17:01:48.056Z</time></trkpt><trkpt lat="38.0458314" lon="13.3109492"><ele>415.4</ele><time>2026-04-26T17:01:49.057Z</time></trkpt><trkpt lat="38.0458058" lon="13.3110393"><ele>416.79999999999995</ele><time>2026-04-26T17:01:50.056Z</time></trkpt><trkpt lat="38.0457745" lon="13.3111321"><ele>418.20000000000005</ele><time>2026-04-26T17:01:51.056Z</time></trkpt><trkpt lat="38.0457396" lon="13.3112366"><ele>419.6</ele><time>2026-04-26T17:01:52.056Z</time></trkpt><trkpt lat="38.0456961" lon="13.3113592"><ele>421.0</ele><time>2026-04-26T17:01:53.057Z</time></trkpt><trkpt lat="38.0456314" lon="13.311489"><ele>421.0</ele><time>2026-04-26T17:01:54.056Z</time></trkpt><trkpt lat="38.0455545" lon="13.311615"><ele>421.0</ele><time>2026-04-26T17:01:55.057Z</time></trkpt><trkpt lat="38.0454753" lon="13.3117365"><ele>421.0</ele><time>2026-04-26T17:01:56.056Z</time></trkpt><trkpt lat="38.0453975" lon="13.3118581"><ele>421.0</ele><time>2026-04-26T17:01:57.056Z</time></trkpt><trkpt lat="38.0453223" lon="13.3119833"><ele>421.0</ele><time>2026-04-26T17:01:58.056Z</time></trkpt><trkpt lat="38.0452475" lon="13.3121144"><ele>421.0</ele><time>2026-04-26T17:01:59.056Z</time></trkpt><trkpt lat="38.045172" lon="13.3122505"><ele>421.0</ele><time>2026-04-26T17:02:00.056Z</time></trkpt><trkpt lat="38.045098" lon="13.3123876"><ele>421.0</ele><time>2026-04-26T17:02:01.056Z</time></trkpt><trkpt lat="38.0450275" lon="13.3125149"><ele>418.20000000000005</ele><time>2026-04-26T17:02:02.056Z</time></trkpt><trkpt lat="38.0449596" lon="13.3126388"><ele>415.40000000000003</ele><time>2026-04-26T17:02:03.056Z</time></trkpt><trkpt lat="38.0448984" lon="13.3127574"><ele>412.6</ele><time>2026-04-26T17:02:04.056Z</time></trkpt><trkpt lat="38.0448458" lon="13.3128723"><ele>409.8</ele><time>2026-04-26T17:02:05.056Z</time></trkpt><trkpt lat="38.0447975" lon="13.312987"><ele>407.0</ele><time>2026-04-26T17:02:06.056Z</time></trkpt><trkpt lat="38.0447507" lon="13.3130915"><ele>406.99999999999994</ele><time>2026-04-26T17:02:07.056Z</time></trkpt><trkpt lat="38.0447006" lon="13.3131883"><ele>407.0</ele><time>2026-04-26T17:02:08.056Z</time></trkpt><trkpt lat="38.0446489" lon="13.3132779"><ele>407.0</ele><time>2026-04-26T17:02:09.056Z</time></trkpt><trkpt lat="38.0446021" lon="13.3133624"><ele>407.0</ele><time>2026-04-26T17:02:10.056Z</time></trkpt><trkpt lat="38.0445655" lon="13.3134321"><ele>406.99999999999994</ele><time>2026-04-26T17:02:11.056Z</time></trkpt><trkpt lat="38.0445235" lon="13.3135277"><ele>407.0</ele><time>2026-04-26T17:02:13.057Z</time></trkpt><trkpt lat="38.0446328" lon="13.3135248"><ele>407.0</ele><time>2026-04-26T17:02:23.056Z</time></trkpt><trkpt lat="38.0446882" lon="13.313478"><ele>407.0</ele><time>2026-04-26T17:02:24.056Z</time></trkpt><trkpt lat="38.0447581" lon="13.3133998"><ele>407.0</ele><time>2026-04-26T17:02:25.056Z</time></trkpt><trkpt lat="38.044834" lon="13.3132772"><ele>407.0</ele><time>2026-04-26T17:02:26.056Z</time></trkpt><trkpt lat="38.0449182" lon="13.3131584"><ele>407.0</ele><time>2026-04-26T17:02:27.056Z</time></trkpt><trkpt lat="38.0449997" lon="13.3130482"><ele>404.40000000000003</ele><time>2026-04-26T17:02:28.056Z</time></trkpt><trkpt lat="38.0450802" lon="13.3129484"><ele>401.8</ele><time>2026-04-26T17:02:29.057Z</time></trkpt><trkpt lat="38.0451555" lon="13.3128552"><ele>399.2</ele><time>2026-04-26T17:02:30.056Z</time></trkpt><trkpt lat="38.0452279" lon="13.3127761"><ele>396.6</ele><time>2026-04-26T17:02:31.056Z</time></trkpt><trkpt lat="38.045302" lon="13.3127083"><ele>394.0</ele><time>2026-04-26T17:02:32.056Z</time></trkpt><trkpt lat="38.0453849" lon="13.3126589"><ele>394.00000000000006</ele><time>2026-04-26T17:02:33.056Z</time></trkpt><trkpt lat="38.0454622" lon="13.3126394"><ele>394.0</ele><time>2026-04-26T17:02:34.056Z</time></trkpt><trkpt lat="38.045538" lon="13.3126508"><ele>394.0</ele><time>2026-04-26T17:02:35.057Z</time></trkpt><trkpt lat="38.0455996" lon="13.3127033"><ele>394.0</ele><time>2026-04-26T17:02:36.056Z</time></trkpt><trkpt lat="38.0456518" lon="13.3127805"><ele>394.00000000000006</ele><time>2026-04-26T17:02:37.056Z</time></trkpt><trkpt lat="38.0456907" lon="13.3128621"><ele>394.0</ele><time>2026-04-26T17:02:38.057Z</time></trkpt><trkpt lat="38.045712" lon="13.3129494"><ele>394.0</ele><time>2026-04-26T17:02:39.056Z</time></trkpt><trkpt lat="38.0457174" lon="13.3130429"><ele>394.0</ele><time>2026-04-26T17:02:40.057Z</time></trkpt><trkpt lat="38.0456936" lon="13.3131525"><ele>394.0</ele><time>2026-04-26T17:02:41.056Z</time></trkpt><trkpt lat="38.0456369" lon="13.3132809"><ele>394.0</ele><time>2026-04-26T17:02:42.056Z</time></trkpt><trkpt lat="38.0455587" lon="13.3134206"><ele>394.0</ele><time>2026-04-26T17:02:43.056Z</time></trkpt><trkpt lat="38.0454766" lon="13.3135533"><ele>388.25</ele><time>2026-04-26T17:02:44.056Z</time></trkpt><trkpt lat="38.0453992" lon="13.3136893"><ele>382.5</ele><time>2026-04-26T17:02:45.056Z</time></trkpt><trkpt lat="38.0453325" lon="13.3138212"><ele>376.75</ele><time>2026-04-26T17:02:46.056Z</time></trkpt><trkpt lat="38.0452868" lon="13.3139536"><ele>371.0</ele><time>2026-04-26T17:02:47.056Z</time></trkpt><trkpt lat="38.0452822" lon="13.3140827"><ele>369.0</ele><time>2026-04-26T17:02:48.056Z</time></trkpt><trkpt lat="38.0453092" lon="13.3141952"><ele>367.0</ele><time>2026-04-26T17:02:49.056Z</time></trkpt><trkpt lat="38.0453819" lon="13.3143003"><ele>365.0</ele><time>2026-04-26T17:02:50.056Z</time></trkpt><trkpt lat="38.0454906" lon="13.3143737"><ele>363.0</ele><time>2026-04-26T17:02:51.056Z</time></trkpt><trkpt lat="38.0456152" lon="13.3144451"><ele>363.0</ele><time>2026-04-26T17:02:52.056Z</time></trkpt><trkpt lat="38.0457452" lon="13.3145177"><ele>363.0</ele><time>2026-04-26T17:02:53.057Z</time></trkpt><trkpt lat="38.0458705" lon="13.3145862"><ele>363.0</ele><time>2026-04-26T17:02:54.056Z</time></trkpt><trkpt lat="38.0459863" lon="13.3146499"><ele>363.0</ele><time>2026-04-26T17:02:55.057Z</time></trkpt><trkpt lat="38.0460863" lon="13.3147081"><ele>360.5</ele><time>2026-04-26T17:02:56.056Z</time></trkpt><trkpt lat="38.0461652" lon="13.3147483"><ele>358.0</ele><time>2026-04-26T17:02:57.056Z</time></trkpt><trkpt lat="38.0462531" lon="13.3148008"><ele>355.5</ele><time>2026-04-26T17:02:59.056Z</time></trkpt><trkpt lat="38.0462767" lon="13.3149013"><ele>353.0</ele><time>2026-04-26T17:03:02.056Z</time></trkpt><trkpt lat="38.0462448" lon="13.3149762"><ele>350.5</ele><time>2026-04-26T17:03:04.056Z</time></trkpt><trkpt lat="38.0461723" lon="13.3150536"><ele>348.0</ele><time>2026-04-26T17:03:06.056Z</time></trkpt><trkpt lat="38.0461171" lon="13.3151152"><ele>348.0</ele><time>2026-04-26T17:03:08.056Z</time></trkpt><trkpt lat="38.0461844" lon="13.3150732"><ele>348.0</ele><time>2026-04-26T17:03:15.057Z</time></trkpt><trkpt lat="38.0462345" lon="13.3149964"><ele>348.0</ele><time>2026-04-26T17:03:17.056Z</time></trkpt><trkpt lat="38.0463028" lon="13.3149309"><ele>348.0</ele><time>2026-04-26T17:03:20.056Z</time></trkpt><trkpt lat="38.0463495" lon="13.3148642"><ele>348.0</ele><time>2026-04-26T17:03:23.055Z</time></trkpt><trkpt lat="38.046284" lon="13.3148723"><ele>348.0</ele><time>2026-04-26T17:03:26.055Z</time></trkpt><trkpt lat="38.0461955" lon="13.3150173"><ele>348.0</ele><time>2026-04-26T17:03:28.055Z</time></trkpt><trkpt lat="38.0461305" lon="13.3151027"><ele>348.0</ele><time>2026-04-26T17:03:29.055Z</time></trkpt><trkpt lat="38.0460652" lon="13.3151908"><ele>348.0</ele><time>2026-04-26T17:03:30.055Z</time></trkpt><trkpt lat="38.0459884" lon="13.3152709"><ele>348.0</ele><time>2026-04-26T17:03:31.056Z</time></trkpt><trkpt lat="38.045912" lon="13.3153354"><ele>348.0</ele><time>2026-04-26T17:03:32.055Z</time></trkpt><trkpt lat="38.0458369" lon="13.3153942"><ele>349.0</ele><time>2026-04-26T17:03:33.055Z</time></trkpt><trkpt lat="38.04577" lon="13.3154444"><ele>350.0</ele><time>2026-04-26T17:03:34.055Z</time></trkpt><trkpt lat="38.0457035" lon="13.3154824"><ele>351.0</ele><time>2026-04-26T17:03:35.055Z</time></trkpt><trkpt lat="38.0456367" lon="13.3155097"><ele>352.0</ele><time>2026-04-26T17:03:36.055Z</time></trkpt><trkpt lat="38.045557" lon="13.3155309"><ele>353.0</ele><time>2026-04-26T17:03:37.056Z</time></trkpt><trkpt lat="38.0454681" lon="13.3155644"><ele>354.0</ele><time>2026-04-26T17:03:38.055Z</time></trkpt><trkpt lat="38.0453847" lon="13.3156136"><ele>354.0</ele><time>2026-04-26T17:03:39.055Z</time></trkpt><trkpt lat="38.045315" lon="13.3156697"><ele>354.0</ele><time>2026-04-26T17:03:40.055Z</time></trkpt><trkpt lat="38.0452588" lon="13.315722"><ele>354.0</ele><time>2026-04-26T17:03:41.055Z</time></trkpt><trkpt lat="38.0452128" lon="13.3157809"><ele>354.0</ele><time>2026-04-26T17:03:42.055Z</time></trkpt><trkpt lat="38.0451634" lon="13.3158323"><ele>354.0</ele><time>2026-04-26T17:03:43.055Z</time></trkpt><trkpt lat="38.0450852" lon="13.3159313"><ele>354.0</ele><time>2026-04-26T17:03:45.055Z</time></trkpt><trkpt lat="38.0450634" lon="13.316052"><ele>354.0</ele><time>2026-04-26T17:03:47.055Z</time></trkpt><trkpt lat="38.0450572" lon="13.3161469"><ele>354.0</ele><time>2026-04-26T17:03:48.055Z</time></trkpt><trkpt lat="38.0450354" lon="13.3162722"><ele>354.0</ele><time>2026-04-26T17:03:49.055Z</time></trkpt><trkpt lat="38.0449863" lon="13.3163996"><ele>354.0</ele><time>2026-04-26T17:03:50.056Z</time></trkpt><trkpt lat="38.0449324" lon="13.3165207"><ele>354.0</ele><time>2026-04-26T17:03:51.055Z</time></trkpt><trkpt lat="38.0448781" lon="13.3166234"><ele>356.0</ele><time>2026-04-26T17:03:52.055Z</time></trkpt><trkpt lat="38.0448422" lon="13.3167171"><ele>358.0</ele><time>2026-04-26T17:03:53.055Z</time></trkpt><trkpt lat="38.0448226" lon="13.3168023"><ele>360.0</ele><time>2026-04-26T17:03:54.055Z</time></trkpt><trkpt lat="38.0448287" lon="13.3168859"><ele>362.0</ele><time>2026-04-26T17:03:55.055Z</time></trkpt><trkpt lat="38.0448372" lon="13.3169849"><ele>364.0</ele><time>2026-04-26T17:03:56.055Z</time></trkpt><trkpt lat="38.0448296" lon="13.3170896"><ele>366.0</ele><time>2026-04-26T17:03:57.056Z</time></trkpt><trkpt lat="38.0448189" lon="13.317191"><ele>365.8</ele><time>2026-04-26T17:03:58.055Z</time></trkpt><trkpt lat="38.044809" lon="13.3172832"><ele>365.6</ele><time>2026-04-26T17:03:59.055Z</time></trkpt><trkpt lat="38.04481" lon="13.3173724"><ele>365.4</ele><time>2026-04-26T17:04:00.056Z</time></trkpt><trkpt lat="38.0448034" lon="13.3175195"><ele>365.2</ele><time>2026-04-26T17:04:02.055Z</time></trkpt><trkpt lat="38.0447432" lon="13.317662"><ele>365.0</ele><time>2026-04-26T17:04:04.055Z</time></trkpt><trkpt lat="38.0447025" lon="13.3177423"><ele>365.0</ele><time>2026-04-26T17:04:05.055Z</time></trkpt><trkpt lat="38.0446745" lon="13.3178254"><ele>365.0</ele><time>2026-04-26T17:04:06.055Z</time></trkpt><trkpt lat="38.0446447" lon="13.3179094"><ele>365.0</ele><time>2026-04-26T17:04:07.055Z</time></trkpt><trkpt lat="38.0446069" lon="13.3180028"><ele>365.0</ele><time>2026-04-26T17:04:08.056Z</time></trkpt><trkpt lat="38.0445675" lon="13.318101"><ele>365.0</ele><time>2026-04-26T17:04:09.055Z</time></trkpt><trkpt lat="38.0445323" lon="13.3182028"><ele>365.0</ele><time>2026-04-26T17:04:10.055Z</time></trkpt><trkpt lat="38.0444992" lon="13.3183017"><ele>364.83333333333337</ele><time>2026-04-26T17:04:11.055Z</time></trkpt><trkpt lat="38.0444642" lon="13.3183999"><ele>364.6666666666667</ele><time>2026-04-26T17:04:12.055Z</time></trkpt><trkpt lat="38.0444196" lon="13.3184991"><ele>364.5</ele><time>2026-04-26T17:04:13.055Z</time></trkpt><trkpt lat="38.0443654" lon="13.3185908"><ele>364.3333333333333</ele><time>2026-04-26T17:04:14.055Z</time></trkpt><trkpt lat="38.0443075" lon="13.3186708"><ele>364.16666666666663</ele><time>2026-04-26T17:04:15.055Z</time></trkpt><trkpt lat="38.0442482" lon="13.3187499"><ele>364.0</ele><time>2026-04-26T17:04:16.056Z</time></trkpt><trkpt lat="38.0441875" lon="13.3188252"><ele>364.0</ele><time>2026-04-26T17:04:17.055Z</time></trkpt><trkpt lat="38.0441301" lon="13.3188967"><ele>364.0</ele><time>2026-04-26T17:04:18.055Z</time></trkpt><trkpt lat="38.044077" lon="13.3189662"><ele>364.0</ele><time>2026-04-26T17:04:19.055Z</time></trkpt><trkpt lat="38.0440292" lon="13.319037"><ele>364.0</ele><time>2026-04-26T17:04:20.055Z</time></trkpt><trkpt lat="38.0439884" lon="13.3191146"><ele>364.0</ele><time>2026-04-26T17:04:21.055Z</time></trkpt><trkpt lat="38.043941" lon="13.319186"><ele>364.0</ele><time>2026-04-26T17:04:22.055Z</time></trkpt><trkpt lat="38.0438847" lon="13.3192521"><ele>365.6</ele><time>2026-04-26T17:04:23.055Z</time></trkpt><trkpt lat="38.0438349" lon="13.319338"><ele>367.2</ele><time>2026-04-26T17:04:24.055Z</time></trkpt><trkpt lat="38.0437959" lon="13.319453"><ele>368.8</ele><time>2026-04-26T17:04:25.055Z</time></trkpt><trkpt lat="38.0437682" lon="13.319572"><ele>370.40000000000003</ele><time>2026-04-26T17:04:26.056Z</time></trkpt><trkpt lat="38.0437395" lon="13.319686"><ele>372.0</ele><time>2026-04-26T17:04:27.055Z</time></trkpt><trkpt lat="38.0437069" lon="13.3197915"><ele>372.6</ele><time>2026-04-26T17:04:28.055Z</time></trkpt><trkpt lat="38.0436699" lon="13.319899"><ele>373.20000000000005</ele><time>2026-04-26T17:04:29.055Z</time></trkpt><trkpt lat="38.0436341" lon="13.3200056"><ele>373.8</ele><time>2026-04-26T17:04:30.056Z</time></trkpt><trkpt lat="38.0436012" lon="13.3201148"><ele>374.4</ele><time>2026-04-26T17:04:31.056Z</time></trkpt><trkpt lat="38.0435776" lon="13.3202212"><ele>375.0</ele><time>2026-04-26T17:04:32.055Z</time></trkpt><trkpt lat="38.0435598" lon="13.3203314"><ele>375.0</ele><time>2026-04-26T17:04:33.055Z</time></trkpt><trkpt lat="38.043545" lon="13.320444"><ele>375.0</ele><time>2026-04-26T17:04:34.055Z</time></trkpt><trkpt lat="38.0435231" lon="13.3205597"><ele>375.0</ele><time>2026-04-26T17:04:35.055Z</time></trkpt><trkpt lat="38.0434884" lon="13.3206782"><ele>375.0</ele><time>2026-04-26T17:04:36.056Z</time></trkpt><trkpt lat="38.0434499" lon="13.3207908"><ele>375.0</ele><time>2026-04-26T17:04:37.055Z</time></trkpt><trkpt lat="38.0434099" lon="13.3209032"><ele>375.8</ele><time>2026-04-26T17:04:38.056Z</time></trkpt><trkpt lat="38.0433618" lon="13.3210121"><ele>376.6</ele><time>2026-04-26T17:04:39.055Z</time></trkpt><trkpt lat="38.0433172" lon="13.3211147"><ele>377.4</ele><time>2026-04-26T17:04:40.055Z</time></trkpt><trkpt lat="38.0432715" lon="13.3212149"><ele>378.2</ele><time>2026-04-26T17:04:41.055Z</time></trkpt><trkpt lat="38.0432227" lon="13.3213143"><ele>379.0</ele><time>2026-04-26T17:04:42.055Z</time></trkpt><trkpt lat="38.0431766" lon="13.3214231"><ele>379.6</ele><time>2026-04-26T17:04:43.055Z</time></trkpt><trkpt lat="38.0431328" lon="13.3215392"><ele>380.2</ele><time>2026-04-26T17:04:44.055Z</time></trkpt><trkpt lat="38.0430879" lon="13.3216562"><ele>380.8</ele><time>2026-04-26T17:04:45.055Z</time></trkpt><trkpt lat="38.0430427" lon="13.3217753"><ele>381.40000000000003</ele><time>2026-04-26T17:04:46.055Z</time></trkpt><trkpt lat="38.042998" lon="13.3218952"><ele>382.0</ele><time>2026-04-26T17:04:47.055Z</time></trkpt><trkpt lat="38.042957" lon="13.3220185"><ele>382.0</ele><time>2026-04-26T17:04:48.055Z</time></trkpt><trkpt lat="38.0429232" lon="13.3221494"><ele>382.0</ele><time>2026-04-26T17:04:49.055Z</time></trkpt><trkpt lat="38.0428896" lon="13.3222794"><ele>382.0</ele><time>2026-04-26T17:04:50.055Z</time></trkpt><trkpt lat="38.0428561" lon="13.3224058"><ele>382.0</ele><time>2026-04-26T17:04:51.055Z</time></trkpt><trkpt lat="38.0428229" lon="13.3225273"><ele>382.0</ele><time>2026-04-26T17:04:52.055Z</time></trkpt><trkpt lat="38.0427864" lon="13.3226458"><ele>382.6</ele><time>2026-04-26T17:04:53.055Z</time></trkpt><trkpt lat="38.0427481" lon="13.3227651"><ele>383.20000000000005</ele><time>2026-04-26T17:04:54.055Z</time></trkpt><trkpt lat="38.0427137" lon="13.3228872"><ele>383.8</ele><time>2026-04-26T17:04:55.055Z</time></trkpt><trkpt lat="38.0426814" lon="13.32301"><ele>384.4</ele><time>2026-04-26T17:04:56.055Z</time></trkpt><trkpt lat="38.0426414" lon="13.3231345"><ele>385.0</ele><time>2026-04-26T17:04:57.055Z</time></trkpt><trkpt lat="38.0425929" lon="13.3232583"><ele>386.0</ele><time>2026-04-26T17:04:58.055Z</time></trkpt><trkpt lat="38.0425396" lon="13.3233978"><ele>387.0</ele><time>2026-04-26T17:04:59.055Z</time></trkpt><trkpt lat="38.0424815" lon="13.3235445"><ele>388.0</ele><time>2026-04-26T17:05:00.055Z</time></trkpt><trkpt lat="38.0424222" lon="13.3236954"><ele>389.0</ele><time>2026-04-26T17:05:01.055Z</time></trkpt><trkpt lat="38.0423637" lon="13.3238424"><ele>389.5</ele><time>2026-04-26T17:05:02.056Z</time></trkpt><trkpt lat="38.0423078" lon="13.3239845"><ele>390.0</ele><time>2026-04-26T17:05:03.056Z</time></trkpt><trkpt lat="38.0422485" lon="13.3241244"><ele>390.5</ele><time>2026-04-26T17:05:04.056Z</time></trkpt><trkpt lat="38.0421922" lon="13.3242652"><ele>391.0</ele><time>2026-04-26T17:05:05.055Z</time></trkpt><trkpt lat="38.042137" lon="13.3244164"><ele>391.0</ele><time>2026-04-26T17:05:06.055Z</time></trkpt><trkpt lat="38.042085" lon="13.3245741"><ele>391.0</ele><time>2026-04-26T17:05:07.055Z</time></trkpt><trkpt lat="38.0420347" lon="13.3247322"><ele>391.0</ele><time>2026-04-26T17:05:08.055Z</time></trkpt><trkpt lat="38.0419877" lon="13.3248819"><ele>391.0</ele><time>2026-04-26T17:05:09.055Z</time></trkpt><trkpt lat="38.0419373" lon="13.3250129"><ele>391.6</ele><time>2026-04-26T17:05:10.055Z</time></trkpt><trkpt lat="38.0418887" lon="13.3251351"><ele>392.20000000000005</ele><time>2026-04-26T17:05:11.055Z</time></trkpt><trkpt lat="38.0418435" lon="13.3252604"><ele>392.79999999999995</ele><time>2026-04-26T17:05:12.055Z</time></trkpt><trkpt lat="38.0417984" lon="13.3253892"><ele>393.4</ele><time>2026-04-26T17:05:13.055Z</time></trkpt><trkpt lat="38.041742" lon="13.3255123"><ele>394.0</ele><time>2026-04-26T17:05:14.055Z</time></trkpt><trkpt lat="38.0416819" lon="13.3256301"><ele>394.4</ele><time>2026-04-26T17:05:15.055Z</time></trkpt><trkpt lat="38.0416195" lon="13.3257468"><ele>394.79999999999995</ele><time>2026-04-26T17:05:16.055Z</time></trkpt><trkpt lat="38.041558" lon="13.325861"><ele>395.20000000000005</ele><time>2026-04-26T17:05:17.055Z</time></trkpt><trkpt lat="38.041504" lon="13.3259797"><ele>395.6</ele><time>2026-04-26T17:05:18.056Z</time></trkpt><trkpt lat="38.0414567" lon="13.3260888"><ele>396.0</ele><time>2026-04-26T17:05:19.055Z</time></trkpt><trkpt lat="38.0414164" lon="13.3261901"><ele>396.0</ele><time>2026-04-26T17:05:20.055Z</time></trkpt><trkpt lat="38.0413842" lon="13.3262808"><ele>396.0</ele><time>2026-04-26T17:05:21.055Z</time></trkpt><trkpt lat="38.0413599" lon="13.3263655"><ele>396.0</ele><time>2026-04-26T17:05:22.055Z</time></trkpt><trkpt lat="38.0413445" lon="13.3264517"><ele>396.0</ele><time>2026-04-26T17:05:23.055Z</time></trkpt><trkpt lat="38.041338" lon="13.3265433"><ele>396.0</ele><time>2026-04-26T17:05:24.056Z</time></trkpt><trkpt lat="38.0413419" lon="13.32664"><ele>396.0</ele><time>2026-04-26T17:05:25.055Z</time></trkpt><trkpt lat="38.0413393" lon="13.3267388"><ele>396.0</ele><time>2026-04-26T17:05:26.055Z</time></trkpt><trkpt lat="38.0413319" lon="13.3268406"><ele>396.8333333333333</ele><time>2026-04-26T17:05:27.055Z</time></trkpt><trkpt lat="38.0413219" lon="13.3269472"><ele>397.66666666666663</ele><time>2026-04-26T17:05:28.055Z</time></trkpt><trkpt lat="38.041308" lon="13.3270527"><ele>398.5</ele><time>2026-04-26T17:05:29.055Z</time></trkpt><trkpt lat="38.0412846" lon="13.3271597"><ele>399.3333333333333</ele><time>2026-04-26T17:05:30.055Z</time></trkpt><trkpt lat="38.0412492" lon="13.3272619"><ele>400.16666666666663</ele><time>2026-04-26T17:05:31.055Z</time></trkpt><trkpt lat="38.0412089" lon="13.3273557"><ele>401.0</ele><time>2026-04-26T17:05:32.055Z</time></trkpt><trkpt lat="38.0411729" lon="13.3274402"><ele>401.66666666666663</ele><time>2026-04-26T17:05:33.055Z</time></trkpt><trkpt lat="38.0411467" lon="13.3275259"><ele>402.3333333333333</ele><time>2026-04-26T17:05:34.055Z</time></trkpt><trkpt lat="38.0411347" lon="13.3276143"><ele>403.0</ele><time>2026-04-26T17:05:35.055Z</time></trkpt><trkpt lat="38.0411411" lon="13.3277072"><ele>403.66666666666663</ele><time>2026-04-26T17:05:36.055Z</time></trkpt><trkpt lat="38.0411602" lon="13.3278056"><ele>404.3333333333333</ele><time>2026-04-26T17:05:37.055Z</time></trkpt><trkpt lat="38.0411864" lon="13.3279073"><ele>405.0</ele><time>2026-04-26T17:05:38.055Z</time></trkpt><trkpt lat="38.0412159" lon="13.3280049"><ele>405.3333333333333</ele><time>2026-04-26T17:05:39.055Z</time></trkpt><trkpt lat="38.0412481" lon="13.3280959"><ele>405.66666666666663</ele><time>2026-04-26T17:05:40.055Z</time></trkpt><trkpt lat="38.0412777" lon="13.3281864"><ele>406.0</ele><time>2026-04-26T17:05:41.055Z</time></trkpt><trkpt lat="38.0412971" lon="13.328278"><ele>406.3333333333333</ele><time>2026-04-26T17:05:42.055Z</time></trkpt><trkpt lat="38.0413007" lon="13.3283776"><ele>406.66666666666663</ele><time>2026-04-26T17:05:43.055Z</time></trkpt><trkpt lat="38.0413015" lon="13.3284767"><ele>407.0</ele><time>2026-04-26T17:05:44.055Z</time></trkpt><trkpt lat="38.0413187" lon="13.3285692"><ele>406.99999999999994</ele><time>2026-04-26T17:05:45.055Z</time></trkpt><trkpt lat="38.0413541" lon="13.3286614"><ele>407.0</ele><time>2026-04-26T17:05:46.055Z</time></trkpt><trkpt lat="38.0414005" lon="13.3287519"><ele>407.0</ele><time>2026-04-26T17:05:47.056Z</time></trkpt><trkpt lat="38.0414513" lon="13.3288329"><ele>407.0</ele><time>2026-04-26T17:05:48.056Z</time></trkpt><trkpt lat="38.0415115" lon="13.3289058"><ele>406.99999999999994</ele><time>2026-04-26T17:05:49.055Z</time></trkpt><trkpt lat="38.0415912" lon="13.3289678"><ele>407.0</ele><time>2026-04-26T17:05:50.055Z</time></trkpt><trkpt lat="38.0416915" lon="13.3290337"><ele>407.75</ele><time>2026-04-26T17:05:51.055Z</time></trkpt><trkpt lat="38.0417987" lon="13.3291117"><ele>408.5</ele><time>2026-04-26T17:05:52.055Z</time></trkpt><trkpt lat="38.0419107" lon="13.3291855"><ele>409.25</ele><time>2026-04-26T17:05:53.055Z</time></trkpt><trkpt lat="38.042017" lon="13.3292452"><ele>410.0</ele><time>2026-04-26T17:05:54.055Z</time></trkpt><trkpt lat="38.0421104" lon="13.3293039"><ele>410.0</ele><time>2026-04-26T17:05:55.055Z</time></trkpt><trkpt lat="38.0421862" lon="13.3293598"><ele>410.0</ele><time>2026-04-26T17:05:56.055Z</time></trkpt><trkpt lat="38.042255" lon="13.3294104"><ele>410.0</ele><time>2026-04-26T17:05:57.055Z</time></trkpt><trkpt lat="38.0423288" lon="13.3294648"><ele>410.0</ele><time>2026-04-26T17:05:58.055Z</time></trkpt><trkpt lat="38.0424125" lon="13.3295229"><ele>410.0</ele><time>2026-04-26T17:05:59.055Z</time></trkpt><trkpt lat="38.0425059" lon="13.3295756"><ele>411.4</ele><time>2026-04-26T17:06:00.055Z</time></trkpt><trkpt lat="38.042597" lon="13.3296097"><ele>412.8</ele><time>2026-04-26T17:06:01.055Z</time></trkpt><trkpt lat="38.0426859" lon="13.3296356"><ele>414.20000000000005</ele><time>2026-04-26T17:06:02.055Z</time></trkpt><trkpt lat="38.0427776" lon="13.329662"><ele>415.6</ele><time>2026-04-26T17:06:03.055Z</time></trkpt><trkpt lat="38.0428659" lon="13.3297052"><ele>417.0</ele><time>2026-04-26T17:06:04.055Z</time></trkpt><trkpt lat="38.0429533" lon="13.329768"><ele>417.0</ele><time>2026-04-26T17:06:05.055Z</time></trkpt><trkpt lat="38.0430489" lon="13.3298333"><ele>417.0</ele><time>2026-04-26T17:06:06.056Z</time></trkpt><trkpt lat="38.0431535" lon="13.3298798"><ele>417.0</ele><time>2026-04-26T17:06:07.055Z</time></trkpt><trkpt lat="38.0432613" lon="13.3299126"><ele>417.0</ele><time>2026-04-26T17:06:08.055Z</time></trkpt><trkpt lat="38.0433691" lon="13.3299473"><ele>417.0</ele><time>2026-04-26T17:06:09.055Z</time></trkpt><trkpt lat="38.0434692" lon="13.329985"><ele>418.40000000000003</ele><time>2026-04-26T17:06:10.055Z</time></trkpt><trkpt lat="38.0435638" lon="13.3300276"><ele>419.8</ele><time>2026-04-26T17:06:11.055Z</time></trkpt><trkpt lat="38.0436606" lon="13.3300712"><ele>421.2</ele><time>2026-04-26T17:06:12.056Z</time></trkpt><trkpt lat="38.0437559" lon="13.3301227"><ele>422.6</ele><time>2026-04-26T17:06:13.055Z</time></trkpt><trkpt lat="38.0438454" lon="13.3301874"><ele>424.0</ele><time>2026-04-26T17:06:14.055Z</time></trkpt><trkpt lat="38.0439294" lon="13.3302629"><ele>424.0</ele><time>2026-04-26T17:06:15.055Z</time></trkpt><trkpt lat="38.0440101" lon="13.3303445"><ele>424.0</ele><time>2026-04-26T17:06:16.056Z</time></trkpt><trkpt lat="38.0440826" lon="13.3304397"><ele>424.0</ele><time>2026-04-26T17:06:17.055Z</time></trkpt><trkpt lat="38.0441482" lon="13.3305381"><ele>424.0</ele><time>2026-04-26T17:06:18.055Z</time></trkpt><trkpt lat="38.0442135" lon="13.3306302"><ele>424.0</ele><time>2026-04-26T17:06:19.056Z</time></trkpt><trkpt lat="38.0442761" lon="13.3307235"><ele>425.2</ele><time>2026-04-26T17:06:20.055Z</time></trkpt><trkpt lat="38.0443286" lon="13.3308194"><ele>426.4</ele><time>2026-04-26T17:06:21.055Z</time></trkpt><trkpt lat="38.0443727" lon="13.3309034"><ele>427.6</ele><time>2026-04-26T17:06:22.055Z</time></trkpt><trkpt lat="38.0444072" lon="13.3309805"><ele>428.8</ele><time>2026-04-26T17:06:23.055Z</time></trkpt><trkpt lat="38.0444455" lon="13.3311289"><ele>430.0</ele><time>2026-04-26T17:06:25.056Z</time></trkpt><trkpt lat="38.04446" lon="13.3312748"><ele>432.0</ele><time>2026-04-26T17:06:27.055Z</time></trkpt><trkpt lat="38.0444722" lon="13.3314099"><ele>434.0</ele><time>2026-04-26T17:06:29.056Z</time></trkpt><trkpt lat="38.044461" lon="13.3315587"><ele>436.0</ele><time>2026-04-26T17:06:31.055Z</time></trkpt><trkpt lat="38.0444266" lon="13.3317012"><ele>438.0</ele><time>2026-04-26T17:06:33.055Z</time></trkpt><trkpt lat="38.0443702" lon="13.3318206"><ele>438.0</ele><time>2026-04-26T17:06:35.055Z</time></trkpt><trkpt lat="38.0443338" lon="13.3318939"><ele>438.0</ele><time>2026-04-26T17:07:55.055Z</time></trkpt><trkpt lat="38.044274" lon="13.3320071"><ele>438.0</ele><time>2026-04-26T17:07:57.055Z</time></trkpt><trkpt lat="38.0442312" lon="13.3320842"><ele>438.0</ele><time>2026-04-26T17:07:58.055Z</time></trkpt><trkpt lat="38.0441892" lon="13.3321622"><ele>438.0</ele><time>2026-04-26T17:07:59.055Z</time></trkpt><trkpt lat="38.0441415" lon="13.332237"><ele>438.0</ele><time>2026-04-26T17:08:00.055Z</time></trkpt><trkpt lat="38.0440908" lon="13.3323032"><ele>440.0</ele><time>2026-04-26T17:08:01.056Z</time></trkpt><trkpt lat="38.0440379" lon="13.3323621"><ele>442.0</ele><time>2026-04-26T17:08:02.055Z</time></trkpt><trkpt lat="38.0439779" lon="13.3324128"><ele>444.0</ele><time>2026-04-26T17:08:03.055Z</time></trkpt><trkpt lat="38.0439186" lon="13.3324573"><ele>446.0</ele><time>2026-04-26T17:08:04.055Z</time></trkpt><trkpt lat="38.0438286" lon="13.3325239"><ele>448.0</ele><time>2026-04-26T17:08:06.055Z</time></trkpt><trkpt lat="38.0437713" lon="13.3325905"><ele>450.0</ele><time>2026-04-26T17:08:08.055Z</time></trkpt><trkpt lat="38.0436973" lon="13.3327013"><ele>450.0</ele><time>2026-04-26T17:08:10.055Z</time></trkpt><trkpt lat="38.0436138" lon="13.3328174"><ele>450.0</ele><time>2026-04-26T17:08:12.055Z</time></trkpt><trkpt lat="38.043569" lon="13.332875"><ele>450.0</ele><time>2026-04-26T17:08:13.055Z</time></trkpt><trkpt lat="38.0435198" lon="13.332936"><ele>450.0</ele><time>2026-04-26T17:08:14.055Z</time></trkpt><trkpt lat="38.0434731" lon="13.3330022"><ele>450.0</ele><time>2026-04-26T17:08:15.055Z</time></trkpt><trkpt lat="38.0434317" lon="13.3330727"><ele>450.0</ele><time>2026-04-26T17:08:16.055Z</time></trkpt><trkpt lat="38.0433859" lon="13.3331536"><ele>448.5714285714286</ele><time>2026-04-26T17:08:17.056Z</time></trkpt><trkpt lat="38.0433473" lon="13.3332406"><ele>447.14285714285717</ele><time>2026-04-26T17:08:18.055Z</time></trkpt><trkpt lat="38.0433139" lon="13.3333219"><ele>445.7142857142857</ele><time>2026-04-26T17:08:19.056Z</time></trkpt><trkpt lat="38.0432792" lon="13.3334033"><ele>444.28571428571433</ele><time>2026-04-26T17:08:20.055Z</time></trkpt><trkpt lat="38.0432489" lon="13.3334889"><ele>442.8571428571429</ele><time>2026-04-26T17:08:21.055Z</time></trkpt><trkpt lat="38.043223" lon="13.333577"><ele>441.4285714285714</ele><time>2026-04-26T17:08:22.056Z</time></trkpt><trkpt lat="38.0432052" lon="13.3336625"><ele>440.0</ele><time>2026-04-26T17:08:23.055Z</time></trkpt><trkpt lat="38.0431911" lon="13.333749"><ele>445.2</ele><time>2026-04-26T17:08:24.056Z</time></trkpt><trkpt lat="38.0431877" lon="13.3338435"><ele>450.4</ele><time>2026-04-26T17:08:25.055Z</time></trkpt><trkpt lat="38.0431974" lon="13.3339398"><ele>455.6</ele><time>2026-04-26T17:08:26.055Z</time></trkpt><trkpt lat="38.0432152" lon="13.3340518"><ele>460.8</ele><time>2026-04-26T17:08:27.055Z</time></trkpt><trkpt lat="38.0432416" lon="13.3341751"><ele>466.0</ele><time>2026-04-26T17:08:28.055Z</time></trkpt><trkpt lat="38.043275" lon="13.3343062"><ele>462.4</ele><time>2026-04-26T17:08:29.055Z</time></trkpt><trkpt lat="38.0433081" lon="13.334435"><ele>458.8</ele><time>2026-04-26T17:08:30.055Z</time></trkpt><trkpt lat="38.0433407" lon="13.3345639"><ele>455.19999999999993</ele><time>2026-04-26T17:08:31.055Z</time></trkpt><trkpt lat="38.043365" lon="13.3346767"><ele>451.59999999999997</ele><time>2026-04-26T17:08:32.055Z</time></trkpt><trkpt lat="38.0433872" lon="13.3347757"><ele>448.0</ele><time>2026-04-26T17:08:33.055Z</time></trkpt><trkpt lat="38.0434038" lon="13.3348687"><ele>447.00000000000006</ele><time>2026-04-26T17:08:34.055Z</time></trkpt><trkpt lat="38.043417" lon="13.3349557"><ele>446.0</ele><time>2026-04-26T17:08:35.055Z</time></trkpt><trkpt lat="38.0434258" lon="13.3350376"><ele>445.0</ele><time>2026-04-26T17:08:36.055Z</time></trkpt><trkpt lat="38.0434162" lon="13.3351495"><ele>444.0</ele><time>2026-04-26T17:08:38.055Z</time></trkpt><trkpt lat="38.0433504" lon="13.3352371"><ele>443.00000000000006</ele><time>2026-04-26T17:08:40.055Z</time></trkpt><trkpt lat="38.0432842" lon="13.3353533"><ele>442.0</ele><time>2026-04-26T17:08:42.055Z</time></trkpt><trkpt lat="38.0432486" lon="13.3354273"><ele>444.6666666666667</ele><time>2026-04-26T17:08:43.056Z</time></trkpt><trkpt lat="38.0432044" lon="13.3355059"><ele>447.33333333333337</ele><time>2026-04-26T17:08:44.055Z</time></trkpt><trkpt lat="38.0431564" lon="13.3355827"><ele>450.0</ele><time>2026-04-26T17:08:45.055Z</time></trkpt><trkpt lat="38.0430978" lon="13.3356546"><ele>452.66666666666663</ele><time>2026-04-26T17:08:46.055Z</time></trkpt><trkpt lat="38.0430373" lon="13.335711"><ele>455.3333333333333</ele><time>2026-04-26T17:08:47.056Z</time></trkpt><trkpt lat="38.042973" lon="13.3357541"><ele>458.0</ele><time>2026-04-26T17:08:48.055Z</time></trkpt><trkpt lat="38.0429109" lon="13.3358046"><ele>457.99999999999994</ele><time>2026-04-26T17:08:49.055Z</time></trkpt><trkpt lat="38.0428491" lon="13.3358732"><ele>458.0</ele><time>2026-04-26T17:08:50.055Z</time></trkpt><trkpt lat="38.0428056" lon="13.3359467"><ele>458.0</ele><time>2026-04-26T17:08:51.056Z</time></trkpt><trkpt lat="38.042763" lon="13.3360267"><ele>458.0</ele><time>2026-04-26T17:08:52.055Z</time></trkpt><trkpt lat="38.0427233" lon="13.3361187"><ele>457.99999999999994</ele><time>2026-04-26T17:08:53.055Z</time></trkpt><trkpt lat="38.0426873" lon="13.3362062"><ele>458.0</ele><time>2026-04-26T17:08:54.055Z</time></trkpt><trkpt lat="38.0426445" lon="13.3362971"><ele>457.66666666666663</ele><time>2026-04-26T17:08:55.055Z</time></trkpt><trkpt lat="38.0425959" lon="13.3363975"><ele>457.3333333333333</ele><time>2026-04-26T17:08:56.055Z</time></trkpt><trkpt lat="38.0425417" lon="13.3364862"><ele>457.0</ele><time>2026-04-26T17:08:57.055Z</time></trkpt><trkpt lat="38.0424901" lon="13.3365649"><ele>456.66666666666663</ele><time>2026-04-26T17:08:58.055Z</time></trkpt><trkpt lat="38.0424476" lon="13.3366433"><ele>456.3333333333333</ele><time>2026-04-26T17:08:59.055Z</time></trkpt><trkpt lat="38.0424139" lon="13.3367221"><ele>456.0</ele><time>2026-04-26T17:09:00.055Z</time></trkpt><trkpt lat="38.0423899" lon="13.3368129"><ele>458.3333333333333</ele><time>2026-04-26T17:09:01.055Z</time></trkpt><trkpt lat="38.0423747" lon="13.3369169"><ele>460.66666666666663</ele><time>2026-04-26T17:09:02.056Z</time></trkpt><trkpt lat="38.0423664" lon="13.3370215"><ele>463.0</ele><time>2026-04-26T17:09:03.055Z</time></trkpt><trkpt lat="38.0423434" lon="13.3371119"><ele>465.3333333333333</ele><time>2026-04-26T17:09:04.055Z</time></trkpt><trkpt lat="38.0422706" lon="13.3372277"><ele>467.66666666666663</ele><time>2026-04-26T17:09:06.055Z</time></trkpt><trkpt lat="38.0422124" lon="13.3372801"><ele>470.0</ele><time>2026-04-26T17:09:07.055Z</time></trkpt><trkpt lat="38.0421396" lon="13.3373313"><ele>469.99999999999994</ele><time>2026-04-26T17:09:08.055Z</time></trkpt><trkpt lat="38.0420672" lon="13.3373738"><ele>470.0</ele><time>2026-04-26T17:09:09.055Z</time></trkpt><trkpt lat="38.0419939" lon="13.3374137"><ele>470.0</ele><time>2026-04-26T17:09:10.055Z</time></trkpt><trkpt lat="38.0419279" lon="13.3374608"><ele>470.0</ele><time>2026-04-26T17:09:11.055Z</time></trkpt><trkpt lat="38.0418709" lon="13.3375173"><ele>469.99999999999994</ele><time>2026-04-26T17:09:12.056Z</time></trkpt><trkpt lat="38.0418104" lon="13.3375753"><ele>470.0</ele><time>2026-04-26T17:09:13.056Z</time></trkpt><trkpt lat="38.0417371" lon="13.3376238"><ele>470.0</ele><time>2026-04-26T17:09:14.055Z</time></trkpt><trkpt lat="38.0416531" lon="13.3376579"><ele>470.0</ele><time>2026-04-26T17:09:15.056Z</time></trkpt><trkpt lat="38.0415519" lon="13.3376733"><ele>470.0</ele><time>2026-04-26T17:09:16.055Z</time></trkpt><trkpt lat="38.0414449" lon="13.3376883"><ele>470.0</ele><time>2026-04-26T17:09:17.055Z</time></trkpt><trkpt lat="38.0413463" lon="13.3377034"><ele>470.0</ele><time>2026-04-26T17:09:18.055Z</time></trkpt><trkpt lat="38.0412598" lon="13.3377155"><ele>473.49999999999994</ele><time>2026-04-26T17:09:19.055Z</time></trkpt><trkpt lat="38.0411727" lon="13.3377059"><ele>477.0</ele><time>2026-04-26T17:09:20.055Z</time></trkpt><trkpt lat="38.0410854" lon="13.3376902"><ele>480.5</ele><time>2026-04-26T17:09:21.055Z</time></trkpt><trkpt lat="38.0410007" lon="13.3376857"><ele>484.0</ele><time>2026-04-26T17:09:22.055Z</time></trkpt><trkpt lat="38.0409241" lon="13.3377019"><ele>487.49999999999994</ele><time>2026-04-26T17:09:23.056Z</time></trkpt><trkpt lat="38.0408404" lon="13.3377421"><ele>491.0</ele><time>2026-04-26T17:09:24.055Z</time></trkpt><trkpt lat="38.0407653" lon="13.3377874"><ele>496.8333333333333</ele><time>2026-04-26T17:09:25.055Z</time></trkpt><trkpt lat="38.0406912" lon="13.3378318"><ele>502.66666666666663</ele><time>2026-04-26T17:09:26.055Z</time></trkpt><trkpt lat="38.0406168" lon="13.3378703"><ele>508.5</ele><time>2026-04-26T17:09:27.055Z</time></trkpt><trkpt lat="38.0405425" lon="13.3379039"><ele>514.3333333333334</ele><time>2026-04-26T17:09:28.055Z</time></trkpt><trkpt lat="38.0404797" lon="13.3379473"><ele>520.1666666666667</ele><time>2026-04-26T17:09:29.055Z</time></trkpt><trkpt lat="38.0404161" lon="13.3379978"><ele>526.0</ele><time>2026-04-26T17:09:30.055Z</time></trkpt><trkpt lat="38.0403609" lon="13.338049"><ele>527.2857142857142</ele><time>2026-04-26T17:09:31.055Z</time></trkpt><trkpt lat="38.040304" lon="13.3381014"><ele>528.5714285714286</ele><time>2026-04-26T17:09:32.056Z</time></trkpt><trkpt lat="38.040248" lon="13.3381559"><ele>529.8571428571429</ele><time>2026-04-26T17:09:33.055Z</time></trkpt><trkpt lat="38.0401953" lon="13.338213"><ele>531.1428571428571</ele><time>2026-04-26T17:09:34.055Z</time></trkpt><trkpt lat="38.0401367" lon="13.3382674"><ele>532.4285714285714</ele><time>2026-04-26T17:09:35.055Z</time></trkpt><trkpt lat="38.0400731" lon="13.3383193"><ele>533.7142857142857</ele><time>2026-04-26T17:09:36.056Z</time></trkpt><trkpt lat="38.0400059" lon="13.3383712"><ele>535.0</ele><time>2026-04-26T17:09:37.055Z</time></trkpt><trkpt lat="38.039949" lon="13.3384274"><ele>535.0</ele><time>2026-04-26T17:09:38.055Z</time></trkpt><trkpt lat="38.0398886" lon="13.3384802"><ele>535.0</ele><time>2026-04-26T17:09:39.055Z</time></trkpt><trkpt lat="38.0398281" lon="13.3385345"><ele>535.0</ele><time>2026-04-26T17:09:40.055Z</time></trkpt><trkpt lat="38.0397676" lon="13.3385824"><ele>535.0</ele><time>2026-04-26T17:09:41.055Z</time></trkpt><trkpt lat="38.039708" lon="13.3386341"><ele>535.0</ele><time>2026-04-26T17:09:42.055Z</time></trkpt><trkpt lat="38.0396486" lon="13.3387015"><ele>535.0</ele><time>2026-04-26T17:09:43.055Z</time></trkpt><trkpt lat="38.0395935" lon="13.3387746"><ele>535.0</ele><time>2026-04-26T17:09:44.055Z</time></trkpt><trkpt lat="38.0395444" lon="13.3388465"><ele>535.0</ele><time>2026-04-26T17:09:45.055Z</time></trkpt><trkpt lat="38.0394964" lon="13.338912"><ele>535.0</ele><time>2026-04-26T17:09:46.055Z</time></trkpt><trkpt lat="38.0393939" lon="13.3389906"><ele>535.0</ele><time>2026-04-26T17:09:48.055Z</time></trkpt><trkpt lat="38.0393338" lon="13.3390204"><ele>535.0</ele><time>2026-04-26T17:09:49.055Z</time></trkpt><trkpt lat="38.0392734" lon="13.3390595"><ele>535.0</ele><time>2026-04-26T17:09:50.055Z</time></trkpt><trkpt lat="38.0392143" lon="13.3391049"><ele>535.4</ele><time>2026-04-26T17:09:51.055Z</time></trkpt><trkpt lat="38.0391465" lon="13.3391481"><ele>535.8</ele><time>2026-04-26T17:09:52.055Z</time></trkpt><trkpt lat="38.0390881" lon="13.3391944"><ele>536.2</ele><time>2026-04-26T17:09:53.055Z</time></trkpt><trkpt lat="38.038983" lon="13.3392738"><ele>536.6</ele><time>2026-04-26T17:09:55.055Z</time></trkpt><trkpt lat="38.0388787" lon="13.339357"><ele>537.0</ele><time>2026-04-26T17:09:57.055Z</time></trkpt><trkpt lat="38.0388218" lon="13.3394091"><ele>537.0</ele><time>2026-04-26T17:09:58.055Z</time></trkpt><trkpt lat="38.038765" lon="13.339463"><ele>537.0</ele><time>2026-04-26T17:09:59.055Z</time></trkpt><trkpt lat="38.0387135" lon="13.3395178"><ele>537.0</ele><time>2026-04-26T17:10:00.055Z</time></trkpt><trkpt lat="38.0386398" lon="13.3396385"><ele>537.0</ele><time>2026-04-26T17:10:02.056Z</time></trkpt><trkpt lat="38.038615" lon="13.3397128"><ele>537.0</ele><time>2026-04-26T17:10:03.055Z</time></trkpt><trkpt lat="38.0385984" lon="13.3397965"><ele>537.0</ele><time>2026-04-26T17:10:04.055Z</time></trkpt><trkpt lat="38.0385772" lon="13.3398862"><ele>535.1666666666666</ele><time>2026-04-26T17:10:05.055Z</time></trkpt><trkpt lat="38.0385451" lon="13.3399834"><ele>533.3333333333334</ele><time>2026-04-26T17:10:06.055Z</time></trkpt><trkpt lat="38.0385047" lon="13.3400789"><ele>531.5</ele><time>2026-04-26T17:10:07.055Z</time></trkpt><trkpt lat="38.0384624" lon="13.3401716"><ele>529.6666666666667</ele><time>2026-04-26T17:10:08.055Z</time></trkpt><trkpt lat="38.0384124" lon="13.3402525"><ele>527.8333333333334</ele><time>2026-04-26T17:10:09.055Z</time></trkpt><trkpt lat="38.038362" lon="13.3403335"><ele>526.0</ele><time>2026-04-26T17:10:10.055Z</time></trkpt><trkpt lat="38.0383209" lon="13.3404125"><ele>530.5</ele><time>2026-04-26T17:10:11.055Z</time></trkpt><trkpt lat="38.0382859" lon="13.3404881"><ele>535.0</ele><time>2026-04-26T17:10:12.055Z</time></trkpt><trkpt lat="38.0382596" lon="13.3405737"><ele>539.5</ele><time>2026-04-26T17:10:13.056Z</time></trkpt><trkpt lat="38.03824" lon="13.3406645"><ele>544.0</ele><time>2026-04-26T17:10:14.055Z</time></trkpt><trkpt lat="38.0382283" lon="13.3407688"><ele>548.5</ele><time>2026-04-26T17:10:15.055Z</time></trkpt><trkpt lat="38.0382275" lon="13.3408748"><ele>553.0</ele><time>2026-04-26T17:10:16.055Z</time></trkpt><trkpt lat="38.0382321" lon="13.3409888"><ele>553.0</ele><time>2026-04-26T17:10:17.055Z</time></trkpt><trkpt lat="38.0382299" lon="13.3411052"><ele>553.0</ele><time>2026-04-26T17:10:18.056Z</time></trkpt><trkpt lat="38.038228" lon="13.341214"><ele>553.0</ele><time>2026-04-26T17:10:19.055Z</time></trkpt><trkpt lat="38.0382239" lon="13.3413139"><ele>553.0</ele><time>2026-04-26T17:10:20.055Z</time></trkpt><trkpt lat="38.0382226" lon="13.3414172"><ele>553.0</ele><time>2026-04-26T17:10:21.055Z</time></trkpt><trkpt lat="38.0382281" lon="13.3415215"><ele>553.0</ele><time>2026-04-26T17:10:22.055Z</time></trkpt><trkpt lat="38.038229" lon="13.3416129"><ele>553.5714285714286</ele><time>2026-04-26T17:10:23.056Z</time></trkpt><trkpt lat="38.0382327" lon="13.3416945"><ele>554.1428571428571</ele><time>2026-04-26T17:10:24.055Z</time></trkpt><trkpt lat="38.0382504" lon="13.3417824"><ele>554.7142857142858</ele><time>2026-04-26T17:10:25.055Z</time></trkpt><trkpt lat="38.0382737" lon="13.3418711"><ele>555.2857142857142</ele><time>2026-04-26T17:10:26.055Z</time></trkpt><trkpt lat="38.0382929" lon="13.3419591"><ele>555.8571428571429</ele><time>2026-04-26T17:10:27.055Z</time></trkpt><trkpt lat="38.038304" lon="13.3420482"><ele>556.4285714285714</ele><time>2026-04-26T17:10:28.055Z</time></trkpt><trkpt lat="38.0382977" lon="13.342132"><ele>557.0</ele><time>2026-04-26T17:10:29.055Z</time></trkpt><trkpt lat="38.038248" lon="13.342256"><ele>557.0</ele><time>2026-04-26T17:10:31.055Z</time></trkpt><trkpt lat="38.0382056" lon="13.3424106"><ele>557.0</ele><time>2026-04-26T17:10:33.055Z</time></trkpt><trkpt lat="38.0382005" lon="13.3425005"><ele>557.0</ele><time>2026-04-26T17:10:34.055Z</time></trkpt><trkpt lat="38.0382053" lon="13.3425841"><ele>557.0</ele><time>2026-04-26T17:10:35.055Z</time></trkpt><trkpt lat="38.0382084" lon="13.3426694"><ele>557.0</ele><time>2026-04-26T17:10:36.055Z</time></trkpt><trkpt lat="38.0382132" lon="13.3427542"><ele>557.0</ele><time>2026-04-26T17:10:37.055Z</time></trkpt><trkpt lat="38.0382157" lon="13.3428434"><ele>557.0</ele><time>2026-04-26T17:10:38.055Z</time></trkpt><trkpt lat="38.0382156" lon="13.342929"><ele>557.0</ele><time>2026-04-26T17:10:39.055Z</time></trkpt><trkpt lat="38.0382184" lon="13.3430172"><ele>557.0</ele><time>2026-04-26T17:10:40.055Z</time></trkpt><trkpt lat="38.0382164" lon="13.3431098"><ele>557.0</ele><time>2026-04-26T17:10:41.055Z</time></trkpt><trkpt lat="38.0382123" lon="13.3431996"><ele>557.0</ele><time>2026-04-26T17:10:42.055Z</time></trkpt><trkpt lat="38.03821" lon="13.3432854"><ele>557.0</ele><time>2026-04-26T17:10:43.055Z</time></trkpt><trkpt lat="38.0382095" lon="13.3433799"><ele>557.0</ele><time>2026-04-26T17:10:44.056Z</time></trkpt><trkpt lat="38.038215" lon="13.34348"><ele>556.5714285714286</ele><time>2026-04-26T17:10:45.055Z</time></trkpt><trkpt lat="38.0382174" lon="13.3435758"><ele>556.1428571428571</ele><time>2026-04-26T17:10:46.055Z</time></trkpt><trkpt lat="38.0382235" lon="13.3436749"><ele>555.7142857142857</ele><time>2026-04-26T17:10:47.055Z</time></trkpt><trkpt lat="38.0382279" lon="13.3437657"><ele>555.2857142857142</ele><time>2026-04-26T17:10:48.055Z</time></trkpt><trkpt lat="38.038231" lon="13.3438599"><ele>554.8571428571428</ele><time>2026-04-26T17:10:49.055Z</time></trkpt><trkpt lat="38.0382313" lon="13.3439548"><ele>554.4285714285714</ele><time>2026-04-26T17:10:50.055Z</time></trkpt><trkpt lat="38.0382346" lon="13.3440466"><ele>554.0</ele><time>2026-04-26T17:10:51.055Z</time></trkpt><trkpt lat="38.0382373" lon="13.3441443"><ele>553.0</ele><time>2026-04-26T17:10:52.056Z</time></trkpt><trkpt lat="38.0382407" lon="13.3442388"><ele>552.0</ele><time>2026-04-26T17:10:53.055Z</time></trkpt><trkpt lat="38.0382431" lon="13.3443473"><ele>551.0</ele><time>2026-04-26T17:10:54.055Z</time></trkpt><trkpt lat="38.0382428" lon="13.3444633"><ele>550.0</ele><time>2026-04-26T17:10:55.055Z</time></trkpt><trkpt lat="38.0382385" lon="13.3445799"><ele>549.0</ele><time>2026-04-26T17:10:56.055Z</time></trkpt><trkpt lat="38.0382287" lon="13.3446839"><ele>548.0</ele><time>2026-04-26T17:10:57.055Z</time></trkpt><trkpt lat="38.0382208" lon="13.3447839"><ele>547.8571428571429</ele><time>2026-04-26T17:10:58.055Z</time></trkpt><trkpt lat="38.038217" lon="13.3448772"><ele>547.7142857142858</ele><time>2026-04-26T17:10:59.055Z</time></trkpt><trkpt lat="38.038216" lon="13.3449641"><ele>547.5714285714286</ele><time>2026-04-26T17:11:00.055Z</time></trkpt><trkpt lat="38.0382233" lon="13.345056"><ele>547.4285714285714</ele><time>2026-04-26T17:11:01.055Z</time></trkpt><trkpt lat="38.0382378" lon="13.3451462"><ele>547.2857142857142</ele><time>2026-04-26T17:11:02.055Z</time></trkpt><trkpt lat="38.0382565" lon="13.3452421"><ele>547.1428571428571</ele><time>2026-04-26T17:11:03.055Z</time></trkpt><trkpt lat="38.0382713" lon="13.3453399"><ele>547.0</ele><time>2026-04-26T17:11:04.055Z</time></trkpt><trkpt lat="38.0382858" lon="13.3454415"><ele>547.0</ele><time>2026-04-26T17:11:05.055Z</time></trkpt><trkpt lat="38.0383" lon="13.3455408"><ele>547.0</ele><time>2026-04-26T17:11:06.055Z</time></trkpt><trkpt lat="38.0383109" lon="13.3456495"><ele>547.0</ele><time>2026-04-26T17:11:07.055Z</time></trkpt><trkpt lat="38.0383309" lon="13.3457536"><ele>547.0</ele><time>2026-04-26T17:11:08.055Z</time></trkpt><trkpt lat="38.0383516" lon="13.3458501"><ele>547.0</ele><time>2026-04-26T17:11:09.055Z</time></trkpt><trkpt lat="38.0383583" lon="13.3460048"><ele>548.2</ele><time>2026-04-26T17:11:11.056Z</time></trkpt><trkpt lat="38.0383416" lon="13.3461267"><ele>549.4000000000001</ele><time>2026-04-26T17:11:13.055Z</time></trkpt><trkpt lat="38.038326" lon="13.3462121"><ele>550.5999999999999</ele><time>2026-04-26T17:11:15.056Z</time></trkpt><trkpt lat="38.0383161" lon="13.3463244"><ele>551.8</ele><time>2026-04-26T17:11:18.055Z</time></trkpt><trkpt lat="38.0383097" lon="13.346443"><ele>553.0</ele><time>2026-04-26T17:11:55.055Z</time></trkpt><trkpt lat="38.0382943" lon="13.346587"><ele>553.5</ele><time>2026-04-26T17:11:57.055Z</time></trkpt><trkpt lat="38.0382763" lon="13.3467248"><ele>554.0</ele><time>2026-04-26T17:11:59.055Z</time></trkpt><trkpt lat="38.0382627" lon="13.3468042"><ele>554.5</ele><time>2026-04-26T17:12:00.055Z</time></trkpt><trkpt lat="38.0382479" lon="13.3468919"><ele>555.0</ele><time>2026-04-26T17:12:01.055Z</time></trkpt><trkpt lat="38.0382383" lon="13.3469756"><ele>555.5</ele><time>2026-04-26T17:12:02.055Z</time></trkpt><trkpt lat="38.0382287" lon="13.3471297"><ele>556.0</ele><time>2026-04-26T17:12:04.056Z</time></trkpt><trkpt lat="38.0382205" lon="13.3472806"><ele>556.8</ele><time>2026-04-26T17:12:06.055Z</time></trkpt><trkpt lat="38.0382043" lon="13.3474138"><ele>557.6</ele><time>2026-04-26T17:12:08.055Z</time></trkpt><trkpt lat="38.0381868" lon="13.3475501"><ele>558.4</ele><time>2026-04-26T17:12:10.055Z</time></trkpt><trkpt lat="38.0381767" lon="13.3476991"><ele>559.2</ele><time>2026-04-26T17:12:12.056Z</time></trkpt><trkpt lat="38.0381861" lon="13.3477785"><ele>560.0</ele><time>2026-04-26T17:12:13.056Z</time></trkpt><trkpt lat="38.0381966" lon="13.3478612"><ele>560.0</ele><time>2026-04-26T17:12:14.055Z</time></trkpt><trkpt lat="38.0382061" lon="13.3479438"><ele>560.0</ele><time>2026-04-26T17:12:15.055Z</time></trkpt><trkpt lat="38.0382252" lon="13.348094"><ele>560.0</ele><time>2026-04-26T17:12:17.055Z</time></trkpt><trkpt lat="38.038231" lon="13.3482309"><ele>560.0</ele><time>2026-04-26T17:12:19.055Z</time></trkpt><trkpt lat="38.038254" lon="13.3483774"><ele>560.0</ele><time>2026-04-26T17:12:21.055Z</time></trkpt><trkpt lat="38.0382906" lon="13.3485251"><ele>560.6666666666666</ele><time>2026-04-26T17:12:23.055Z</time></trkpt><trkpt lat="38.0383202" lon="13.3486007"><ele>561.3333333333333</ele><time>2026-04-26T17:12:24.055Z</time></trkpt><trkpt lat="38.0383605" lon="13.348675"><ele>562.0</ele><time>2026-04-26T17:12:25.055Z</time></trkpt><trkpt lat="38.0384081" lon="13.3487603"><ele>562.6666666666666</ele><time>2026-04-26T17:12:26.055Z</time></trkpt><trkpt lat="38.0384602" lon="13.3488385"><ele>563.3333333333334</ele><time>2026-04-26T17:12:27.055Z</time></trkpt><trkpt lat="38.0385119" lon="13.3489212"><ele>564.0</ele><time>2026-04-26T17:12:28.055Z</time></trkpt><trkpt lat="38.0385678" lon="13.3490162"><ele>565.3333333333334</ele><time>2026-04-26T17:12:29.055Z</time></trkpt><trkpt lat="38.0386166" lon="13.3491025"><ele>566.6666666666666</ele><time>2026-04-26T17:12:30.055Z</time></trkpt><trkpt lat="38.0386719" lon="13.349182"><ele>568.0</ele><time>2026-04-26T17:12:31.054Z</time></trkpt><trkpt lat="38.038721" lon="13.3492662"><ele>569.3333333333333</ele><time>2026-04-26T17:12:32.054Z</time></trkpt><trkpt lat="38.0387657" lon="13.3493449"><ele>570.6666666666666</ele><time>2026-04-26T17:12:33.054Z</time></trkpt><trkpt lat="38.0388142" lon="13.3494254"><ele>572.0</ele><time>2026-04-26T17:12:34.054Z</time></trkpt><trkpt lat="38.0388676" lon="13.3495004"><ele>571.9999999999999</ele><time>2026-04-26T17:12:35.055Z</time></trkpt><trkpt lat="38.0389223" lon="13.3495708"><ele>572.0</ele><time>2026-04-26T17:12:36.055Z</time></trkpt><trkpt lat="38.0389736" lon="13.3496361"><ele>572.0</ele><time>2026-04-26T17:12:37.055Z</time></trkpt><trkpt lat="38.039014" lon="13.3497019"><ele>572.0</ele><time>2026-04-26T17:12:38.054Z</time></trkpt><trkpt lat="38.0390496" lon="13.3497802"><ele>572.0</ele><time>2026-04-26T17:12:39.054Z</time></trkpt><trkpt lat="38.039077" lon="13.349863"><ele>571.9999999999999</ele><time>2026-04-26T17:12:40.054Z</time></trkpt><trkpt lat="38.0391095" lon="13.3499467"><ele>572.0</ele><time>2026-04-26T17:12:41.054Z</time></trkpt><trkpt lat="38.039148" lon="13.3500303"><ele>573.2857142857142</ele><time>2026-04-26T17:12:42.054Z</time></trkpt><trkpt lat="38.03919" lon="13.3500986"><ele>574.5714285714286</ele><time>2026-04-26T17:12:43.054Z</time></trkpt><trkpt lat="38.0392306" lon="13.3501656"><ele>575.8571428571429</ele><time>2026-04-26T17:12:44.054Z</time></trkpt><trkpt lat="38.039272" lon="13.3502365"><ele>577.1428571428571</ele><time>2026-04-26T17:12:45.054Z</time></trkpt><trkpt lat="38.0393137" lon="13.3503097"><ele>578.4285714285714</ele><time>2026-04-26T17:12:46.055Z</time></trkpt><trkpt lat="38.0393604" lon="13.350387"><ele>579.7142857142857</ele><time>2026-04-26T17:12:47.054Z</time></trkpt><trkpt lat="38.0394088" lon="13.3504591"><ele>581.0</ele><time>2026-04-26T17:12:48.055Z</time></trkpt><trkpt lat="38.0394608" lon="13.3505242"><ele>583.5714285714286</ele><time>2026-04-26T17:12:49.055Z</time></trkpt><trkpt lat="38.0395135" lon="13.3505811"><ele>586.1428571428571</ele><time>2026-04-26T17:12:50.054Z</time></trkpt><trkpt lat="38.0395649" lon="13.3506447"><ele>588.7142857142858</ele><time>2026-04-26T17:12:51.054Z</time></trkpt><trkpt lat="38.0396094" lon="13.3507165"><ele>591.2857142857142</ele><time>2026-04-26T17:12:52.054Z</time></trkpt><trkpt lat="38.0396373" lon="13.3507984"><ele>593.8571428571429</ele><time>2026-04-26T17:12:53.054Z</time></trkpt><trkpt lat="38.0396549" lon="13.3508878"><ele>596.4285714285714</ele><time>2026-04-26T17:12:54.054Z</time></trkpt><trkpt lat="38.0396782" lon="13.3509819"><ele>599.0</ele><time>2026-04-26T17:12:55.054Z</time></trkpt><trkpt lat="38.0397094" lon="13.3510721"><ele>599.0</ele><time>2026-04-26T17:12:56.054Z</time></trkpt><trkpt lat="38.0397448" lon="13.351155"><ele>599.0</ele><time>2026-04-26T17:12:57.054Z</time></trkpt><trkpt lat="38.0397762" lon="13.3512277"><ele>599.0</ele><time>2026-04-26T17:12:58.055Z</time></trkpt><trkpt lat="38.0398221" lon="13.3513272"><ele>599.0</ele><time>2026-04-26T17:13:00.054Z</time></trkpt><trkpt lat="38.0398579" lon="13.3514291"><ele>599.0</ele><time>2026-04-26T17:13:03.054Z</time></trkpt><trkpt lat="38.0398831" lon="13.3515206"><ele>599.0</ele><time>2026-04-26T17:13:05.054Z</time></trkpt><trkpt lat="38.03993" lon="13.3516166"><ele>598.8</ele><time>2026-04-26T17:13:07.054Z</time></trkpt><trkpt lat="38.0399853" lon="13.3517267"><ele>598.5999999999999</ele><time>2026-04-26T17:13:09.054Z</time></trkpt><trkpt lat="38.0400357" lon="13.3518365"><ele>598.4</ele><time>2026-04-26T17:13:11.054Z</time></trkpt><trkpt lat="38.0400763" lon="13.3519283"><ele>598.1999999999999</ele><time>2026-04-26T17:13:13.054Z</time></trkpt><trkpt lat="38.0401052" lon="13.3520213"><ele>598.0</ele><time>2026-04-26T17:13:15.054Z</time></trkpt><trkpt lat="38.0401377" lon="13.3521227"><ele>601.0</ele><time>2026-04-26T17:13:17.054Z</time></trkpt><trkpt lat="38.0401745" lon="13.3522351"><ele>604.0</ele><time>2026-04-26T17:13:19.054Z</time></trkpt><trkpt lat="38.0402167" lon="13.3523625"><ele>607.0</ele><time>2026-04-26T17:13:21.054Z</time></trkpt><trkpt lat="38.0402584" lon="13.3524809"><ele>610.0</ele><time>2026-04-26T17:13:23.054Z</time></trkpt><trkpt lat="38.0402779" lon="13.3525845"><ele>613.0</ele><time>2026-04-26T17:13:25.054Z</time></trkpt><trkpt lat="38.040301" lon="13.3526806"><ele>613.0</ele><time>2026-04-26T17:13:27.054Z</time></trkpt><trkpt lat="38.0403366" lon="13.3528059"><ele>613.0</ele><time>2026-04-26T17:13:29.055Z</time></trkpt><trkpt lat="38.0403731" lon="13.3529354"><ele>613.0</ele><time>2026-04-26T17:13:31.054Z</time></trkpt><trkpt lat="38.04041" lon="13.353072"><ele>613.0</ele><time>2026-04-26T17:13:33.054Z</time></trkpt><trkpt lat="38.0404384" lon="13.3532135"><ele>613.0</ele><time>2026-04-26T17:13:35.054Z</time></trkpt><trkpt lat="38.0404582" lon="13.3533629"><ele>615.4</ele><time>2026-04-26T17:13:37.054Z</time></trkpt><trkpt lat="38.0404654" lon="13.3535082"><ele>617.8</ele><time>2026-04-26T17:13:39.054Z</time></trkpt><trkpt lat="38.0404688" lon="13.3536519"><ele>620.2</ele><time>2026-04-26T17:13:41.054Z</time></trkpt><trkpt lat="38.0404739" lon="13.3537875"><ele>622.6</ele><time>2026-04-26T17:13:43.054Z</time></trkpt><trkpt lat="38.0404676" lon="13.3539227"><ele>625.0</ele><time>2026-04-26T17:13:45.054Z</time></trkpt><trkpt lat="38.0404653" lon="13.3540857"><ele>625.8571428571429</ele><time>2026-04-26T17:13:47.054Z</time></trkpt><trkpt lat="38.0404598" lon="13.3541742"><ele>626.7142857142858</ele><time>2026-04-26T17:13:48.054Z</time></trkpt><trkpt lat="38.0404521" lon="13.3542644"><ele>627.5714285714287</ele><time>2026-04-26T17:13:49.054Z</time></trkpt><trkpt lat="38.0404445" lon="13.3543514"><ele>628.4285714285714</ele><time>2026-04-26T17:13:50.054Z</time></trkpt><trkpt lat="38.0404353" lon="13.3544368"><ele>629.2857142857142</ele><time>2026-04-26T17:13:51.054Z</time></trkpt><trkpt lat="38.0404221" lon="13.3545208"><ele>630.1428571428572</ele><time>2026-04-26T17:13:52.054Z</time></trkpt><trkpt lat="38.040412" lon="13.3546057"><ele>631.0</ele><time>2026-04-26T17:13:53.054Z</time></trkpt><trkpt lat="38.0404067" lon="13.354694"><ele>631.0</ele><time>2026-04-26T17:13:54.054Z</time></trkpt><trkpt lat="38.0403987" lon="13.3547801"><ele>631.0</ele><time>2026-04-26T17:13:55.054Z</time></trkpt><trkpt lat="38.0403909" lon="13.3548644"><ele>631.0</ele><time>2026-04-26T17:13:56.055Z</time></trkpt><trkpt lat="38.0403863" lon="13.354945"><ele>631.0</ele><time>2026-04-26T17:13:57.054Z</time></trkpt><trkpt lat="38.0403852" lon="13.3550808"><ele>631.0</ele><time>2026-04-26T17:13:59.054Z</time></trkpt><trkpt lat="38.0403794" lon="13.3551747"><ele>631.0</ele><time>2026-04-26T17:14:01.054Z</time></trkpt><trkpt lat="38.0403456" lon="13.3552572"><ele>631.0</ele><time>2026-04-26T17:14:03.055Z</time></trkpt><trkpt lat="38.0402771" lon="13.3553503"><ele>631.0</ele><time>2026-04-26T17:14:05.054Z</time></trkpt><trkpt lat="38.0401887" lon="13.3554537"><ele>631.0</ele><time>2026-04-26T17:14:07.054Z</time></trkpt><trkpt lat="38.0401051" lon="13.3555654"><ele>631.0</ele><time>2026-04-26T17:14:09.055Z</time></trkpt><trkpt lat="38.0400182" lon="13.3556588"><ele>628.25</ele><time>2026-04-26T17:14:11.054Z</time></trkpt><trkpt lat="38.0399396" lon="13.3557313"><ele>625.5</ele><time>2026-04-26T17:14:13.055Z</time></trkpt><trkpt lat="38.0398422" lon="13.3557989"><ele>622.75</ele><time>2026-04-26T17:14:15.054Z</time></trkpt><trkpt lat="38.0397283" lon="13.3558477"><ele>620.0</ele><time>2026-04-26T17:14:17.054Z</time></trkpt><trkpt lat="38.0396092" lon="13.3558915"><ele>620.0</ele><time>2026-04-26T17:14:19.054Z</time></trkpt><trkpt lat="38.0395452" lon="13.3559001"><ele>620.0</ele><time>2026-04-26T17:14:20.054Z</time></trkpt><trkpt lat="38.039412" lon="13.355897"><ele>620.0</ele><time>2026-04-26T17:14:22.054Z</time></trkpt><trkpt lat="38.0393431" lon="13.3558871"><ele>620.0</ele><time>2026-04-26T17:14:23.054Z</time></trkpt><trkpt lat="38.0392751" lon="13.355881"><ele>620.0</ele><time>2026-04-26T17:14:24.054Z</time></trkpt><trkpt lat="38.0392116" lon="13.3558788"><ele>620.0</ele><time>2026-04-26T17:14:25.054Z</time></trkpt><trkpt lat="38.0390901" lon="13.3558775"><ele>617.8333333333333</ele><time>2026-04-26T17:14:27.055Z</time></trkpt><trkpt lat="38.038965" lon="13.3558812"><ele>615.6666666666666</ele><time>2026-04-26T17:14:29.054Z</time></trkpt><trkpt lat="38.0388981" lon="13.3558755"><ele>613.5</ele><time>2026-04-26T17:14:30.054Z</time></trkpt><trkpt lat="38.0388313" lon="13.3558631"><ele>611.3333333333334</ele><time>2026-04-26T17:14:31.055Z</time></trkpt><trkpt lat="38.0387678" lon="13.355846"><ele>609.1666666666667</ele><time>2026-04-26T17:14:32.054Z</time></trkpt><trkpt lat="38.0386666" lon="13.355814"><ele>607.0</ele><time>2026-04-26T17:14:34.054Z</time></trkpt><trkpt lat="38.0385764" lon="13.355792"><ele>607.0</ele><time>2026-04-26T17:14:36.054Z</time></trkpt><trkpt lat="38.0384776" lon="13.3557769"><ele>607.0</ele><time>2026-04-26T17:14:38.054Z</time></trkpt><trkpt lat="38.0383842" lon="13.355778"><ele>607.0</ele><time>2026-04-26T17:14:40.054Z</time></trkpt><trkpt lat="38.0383028" lon="13.3557857"><ele>607.0</ele><time>2026-04-26T17:14:42.055Z</time></trkpt><trkpt lat="38.0382323" lon="13.355787"><ele>607.0</ele><time>2026-04-26T17:14:59.054Z</time></trkpt><trkpt lat="38.0381287" lon="13.3558003"><ele>607.0</ele><time>2026-04-26T17:15:01.055Z</time></trkpt><trkpt lat="38.0380128" lon="13.3558466"><ele>606.8571428571428</ele><time>2026-04-26T17:15:03.054Z</time></trkpt><trkpt lat="38.0379521" lon="13.3558842"><ele>606.7142857142857</ele><time>2026-04-26T17:15:04.054Z</time></trkpt><trkpt lat="38.0378968" lon="13.3559253"><ele>606.5714285714286</ele><time>2026-04-26T17:15:05.055Z</time></trkpt><trkpt lat="38.0378513" lon="13.3559809"><ele>606.4285714285713</ele><time>2026-04-26T17:15:06.054Z</time></trkpt><trkpt lat="38.0378141" lon="13.3560566"><ele>606.2857142857142</ele><time>2026-04-26T17:15:07.054Z</time></trkpt><trkpt lat="38.0377805" lon="13.3561476"><ele>606.1428571428571</ele><time>2026-04-26T17:15:08.054Z</time></trkpt><trkpt lat="38.0377537" lon="13.356245"><ele>606.0</ele><time>2026-04-26T17:15:09.054Z</time></trkpt><trkpt lat="38.0377182" lon="13.3563406"><ele>605.3333333333334</ele><time>2026-04-26T17:15:10.055Z</time></trkpt><trkpt lat="38.0376835" lon="13.3564288"><ele>604.6666666666666</ele><time>2026-04-26T17:15:11.054Z</time></trkpt><trkpt lat="38.0376458" lon="13.3565115"><ele>604.0</ele><time>2026-04-26T17:15:12.054Z</time></trkpt><trkpt lat="38.0376099" lon="13.3565891"><ele>603.3333333333333</ele><time>2026-04-26T17:15:13.054Z</time></trkpt><trkpt lat="38.0375703" lon="13.3566531"><ele>602.6666666666666</ele><time>2026-04-26T17:15:14.054Z</time></trkpt><trkpt lat="38.0374883" lon="13.3567609"><ele>602.0</ele><time>2026-04-26T17:15:16.054Z</time></trkpt><trkpt lat="38.0374337" lon="13.3568028"><ele>601.7142857142857</ele><time>2026-04-26T17:15:17.054Z</time></trkpt><trkpt lat="38.0373771" lon="13.35685"><ele>601.4285714285714</ele><time>2026-04-26T17:15:18.054Z</time></trkpt><trkpt lat="38.0373095" lon="13.3568875"><ele>601.1428571428571</ele><time>2026-04-26T17:15:19.054Z</time></trkpt><trkpt lat="38.0372348" lon="13.3569108"><ele>600.8571428571429</ele><time>2026-04-26T17:15:20.055Z</time></trkpt><trkpt lat="38.0371617" lon="13.356923"><ele>600.5714285714286</ele><time>2026-04-26T17:15:21.054Z</time></trkpt><trkpt lat="38.0370913" lon="13.35693"><ele>600.2857142857142</ele><time>2026-04-26T17:15:22.054Z</time></trkpt><trkpt lat="38.0370221" lon="13.3569442"><ele>600.0</ele><time>2026-04-26T17:15:23.055Z</time></trkpt><trkpt lat="38.0369516" lon="13.3569536"><ele>600.0</ele><time>2026-04-26T17:15:24.054Z</time></trkpt><trkpt lat="38.0368846" lon="13.3569695"><ele>600.0</ele><time>2026-04-26T17:15:25.054Z</time></trkpt><trkpt lat="38.0368189" lon="13.3569831"><ele>600.0</ele><time>2026-04-26T17:15:26.054Z</time></trkpt><trkpt lat="38.0367004" lon="13.3570204"><ele>600.0</ele><time>2026-04-26T17:15:28.054Z</time></trkpt><trkpt lat="38.036633" lon="13.3570387"><ele>600.0</ele><time>2026-04-26T17:15:29.054Z</time></trkpt><trkpt lat="38.0365612" lon="13.3570558"><ele>600.0</ele><time>2026-04-26T17:15:30.054Z</time></trkpt><trkpt lat="38.0364889" lon="13.3570658"><ele>598.7142857142857</ele><time>2026-04-26T17:15:31.054Z</time></trkpt><trkpt lat="38.0364187" lon="13.3570698"><ele>597.4285714285714</ele><time>2026-04-26T17:15:32.054Z</time></trkpt><trkpt lat="38.0363436" lon="13.3570742"><ele>596.1428571428571</ele><time>2026-04-26T17:15:33.055Z</time></trkpt><trkpt lat="38.0362696" lon="13.3570666"><ele>594.8571428571429</ele><time>2026-04-26T17:15:34.054Z</time></trkpt><trkpt lat="38.0361984" lon="13.3570542"><ele>593.5714285714286</ele><time>2026-04-26T17:15:35.054Z</time></trkpt><trkpt lat="38.0361289" lon="13.3570432"><ele>592.2857142857142</ele><time>2026-04-26T17:15:36.055Z</time></trkpt><trkpt lat="38.0360574" lon="13.3570389"><ele>591.0</ele><time>2026-04-26T17:15:37.054Z</time></trkpt><trkpt lat="38.035983" lon="13.3570463"><ele>591.0</ele><time>2026-04-26T17:15:38.054Z</time></trkpt><trkpt lat="38.0359064" lon="13.3570571"><ele>591.0</ele><time>2026-04-26T17:15:39.054Z</time></trkpt><trkpt lat="38.0358382" lon="13.357082"><ele>591.0</ele><time>2026-04-26T17:15:40.054Z</time></trkpt><trkpt lat="38.0357743" lon="13.3571148"><ele>591.0</ele><time>2026-04-26T17:15:41.054Z</time></trkpt><trkpt lat="38.0356794" lon="13.3571784"><ele>591.0</ele><time>2026-04-26T17:15:43.054Z</time></trkpt><trkpt lat="38.0355969" lon="13.3572447"><ele>591.0</ele><time>2026-04-26T17:15:46.054Z</time></trkpt><trkpt lat="38.0355252" lon="13.3572959"><ele>590.5</ele><time>2026-04-26T17:15:48.054Z</time></trkpt><trkpt lat="38.0354381" lon="13.3573072"><ele>590.0</ele><time>2026-04-26T17:15:52.054Z</time></trkpt><trkpt lat="38.0353701" lon="13.3573003"><ele>589.5</ele><time>2026-04-26T17:16:02.054Z</time></trkpt><trkpt lat="38.0353011" lon="13.3573122"><ele>589.0</ele><time>2026-04-26T17:16:04.054Z</time></trkpt><trkpt lat="38.0352345" lon="13.3573438"><ele>588.5</ele><time>2026-04-26T17:16:06.055Z</time></trkpt><trkpt lat="38.0351236" lon="13.3574031"><ele>588.0</ele><time>2026-04-26T17:16:08.054Z</time></trkpt><trkpt lat="38.0350579" lon="13.3574414"><ele>588.0</ele><time>2026-04-26T17:16:09.054Z</time></trkpt><trkpt lat="38.0349952" lon="13.3574772"><ele>588.0</ele><time>2026-04-26T17:16:10.054Z</time></trkpt><trkpt lat="38.0349254" lon="13.357504"><ele>588.0</ele><time>2026-04-26T17:16:11.054Z</time></trkpt><trkpt lat="38.0348077" lon="13.3575074"><ele>588.0</ele><time>2026-04-26T17:16:13.055Z</time></trkpt><trkpt lat="38.0347805" lon="13.3575966"><ele>588.0</ele><time>2026-04-26T17:16:17.054Z</time></trkpt><trkpt lat="38.0348156" lon="13.3576794"><ele>588.0</ele><time>2026-04-26T17:16:18.054Z</time></trkpt><trkpt lat="38.0348292" lon="13.3577594"><ele>588.8333333333334</ele><time>2026-04-26T17:16:20.055Z</time></trkpt><trkpt lat="38.0348208" lon="13.3578553"><ele>589.6666666666666</ele><time>2026-04-26T17:16:24.054Z</time></trkpt><trkpt lat="38.0348539" lon="13.3579336"><ele>590.5</ele><time>2026-04-26T17:16:27.054Z</time></trkpt><trkpt lat="38.0348784" lon="13.357831"><ele>591.3333333333333</ele><time>2026-04-26T17:16:36.054Z</time></trkpt><trkpt lat="38.034873" lon="13.357744"><ele>592.1666666666666</ele><time>2026-04-26T17:16:37.054Z</time></trkpt><trkpt lat="38.0348868" lon="13.3576166"><ele>593.0</ele><time>2026-04-26T17:16:39.054Z</time></trkpt><trkpt lat="38.0349498" lon="13.3575286"><ele>592.0</ele><time>2026-04-26T17:16:41.054Z</time></trkpt><trkpt lat="38.0350593" lon="13.3574476"><ele>591.0</ele><time>2026-04-26T17:16:43.054Z</time></trkpt><trkpt lat="38.0351348" lon="13.3574119"><ele>590.0</ele><time>2026-04-26T17:16:44.054Z</time></trkpt><trkpt lat="38.0352279" lon="13.3573664"><ele>589.0</ele><time>2026-04-26T17:16:45.054Z</time></trkpt><trkpt lat="38.0353255" lon="13.3573364"><ele>588.0</ele><time>2026-04-26T17:16:46.055Z</time></trkpt><trkpt lat="38.0354165" lon="13.3573161"><ele>588.0</ele><time>2026-04-26T17:16:47.054Z</time></trkpt><trkpt lat="38.035495" lon="13.3573006"><ele>588.0</ele><time>2026-04-26T17:16:48.054Z</time></trkpt><trkpt lat="38.0355589" lon="13.3572758"><ele>588.0</ele><time>2026-04-26T17:16:49.054Z</time></trkpt><trkpt lat="38.0356144" lon="13.3572224"><ele>588.0</ele><time>2026-04-26T17:16:51.054Z</time></trkpt><trkpt lat="38.0356011" lon="13.3571229"><ele>588.0</ele><time>2026-04-26T17:16:54.055Z</time></trkpt><trkpt lat="38.0355128" lon="13.3570867"><ele>588.0</ele><time>2026-04-26T17:16:57.054Z</time></trkpt><trkpt lat="38.0354512" lon="13.3571068"><ele>588.0</ele><time>2026-04-26T17:16:59.054Z</time></trkpt><trkpt lat="38.0353644" lon="13.3571475"><ele>588.0</ele><time>2026-04-26T17:17:02.055Z</time></trkpt><trkpt lat="38.0352806" lon="13.3571891"><ele>588.0</ele><time>2026-04-26T17:17:05.055Z</time></trkpt><trkpt lat="38.0352042" lon="13.3572445"><ele>588.0</ele><time>2026-04-26T17:17:08.054Z</time></trkpt><trkpt lat="38.0351229" lon="13.3573011"><ele>588.0</ele><time>2026-04-26T17:17:11.054Z</time></trkpt><trkpt lat="38.0350632" lon="13.3573333"><ele>588.0</ele><time>2026-04-26T17:17:13.054Z</time></trkpt><trkpt lat="38.0349766" lon="13.3573741"><ele>589.0</ele><time>2026-04-26T17:17:16.054Z</time></trkpt><trkpt lat="38.0348999" lon="13.3574004"><ele>590.0</ele><time>2026-04-26T17:17:18.054Z</time></trkpt><trkpt lat="38.0348102" lon="13.3574045"><ele>591.0</ele><time>2026-04-26T17:17:20.055Z</time></trkpt><trkpt lat="38.0347246" lon="13.3574052"><ele>592.0</ele><time>2026-04-26T17:17:22.054Z</time></trkpt><trkpt lat="38.034635" lon="13.3574115"><ele>593.0</ele><time>2026-04-26T17:17:24.054Z</time></trkpt><trkpt lat="38.0345128" lon="13.3574404"><ele>593.0</ele><time>2026-04-26T17:17:26.054Z</time></trkpt><trkpt lat="38.0344363" lon="13.3574514"><ele>593.0</ele><time>2026-04-26T17:17:27.055Z</time></trkpt><trkpt lat="38.0343521" lon="13.3574594"><ele>593.0</ele><time>2026-04-26T17:17:28.054Z</time></trkpt><trkpt lat="38.0342576" lon="13.3574654"><ele>593.0</ele><time>2026-04-26T17:17:29.054Z</time></trkpt><trkpt lat="38.0341583" lon="13.3574752"><ele>593.0</ele><time>2026-04-26T17:17:30.054Z</time></trkpt><trkpt lat="38.0340587" lon="13.3574954"><ele>595.0</ele><time>2026-04-26T17:17:31.054Z</time></trkpt><trkpt lat="38.0339599" lon="13.3575284"><ele>597.0</ele><time>2026-04-26T17:17:32.054Z</time></trkpt><trkpt lat="38.0338615" lon="13.3575673"><ele>599.0</ele><time>2026-04-26T17:17:33.054Z</time></trkpt><trkpt lat="38.0337627" lon="13.3576087"><ele>601.0</ele><time>2026-04-26T17:17:34.054Z</time></trkpt><trkpt lat="38.0336625" lon="13.3576567"><ele>603.0</ele><time>2026-04-26T17:17:35.054Z</time></trkpt><trkpt lat="38.0335614" lon="13.3577088"><ele>603.0</ele><time>2026-04-26T17:17:36.054Z</time></trkpt><trkpt lat="38.0334631" lon="13.3577493"><ele>603.0</ele><time>2026-04-26T17:17:37.054Z</time></trkpt><trkpt lat="38.0333665" lon="13.3577821"><ele>603.0</ele><time>2026-04-26T17:17:38.054Z</time></trkpt><trkpt lat="38.0332755" lon="13.3578259"><ele>603.0</ele><time>2026-04-26T17:17:39.054Z</time></trkpt><trkpt lat="38.0331932" lon="13.3578781"><ele>603.0</ele><time>2026-04-26T17:17:40.054Z</time></trkpt><trkpt lat="38.0331099" lon="13.357943"><ele>604.6</ele><time>2026-04-26T17:17:41.054Z</time></trkpt><trkpt lat="38.033023" lon="13.3580239"><ele>606.1999999999999</ele><time>2026-04-26T17:17:42.054Z</time></trkpt><trkpt lat="38.0329402" lon="13.3581077"><ele>607.8</ele><time>2026-04-26T17:17:43.054Z</time></trkpt><trkpt lat="38.032859" lon="13.358188"><ele>609.4</ele><time>2026-04-26T17:17:44.054Z</time></trkpt><trkpt lat="38.0327833" lon="13.3582751"><ele>611.0</ele><time>2026-04-26T17:17:45.054Z</time></trkpt><trkpt lat="38.0327096" lon="13.3583655"><ele>611.8</ele><time>2026-04-26T17:17:46.054Z</time></trkpt><trkpt lat="38.0326373" lon="13.3584478"><ele>612.6</ele><time>2026-04-26T17:17:47.054Z</time></trkpt><trkpt lat="38.0325682" lon="13.3585044"><ele>613.4</ele><time>2026-04-26T17:17:48.054Z</time></trkpt><trkpt lat="38.0325058" lon="13.3585356"><ele>614.2</ele><time>2026-04-26T17:17:49.055Z</time></trkpt><trkpt lat="38.032387" lon="13.3585469"><ele>615.0</ele><time>2026-04-26T17:17:51.054Z</time></trkpt><trkpt lat="38.0322744" lon="13.3585048"><ele>616.6</ele><time>2026-04-26T17:17:53.054Z</time></trkpt><trkpt lat="38.0321468" lon="13.3584534"><ele>618.2</ele><time>2026-04-26T17:17:55.054Z</time></trkpt><trkpt lat="38.0320701" lon="13.3584356"><ele>619.8</ele><time>2026-04-26T17:17:56.054Z</time></trkpt><trkpt lat="38.031992" lon="13.3584137"><ele>621.4</ele><time>2026-04-26T17:17:57.055Z</time></trkpt><trkpt lat="38.031916" lon="13.3583676"><ele>623.0</ele><time>2026-04-26T17:17:58.054Z</time></trkpt><trkpt lat="38.0318366" lon="13.3583094"><ele>623.0</ele><time>2026-04-26T17:17:59.054Z</time></trkpt><trkpt lat="38.0317631" lon="13.3582581"><ele>623.0</ele><time>2026-04-26T17:18:00.054Z</time></trkpt><trkpt lat="38.0316929" lon="13.3582127"><ele>623.0</ele><time>2026-04-26T17:18:01.054Z</time></trkpt><trkpt lat="38.0316266" lon="13.3581668"><ele>623.0</ele><time>2026-04-26T17:18:02.054Z</time></trkpt><trkpt lat="38.0315622" lon="13.3581197"><ele>623.0</ele><time>2026-04-26T17:18:03.055Z</time></trkpt><trkpt lat="38.0315013" lon="13.3580772"><ele>623.0</ele><time>2026-04-26T17:18:04.054Z</time></trkpt><trkpt lat="38.0314362" lon="13.3580332"><ele>624.1666666666666</ele><time>2026-04-26T17:18:05.054Z</time></trkpt><trkpt lat="38.0313635" lon="13.3579884"><ele>625.3333333333333</ele><time>2026-04-26T17:18:06.054Z</time></trkpt><trkpt lat="38.0312878" lon="13.3579429"><ele>626.5</ele><time>2026-04-26T17:18:07.054Z</time></trkpt><trkpt lat="38.0312095" lon="13.3579025"><ele>627.6666666666666</ele><time>2026-04-26T17:18:08.054Z</time></trkpt><trkpt lat="38.0311257" lon="13.3578738"><ele>628.8333333333334</ele><time>2026-04-26T17:18:09.054Z</time></trkpt><trkpt lat="38.0310312" lon="13.3578458"><ele>630.0</ele><time>2026-04-26T17:18:10.054Z</time></trkpt><trkpt lat="38.0309112" lon="13.3578151"><ele>631.5</ele><time>2026-04-26T17:18:11.054Z</time></trkpt><trkpt lat="38.030779" lon="13.3577776"><ele>633.0</ele><time>2026-04-26T17:18:12.054Z</time></trkpt><trkpt lat="38.0306503" lon="13.3577415"><ele>634.5</ele><time>2026-04-26T17:18:13.055Z</time></trkpt><trkpt lat="38.0305332" lon="13.3577192"><ele>636.0</ele><time>2026-04-26T17:18:14.055Z</time></trkpt><trkpt lat="38.0304239" lon="13.3577104"><ele>636.0</ele><time>2026-04-26T17:18:15.054Z</time></trkpt><trkpt lat="38.0303201" lon="13.3577078"><ele>636.0</ele><time>2026-04-26T17:18:16.054Z</time></trkpt><trkpt lat="38.0302215" lon="13.3577169"><ele>636.0</ele><time>2026-04-26T17:18:17.054Z</time></trkpt><trkpt lat="38.0301394" lon="13.3577332"><ele>636.0</ele><time>2026-04-26T17:18:18.054Z</time></trkpt><trkpt lat="38.0300343" lon="13.3577368"><ele>636.0</ele><time>2026-04-26T17:18:20.054Z</time></trkpt><trkpt lat="38.0299838" lon="13.3576755"><ele>634.4</ele><time>2026-04-26T17:18:22.054Z</time></trkpt><trkpt lat="38.029942" lon="13.3575914"><ele>632.8</ele><time>2026-04-26T17:18:24.054Z</time></trkpt><trkpt lat="38.0298803" lon="13.3575153"><ele>631.1999999999999</ele><time>2026-04-26T17:18:26.054Z</time></trkpt><trkpt lat="38.0298003" lon="13.3575042"><ele>629.6</ele><time>2026-04-26T17:18:28.054Z</time></trkpt><trkpt lat="38.0297123" lon="13.3575593"><ele>628.0</ele><time>2026-04-26T17:18:30.054Z</time></trkpt><trkpt lat="38.0295994" lon="13.3576307"><ele>628.0</ele><time>2026-04-26T17:18:32.054Z</time></trkpt><trkpt lat="38.0295335" lon="13.3576568"><ele>628.0</ele><time>2026-04-26T17:18:33.054Z</time></trkpt><trkpt lat="38.0294599" lon="13.3576818"><ele>628.0</ele><time>2026-04-26T17:18:34.054Z</time></trkpt><trkpt lat="38.0293822" lon="13.3576987"><ele>628.0</ele><time>2026-04-26T17:18:35.055Z</time></trkpt><trkpt lat="38.0293038" lon="13.3577029"><ele>628.0</ele><time>2026-04-26T17:18:36.054Z</time></trkpt><trkpt lat="38.0292255" lon="13.3576886"><ele>628.0</ele><time>2026-04-26T17:18:37.055Z</time></trkpt><trkpt lat="38.0291532" lon="13.3576764"><ele>627.5</ele><time>2026-04-26T17:18:38.054Z</time></trkpt><trkpt lat="38.0290781" lon="13.3576653"><ele>627.0</ele><time>2026-04-26T17:18:39.054Z</time></trkpt><trkpt lat="38.029" lon="13.3576554"><ele>626.5</ele><time>2026-04-26T17:18:40.054Z</time></trkpt><trkpt lat="38.0289191" lon="13.357639"><ele>626.0</ele><time>2026-04-26T17:18:41.054Z</time></trkpt><trkpt lat="38.0288425" lon="13.3576129"><ele>625.5</ele><time>2026-04-26T17:18:42.054Z</time></trkpt><trkpt lat="38.0287627" lon="13.3575819"><ele>625.0</ele><time>2026-04-26T17:18:43.055Z</time></trkpt><trkpt lat="38.0286876" lon="13.3575549"><ele>625.0000000000001</ele><time>2026-04-26T17:18:44.054Z</time></trkpt><trkpt lat="38.0286229" lon="13.3575353"><ele>625.0</ele><time>2026-04-26T17:18:45.054Z</time></trkpt><trkpt lat="38.028559" lon="13.3575374"><ele>625.0</ele><time>2026-04-26T17:18:46.054Z</time></trkpt><trkpt lat="38.0284906" lon="13.3575462"><ele>625.0</ele><time>2026-04-26T17:18:47.054Z</time></trkpt><trkpt lat="38.0284191" lon="13.3575664"><ele>625.0</ele><time>2026-04-26T17:18:48.054Z</time></trkpt><trkpt lat="38.0283496" lon="13.3575874"><ele>625.0000000000001</ele><time>2026-04-26T17:18:49.054Z</time></trkpt><trkpt lat="38.0282784" lon="13.35761"><ele>625.0</ele><time>2026-04-26T17:18:50.054Z</time></trkpt><trkpt lat="38.0282067" lon="13.3576201"><ele>623.5714285714287</ele><time>2026-04-26T17:18:51.054Z</time></trkpt><trkpt lat="38.0281294" lon="13.3576119"><ele>622.1428571428571</ele><time>2026-04-26T17:18:52.054Z</time></trkpt><trkpt lat="38.0280514" lon="13.3575983"><ele>620.7142857142858</ele><time>2026-04-26T17:18:53.054Z</time></trkpt><trkpt lat="38.0279794" lon="13.3575969"><ele>619.2857142857143</ele><time>2026-04-26T17:18:54.054Z</time></trkpt><trkpt lat="38.0279075" lon="13.3576081"><ele>617.8571428571429</ele><time>2026-04-26T17:18:55.054Z</time></trkpt><trkpt lat="38.0278401" lon="13.3576241"><ele>616.4285714285714</ele><time>2026-04-26T17:18:56.054Z</time></trkpt><trkpt lat="38.0277694" lon="13.3576523"><ele>615.0</ele><time>2026-04-26T17:18:57.054Z</time></trkpt><trkpt lat="38.0277035" lon="13.3576855"><ele>615.0</ele><time>2026-04-26T17:18:58.054Z</time></trkpt><trkpt lat="38.0276368" lon="13.3577278"><ele>615.0</ele><time>2026-04-26T17:18:59.054Z</time></trkpt><trkpt lat="38.0275589" lon="13.3577502"><ele>615.0</ele><time>2026-04-26T17:19:00.054Z</time></trkpt><trkpt lat="38.0274763" lon="13.3577621"><ele>615.0</ele><time>2026-04-26T17:19:01.054Z</time></trkpt><trkpt lat="38.0273907" lon="13.3577622"><ele>615.0</ele><time>2026-04-26T17:19:02.054Z</time></trkpt><trkpt lat="38.0273075" lon="13.3577552"><ele>615.0</ele><time>2026-04-26T17:19:03.054Z</time></trkpt><trkpt lat="38.0272239" lon="13.3577537"><ele>613.5</ele><time>2026-04-26T17:19:04.054Z</time></trkpt><trkpt lat="38.0271431" lon="13.3577459"><ele>612.0</ele><time>2026-04-26T17:19:05.055Z</time></trkpt><trkpt lat="38.0270624" lon="13.3577415"><ele>610.5</ele><time>2026-04-26T17:19:06.054Z</time></trkpt><trkpt lat="38.0269741" lon="13.3577347"><ele>609.0</ele><time>2026-04-26T17:19:07.054Z</time></trkpt><trkpt lat="38.0268851" lon="13.3577316"><ele>607.5</ele><time>2026-04-26T17:19:08.054Z</time></trkpt><trkpt lat="38.0267985" lon="13.3577312"><ele>606.0</ele><time>2026-04-26T17:19:09.054Z</time></trkpt><trkpt lat="38.0267143" lon="13.3577416"><ele>605.8333333333334</ele><time>2026-04-26T17:19:10.055Z</time></trkpt><trkpt lat="38.0266286" lon="13.3577579"><ele>605.6666666666666</ele><time>2026-04-26T17:19:11.055Z</time></trkpt><trkpt lat="38.0265443" lon="13.3577856"><ele>605.5</ele><time>2026-04-26T17:19:12.054Z</time></trkpt><trkpt lat="38.0264668" lon="13.3578101"><ele>605.3333333333333</ele><time>2026-04-26T17:19:13.054Z</time></trkpt><trkpt lat="38.0263901" lon="13.3578409"><ele>605.1666666666666</ele><time>2026-04-26T17:19:14.054Z</time></trkpt><trkpt lat="38.0263207" lon="13.3578751"><ele>605.0</ele><time>2026-04-26T17:19:15.054Z</time></trkpt><trkpt lat="38.0262571" lon="13.3579013"><ele>605.0</ele><time>2026-04-26T17:19:16.054Z</time></trkpt><trkpt lat="38.0261399" lon="13.3579152"><ele>605.0</ele><time>2026-04-26T17:19:18.054Z</time></trkpt><trkpt lat="38.0260408" lon="13.3578884"><ele>605.0</ele><time>2026-04-26T17:19:20.054Z</time></trkpt><trkpt lat="38.0259488" lon="13.3578285"><ele>605.0</ele><time>2026-04-26T17:19:22.054Z</time></trkpt><trkpt lat="38.0258919" lon="13.3577818"><ele>605.0</ele><time>2026-04-26T17:19:24.054Z</time></trkpt><trkpt lat="38.0258045" lon="13.3577088"><ele>605.0</ele><time>2026-04-26T17:19:27.054Z</time></trkpt><trkpt lat="38.0257355" lon="13.357663"><ele>605.0</ele><time>2026-04-26T17:19:29.054Z</time></trkpt><trkpt lat="38.0258635" lon="13.3577367"><ele>605.0</ele><time>2026-04-26T17:20:08.055Z</time></trkpt><trkpt lat="38.0259414" lon="13.3577935"><ele>605.0</ele><time>2026-04-26T17:20:10.054Z</time></trkpt><trkpt lat="38.0260088" lon="13.3578436"><ele>605.0</ele><time>2026-04-26T17:20:12.054Z</time></trkpt><trkpt lat="38.0260765" lon="13.3578767"><ele>605.0</ele><time>2026-04-26T17:20:14.054Z</time></trkpt><trkpt lat="38.0261268" lon="13.3578189"><ele>605.0</ele><time>2026-04-26T17:20:16.054Z</time></trkpt><trkpt lat="38.0261476" lon="13.3576902"><ele>605.0</ele><time>2026-04-26T17:20:18.054Z</time></trkpt><trkpt lat="38.0261347" lon="13.357552"><ele>605.0</ele><time>2026-04-26T17:20:20.054Z</time></trkpt><trkpt lat="38.0261358" lon="13.3574057"><ele>605.0</ele><time>2026-04-26T17:20:22.055Z</time></trkpt><trkpt lat="38.0261394" lon="13.3572819"><ele>604.7142857142857</ele><time>2026-04-26T17:20:24.054Z</time></trkpt><trkpt lat="38.0261502" lon="13.3571964"><ele>604.4285714285714</ele><time>2026-04-26T17:20:26.054Z</time></trkpt><trkpt lat="38.0261841" lon="13.3571271"><ele>604.1428571428571</ele><time>2026-04-26T17:20:29.054Z</time></trkpt><trkpt lat="38.0262277" lon="13.3570579"><ele>603.8571428571429</ele><time>2026-04-26T17:20:39.054Z</time></trkpt><trkpt lat="38.02627" lon="13.3569789"><ele>603.5714285714286</ele><time>2026-04-26T17:20:41.054Z</time></trkpt><trkpt lat="38.0263213" lon="13.3569201"><ele>603.2857142857143</ele><time>2026-04-26T17:20:43.054Z</time></trkpt><trkpt lat="38.0263734" lon="13.356869"><ele>603.0</ele><time>2026-04-26T17:20:45.054Z</time></trkpt><trkpt lat="38.0264316" lon="13.3568097"><ele>603.0</ele><time>2026-04-26T17:20:47.054Z</time></trkpt><trkpt lat="38.0264895" lon="13.3567374"><ele>603.0</ele><time>2026-04-26T17:20:49.054Z</time></trkpt><trkpt lat="38.0265615" lon="13.356669"><ele>603.0</ele><time>2026-04-26T17:20:51.054Z</time></trkpt><trkpt lat="38.0266488" lon="13.356623"><ele>603.0</ele><time>2026-04-26T17:20:53.054Z</time></trkpt><trkpt lat="38.0267455" lon="13.356576"><ele>603.0</ele><time>2026-04-26T17:20:55.054Z</time></trkpt><trkpt lat="38.026847" lon="13.3565167"><ele>601.6666666666666</ele><time>2026-04-26T17:20:57.055Z</time></trkpt><trkpt lat="38.0269268" lon="13.3564506"><ele>600.3333333333334</ele><time>2026-04-26T17:20:59.054Z</time></trkpt><trkpt lat="38.0269997" lon="13.3563982"><ele>599.0</ele><time>2026-04-26T17:21:01.055Z</time></trkpt><trkpt lat="38.0270707" lon="13.3563701"><ele>597.6666666666667</ele><time>2026-04-26T17:21:03.054Z</time></trkpt><trkpt lat="38.0271519" lon="13.3563439"><ele>596.3333333333334</ele><time>2026-04-26T17:21:05.054Z</time></trkpt><trkpt lat="38.0272221" lon="13.3563077"><ele>595.0</ele><time>2026-04-26T17:21:07.054Z</time></trkpt><trkpt lat="38.0272847" lon="13.3562508"><ele>591.8333333333334</ele><time>2026-04-26T17:21:09.054Z</time></trkpt><trkpt lat="38.0273432" lon="13.3561944"><ele>588.6666666666667</ele><time>2026-04-26T17:21:11.055Z</time></trkpt><trkpt lat="38.0274103" lon="13.3561338"><ele>585.5</ele><time>2026-04-26T17:21:13.054Z</time></trkpt><trkpt lat="38.0274776" lon="13.3560641"><ele>582.3333333333334</ele><time>2026-04-26T17:21:15.054Z</time></trkpt><trkpt lat="38.0275489" lon="13.3559943"><ele>579.1666666666666</ele><time>2026-04-26T17:21:17.054Z</time></trkpt><trkpt lat="38.0276114" lon="13.3559302"><ele>576.0</ele><time>2026-04-26T17:21:19.055Z</time></trkpt><trkpt lat="38.027677" lon="13.3558963"><ele>576.0</ele><time>2026-04-26T17:21:21.055Z</time></trkpt><trkpt lat="38.0276139" lon="13.3559362"><ele>576.0</ele><time>2026-04-26T17:22:17.054Z</time></trkpt><trkpt lat="38.0275498" lon="13.3559955"><ele>576.0</ele><time>2026-04-26T17:22:19.054Z</time></trkpt><trkpt lat="38.0274729" lon="13.3560641"><ele>576.0</ele><time>2026-04-26T17:22:21.054Z</time></trkpt><trkpt lat="38.0274154" lon="13.3561264"><ele>576.0</ele><time>2026-04-26T17:22:23.054Z</time></trkpt><trkpt lat="38.0273613" lon="13.3561774"><ele>576.0</ele><time>2026-04-26T17:22:25.054Z</time></trkpt><trkpt lat="38.0272987" lon="13.3562387"><ele>575.5</ele><time>2026-04-26T17:22:27.054Z</time></trkpt><trkpt lat="38.0271941" lon="13.3563317"><ele>575.0</ele><time>2026-04-26T17:22:30.054Z</time></trkpt><trkpt lat="38.0271224" lon="13.3563763"><ele>574.5</ele><time>2026-04-26T17:22:32.054Z</time></trkpt><trkpt lat="38.027062" lon="13.3564005"><ele>574.0</ele><time>2026-04-26T17:22:34.054Z</time></trkpt><trkpt lat="38.0269917" lon="13.3564345"><ele>573.5</ele><time>2026-04-26T17:22:36.054Z</time></trkpt><trkpt lat="38.026929" lon="13.3564672"><ele>573.0</ele><time>2026-04-26T17:22:38.054Z</time></trkpt><trkpt lat="38.0268658" lon="13.3565104"><ele>577.4</ele><time>2026-04-26T17:22:40.055Z</time></trkpt><trkpt lat="38.0267908" lon="13.3565673"><ele>581.8</ele><time>2026-04-26T17:22:42.054Z</time></trkpt><trkpt lat="38.0267063" lon="13.3566145"><ele>586.2</ele><time>2026-04-26T17:22:44.054Z</time></trkpt><trkpt lat="38.026613" lon="13.3566697"><ele>590.6</ele><time>2026-04-26T17:22:46.054Z</time></trkpt><trkpt lat="38.0265149" lon="13.3567227"><ele>595.0</ele><time>2026-04-26T17:22:48.055Z</time></trkpt><trkpt lat="38.0264268" lon="13.3568101"><ele>596.6</ele><time>2026-04-26T17:22:50.054Z</time></trkpt><trkpt lat="38.0263436" lon="13.3568935"><ele>598.2</ele><time>2026-04-26T17:22:52.054Z</time></trkpt><trkpt lat="38.0262701" lon="13.3569804"><ele>599.8</ele><time>2026-04-26T17:22:54.054Z</time></trkpt><trkpt lat="38.0261973" lon="13.3570763"><ele>601.4</ele><time>2026-04-26T17:22:56.054Z</time></trkpt><trkpt lat="38.0261389" lon="13.3571824"><ele>603.0</ele><time>2026-04-26T17:22:58.055Z</time></trkpt><trkpt lat="38.026104" lon="13.3573035"><ele>603.3333333333334</ele><time>2026-04-26T17:23:00.054Z</time></trkpt><trkpt lat="38.0261183" lon="13.3574134"><ele>603.6666666666666</ele><time>2026-04-26T17:23:02.054Z</time></trkpt><trkpt lat="38.0261258" lon="13.3575042"><ele>604.0</ele><time>2026-04-26T17:23:04.054Z</time></trkpt><trkpt lat="38.0261291" lon="13.3575972"><ele>604.3333333333333</ele><time>2026-04-26T17:23:07.054Z</time></trkpt><trkpt lat="38.02614" lon="13.3577063"><ele>604.6666666666666</ele><time>2026-04-26T17:23:10.054Z</time></trkpt><trkpt lat="38.0261193" lon="13.3578088"><ele>605.0</ele><time>2026-04-26T17:23:13.054Z</time></trkpt><trkpt lat="38.0260459" lon="13.3578625"><ele>605.0</ele><time>2026-04-26T17:23:16.054Z</time></trkpt><trkpt lat="38.0259667" lon="13.3578352"><ele>605.0</ele><time>2026-04-26T17:23:18.054Z</time></trkpt><trkpt lat="38.0258916" lon="13.3577709"><ele>605.0</ele><time>2026-04-26T17:23:20.054Z</time></trkpt><trkpt lat="38.0258177" lon="13.3577145"><ele>605.0</ele><time>2026-04-26T17:23:22.055Z</time></trkpt><trkpt lat="38.0257464" lon="13.3576688"><ele>605.0</ele><time>2026-04-26T17:23:24.054Z</time></trkpt><trkpt lat="38.0256529" lon="13.3576308"><ele>605.0</ele><time>2026-04-26T17:23:34.054Z</time></trkpt><trkpt lat="38.0255693" lon="13.3576301"><ele>603.6666666666666</ele><time>2026-04-26T17:23:37.054Z</time></trkpt><trkpt lat="38.0255056" lon="13.3576"><ele>602.3333333333333</ele><time>2026-04-26T17:23:39.054Z</time></trkpt><trkpt lat="38.0254165" lon="13.3576166"><ele>601.0</ele><time>2026-04-26T17:23:42.054Z</time></trkpt><trkpt lat="38.0253406" lon="13.3575719"><ele>599.6666666666666</ele><time>2026-04-26T17:23:45.054Z</time></trkpt><trkpt lat="38.0252672" lon="13.3575703"><ele>598.3333333333334</ele><time>2026-04-26T17:23:48.055Z</time></trkpt><trkpt lat="38.0252009" lon="13.3575609"><ele>597.0</ele><time>2026-04-26T17:23:50.054Z</time></trkpt><trkpt lat="38.0251302" lon="13.3575052"><ele>597.0</ele><time>2026-04-26T17:23:52.055Z</time></trkpt><trkpt lat="38.0250663" lon="13.3574369"><ele>597.0</ele><time>2026-04-26T17:23:54.054Z</time></trkpt><trkpt lat="38.025018" lon="13.3573607"><ele>597.0</ele><time>2026-04-26T17:23:56.054Z</time></trkpt><trkpt lat="38.0249712" lon="13.3572779"><ele>597.0</ele><time>2026-04-26T17:23:58.054Z</time></trkpt><trkpt lat="38.0249414" lon="13.3571626"><ele>597.0</ele><time>2026-04-26T17:24:00.054Z</time></trkpt><trkpt lat="38.0249105" lon="13.357037"><ele>597.0</ele><time>2026-04-26T17:24:02.054Z</time></trkpt><trkpt lat="38.0248662" lon="13.3569442"><ele>601.4</ele><time>2026-04-26T17:24:04.054Z</time></trkpt><trkpt lat="38.0247852" lon="13.3568947"><ele>605.8000000000001</ele><time>2026-04-26T17:24:06.054Z</time></trkpt><trkpt lat="38.0246951" lon="13.3568819"><ele>610.2</ele><time>2026-04-26T17:24:08.054Z</time></trkpt><trkpt lat="38.0245992" lon="13.3569005"><ele>614.6</ele><time>2026-04-26T17:24:10.054Z</time></trkpt><trkpt lat="38.024478" lon="13.3569218"><ele>619.0</ele><time>2026-04-26T17:24:12.054Z</time></trkpt><trkpt lat="38.0244076" lon="13.3569339"><ele>619.0</ele><time>2026-04-26T17:24:13.054Z</time></trkpt><trkpt lat="38.0243338" lon="13.3569458"><ele>619.0</ele><time>2026-04-26T17:24:14.054Z</time></trkpt><trkpt lat="38.0242545" lon="13.3569608"><ele>619.0</ele><time>2026-04-26T17:24:15.054Z</time></trkpt><trkpt lat="38.0241806" lon="13.3569825"><ele>619.0</ele><time>2026-04-26T17:24:16.054Z</time></trkpt><trkpt lat="38.0241091" lon="13.3570209"><ele>619.0</ele><time>2026-04-26T17:24:17.054Z</time></trkpt><trkpt lat="38.0240499" lon="13.3570634"><ele>619.0</ele><time>2026-04-26T17:24:18.054Z</time></trkpt><trkpt lat="38.0240002" lon="13.3571262"><ele>619.0</ele><time>2026-04-26T17:24:19.054Z</time></trkpt><trkpt lat="38.0239564" lon="13.3572084"><ele>622.2</ele><time>2026-04-26T17:24:20.054Z</time></trkpt><trkpt lat="38.0239125" lon="13.3573113"><ele>625.4</ele><time>2026-04-26T17:24:21.054Z</time></trkpt><trkpt lat="38.0238756" lon="13.35744"><ele>628.6</ele><time>2026-04-26T17:24:22.055Z</time></trkpt><trkpt lat="38.0238448" lon="13.3575809"><ele>631.8</ele><time>2026-04-26T17:24:23.054Z</time></trkpt><trkpt lat="38.0238144" lon="13.3577189"><ele>635.0</ele><time>2026-04-26T17:24:24.054Z</time></trkpt><trkpt lat="38.0237852" lon="13.3578575"><ele>635.0</ele><time>2026-04-26T17:24:25.055Z</time></trkpt><trkpt lat="38.0237536" lon="13.3579896"><ele>635.0</ele><time>2026-04-26T17:24:26.054Z</time></trkpt><trkpt lat="38.023722" lon="13.3581096"><ele>635.0</ele><time>2026-04-26T17:24:27.054Z</time></trkpt><trkpt lat="38.023698" lon="13.3582255"><ele>635.0</ele><time>2026-04-26T17:24:28.054Z</time></trkpt><trkpt lat="38.0236759" lon="13.3583375"><ele>635.0</ele><time>2026-04-26T17:24:29.054Z</time></trkpt><trkpt lat="38.023651" lon="13.3584485"><ele>632.8333333333333</ele><time>2026-04-26T17:24:30.054Z</time></trkpt><trkpt lat="38.0236256" lon="13.3585646"><ele>630.6666666666666</ele><time>2026-04-26T17:24:31.054Z</time></trkpt><trkpt lat="38.0235996" lon="13.3586786"><ele>628.5</ele><time>2026-04-26T17:24:32.054Z</time></trkpt><trkpt lat="38.0235752" lon="13.3587811"><ele>626.3333333333334</ele><time>2026-04-26T17:24:33.054Z</time></trkpt><trkpt lat="38.0235407" lon="13.3588752"><ele>624.1666666666667</ele><time>2026-04-26T17:24:34.054Z</time></trkpt><trkpt lat="38.0234917" lon="13.3589708"><ele>622.0</ele><time>2026-04-26T17:24:35.054Z</time></trkpt><trkpt lat="38.0234397" lon="13.3590513"><ele>623.8333333333334</ele><time>2026-04-26T17:24:36.054Z</time></trkpt><trkpt lat="38.0233703" lon="13.359118"><ele>625.6666666666667</ele><time>2026-04-26T17:24:37.054Z</time></trkpt><trkpt lat="38.0232985" lon="13.3591767"><ele>627.5</ele><time>2026-04-26T17:24:38.054Z</time></trkpt><trkpt lat="38.0232211" lon="13.3592249"><ele>629.3333333333334</ele><time>2026-04-26T17:24:39.054Z</time></trkpt><trkpt lat="38.0231492" lon="13.3592592"><ele>631.1666666666666</ele><time>2026-04-26T17:24:40.054Z</time></trkpt><trkpt lat="38.0230745" lon="13.3592783"><ele>633.0</ele><time>2026-04-26T17:24:41.054Z</time></trkpt><trkpt lat="38.0230056" lon="13.3592925"><ele>633.0</ele><time>2026-04-26T17:24:42.054Z</time></trkpt><trkpt lat="38.0229417" lon="13.359315"><ele>633.0</ele><time>2026-04-26T17:24:43.054Z</time></trkpt><trkpt lat="38.0228819" lon="13.3593488"><ele>633.0</ele><time>2026-04-26T17:24:44.054Z</time></trkpt><trkpt lat="38.0228308" lon="13.3594086"><ele>633.0</ele><time>2026-04-26T17:24:45.054Z</time></trkpt><trkpt lat="38.0227685" lon="13.3595467"><ele>633.0</ele><time>2026-04-26T17:24:47.054Z</time></trkpt><trkpt lat="38.0227518" lon="13.3596363"><ele>633.0</ele><time>2026-04-26T17:24:48.054Z</time></trkpt><trkpt lat="38.0227371" lon="13.3597285"><ele>629.8333333333334</ele><time>2026-04-26T17:24:49.054Z</time></trkpt><trkpt lat="38.0227212" lon="13.3598209"><ele>626.6666666666666</ele><time>2026-04-26T17:24:50.054Z</time></trkpt><trkpt lat="38.0227066" lon="13.3599174"><ele>623.5</ele><time>2026-04-26T17:24:51.054Z</time></trkpt><trkpt lat="38.0226926" lon="13.3600136"><ele>620.3333333333333</ele><time>2026-04-26T17:24:52.054Z</time></trkpt><trkpt lat="38.0226836" lon="13.3601212"><ele>617.1666666666666</ele><time>2026-04-26T17:24:53.054Z</time></trkpt><trkpt lat="38.02268" lon="13.3602357"><ele>614.0</ele><time>2026-04-26T17:24:54.054Z</time></trkpt><trkpt lat="38.0226807" lon="13.3603388"><ele>614.0</ele><time>2026-04-26T17:24:55.054Z</time></trkpt><trkpt lat="38.0226847" lon="13.3604382"><ele>614.0</ele><time>2026-04-26T17:24:56.054Z</time></trkpt><trkpt lat="38.0226844" lon="13.3605386"><ele>614.0</ele><time>2026-04-26T17:24:57.055Z</time></trkpt><trkpt lat="38.0226769" lon="13.3606498"><ele>614.0</ele><time>2026-04-26T17:24:58.054Z</time></trkpt><trkpt lat="38.0226645" lon="13.3607629"><ele>614.0</ele><time>2026-04-26T17:24:59.054Z</time></trkpt><trkpt lat="38.0226251" lon="13.360995"><ele>613.1666666666666</ele><time>2026-04-26T17:25:01.054Z</time></trkpt><trkpt lat="38.0226032" lon="13.3611091"><ele>612.3333333333333</ele><time>2026-04-26T17:25:02.054Z</time></trkpt><trkpt lat="38.0225841" lon="13.3612067"><ele>611.5</ele><time>2026-04-26T17:25:03.054Z</time></trkpt><trkpt lat="38.0225631" lon="13.3612962"><ele>610.6666666666666</ele><time>2026-04-26T17:25:04.054Z</time></trkpt><trkpt lat="38.0225386" lon="13.3613836"><ele>609.8333333333334</ele><time>2026-04-26T17:25:05.054Z</time></trkpt><trkpt lat="38.0225003" lon="13.361465"><ele>609.0</ele><time>2026-04-26T17:25:06.054Z</time></trkpt><trkpt lat="38.0224547" lon="13.3615346"><ele>608.6666666666666</ele><time>2026-04-26T17:25:07.055Z</time></trkpt><trkpt lat="38.0224039" lon="13.3615917"><ele>608.3333333333334</ele><time>2026-04-26T17:25:08.054Z</time></trkpt><trkpt lat="38.0223395" lon="13.3616343"><ele>608.0</ele><time>2026-04-26T17:25:09.055Z</time></trkpt><trkpt lat="38.0222638" lon="13.3616678"><ele>607.6666666666667</ele><time>2026-04-26T17:25:10.054Z</time></trkpt><trkpt lat="38.0221928" lon="13.3616819"><ele>607.3333333333334</ele><time>2026-04-26T17:25:11.054Z</time></trkpt><trkpt lat="38.0221188" lon="13.361697"><ele>607.0</ele><time>2026-04-26T17:25:12.054Z</time></trkpt><trkpt lat="38.0220354" lon="13.3617059"><ele>607.0</ele><time>2026-04-26T17:25:13.054Z</time></trkpt><trkpt lat="38.0219518" lon="13.3617142"><ele>607.0</ele><time>2026-04-26T17:25:14.054Z</time></trkpt><trkpt lat="38.0218688" lon="13.3617261"><ele>607.0</ele><time>2026-04-26T17:25:15.054Z</time></trkpt><trkpt lat="38.0217874" lon="13.3617432"><ele>607.0</ele><time>2026-04-26T17:25:16.054Z</time></trkpt><trkpt lat="38.0217088" lon="13.3617607"><ele>607.0</ele><time>2026-04-26T17:25:17.054Z</time></trkpt><trkpt lat="38.0216352" lon="13.361786"><ele>607.0</ele><time>2026-04-26T17:25:18.054Z</time></trkpt><trkpt lat="38.0215563" lon="13.3618075"><ele>608.6666666666667</ele><time>2026-04-26T17:25:19.054Z</time></trkpt><trkpt lat="38.0214772" lon="13.3618244"><ele>610.3333333333334</ele><time>2026-04-26T17:25:20.054Z</time></trkpt><trkpt lat="38.0214055" lon="13.3618378"><ele>612.0</ele><time>2026-04-26T17:25:21.055Z</time></trkpt><trkpt lat="38.0213341" lon="13.3618508"><ele>613.6666666666666</ele><time>2026-04-26T17:25:22.054Z</time></trkpt><trkpt lat="38.0212583" lon="13.3618622"><ele>615.3333333333333</ele><time>2026-04-26T17:25:23.054Z</time></trkpt><trkpt lat="38.021181" lon="13.3618745"><ele>617.0</ele><time>2026-04-26T17:25:24.054Z</time></trkpt><trkpt lat="38.0211035" lon="13.3618859"><ele>617.0</ele><time>2026-04-26T17:25:25.054Z</time></trkpt><trkpt lat="38.0210282" lon="13.3618928"><ele>617.0</ele><time>2026-04-26T17:25:26.055Z</time></trkpt><trkpt lat="38.0209596" lon="13.361898"><ele>617.0</ele><time>2026-04-26T17:25:27.054Z</time></trkpt><trkpt lat="38.0208881" lon="13.3619028"><ele>617.0</ele><time>2026-04-26T17:25:28.054Z</time></trkpt><trkpt lat="38.020815" lon="13.3619108"><ele>617.0</ele><time>2026-04-26T17:25:29.054Z</time></trkpt><trkpt lat="38.020741" lon="13.3619166"><ele>617.0</ele><time>2026-04-26T17:25:30.054Z</time></trkpt><trkpt lat="38.020665" lon="13.3619354"><ele>617.0</ele><time>2026-04-26T17:25:31.054Z</time></trkpt><trkpt lat="38.0205863" lon="13.3619558"><ele>616.8571428571429</ele><time>2026-04-26T17:25:32.054Z</time></trkpt><trkpt lat="38.0205119" lon="13.3619727"><ele>616.7142857142857</ele><time>2026-04-26T17:25:33.054Z</time></trkpt><trkpt lat="38.0204423" lon="13.3619813"><ele>616.5714285714286</ele><time>2026-04-26T17:25:34.054Z</time></trkpt><trkpt lat="38.0203668" lon="13.3619873"><ele>616.4285714285714</ele><time>2026-04-26T17:25:35.054Z</time></trkpt><trkpt lat="38.0202884" lon="13.3619877"><ele>616.2857142857142</ele><time>2026-04-26T17:25:36.054Z</time></trkpt><trkpt lat="38.020217" lon="13.361985"><ele>616.1428571428571</ele><time>2026-04-26T17:25:37.054Z</time></trkpt><trkpt lat="38.0201467" lon="13.3619814"><ele>616.0</ele><time>2026-04-26T17:25:38.054Z</time></trkpt><trkpt lat="38.0200779" lon="13.3619726"><ele>616.0</ele><time>2026-04-26T17:25:39.054Z</time></trkpt><trkpt lat="38.0200089" lon="13.3619625"><ele>616.0</ele><time>2026-04-26T17:25:40.054Z</time></trkpt><trkpt lat="38.0199457" lon="13.3619554"><ele>616.0</ele><time>2026-04-26T17:25:41.055Z</time></trkpt><trkpt lat="38.0198494" lon="13.3619563"><ele>616.0</ele><time>2026-04-26T17:25:43.054Z</time></trkpt><trkpt lat="38.0197408" lon="13.3619677"><ele>616.0</ele><time>2026-04-26T17:25:45.054Z</time></trkpt><trkpt lat="38.0196137" lon="13.3619793"><ele>614.5</ele><time>2026-04-26T17:25:47.054Z</time></trkpt><trkpt lat="38.0195465" lon="13.3619787"><ele>613.0</ele><time>2026-04-26T17:25:48.054Z</time></trkpt><trkpt lat="38.0194445" lon="13.3619955"><ele>611.5</ele><time>2026-04-26T17:25:50.055Z</time></trkpt><trkpt lat="38.0193597" lon="13.362029"><ele>610.0</ele><time>2026-04-26T17:25:52.054Z</time></trkpt><trkpt lat="38.0192771" lon="13.3620235"><ele>608.5</ele><time>2026-04-26T17:25:54.054Z</time></trkpt><trkpt lat="38.0192029" lon="13.3620096"><ele>607.0</ele><time>2026-04-26T17:25:56.054Z</time></trkpt><trkpt lat="38.0191244" lon="13.3620038"><ele>606.5714285714286</ele><time>2026-04-26T17:25:58.055Z</time></trkpt><trkpt lat="38.0190568" lon="13.3620097"><ele>606.1428571428571</ele><time>2026-04-26T17:26:00.055Z</time></trkpt><trkpt lat="38.0189988" lon="13.362041"><ele>605.7142857142858</ele><time>2026-04-26T17:26:02.054Z</time></trkpt><trkpt lat="38.0189877" lon="13.3621565"><ele>605.2857142857142</ele><time>2026-04-26T17:26:05.054Z</time></trkpt><trkpt lat="38.0189654" lon="13.3622373"><ele>604.8571428571429</ele><time>2026-04-26T17:26:07.054Z</time></trkpt><trkpt lat="38.0189379" lon="13.3623235"><ele>604.4285714285714</ele><time>2026-04-26T17:26:09.055Z</time></trkpt><trkpt lat="38.0189054" lon="13.3624171"><ele>604.0</ele><time>2026-04-26T17:26:12.054Z</time></trkpt><trkpt lat="38.0188621" lon="13.3624943"><ele>602.3333333333334</ele><time>2026-04-26T17:26:16.054Z</time></trkpt><trkpt lat="38.0189557" lon="13.3625662"><ele>600.6666666666667</ele><time>2026-04-26T17:27:24.054Z</time></trkpt><trkpt lat="38.0190226" lon="13.3625769"><ele>599.0</ele><time>2026-04-26T17:27:25.054Z</time></trkpt><trkpt lat="38.0190959" lon="13.3625785"><ele>597.3333333333334</ele><time>2026-04-26T17:27:26.054Z</time></trkpt><trkpt lat="38.0191717" lon="13.3625798"><ele>595.6666666666666</ele><time>2026-04-26T17:27:27.054Z</time></trkpt><trkpt lat="38.0192553" lon="13.3625814"><ele>594.0</ele><time>2026-04-26T17:27:28.054Z</time></trkpt><trkpt lat="38.0193445" lon="13.3625787"><ele>594.0</ele><time>2026-04-26T17:27:29.054Z</time></trkpt><trkpt lat="38.0194311" lon="13.3625748"><ele>594.0</ele><time>2026-04-26T17:27:30.054Z</time></trkpt><trkpt lat="38.0195232" lon="13.362566"><ele>594.0</ele><time>2026-04-26T17:27:31.054Z</time></trkpt><trkpt lat="38.0196202" lon="13.3625581"><ele>594.0</ele><time>2026-04-26T17:27:32.054Z</time></trkpt><trkpt lat="38.0197256" lon="13.3625444"><ele>594.0</ele><time>2026-04-26T17:27:33.054Z</time></trkpt><trkpt lat="38.019837" lon="13.3625273"><ele>594.0</ele><time>2026-04-26T17:27:34.054Z</time></trkpt><trkpt lat="38.0199639" lon="13.3625129"><ele>594.0</ele><time>2026-04-26T17:27:35.054Z</time></trkpt><trkpt lat="38.0201108" lon="13.3625025"><ele>594.0</ele><time>2026-04-26T17:27:36.054Z</time></trkpt><trkpt lat="38.0202659" lon="13.3624874"><ele>594.0</ele><time>2026-04-26T17:27:37.054Z</time></trkpt><trkpt lat="38.0204277" lon="13.3624713"><ele>591.6666666666666</ele><time>2026-04-26T17:27:38.054Z</time></trkpt><trkpt lat="38.0205942" lon="13.3624533"><ele>589.3333333333333</ele><time>2026-04-26T17:27:39.054Z</time></trkpt><trkpt lat="38.0207604" lon="13.3624357"><ele>587.0</ele><time>2026-04-26T17:27:40.054Z</time></trkpt><trkpt lat="38.0209263" lon="13.362417"><ele>584.6666666666666</ele><time>2026-04-26T17:27:41.054Z</time></trkpt><trkpt lat="38.0210975" lon="13.362398"><ele>582.3333333333334</ele><time>2026-04-26T17:27:42.055Z</time></trkpt><trkpt lat="38.0212631" lon="13.3623782"><ele>580.0</ele><time>2026-04-26T17:27:43.054Z</time></trkpt><trkpt lat="38.0214244" lon="13.3623623"><ele>580.0</ele><time>2026-04-26T17:27:44.054Z</time></trkpt><trkpt lat="38.0215801" lon="13.3623518"><ele>580.0</ele><time>2026-04-26T17:27:45.054Z</time></trkpt><trkpt lat="38.021728" lon="13.3623492"><ele>580.0</ele><time>2026-04-26T17:27:46.054Z</time></trkpt><trkpt lat="38.0220018" lon="13.3623481"><ele>577.0</ele><time>2026-04-26T17:27:48.054Z</time></trkpt><trkpt lat="38.0221341" lon="13.3623516"><ele>574.0</ele><time>2026-04-26T17:27:49.054Z</time></trkpt><trkpt lat="38.0222641" lon="13.3623461"><ele>571.0</ele><time>2026-04-26T17:27:50.054Z</time></trkpt><trkpt lat="38.022393" lon="13.3623249"><ele>568.0</ele><time>2026-04-26T17:27:51.054Z</time></trkpt><trkpt lat="38.0225353" lon="13.3622656"><ele>575.0</ele><time>2026-04-26T17:27:52.055Z</time></trkpt><trkpt lat="38.0226813" lon="13.3621575"><ele>582.0</ele><time>2026-04-26T17:27:53.054Z</time></trkpt><trkpt lat="38.0228282" lon="13.3620056"><ele>589.0</ele><time>2026-04-26T17:27:54.054Z</time></trkpt><trkpt lat="38.0229514" lon="13.3618294"><ele>589.0</ele><time>2026-04-26T17:27:55.054Z</time></trkpt><trkpt lat="38.0230535" lon="13.3616281"><ele>589.0</ele><time>2026-04-26T17:27:56.054Z</time></trkpt><trkpt lat="38.0231242" lon="13.3614074"><ele>589.0</ele><time>2026-04-26T17:27:57.055Z</time></trkpt><trkpt lat="38.0231827" lon="13.3611894"><ele>595.6666666666667</ele><time>2026-04-26T17:27:58.055Z</time></trkpt><trkpt lat="38.0232211" lon="13.3609868"><ele>602.3333333333334</ele><time>2026-04-26T17:27:59.054Z</time></trkpt><trkpt lat="38.0232564" lon="13.3607944"><ele>609.0</ele><time>2026-04-26T17:28:00.054Z</time></trkpt><trkpt lat="38.0232886" lon="13.3606148"><ele>600.75</ele><time>2026-04-26T17:28:01.054Z</time></trkpt><trkpt lat="38.0233189" lon="13.3604488"><ele>592.5</ele><time>2026-04-26T17:28:02.054Z</time></trkpt><trkpt lat="38.0233467" lon="13.3602942"><ele>584.25</ele><time>2026-04-26T17:28:03.054Z</time></trkpt><trkpt lat="38.0233756" lon="13.3601498"><ele>576.0</ele><time>2026-04-26T17:28:04.055Z</time></trkpt><trkpt lat="38.023423" lon="13.3600224"><ele>576.0</ele><time>2026-04-26T17:28:05.054Z</time></trkpt><trkpt lat="38.0234876" lon="13.3599265"><ele>576.0</ele><time>2026-04-26T17:28:06.054Z</time></trkpt><trkpt lat="38.0235749" lon="13.3598773"><ele>576.0</ele><time>2026-04-26T17:28:07.054Z</time></trkpt><trkpt lat="38.0236656" lon="13.3598469"><ele>576.0</ele><time>2026-04-26T17:28:08.055Z</time></trkpt><trkpt lat="38.023759" lon="13.359797"><ele>576.0</ele><time>2026-04-26T17:28:09.054Z</time></trkpt><trkpt lat="38.0238486" lon="13.3597035"><ele>580.5</ele><time>2026-04-26T17:28:10.055Z</time></trkpt><trkpt lat="38.0239346" lon="13.3595811"><ele>585.0</ele><time>2026-04-26T17:28:11.055Z</time></trkpt><trkpt lat="38.0240125" lon="13.3594447"><ele>589.5</ele><time>2026-04-26T17:28:12.054Z</time></trkpt><trkpt lat="38.0240834" lon="13.3593048"><ele>594.0</ele><time>2026-04-26T17:28:13.055Z</time></trkpt><trkpt lat="38.0241431" lon="13.3591618"><ele>591.2</ele><time>2026-04-26T17:28:14.054Z</time></trkpt><trkpt lat="38.0241885" lon="13.3590235"><ele>588.4</ele><time>2026-04-26T17:28:15.054Z</time></trkpt><trkpt lat="38.0242206" lon="13.3588899"><ele>585.6</ele><time>2026-04-26T17:28:16.054Z</time></trkpt><trkpt lat="38.024243" lon="13.3587702"><ele>582.8</ele><time>2026-04-26T17:28:17.054Z</time></trkpt><trkpt lat="38.0242637" lon="13.3586613"><ele>580.0</ele><time>2026-04-26T17:28:18.054Z</time></trkpt><trkpt lat="38.0242921" lon="13.3585623"><ele>580.0</ele><time>2026-04-26T17:28:19.054Z</time></trkpt><trkpt lat="38.0243365" lon="13.3584734"><ele>580.0</ele><time>2026-04-26T17:28:20.054Z</time></trkpt><trkpt lat="38.024405" lon="13.3584007"><ele>580.0</ele><time>2026-04-26T17:28:21.054Z</time></trkpt><trkpt lat="38.0244944" lon="13.3583526"><ele>580.0</ele><time>2026-04-26T17:28:22.054Z</time></trkpt><trkpt lat="38.0245992" lon="13.3583298"><ele>580.0</ele><time>2026-04-26T17:28:23.054Z</time></trkpt><trkpt lat="38.0247067" lon="13.3583325"><ele>580.0</ele><time>2026-04-26T17:28:24.054Z</time></trkpt><trkpt lat="38.0248153" lon="13.3583723"><ele>580.0</ele><time>2026-04-26T17:28:25.054Z</time></trkpt><trkpt lat="38.0249173" lon="13.3584387"><ele>580.0</ele><time>2026-04-26T17:28:26.054Z</time></trkpt><trkpt lat="38.0250224" lon="13.3585107"><ele>580.0</ele><time>2026-04-26T17:28:27.054Z</time></trkpt><trkpt lat="38.0251213" lon="13.3585784"><ele>578.8</ele><time>2026-04-26T17:28:28.054Z</time></trkpt><trkpt lat="38.0252138" lon="13.3586543"><ele>577.6</ele><time>2026-04-26T17:28:29.054Z</time></trkpt><trkpt lat="38.0252838" lon="13.3587448"><ele>576.4</ele><time>2026-04-26T17:28:30.054Z</time></trkpt><trkpt lat="38.0253259" lon="13.3588676"><ele>575.2</ele><time>2026-04-26T17:28:31.055Z</time></trkpt><trkpt lat="38.0253654" lon="13.3590096"><ele>574.0</ele><time>2026-04-26T17:28:32.054Z</time></trkpt><trkpt lat="38.0254061" lon="13.3591777"><ele>565.6666666666667</ele><time>2026-04-26T17:28:33.055Z</time></trkpt><trkpt lat="38.0254699" lon="13.359362"><ele>557.3333333333334</ele><time>2026-04-26T17:28:34.054Z</time></trkpt><trkpt lat="38.0255487" lon="13.3595445"><ele>549.0</ele><time>2026-04-26T17:28:35.054Z</time></trkpt><trkpt lat="38.0256304" lon="13.3597053"><ele>550.2</ele><time>2026-04-26T17:28:36.054Z</time></trkpt><trkpt lat="38.0257064" lon="13.3598456"><ele>551.4</ele><time>2026-04-26T17:28:37.054Z</time></trkpt><trkpt lat="38.0257718" lon="13.3599632"><ele>552.6</ele><time>2026-04-26T17:28:38.054Z</time></trkpt><trkpt lat="38.0258356" lon="13.3600552"><ele>553.8</ele><time>2026-04-26T17:28:39.054Z</time></trkpt><trkpt lat="38.0259087" lon="13.3601113"><ele>555.0</ele><time>2026-04-26T17:28:40.054Z</time></trkpt><trkpt lat="38.0259985" lon="13.3601362"><ele>555.0</ele><time>2026-04-26T17:28:41.055Z</time></trkpt><trkpt lat="38.0260873" lon="13.3601009"><ele>555.0</ele><time>2026-04-26T17:28:42.054Z</time></trkpt><trkpt lat="38.0261744" lon="13.3600348"><ele>555.0</ele><time>2026-04-26T17:28:43.055Z</time></trkpt><trkpt lat="38.0262711" lon="13.3599478"><ele>555.0</ele><time>2026-04-26T17:28:44.054Z</time></trkpt><trkpt lat="38.0263579" lon="13.3598549"><ele>555.0</ele><time>2026-04-26T17:28:45.054Z</time></trkpt><trkpt lat="38.0264359" lon="13.3597561"><ele>557.4</ele><time>2026-04-26T17:28:46.054Z</time></trkpt><trkpt lat="38.0265195" lon="13.3596531"><ele>559.8</ele><time>2026-04-26T17:28:47.054Z</time></trkpt><trkpt lat="38.0265973" lon="13.3595592"><ele>562.2</ele><time>2026-04-26T17:28:48.054Z</time></trkpt><trkpt lat="38.0266781" lon="13.3594727"><ele>564.6</ele><time>2026-04-26T17:28:49.054Z</time></trkpt><trkpt lat="38.0267688" lon="13.3594064"><ele>567.0</ele><time>2026-04-26T17:28:50.055Z</time></trkpt><trkpt lat="38.0268786" lon="13.3593608"><ele>567.0</ele><time>2026-04-26T17:28:51.054Z</time></trkpt><trkpt lat="38.0269871" lon="13.3593591"><ele>567.0</ele><time>2026-04-26T17:28:52.054Z</time></trkpt><trkpt lat="38.0271018" lon="13.3593893"><ele>567.0</ele><time>2026-04-26T17:28:53.054Z</time></trkpt><trkpt lat="38.0272247" lon="13.3594287"><ele>567.0</ele><time>2026-04-26T17:28:54.054Z</time></trkpt><trkpt lat="38.0273499" lon="13.3594613"><ele>567.0</ele><time>2026-04-26T17:28:55.054Z</time></trkpt><trkpt lat="38.0274771" lon="13.3594927"><ele>567.0</ele><time>2026-04-26T17:28:56.055Z</time></trkpt><trkpt lat="38.0275941" lon="13.359539"><ele>567.0</ele><time>2026-04-26T17:28:57.054Z</time></trkpt><trkpt lat="38.0276932" lon="13.3596025"><ele>567.0</ele><time>2026-04-26T17:28:58.054Z</time></trkpt><trkpt lat="38.0277792" lon="13.3596969"><ele>561.0</ele><time>2026-04-26T17:28:59.054Z</time></trkpt><trkpt lat="38.0278594" lon="13.3598146"><ele>555.0</ele><time>2026-04-26T17:29:00.054Z</time></trkpt><trkpt lat="38.0279443" lon="13.3599453"><ele>549.0</ele><time>2026-04-26T17:29:01.054Z</time></trkpt><trkpt lat="38.0280447" lon="13.3600777"><ele>543.0</ele><time>2026-04-26T17:29:02.054Z</time></trkpt><trkpt lat="38.0281659" lon="13.3601904"><ele>543.0</ele><time>2026-04-26T17:29:03.054Z</time></trkpt><trkpt lat="38.0283092" lon="13.3602734"><ele>543.0</ele><time>2026-04-26T17:29:04.054Z</time></trkpt><trkpt lat="38.0284726" lon="13.3603257"><ele>543.0</ele><time>2026-04-26T17:29:05.054Z</time></trkpt><trkpt lat="38.0286514" lon="13.360382"><ele>549.6666666666666</ele><time>2026-04-26T17:29:06.054Z</time></trkpt><trkpt lat="38.028838" lon="13.3604322"><ele>556.3333333333333</ele><time>2026-04-26T17:29:07.055Z</time></trkpt><trkpt lat="38.0290158" lon="13.3604822"><ele>563.0</ele><time>2026-04-26T17:29:08.054Z</time></trkpt><trkpt lat="38.0291803" lon="13.3605314"><ele>556.6666666666666</ele><time>2026-04-26T17:29:09.054Z</time></trkpt><trkpt lat="38.029353" lon="13.3605693"><ele>550.3333333333334</ele><time>2026-04-26T17:29:10.054Z</time></trkpt><trkpt lat="38.0295293" lon="13.3605889"><ele>544.0</ele><time>2026-04-26T17:29:11.054Z</time></trkpt><trkpt lat="38.0297026" lon="13.36059"><ele>544.0</ele><time>2026-04-26T17:29:12.054Z</time></trkpt><trkpt lat="38.0298823" lon="13.3605795"><ele>544.0</ele><time>2026-04-26T17:29:13.055Z</time></trkpt><trkpt lat="38.0300648" lon="13.3605901"><ele>544.0</ele><time>2026-04-26T17:29:14.054Z</time></trkpt><trkpt lat="38.0302344" lon="13.3606396"><ele>545.3333333333334</ele><time>2026-04-26T17:29:15.054Z</time></trkpt><trkpt lat="38.0303931" lon="13.3607178"><ele>546.6666666666666</ele><time>2026-04-26T17:29:16.055Z</time></trkpt><trkpt lat="38.0305463" lon="13.3608088"><ele>548.0</ele><time>2026-04-26T17:29:17.055Z</time></trkpt><trkpt lat="38.0306979" lon="13.3608964"><ele>551.3333333333333</ele><time>2026-04-26T17:29:18.054Z</time></trkpt><trkpt lat="38.0308471" lon="13.3609842"><ele>554.6666666666666</ele><time>2026-04-26T17:29:19.054Z</time></trkpt><trkpt lat="38.0309988" lon="13.3610489"><ele>558.0</ele><time>2026-04-26T17:29:20.054Z</time></trkpt><trkpt lat="38.0311521" lon="13.3610833"><ele>558.0</ele><time>2026-04-26T17:29:21.054Z</time></trkpt><trkpt lat="38.0313283" lon="13.3610902"><ele>558.0</ele><time>2026-04-26T17:29:22.054Z</time></trkpt><trkpt lat="38.0315172" lon="13.3610799"><ele>558.0</ele><time>2026-04-26T17:29:23.054Z</time></trkpt><trkpt lat="38.0317107" lon="13.3610628"><ele>560.3333333333334</ele><time>2026-04-26T17:29:24.055Z</time></trkpt><trkpt lat="38.031891" lon="13.3610476"><ele>562.6666666666667</ele><time>2026-04-26T17:29:25.054Z</time></trkpt><trkpt lat="38.0320555" lon="13.3610334"><ele>565.0</ele><time>2026-04-26T17:29:26.054Z</time></trkpt><trkpt lat="38.032214" lon="13.3610176"><ele>565.0</ele><time>2026-04-26T17:29:27.054Z</time></trkpt><trkpt lat="38.0323773" lon="13.3609881"><ele>565.0</ele><time>2026-04-26T17:29:28.054Z</time></trkpt><trkpt lat="38.032547" lon="13.360927"><ele>565.0</ele><time>2026-04-26T17:29:29.054Z</time></trkpt><trkpt lat="38.0327229" lon="13.3608366"><ele>564.3333333333334</ele><time>2026-04-26T17:29:30.054Z</time></trkpt><trkpt lat="38.0328897" lon="13.3607274"><ele>563.6666666666666</ele><time>2026-04-26T17:29:31.054Z</time></trkpt><trkpt lat="38.0330459" lon="13.360618"><ele>563.0</ele><time>2026-04-26T17:29:32.054Z</time></trkpt><trkpt lat="38.033184" lon="13.3605161"><ele>566.25</ele><time>2026-04-26T17:29:33.054Z</time></trkpt><trkpt lat="38.0333032" lon="13.360424"><ele>569.5</ele><time>2026-04-26T17:29:34.054Z</time></trkpt><trkpt lat="38.0334159" lon="13.3603447"><ele>572.75</ele><time>2026-04-26T17:29:35.054Z</time></trkpt><trkpt lat="38.0335216" lon="13.3602728"><ele>576.0</ele><time>2026-04-26T17:29:36.054Z</time></trkpt><trkpt lat="38.033626" lon="13.3602111"><ele>576.0</ele><time>2026-04-26T17:29:37.054Z</time></trkpt><trkpt lat="38.0337261" lon="13.3601694"><ele>576.0</ele><time>2026-04-26T17:29:38.054Z</time></trkpt><trkpt lat="38.0338262" lon="13.3601657"><ele>576.0</ele><time>2026-04-26T17:29:39.054Z</time></trkpt><trkpt lat="38.033925" lon="13.3601865"><ele>576.0</ele><time>2026-04-26T17:29:40.054Z</time></trkpt><trkpt lat="38.0340157" lon="13.3602507"><ele>576.0</ele><time>2026-04-26T17:29:41.054Z</time></trkpt><trkpt lat="38.0341036" lon="13.3603477"><ele>575.25</ele><time>2026-04-26T17:29:42.054Z</time></trkpt><trkpt lat="38.0341742" lon="13.3604756"><ele>574.5</ele><time>2026-04-26T17:29:43.054Z</time></trkpt><trkpt lat="38.0342205" lon="13.3606258"><ele>573.75</ele><time>2026-04-26T17:29:44.055Z</time></trkpt><trkpt lat="38.0342321" lon="13.3607907"><ele>573.0</ele><time>2026-04-26T17:29:45.055Z</time></trkpt><trkpt lat="38.0341972" lon="13.3609355"><ele>570.5</ele><time>2026-04-26T17:29:46.054Z</time></trkpt><trkpt lat="38.0341208" lon="13.361079"><ele>568.0</ele><time>2026-04-26T17:29:47.054Z</time></trkpt><trkpt lat="38.0340246" lon="13.3612215"><ele>565.5</ele><time>2026-04-26T17:29:48.054Z</time></trkpt><trkpt lat="38.0339273" lon="13.3613696"><ele>563.0</ele><time>2026-04-26T17:29:49.054Z</time></trkpt><trkpt lat="38.0338455" lon="13.36152"><ele>563.0</ele><time>2026-04-26T17:29:50.054Z</time></trkpt><trkpt lat="38.0337989" lon="13.361689"><ele>563.0</ele><time>2026-04-26T17:29:51.054Z</time></trkpt><trkpt lat="38.0337829" lon="13.3619024"><ele>563.0</ele><time>2026-04-26T17:29:52.054Z</time></trkpt><trkpt lat="38.0337698" lon="13.3621198"><ele>565.0</ele><time>2026-04-26T17:29:53.054Z</time></trkpt><trkpt lat="38.0337569" lon="13.3623349"><ele>567.0</ele><time>2026-04-26T17:29:54.055Z</time></trkpt><trkpt lat="38.0337444" lon="13.3625396"><ele>569.0</ele><time>2026-04-26T17:29:55.055Z</time></trkpt><trkpt lat="38.0337307" lon="13.3627268"><ele>569.0</ele><time>2026-04-26T17:29:56.054Z</time></trkpt><trkpt lat="38.0337132" lon="13.3628901"><ele>569.0</ele><time>2026-04-26T17:29:57.054Z</time></trkpt><trkpt lat="38.0336776" lon="13.3630264"><ele>569.0</ele><time>2026-04-26T17:29:58.055Z</time></trkpt><trkpt lat="38.0336148" lon="13.3631545"><ele>569.0</ele><time>2026-04-26T17:29:59.054Z</time></trkpt><trkpt lat="38.0335238" lon="13.3632773"><ele>572.0</ele><time>2026-04-26T17:30:00.054Z</time></trkpt><trkpt lat="38.0334186" lon="13.3634018"><ele>575.0</ele><time>2026-04-26T17:30:01.054Z</time></trkpt><trkpt lat="38.0333095" lon="13.3635178"><ele>578.0</ele><time>2026-04-26T17:30:02.054Z</time></trkpt><trkpt lat="38.0332083" lon="13.3636236"><ele>581.0</ele><time>2026-04-26T17:30:03.054Z</time></trkpt><trkpt lat="38.033119" lon="13.3637129"><ele>581.0</ele><time>2026-04-26T17:30:04.054Z</time></trkpt><trkpt lat="38.0330472" lon="13.3638016"><ele>581.0</ele><time>2026-04-26T17:30:05.055Z</time></trkpt><trkpt lat="38.0329967" lon="13.3639016"><ele>581.0</ele><time>2026-04-26T17:30:06.054Z</time></trkpt><trkpt lat="38.0329721" lon="13.3640239"><ele>581.0</ele><time>2026-04-26T17:30:07.055Z</time></trkpt><trkpt lat="38.0329597" lon="13.3641793"><ele>581.0</ele><time>2026-04-26T17:30:08.054Z</time></trkpt><trkpt lat="38.0329827" lon="13.3643577"><ele>583.25</ele><time>2026-04-26T17:30:09.054Z</time></trkpt><trkpt lat="38.0330106" lon="13.3645352"><ele>585.5</ele><time>2026-04-26T17:30:10.054Z</time></trkpt><trkpt lat="38.0330524" lon="13.3647046"><ele>587.75</ele><time>2026-04-26T17:30:11.054Z</time></trkpt><trkpt lat="38.0331052" lon="13.3648739"><ele>590.0</ele><time>2026-04-26T17:30:12.054Z</time></trkpt><trkpt lat="38.0331738" lon="13.365042"><ele>590.0</ele><time>2026-04-26T17:30:13.055Z</time></trkpt><trkpt lat="38.0332502" lon="13.3652119"><ele>590.0</ele><time>2026-04-26T17:30:14.054Z</time></trkpt><trkpt lat="38.0333291" lon="13.3653777"><ele>590.0</ele><time>2026-04-26T17:30:15.054Z</time></trkpt><trkpt lat="38.0334023" lon="13.3655351"><ele>589.25</ele><time>2026-04-26T17:30:16.054Z</time></trkpt><trkpt lat="38.033471" lon="13.3656793"><ele>588.5</ele><time>2026-04-26T17:30:17.054Z</time></trkpt><trkpt lat="38.0335453" lon="13.3658208"><ele>587.75</ele><time>2026-04-26T17:30:18.055Z</time></trkpt><trkpt lat="38.0336372" lon="13.3659583"><ele>587.0</ele><time>2026-04-26T17:30:19.054Z</time></trkpt><trkpt lat="38.0337448" lon="13.3660788"><ele>587.0</ele><time>2026-04-26T17:30:20.054Z</time></trkpt><trkpt lat="38.0338561" lon="13.3661964"><ele>587.0</ele><time>2026-04-26T17:30:21.054Z</time></trkpt><trkpt lat="38.0339595" lon="13.3662983"><ele>587.0</ele><time>2026-04-26T17:30:22.054Z</time></trkpt><trkpt lat="38.0340616" lon="13.366385"><ele>587.0</ele><time>2026-04-26T17:30:23.054Z</time></trkpt><trkpt lat="38.034173" lon="13.3664522"><ele>586.25</ele><time>2026-04-26T17:30:24.054Z</time></trkpt><trkpt lat="38.0343008" lon="13.3664959"><ele>585.5</ele><time>2026-04-26T17:30:25.054Z</time></trkpt><trkpt lat="38.0344339" lon="13.36651"><ele>584.75</ele><time>2026-04-26T17:30:26.055Z</time></trkpt><trkpt lat="38.0345576" lon="13.3665036"><ele>584.0</ele><time>2026-04-26T17:30:27.054Z</time></trkpt><trkpt lat="38.0346727" lon="13.3664668"><ele>584.0</ele><time>2026-04-26T17:30:28.054Z</time></trkpt><trkpt lat="38.0347866" lon="13.366386"><ele>584.0</ele><time>2026-04-26T17:30:29.054Z</time></trkpt><trkpt lat="38.0349053" lon="13.36627"><ele>584.0</ele><time>2026-04-26T17:30:30.054Z</time></trkpt><trkpt lat="38.0350203" lon="13.3661316"><ele>584.0</ele><time>2026-04-26T17:30:31.054Z</time></trkpt><trkpt lat="38.0351173" lon="13.3659849"><ele>585.25</ele><time>2026-04-26T17:30:32.054Z</time></trkpt><trkpt lat="38.0351972" lon="13.3658233"><ele>586.5</ele><time>2026-04-26T17:30:33.054Z</time></trkpt><trkpt lat="38.0352596" lon="13.3656519"><ele>587.75</ele><time>2026-04-26T17:30:34.054Z</time></trkpt><trkpt lat="38.0353113" lon="13.3654793"><ele>589.0</ele><time>2026-04-26T17:30:35.054Z</time></trkpt><trkpt lat="38.0353549" lon="13.3653142"><ele>590.25</ele><time>2026-04-26T17:30:36.054Z</time></trkpt><trkpt lat="38.0353927" lon="13.3651552"><ele>591.5</ele><time>2026-04-26T17:30:37.055Z</time></trkpt><trkpt lat="38.0354324" lon="13.3650122"><ele>592.75</ele><time>2026-04-26T17:30:38.054Z</time></trkpt><trkpt lat="38.0354959" lon="13.3648934"><ele>594.0</ele><time>2026-04-26T17:30:39.054Z</time></trkpt><trkpt lat="38.0355785" lon="13.3648155"><ele>594.0</ele><time>2026-04-26T17:30:40.055Z</time></trkpt><trkpt lat="38.0356739" lon="13.3647678"><ele>594.0</ele><time>2026-04-26T17:30:41.054Z</time></trkpt><trkpt lat="38.0357866" lon="13.3647553"><ele>594.0</ele><time>2026-04-26T17:30:42.055Z</time></trkpt><trkpt lat="38.0359093" lon="13.3647631"><ele>594.0</ele><time>2026-04-26T17:30:43.054Z</time></trkpt><trkpt lat="38.0360441" lon="13.3647765"><ele>590.25</ele><time>2026-04-26T17:30:44.054Z</time></trkpt><trkpt lat="38.0361711" lon="13.3647818"><ele>586.5</ele><time>2026-04-26T17:30:45.054Z</time></trkpt><trkpt lat="38.0362913" lon="13.3647704"><ele>582.75</ele><time>2026-04-26T17:30:46.054Z</time></trkpt><trkpt lat="38.0364124" lon="13.3647472"><ele>579.0</ele><time>2026-04-26T17:30:47.054Z</time></trkpt><trkpt lat="38.0365375" lon="13.3647239"><ele>578.5</ele><time>2026-04-26T17:30:48.054Z</time></trkpt><trkpt lat="38.0366716" lon="13.3647021"><ele>578.0</ele><time>2026-04-26T17:30:49.054Z</time></trkpt><trkpt lat="38.0368095" lon="13.3646854"><ele>577.5</ele><time>2026-04-26T17:30:50.054Z</time></trkpt><trkpt lat="38.0369359" lon="13.3646663"><ele>577.0</ele><time>2026-04-26T17:30:51.054Z</time></trkpt><trkpt lat="38.0370536" lon="13.364641"><ele>576.0</ele><time>2026-04-26T17:30:52.054Z</time></trkpt><trkpt lat="38.0371644" lon="13.3646003"><ele>575.0</ele><time>2026-04-26T17:30:53.054Z</time></trkpt><trkpt lat="38.037268" lon="13.3645298"><ele>574.0</ele><time>2026-04-26T17:30:54.054Z</time></trkpt><trkpt lat="38.0373716" lon="13.3644025"><ele>573.0</ele><time>2026-04-26T17:30:55.055Z</time></trkpt><trkpt lat="38.037484" lon="13.3642371"><ele>573.0</ele><time>2026-04-26T17:30:56.054Z</time></trkpt><trkpt lat="38.0376028" lon="13.3640594"><ele>573.0</ele><time>2026-04-26T17:30:57.054Z</time></trkpt><trkpt lat="38.0377296" lon="13.3638705"><ele>573.0</ele><time>2026-04-26T17:30:58.054Z</time></trkpt><trkpt lat="38.0378549" lon="13.3636812"><ele>575.6666666666666</ele><time>2026-04-26T17:30:59.054Z</time></trkpt><trkpt lat="38.037977" lon="13.3635057"><ele>578.3333333333333</ele><time>2026-04-26T17:31:00.054Z</time></trkpt><trkpt lat="38.0380911" lon="13.3633347"><ele>581.0</ele><time>2026-04-26T17:31:01.054Z</time></trkpt><trkpt lat="38.0381897" lon="13.3631723"><ele>580.8</ele><time>2026-04-26T17:31:02.054Z</time></trkpt><trkpt lat="38.0382644" lon="13.3630253"><ele>580.6</ele><time>2026-04-26T17:31:03.055Z</time></trkpt><trkpt lat="38.038329" lon="13.3628981"><ele>580.4</ele><time>2026-04-26T17:31:04.054Z</time></trkpt><trkpt lat="38.0383853" lon="13.362804"><ele>580.2</ele><time>2026-04-26T17:31:05.055Z</time></trkpt><trkpt lat="38.0384405" lon="13.3627326"><ele>580.0</ele><time>2026-04-26T17:31:06.054Z</time></trkpt><trkpt lat="38.0385028" lon="13.362691"><ele>577.2</ele><time>2026-04-26T17:31:07.054Z</time></trkpt><trkpt lat="38.0385975" lon="13.3627275"><ele>574.4</ele><time>2026-04-26T17:31:09.054Z</time></trkpt><trkpt lat="38.0385923" lon="13.3628889"><ele>571.6</ele><time>2026-04-26T17:31:11.055Z</time></trkpt><trkpt lat="38.0385568" lon="13.3629846"><ele>568.8</ele><time>2026-04-26T17:31:12.055Z</time></trkpt><trkpt lat="38.0385041" lon="13.3630948"><ele>566.0</ele><time>2026-04-26T17:31:13.054Z</time></trkpt><trkpt lat="38.0384519" lon="13.3632103"><ele>565.0</ele><time>2026-04-26T17:31:14.054Z</time></trkpt><trkpt lat="38.038396" lon="13.3633218"><ele>564.0</ele><time>2026-04-26T17:31:15.054Z</time></trkpt><trkpt lat="38.038332" lon="13.3634297"><ele>563.0</ele><time>2026-04-26T17:31:16.054Z</time></trkpt><trkpt lat="38.038267" lon="13.3635426"><ele>562.0</ele><time>2026-04-26T17:31:17.054Z</time></trkpt><trkpt lat="38.0382032" lon="13.3636536"><ele>561.0</ele><time>2026-04-26T17:31:18.055Z</time></trkpt><trkpt lat="38.038146" lon="13.3637805"><ele>564.0</ele><time>2026-04-26T17:31:19.054Z</time></trkpt><trkpt lat="38.0381073" lon="13.3639252"><ele>567.0</ele><time>2026-04-26T17:31:20.054Z</time></trkpt><trkpt lat="38.0380827" lon="13.3640728"><ele>570.0</ele><time>2026-04-26T17:31:21.054Z</time></trkpt><trkpt lat="38.0380645" lon="13.3642086"><ele>573.0</ele><time>2026-04-26T17:31:22.054Z</time></trkpt><trkpt lat="38.0380506" lon="13.3643424"><ele>573.0</ele><time>2026-04-26T17:31:23.055Z</time></trkpt><trkpt lat="38.0380421" lon="13.3644707"><ele>573.0</ele><time>2026-04-26T17:31:24.054Z</time></trkpt><trkpt lat="38.0380456" lon="13.3645935"><ele>573.0</ele><time>2026-04-26T17:31:25.054Z</time></trkpt><trkpt lat="38.0380704" lon="13.3647225"><ele>573.0</ele><time>2026-04-26T17:31:26.054Z</time></trkpt><trkpt lat="38.0381198" lon="13.3648532"><ele>573.0</ele><time>2026-04-26T17:31:27.054Z</time></trkpt><trkpt lat="38.0381811" lon="13.3649778"><ele>573.25</ele><time>2026-04-26T17:31:28.054Z</time></trkpt><trkpt lat="38.0382569" lon="13.3650936"><ele>573.5</ele><time>2026-04-26T17:31:29.055Z</time></trkpt><trkpt lat="38.0383519" lon="13.3651814"><ele>573.75</ele><time>2026-04-26T17:31:30.054Z</time></trkpt><trkpt lat="38.0384615" lon="13.3652643"><ele>574.0</ele><time>2026-04-26T17:31:31.054Z</time></trkpt><trkpt lat="38.0385854" lon="13.3653332"><ele>572.0</ele><time>2026-04-26T17:31:32.054Z</time></trkpt><trkpt lat="38.0387059" lon="13.3654113"><ele>570.0</ele><time>2026-04-26T17:31:33.054Z</time></trkpt><trkpt lat="38.0388358" lon="13.3655144"><ele>568.0</ele><time>2026-04-26T17:31:34.054Z</time></trkpt><trkpt lat="38.0389697" lon="13.3656399"><ele>568.0</ele><time>2026-04-26T17:31:35.054Z</time></trkpt><trkpt lat="38.0390958" lon="13.36576"><ele>568.0</ele><time>2026-04-26T17:31:36.054Z</time></trkpt><trkpt lat="38.0392175" lon="13.365869"><ele>568.0</ele><time>2026-04-26T17:31:37.055Z</time></trkpt><trkpt lat="38.039332" lon="13.3659705"><ele>568.0</ele><time>2026-04-26T17:31:38.055Z</time></trkpt><trkpt lat="38.0394422" lon="13.3660702"><ele>562.0</ele><time>2026-04-26T17:31:39.054Z</time></trkpt><trkpt lat="38.0395504" lon="13.3661546"><ele>556.0</ele><time>2026-04-26T17:31:40.055Z</time></trkpt><trkpt lat="38.0396615" lon="13.3662192"><ele>550.0</ele><time>2026-04-26T17:31:41.055Z</time></trkpt><trkpt lat="38.0397825" lon="13.3662447"><ele>544.0</ele><time>2026-04-26T17:31:42.054Z</time></trkpt><trkpt lat="38.0398991" lon="13.3662322"><ele>539.75</ele><time>2026-04-26T17:31:43.054Z</time></trkpt><trkpt lat="38.0400169" lon="13.366185"><ele>535.5</ele><time>2026-04-26T17:31:44.054Z</time></trkpt><trkpt lat="38.0401141" lon="13.3661221"><ele>531.25</ele><time>2026-04-26T17:31:45.054Z</time></trkpt><trkpt lat="38.0402225" lon="13.3660629"><ele>527.0</ele><time>2026-04-26T17:31:46.054Z</time></trkpt><trkpt lat="38.040331" lon="13.3660203"><ele>527.0</ele><time>2026-04-26T17:31:47.055Z</time></trkpt><trkpt lat="38.0404524" lon="13.3659962"><ele>527.0</ele><time>2026-04-26T17:31:48.054Z</time></trkpt><trkpt lat="38.0405819" lon="13.3660005"><ele>527.0</ele><time>2026-04-26T17:31:49.054Z</time></trkpt><trkpt lat="38.0407106" lon="13.3660216"><ele>527.0</ele><time>2026-04-26T17:31:50.054Z</time></trkpt><trkpt lat="38.0408346" lon="13.3660638"><ele>524.75</ele><time>2026-04-26T17:31:51.054Z</time></trkpt><trkpt lat="38.0409515" lon="13.3661286"><ele>522.5</ele><time>2026-04-26T17:31:52.054Z</time></trkpt><trkpt lat="38.0410653" lon="13.3662156"><ele>520.25</ele><time>2026-04-26T17:31:53.054Z</time></trkpt><trkpt lat="38.0411795" lon="13.366328"><ele>518.0</ele><time>2026-04-26T17:31:54.055Z</time></trkpt><trkpt lat="38.0412961" lon="13.3664484"><ele>517.0</ele><time>2026-04-26T17:31:55.054Z</time></trkpt><trkpt lat="38.0414092" lon="13.3665694"><ele>516.0</ele><time>2026-04-26T17:31:56.054Z</time></trkpt><trkpt lat="38.0415149" lon="13.3666896"><ele>515.0</ele><time>2026-04-26T17:31:57.054Z</time></trkpt><trkpt lat="38.0416033" lon="13.3668104"><ele>514.0</ele><time>2026-04-26T17:31:58.054Z</time></trkpt><trkpt lat="38.0416763" lon="13.3669453"><ele>514.0</ele><time>2026-04-26T17:31:59.054Z</time></trkpt><trkpt lat="38.0417309" lon="13.3670944"><ele>514.0</ele><time>2026-04-26T17:32:00.055Z</time></trkpt><trkpt lat="38.0417788" lon="13.3672653"><ele>514.0</ele><time>2026-04-26T17:32:01.055Z</time></trkpt><trkpt lat="38.041831" lon="13.3674449"><ele>514.0</ele><time>2026-04-26T17:32:02.054Z</time></trkpt><trkpt lat="38.0418871" lon="13.3676318"><ele>519.6666666666667</ele><time>2026-04-26T17:32:03.054Z</time></trkpt><trkpt lat="38.0419435" lon="13.3678193"><ele>525.3333333333334</ele><time>2026-04-26T17:32:04.054Z</time></trkpt><trkpt lat="38.0419969" lon="13.3680053"><ele>531.0</ele><time>2026-04-26T17:32:05.054Z</time></trkpt><trkpt lat="38.0420473" lon="13.3681845"><ele>534.5</ele><time>2026-04-26T17:32:06.054Z</time></trkpt><trkpt lat="38.0420955" lon="13.3683609"><ele>538.0</ele><time>2026-04-26T17:32:07.054Z</time></trkpt><trkpt lat="38.0421429" lon="13.3685388"><ele>541.5</ele><time>2026-04-26T17:32:08.054Z</time></trkpt><trkpt lat="38.0421817" lon="13.3687196"><ele>545.0</ele><time>2026-04-26T17:32:09.054Z</time></trkpt><trkpt lat="38.0422149" lon="13.3689062"><ele>548.25</ele><time>2026-04-26T17:32:10.054Z</time></trkpt><trkpt lat="38.0422517" lon="13.3690837"><ele>551.5</ele><time>2026-04-26T17:32:11.055Z</time></trkpt><trkpt lat="38.042301" lon="13.3692668"><ele>554.75</ele><time>2026-04-26T17:32:12.054Z</time></trkpt><trkpt lat="38.0423714" lon="13.3694335"><ele>558.0</ele><time>2026-04-26T17:32:13.054Z</time></trkpt><trkpt lat="38.0424604" lon="13.3695772"><ele>550.25</ele><time>2026-04-26T17:32:14.054Z</time></trkpt><trkpt lat="38.0425554" lon="13.3697013"><ele>542.5</ele><time>2026-04-26T17:32:15.054Z</time></trkpt><trkpt lat="38.0426408" lon="13.3698328"><ele>534.75</ele><time>2026-04-26T17:32:16.054Z</time></trkpt><trkpt lat="38.042727" lon="13.3699792"><ele>527.0</ele><time>2026-04-26T17:32:17.054Z</time></trkpt><trkpt lat="38.0428147" lon="13.3701431"><ele>527.0</ele><time>2026-04-26T17:32:18.054Z</time></trkpt><trkpt lat="38.0428954" lon="13.3703144"><ele>527.0</ele><time>2026-04-26T17:32:19.054Z</time></trkpt><trkpt lat="38.0429709" lon="13.3704954"><ele>527.0</ele><time>2026-04-26T17:32:20.054Z</time></trkpt><trkpt lat="38.0430362" lon="13.3706741"><ele>532.0</ele><time>2026-04-26T17:32:21.054Z</time></trkpt><trkpt lat="38.0430958" lon="13.3708472"><ele>537.0</ele><time>2026-04-26T17:32:22.054Z</time></trkpt><trkpt lat="38.0431439" lon="13.3710085"><ele>542.0</ele><time>2026-04-26T17:32:23.054Z</time></trkpt><trkpt lat="38.0431918" lon="13.3711467"><ele>547.0</ele><time>2026-04-26T17:32:24.054Z</time></trkpt><trkpt lat="38.0432307" lon="13.3712485"><ele>547.0</ele><time>2026-04-26T17:32:25.054Z</time></trkpt><trkpt lat="38.0432676" lon="13.371332"><ele>547.0</ele><time>2026-04-26T17:32:26.054Z</time></trkpt><trkpt lat="38.0433192" lon="13.3713934"><ele>547.0</ele><time>2026-04-26T17:32:27.054Z</time></trkpt><trkpt lat="38.0433844" lon="13.3714026"><ele>547.0</ele><time>2026-04-26T17:32:28.054Z</time></trkpt><trkpt lat="38.0434551" lon="13.3712878"><ele>547.0</ele><time>2026-04-26T17:32:30.055Z</time></trkpt><trkpt lat="38.0434474" lon="13.3711709"><ele>547.0</ele><time>2026-04-26T17:32:31.054Z</time></trkpt><trkpt lat="38.0434105" lon="13.3710372"><ele>547.0</ele><time>2026-04-26T17:32:32.054Z</time></trkpt><trkpt lat="38.0433584" lon="13.3708984"><ele>547.0</ele><time>2026-04-26T17:32:33.054Z</time></trkpt><trkpt lat="38.0433073" lon="13.3707469"><ele>547.0</ele><time>2026-04-26T17:32:34.054Z</time></trkpt><trkpt lat="38.0432539" lon="13.3705856"><ele>547.0</ele><time>2026-04-26T17:32:35.055Z</time></trkpt><trkpt lat="38.0432023" lon="13.3704151"><ele>542.0</ele><time>2026-04-26T17:32:36.054Z</time></trkpt><trkpt lat="38.0431517" lon="13.3702473"><ele>537.0</ele><time>2026-04-26T17:32:37.055Z</time></trkpt><trkpt lat="38.0430903" lon="13.3700775"><ele>532.0</ele><time>2026-04-26T17:32:38.054Z</time></trkpt><trkpt lat="38.0430262" lon="13.369911"><ele>527.0</ele><time>2026-04-26T17:32:39.054Z</time></trkpt><trkpt lat="38.0429574" lon="13.3697418"><ele>521.75</ele><time>2026-04-26T17:32:40.054Z</time></trkpt><trkpt lat="38.0428853" lon="13.3695723"><ele>516.5</ele><time>2026-04-26T17:32:41.054Z</time></trkpt><trkpt lat="38.0428141" lon="13.369405"><ele>511.25</ele><time>2026-04-26T17:32:42.055Z</time></trkpt><trkpt lat="38.0427484" lon="13.3692444"><ele>506.0</ele><time>2026-04-26T17:32:43.054Z</time></trkpt><trkpt lat="38.0426984" lon="13.3690856"><ele>506.0</ele><time>2026-04-26T17:32:44.054Z</time></trkpt><trkpt lat="38.0426779" lon="13.3689205"><ele>506.0</ele><time>2026-04-26T17:32:45.054Z</time></trkpt><trkpt lat="38.0426728" lon="13.3687452"><ele>506.0</ele><time>2026-04-26T17:32:46.054Z</time></trkpt><trkpt lat="38.0426731" lon="13.3685524"><ele>506.0</ele><time>2026-04-26T17:32:47.054Z</time></trkpt><trkpt lat="38.0426704" lon="13.3683549"><ele>501.66666666666663</ele><time>2026-04-26T17:32:48.054Z</time></trkpt><trkpt lat="38.0426562" lon="13.3681658"><ele>497.33333333333337</ele><time>2026-04-26T17:32:49.055Z</time></trkpt><trkpt lat="38.0426354" lon="13.3679734"><ele>493.0</ele><time>2026-04-26T17:32:50.054Z</time></trkpt><trkpt lat="38.0426145" lon="13.367781"><ele>490.0</ele><time>2026-04-26T17:32:51.055Z</time></trkpt><trkpt lat="38.0425948" lon="13.3675841"><ele>487.0</ele><time>2026-04-26T17:32:52.054Z</time></trkpt><trkpt lat="38.042565" lon="13.3673917"><ele>484.0</ele><time>2026-04-26T17:32:53.054Z</time></trkpt><trkpt lat="38.0425296" lon="13.367191"><ele>481.33333333333337</ele><time>2026-04-26T17:32:54.054Z</time></trkpt><trkpt lat="38.0424855" lon="13.3669968"><ele>478.66666666666663</ele><time>2026-04-26T17:32:55.054Z</time></trkpt><trkpt lat="38.0424385" lon="13.3668014"><ele>476.0</ele><time>2026-04-26T17:32:56.054Z</time></trkpt><trkpt lat="38.0423839" lon="13.3666077"><ele>479.5</ele><time>2026-04-26T17:32:57.054Z</time></trkpt><trkpt lat="38.0423301" lon="13.3664246"><ele>483.0</ele><time>2026-04-26T17:32:58.055Z</time></trkpt><trkpt lat="38.042274" lon="13.3662518"><ele>486.5</ele><time>2026-04-26T17:32:59.055Z</time></trkpt><trkpt lat="38.042213" lon="13.3660831"><ele>490.0</ele><time>2026-04-26T17:33:00.054Z</time></trkpt><trkpt lat="38.042138" lon="13.365921"><ele>490.0</ele><time>2026-04-26T17:33:01.054Z</time></trkpt><trkpt lat="38.0420542" lon="13.3657689"><ele>490.0</ele><time>2026-04-26T17:33:02.054Z</time></trkpt><trkpt lat="38.0419727" lon="13.3656339"><ele>490.0</ele><time>2026-04-26T17:33:03.054Z</time></trkpt><trkpt lat="38.0418892" lon="13.3655122"><ele>490.0</ele><time>2026-04-26T17:33:04.054Z</time></trkpt><trkpt lat="38.0418149" lon="13.3654031"><ele>486.33333333333337</ele><time>2026-04-26T17:33:05.054Z</time></trkpt><trkpt lat="38.0417549" lon="13.3653108"><ele>482.6666666666667</ele><time>2026-04-26T17:33:06.054Z</time></trkpt><trkpt lat="38.0417146" lon="13.3652298"><ele>479.0</ele><time>2026-04-26T17:33:07.054Z</time></trkpt><trkpt lat="38.0416886" lon="13.3651557"><ele>475.33333333333337</ele><time>2026-04-26T17:33:08.054Z</time></trkpt><trkpt lat="38.0416994" lon="13.3650734"><ele>471.6666666666667</ele><time>2026-04-26T17:33:09.054Z</time></trkpt><trkpt lat="38.0418033" lon="13.3650334"><ele>468.0</ele><time>2026-04-26T17:33:11.054Z</time></trkpt><trkpt lat="38.0418645" lon="13.3650729"><ele>468.0</ele><time>2026-04-26T17:33:12.054Z</time></trkpt><trkpt lat="38.041929" lon="13.3651501"><ele>467.99999999999994</ele><time>2026-04-26T17:33:13.055Z</time></trkpt><trkpt lat="38.0419996" lon="13.3652564"><ele>467.99999999999994</ele><time>2026-04-26T17:33:14.054Z</time></trkpt><trkpt lat="38.042076" lon="13.3653746"><ele>468.0</ele><time>2026-04-26T17:33:15.054Z</time></trkpt><trkpt lat="38.0421502" lon="13.3654948"><ele>468.0</ele><time>2026-04-26T17:33:16.054Z</time></trkpt><trkpt lat="38.0422326" lon="13.3656201"><ele>466.25</ele><time>2026-04-26T17:33:17.054Z</time></trkpt><trkpt lat="38.042316" lon="13.3657505"><ele>464.5</ele><time>2026-04-26T17:33:18.054Z</time></trkpt><trkpt lat="38.0424025" lon="13.3658812"><ele>462.75</ele><time>2026-04-26T17:33:19.054Z</time></trkpt><trkpt lat="38.04249" lon="13.3660198"><ele>461.0</ele><time>2026-04-26T17:33:20.054Z</time></trkpt><trkpt lat="38.0425781" lon="13.366161"><ele>461.0</ele><time>2026-04-26T17:33:21.054Z</time></trkpt><trkpt lat="38.042668" lon="13.3663055"><ele>461.0</ele><time>2026-04-26T17:33:22.054Z</time></trkpt><trkpt lat="38.0427547" lon="13.3664549"><ele>461.0</ele><time>2026-04-26T17:33:23.054Z</time></trkpt><trkpt lat="38.0428337" lon="13.3666048"><ele>461.0</ele><time>2026-04-26T17:33:24.054Z</time></trkpt><trkpt lat="38.0429021" lon="13.3667664"><ele>466.0</ele><time>2026-04-26T17:33:25.054Z</time></trkpt><trkpt lat="38.0429674" lon="13.3669381"><ele>471.0</ele><time>2026-04-26T17:33:26.054Z</time></trkpt><trkpt lat="38.0430315" lon="13.3671155"><ele>476.0</ele><time>2026-04-26T17:33:27.054Z</time></trkpt><trkpt lat="38.0430912" lon="13.3672917"><ele>478.0</ele><time>2026-04-26T17:33:28.054Z</time></trkpt><trkpt lat="38.0431494" lon="13.3674633"><ele>480.0</ele><time>2026-04-26T17:33:29.054Z</time></trkpt><trkpt lat="38.0432045" lon="13.3676214"><ele>482.0</ele><time>2026-04-26T17:33:30.054Z</time></trkpt><trkpt lat="38.0432612" lon="13.3677744"><ele>484.0</ele><time>2026-04-26T17:33:31.054Z</time></trkpt><trkpt lat="38.0433242" lon="13.3679234"><ele>477.25</ele><time>2026-04-26T17:33:32.054Z</time></trkpt><trkpt lat="38.0434009" lon="13.3680638"><ele>470.5</ele><time>2026-04-26T17:33:33.054Z</time></trkpt><trkpt lat="38.0435002" lon="13.3681904"><ele>463.75</ele><time>2026-04-26T17:33:34.054Z</time></trkpt><trkpt lat="38.0436189" lon="13.3683068"><ele>457.0</ele><time>2026-04-26T17:33:35.054Z</time></trkpt><trkpt lat="38.0437444" lon="13.3684162"><ele>457.0</ele><time>2026-04-26T17:33:36.055Z</time></trkpt><trkpt lat="38.0438692" lon="13.3685256"><ele>457.0</ele><time>2026-04-26T17:33:37.054Z</time></trkpt><trkpt lat="38.0439875" lon="13.3686338"><ele>457.0</ele><time>2026-04-26T17:33:38.054Z</time></trkpt><trkpt lat="38.0440987" lon="13.3687386"><ele>457.0</ele><time>2026-04-26T17:33:39.055Z</time></trkpt><trkpt lat="38.0442012" lon="13.3688372"><ele>454.75</ele><time>2026-04-26T17:33:40.054Z</time></trkpt><trkpt lat="38.0442963" lon="13.3689408"><ele>452.5</ele><time>2026-04-26T17:33:41.054Z</time></trkpt><trkpt lat="38.0443804" lon="13.3690463"><ele>450.25</ele><time>2026-04-26T17:33:42.054Z</time></trkpt><trkpt lat="38.0444496" lon="13.3691713"><ele>448.0</ele><time>2026-04-26T17:33:43.054Z</time></trkpt><trkpt lat="38.0445017" lon="13.3693158"><ele>448.0</ele><time>2026-04-26T17:33:44.054Z</time></trkpt><trkpt lat="38.0445488" lon="13.3694822"><ele>448.0</ele><time>2026-04-26T17:33:45.054Z</time></trkpt><trkpt lat="38.0446012" lon="13.3696597"><ele>448.0</ele><time>2026-04-26T17:33:46.054Z</time></trkpt><trkpt lat="38.0446628" lon="13.3698349"><ele>448.0</ele><time>2026-04-26T17:33:47.054Z</time></trkpt><trkpt lat="38.0447449" lon="13.370024"><ele>448.0</ele><time>2026-04-26T17:33:48.054Z</time></trkpt><trkpt lat="38.0448442" lon="13.3702154"><ele>448.0</ele><time>2026-04-26T17:33:49.054Z</time></trkpt><trkpt lat="38.0449565" lon="13.3704094"><ele>448.0</ele><time>2026-04-26T17:33:50.054Z</time></trkpt><trkpt lat="38.0450746" lon="13.3706079"><ele>445.6666666666667</ele><time>2026-04-26T17:33:51.054Z</time></trkpt><trkpt lat="38.0451957" lon="13.370807"><ele>443.33333333333337</ele><time>2026-04-26T17:33:52.054Z</time></trkpt><trkpt lat="38.0453163" lon="13.3710041"><ele>441.0</ele><time>2026-04-26T17:33:53.055Z</time></trkpt><trkpt lat="38.0454355" lon="13.3711937"><ele>440.33333333333337</ele><time>2026-04-26T17:33:54.054Z</time></trkpt><trkpt lat="38.0455613" lon="13.3713786"><ele>439.6666666666667</ele><time>2026-04-26T17:33:55.054Z</time></trkpt><trkpt lat="38.045697" lon="13.3715689"><ele>439.0</ele><time>2026-04-26T17:33:56.055Z</time></trkpt><trkpt lat="38.0458368" lon="13.3717541"><ele>439.0</ele><time>2026-04-26T17:33:57.054Z</time></trkpt><trkpt lat="38.0459796" lon="13.3719405"><ele>439.0</ele><time>2026-04-26T17:33:58.054Z</time></trkpt><trkpt lat="38.0461191" lon="13.3721307"><ele>439.0</ele><time>2026-04-26T17:33:59.055Z</time></trkpt><trkpt lat="38.0462521" lon="13.3723208"><ele>437.6666666666667</ele><time>2026-04-26T17:34:00.055Z</time></trkpt><trkpt lat="38.0463819" lon="13.372513"><ele>436.33333333333337</ele><time>2026-04-26T17:34:01.055Z</time></trkpt><trkpt lat="38.0465145" lon="13.3727076"><ele>435.0</ele><time>2026-04-26T17:34:02.054Z</time></trkpt><trkpt lat="38.0466467" lon="13.3729103"><ele>433.33333333333337</ele><time>2026-04-26T17:34:03.054Z</time></trkpt><trkpt lat="38.0467803" lon="13.3731144"><ele>431.6666666666667</ele><time>2026-04-26T17:34:04.055Z</time></trkpt><trkpt lat="38.0469177" lon="13.3733106"><ele>430.0</ele><time>2026-04-26T17:34:05.054Z</time></trkpt><trkpt lat="38.0470554" lon="13.3734993"><ele>430.0</ele><time>2026-04-26T17:34:06.055Z</time></trkpt><trkpt lat="38.0471902" lon="13.3736793"><ele>430.0</ele><time>2026-04-26T17:34:07.054Z</time></trkpt><trkpt lat="38.0473209" lon="13.3738478"><ele>430.0</ele><time>2026-04-26T17:34:08.055Z</time></trkpt><trkpt lat="38.0474441" lon="13.3740084"><ele>429.33333333333337</ele><time>2026-04-26T17:34:09.054Z</time></trkpt><trkpt lat="38.0475639" lon="13.3741593"><ele>428.66666666666663</ele><time>2026-04-26T17:34:10.054Z</time></trkpt><trkpt lat="38.0476716" lon="13.3743069"><ele>428.0</ele><time>2026-04-26T17:34:11.054Z</time></trkpt><trkpt lat="38.0477695" lon="13.3744452"><ele>428.0</ele><time>2026-04-26T17:34:12.054Z</time></trkpt><trkpt lat="38.0478589" lon="13.3745754"><ele>428.0</ele><time>2026-04-26T17:34:13.055Z</time></trkpt><trkpt lat="38.0479337" lon="13.3747094"><ele>428.0</ele><time>2026-04-26T17:34:14.054Z</time></trkpt><trkpt lat="38.0480062" lon="13.3748514"><ele>428.0</ele><time>2026-04-26T17:34:15.055Z</time></trkpt><trkpt lat="38.0480744" lon="13.3750058"><ele>428.5</ele><time>2026-04-26T17:34:16.054Z</time></trkpt><trkpt lat="38.0481409" lon="13.3751646"><ele>429.0</ele><time>2026-04-26T17:34:17.054Z</time></trkpt><trkpt lat="38.0482014" lon="13.3753184"><ele>429.5</ele><time>2026-04-26T17:34:18.054Z</time></trkpt><trkpt lat="38.0482521" lon="13.3754622"><ele>430.0</ele><time>2026-04-26T17:34:19.054Z</time></trkpt><trkpt lat="38.048288" lon="13.3755906"><ele>428.6666666666667</ele><time>2026-04-26T17:34:20.054Z</time></trkpt><trkpt lat="38.0483185" lon="13.3756944"><ele>427.33333333333337</ele><time>2026-04-26T17:34:21.054Z</time></trkpt><trkpt lat="38.0483375" lon="13.3757869"><ele>426.0</ele><time>2026-04-26T17:34:22.054Z</time></trkpt><trkpt lat="38.0483477" lon="13.3758796"><ele>424.66666666666663</ele><time>2026-04-26T17:34:23.054Z</time></trkpt><trkpt lat="38.0483524" lon="13.375974"><ele>423.3333333333333</ele><time>2026-04-26T17:34:24.054Z</time></trkpt><trkpt lat="38.0483509" lon="13.3760722"><ele>422.0</ele><time>2026-04-26T17:34:25.054Z</time></trkpt><trkpt lat="38.0483538" lon="13.3761703"><ele>421.99999999999994</ele><time>2026-04-26T17:34:26.054Z</time></trkpt><trkpt lat="38.0483619" lon="13.376268"><ele>422.0</ele><time>2026-04-26T17:34:27.054Z</time></trkpt><trkpt lat="38.048375" lon="13.376366"><ele>422.0</ele><time>2026-04-26T17:34:28.054Z</time></trkpt><trkpt lat="38.0483953" lon="13.3764504"><ele>422.0</ele><time>2026-04-26T17:34:29.054Z</time></trkpt><trkpt lat="38.0484215" lon="13.3765624"><ele>421.99999999999994</ele><time>2026-04-26T17:34:31.054Z</time></trkpt><trkpt lat="38.048435" lon="13.376645"><ele>422.0</ele><time>2026-04-26T17:34:33.054Z</time></trkpt><trkpt lat="38.0484482" lon="13.3767321"><ele>419.99999999999994</ele><time>2026-04-26T17:34:35.055Z</time></trkpt><trkpt lat="38.0484731" lon="13.3768735"><ele>418.0</ele><time>2026-04-26T17:34:37.054Z</time></trkpt><trkpt lat="38.0484927" lon="13.3769675"><ele>416.0</ele><time>2026-04-26T17:34:38.054Z</time></trkpt><trkpt lat="38.048511" lon="13.3770664"><ele>414.0</ele><time>2026-04-26T17:34:39.055Z</time></trkpt><trkpt lat="38.0485284" lon="13.3771722"><ele>411.99999999999994</ele><time>2026-04-26T17:34:40.054Z</time></trkpt><trkpt lat="38.0485488" lon="13.3772779"><ele>410.0</ele><time>2026-04-26T17:34:41.054Z</time></trkpt><trkpt lat="38.0485689" lon="13.3773969"><ele>409.6</ele><time>2026-04-26T17:34:42.054Z</time></trkpt><trkpt lat="38.0485909" lon="13.3775158"><ele>409.2</ele><time>2026-04-26T17:34:43.054Z</time></trkpt><trkpt lat="38.0486164" lon="13.3776346"><ele>408.79999999999995</ele><time>2026-04-26T17:34:44.054Z</time></trkpt><trkpt lat="38.048638" lon="13.3777553"><ele>408.4</ele><time>2026-04-26T17:34:45.054Z</time></trkpt><trkpt lat="38.0486496" lon="13.3778822"><ele>408.0</ele><time>2026-04-26T17:34:46.054Z</time></trkpt><trkpt lat="38.0486582" lon="13.3780186"><ele>406.75</ele><time>2026-04-26T17:34:47.054Z</time></trkpt><trkpt lat="38.048658" lon="13.3781626"><ele>405.5</ele><time>2026-04-26T17:34:48.054Z</time></trkpt><trkpt lat="38.0486494" lon="13.3783133"><ele>404.25</ele><time>2026-04-26T17:34:49.054Z</time></trkpt><trkpt lat="38.0486363" lon="13.3784706"><ele>403.0</ele><time>2026-04-26T17:34:50.054Z</time></trkpt><trkpt lat="38.0486264" lon="13.3786444"><ele>403.0</ele><time>2026-04-26T17:34:51.055Z</time></trkpt><trkpt lat="38.0486217" lon="13.3788211"><ele>403.0</ele><time>2026-04-26T17:34:52.054Z</time></trkpt><trkpt lat="38.0486304" lon="13.3790105"><ele>403.0</ele><time>2026-04-26T17:34:53.054Z</time></trkpt><trkpt lat="38.0486508" lon="13.3792047"><ele>403.0</ele><time>2026-04-26T17:34:54.054Z</time></trkpt><trkpt lat="38.0486771" lon="13.3793978"><ele>402.75</ele><time>2026-04-26T17:34:55.054Z</time></trkpt><trkpt lat="38.0487056" lon="13.379588"><ele>402.5</ele><time>2026-04-26T17:34:56.054Z</time></trkpt><trkpt lat="38.0487381" lon="13.3797728"><ele>402.25</ele><time>2026-04-26T17:34:57.054Z</time></trkpt><trkpt lat="38.0487744" lon="13.3799472"><ele>402.0</ele><time>2026-04-26T17:34:58.054Z</time></trkpt><trkpt lat="38.0488156" lon="13.3801202"><ele>400.75</ele><time>2026-04-26T17:34:59.054Z</time></trkpt><trkpt lat="38.0488538" lon="13.3802902"><ele>399.5</ele><time>2026-04-26T17:35:00.054Z</time></trkpt><trkpt lat="38.0488876" lon="13.3804645"><ele>398.25</ele><time>2026-04-26T17:35:01.054Z</time></trkpt><trkpt lat="38.0489129" lon="13.3806437"><ele>397.0</ele><time>2026-04-26T17:35:02.054Z</time></trkpt><trkpt lat="38.0489305" lon="13.3808254"><ele>395.5</ele><time>2026-04-26T17:35:03.054Z</time></trkpt><trkpt lat="38.0489435" lon="13.3810079"><ele>394.0</ele><time>2026-04-26T17:35:04.054Z</time></trkpt><trkpt lat="38.0489521" lon="13.381187"><ele>392.5</ele><time>2026-04-26T17:35:05.054Z</time></trkpt><trkpt lat="38.048946" lon="13.3813535"><ele>391.0</ele><time>2026-04-26T17:35:06.055Z</time></trkpt><trkpt lat="38.0489455" lon="13.3815123"><ele>389.20000000000005</ele><time>2026-04-26T17:35:07.054Z</time></trkpt><trkpt lat="38.0489377" lon="13.3816606"><ele>387.40000000000003</ele><time>2026-04-26T17:35:08.054Z</time></trkpt><trkpt lat="38.0489121" lon="13.3817965"><ele>385.6</ele><time>2026-04-26T17:35:09.054Z</time></trkpt><trkpt lat="38.0488898" lon="13.3819346"><ele>383.8</ele><time>2026-04-26T17:35:10.054Z</time></trkpt><trkpt lat="38.0488724" lon="13.3820605"><ele>382.0</ele><time>2026-04-26T17:35:11.054Z</time></trkpt><trkpt lat="38.0488499" lon="13.3821676"><ele>381.0</ele><time>2026-04-26T17:35:12.054Z</time></trkpt><trkpt lat="38.04883" lon="13.3822701"><ele>380.0</ele><time>2026-04-26T17:35:13.054Z</time></trkpt><trkpt lat="38.0488137" lon="13.3823645"><ele>379.0</ele><time>2026-04-26T17:35:14.054Z</time></trkpt><trkpt lat="38.048803" lon="13.382452"><ele>378.0</ele><time>2026-04-26T17:35:15.054Z</time></trkpt><trkpt lat="38.048794" lon="13.3825444"><ele>377.0</ele><time>2026-04-26T17:35:16.054Z</time></trkpt><trkpt lat="38.0487872" lon="13.3826337"><ele>376.0</ele><time>2026-04-26T17:35:17.054Z</time></trkpt><trkpt lat="38.0487704" lon="13.3827615"><ele>376.0</ele><time>2026-04-26T17:35:19.054Z</time></trkpt><trkpt lat="38.0487525" lon="13.3828853"><ele>376.0</ele><time>2026-04-26T17:35:21.055Z</time></trkpt><trkpt lat="38.0487295" lon="13.3830508"><ele>376.0</ele><time>2026-04-26T17:35:23.054Z</time></trkpt><trkpt lat="38.0487144" lon="13.3831394"><ele>376.0</ele><time>2026-04-26T17:35:24.055Z</time></trkpt><trkpt lat="38.048703" lon="13.3832258"><ele>376.0</ele><time>2026-04-26T17:35:25.055Z</time></trkpt><trkpt lat="38.048695" lon="13.3833117"><ele>376.0</ele><time>2026-04-26T17:35:26.054Z</time></trkpt><trkpt lat="38.04869" lon="13.3834002"><ele>375.8333333333333</ele><time>2026-04-26T17:35:27.054Z</time></trkpt><trkpt lat="38.0486814" lon="13.3834821"><ele>375.66666666666663</ele><time>2026-04-26T17:35:28.054Z</time></trkpt><trkpt lat="38.0486774" lon="13.3835643"><ele>375.5</ele><time>2026-04-26T17:35:30.055Z</time></trkpt><trkpt lat="38.048682" lon="13.3836774"><ele>375.3333333333333</ele><time>2026-04-26T17:35:33.054Z</time></trkpt><trkpt lat="38.0486822" lon="13.3838125"><ele>375.1666666666667</ele><time>2026-04-26T17:35:35.054Z</time></trkpt><trkpt lat="38.0486946" lon="13.3839478"><ele>375.0</ele><time>2026-04-26T17:35:37.054Z</time></trkpt><trkpt lat="38.0486912" lon="13.38409"><ele>374.6</ele><time>2026-04-26T17:35:39.054Z</time></trkpt><trkpt lat="38.0486326" lon="13.3842547"><ele>374.2</ele><time>2026-04-26T17:35:41.055Z</time></trkpt><trkpt lat="38.0485933" lon="13.3843493"><ele>373.79999999999995</ele><time>2026-04-26T17:35:42.054Z</time></trkpt><trkpt lat="38.0485362" lon="13.3844481"><ele>373.4</ele><time>2026-04-26T17:35:43.055Z</time></trkpt><trkpt lat="38.048477" lon="13.3845529"><ele>373.0</ele><time>2026-04-26T17:35:44.054Z</time></trkpt><trkpt lat="38.0484241" lon="13.3846482"><ele>373.16666666666663</ele><time>2026-04-26T17:35:45.054Z</time></trkpt><trkpt lat="38.0483753" lon="13.3847438"><ele>373.3333333333333</ele><time>2026-04-26T17:35:46.054Z</time></trkpt><trkpt lat="38.0483282" lon="13.3848404"><ele>373.5</ele><time>2026-04-26T17:35:47.054Z</time></trkpt><trkpt lat="38.048286" lon="13.3849321"><ele>373.6666666666667</ele><time>2026-04-26T17:35:48.054Z</time></trkpt><trkpt lat="38.0482438" lon="13.3850286"><ele>373.83333333333337</ele><time>2026-04-26T17:35:49.054Z</time></trkpt><trkpt lat="38.0482036" lon="13.3851203"><ele>374.0</ele><time>2026-04-26T17:35:50.054Z</time></trkpt><trkpt lat="38.0481633" lon="13.3852149"><ele>372.5</ele><time>2026-04-26T17:35:51.054Z</time></trkpt><trkpt lat="38.0481202" lon="13.3853085"><ele>371.0</ele><time>2026-04-26T17:35:52.054Z</time></trkpt><trkpt lat="38.048081" lon="13.3853989"><ele>369.5</ele><time>2026-04-26T17:35:53.053Z</time></trkpt><trkpt lat="38.0480514" lon="13.3854834"><ele>368.0</ele><time>2026-04-26T17:35:54.054Z</time></trkpt><trkpt lat="38.0480013" lon="13.385586"><ele>366.5</ele><time>2026-04-26T17:35:56.053Z</time></trkpt><trkpt lat="38.0479693" lon="13.3856647"><ele>365.0</ele><time>2026-04-26T17:35:58.053Z</time></trkpt><trkpt lat="38.0479243" lon="13.3857643"><ele>364.0</ele><time>2026-04-26T17:36:01.054Z</time></trkpt><trkpt lat="38.0478715" lon="13.3858626"><ele>363.0</ele><time>2026-04-26T17:36:03.053Z</time></trkpt><trkpt lat="38.0478214" lon="13.3859701"><ele>362.0</ele><time>2026-04-26T17:36:05.053Z</time></trkpt><trkpt lat="38.0477779" lon="13.3860783"><ele>361.0</ele><time>2026-04-26T17:36:07.053Z</time></trkpt><trkpt lat="38.0477451" lon="13.3861807"><ele>360.0</ele><time>2026-04-26T17:36:09.053Z</time></trkpt><trkpt lat="38.0477017" lon="13.3862721"><ele>360.1666666666667</ele><time>2026-04-26T17:36:11.053Z</time></trkpt><trkpt lat="38.0476492" lon="13.3863732"><ele>360.3333333333333</ele><time>2026-04-26T17:36:13.054Z</time></trkpt><trkpt lat="38.0476089" lon="13.3864755"><ele>360.5</ele><time>2026-04-26T17:36:16.053Z</time></trkpt><trkpt lat="38.0476157" lon="13.3865801"><ele>360.66666666666663</ele><time>2026-04-26T17:36:18.054Z</time></trkpt><trkpt lat="38.0476712" lon="13.3866746"><ele>360.8333333333333</ele><time>2026-04-26T17:36:20.053Z</time></trkpt><trkpt lat="38.0477316" lon="13.3867436"><ele>361.0</ele><time>2026-04-26T17:36:22.053Z</time></trkpt><trkpt lat="38.0478075" lon="13.3868197"><ele>361.0</ele><time>2026-04-26T17:36:24.053Z</time></trkpt><trkpt lat="38.0478652" lon="13.386863"><ele>361.0</ele><time>2026-04-26T17:36:26.054Z</time></trkpt><trkpt lat="38.0479333" lon="13.3869113"><ele>361.0</ele><time>2026-04-26T17:36:30.053Z</time></trkpt><trkpt lat="38.0479946" lon="13.3869391"><ele>361.0</ele><time>2026-04-26T17:36:34.053Z</time></trkpt><trkpt lat="38.0480513" lon="13.3869848"><ele>361.0</ele><time>2026-04-26T17:36:38.053Z</time></trkpt><trkpt lat="38.0480426" lon="13.3870751"><ele>361.0</ele><time>2026-04-26T17:36:42.053Z</time></trkpt><trkpt lat="38.0480078" lon="13.3871606"><ele>361.0</ele><time>2026-04-26T17:36:47.053Z</time></trkpt><trkpt lat="38.0479692" lon="13.3872552"><ele>360.4</ele><time>2026-04-26T17:36:50.054Z</time></trkpt><trkpt lat="38.047934" lon="13.3873462"><ele>359.8</ele><time>2026-04-26T17:36:52.053Z</time></trkpt><trkpt lat="38.0479288" lon="13.3874494"><ele>359.2</ele><time>2026-04-26T17:36:54.053Z</time></trkpt><trkpt lat="38.0479079" lon="13.387542"><ele>358.59999999999997</ele><time>2026-04-26T17:36:56.053Z</time></trkpt><trkpt lat="38.0478242" lon="13.3876973"><ele>358.0</ele><time>2026-04-26T17:36:58.053Z</time></trkpt><trkpt lat="38.0477754" lon="13.3877814"><ele>358.00000000000006</ele><time>2026-04-26T17:36:59.053Z</time></trkpt><trkpt lat="38.0477213" lon="13.3878611"><ele>358.0</ele><time>2026-04-26T17:37:00.054Z</time></trkpt><trkpt lat="38.0476821" lon="13.387942"><ele>358.0</ele><time>2026-04-26T17:37:01.053Z</time></trkpt><trkpt lat="38.0476498" lon="13.3880254"><ele>358.0</ele><time>2026-04-26T17:37:02.053Z</time></trkpt><trkpt lat="38.0476212" lon="13.3880984"><ele>358.0</ele><time>2026-04-26T17:37:03.053Z</time></trkpt><trkpt lat="38.0475874" lon="13.3881726"><ele>358.00000000000006</ele><time>2026-04-26T17:37:04.053Z</time></trkpt><trkpt lat="38.0475509" lon="13.3882449"><ele>358.0</ele><time>2026-04-26T17:37:05.053Z</time></trkpt><trkpt lat="38.0475177" lon="13.3883194"><ele>358.00000000000006</ele><time>2026-04-26T17:37:06.053Z</time></trkpt><trkpt lat="38.0474874" lon="13.3883907"><ele>358.0</ele><time>2026-04-26T17:37:07.053Z</time></trkpt><trkpt lat="38.0474557" lon="13.3884645"><ele>358.0</ele><time>2026-04-26T17:37:08.053Z</time></trkpt><trkpt lat="38.0474257" lon="13.3885391"><ele>358.0</ele><time>2026-04-26T17:37:09.053Z</time></trkpt><trkpt lat="38.0473864" lon="13.388607"><ele>358.0</ele><time>2026-04-26T17:37:10.053Z</time></trkpt><trkpt lat="38.0473479" lon="13.3886708"><ele>358.00000000000006</ele><time>2026-04-26T17:37:11.053Z</time></trkpt><trkpt lat="38.047298" lon="13.3887892"><ele>358.0</ele><time>2026-04-26T17:37:13.054Z</time></trkpt><trkpt lat="38.0472647" lon="13.3889038"><ele>356.8333333333333</ele><time>2026-04-26T17:37:15.054Z</time></trkpt><trkpt lat="38.0472513" lon="13.3890302"><ele>355.66666666666663</ele><time>2026-04-26T17:37:17.053Z</time></trkpt><trkpt lat="38.0472377" lon="13.3891843"><ele>354.5</ele><time>2026-04-26T17:37:19.053Z</time></trkpt><trkpt lat="38.047235" lon="13.3892717"><ele>353.3333333333333</ele><time>2026-04-26T17:37:20.053Z</time></trkpt><trkpt lat="38.0472345" lon="13.3893603"><ele>352.1666666666667</ele><time>2026-04-26T17:37:21.053Z</time></trkpt><trkpt lat="38.0472292" lon="13.3894504"><ele>351.0</ele><time>2026-04-26T17:37:22.053Z</time></trkpt><trkpt lat="38.0472228" lon="13.3895433"><ele>351.0</ele><time>2026-04-26T17:37:23.053Z</time></trkpt><trkpt lat="38.0472202" lon="13.3896447"><ele>351.0</ele><time>2026-04-26T17:37:24.053Z</time></trkpt><trkpt lat="38.0472109" lon="13.3897431"><ele>351.0</ele><time>2026-04-26T17:37:25.053Z</time></trkpt><trkpt lat="38.0472038" lon="13.3898456"><ele>351.0</ele><time>2026-04-26T17:37:26.054Z</time></trkpt><trkpt lat="38.0471927" lon="13.3899459"><ele>351.0</ele><time>2026-04-26T17:37:27.053Z</time></trkpt><trkpt lat="38.047185" lon="13.3900389"><ele>351.0</ele><time>2026-04-26T17:37:28.053Z</time></trkpt><trkpt lat="38.0471843" lon="13.3901217"><ele>350.4</ele><time>2026-04-26T17:37:29.053Z</time></trkpt><trkpt lat="38.047168" lon="13.3902677"><ele>349.8</ele><time>2026-04-26T17:37:31.053Z</time></trkpt><trkpt lat="38.047153" lon="13.3904056"><ele>349.2</ele><time>2026-04-26T17:37:33.053Z</time></trkpt><trkpt lat="38.0471343" lon="13.3905123"><ele>348.59999999999997</ele><time>2026-04-26T17:37:35.053Z</time></trkpt><trkpt lat="38.0471362" lon="13.3906522"><ele>348.0</ele><time>2026-04-26T17:37:37.053Z</time></trkpt><trkpt lat="38.0471161" lon="13.390764"><ele>347.79999999999995</ele><time>2026-04-26T17:37:39.053Z</time></trkpt><trkpt lat="38.047088" lon="13.3909039"><ele>347.6</ele><time>2026-04-26T17:37:41.053Z</time></trkpt><trkpt lat="38.0470759" lon="13.3910245"><ele>347.4</ele><time>2026-04-26T17:37:43.053Z</time></trkpt><trkpt lat="38.0470646" lon="13.3912024"><ele>347.20000000000005</ele><time>2026-04-26T17:37:45.053Z</time></trkpt><trkpt lat="38.0470413" lon="13.3913136"><ele>347.0</ele><time>2026-04-26T17:37:46.053Z</time></trkpt><trkpt lat="38.0470288" lon="13.391411"><ele>347.33333333333337</ele><time>2026-04-26T17:37:47.053Z</time></trkpt><trkpt lat="38.0470078" lon="13.3915205"><ele>347.6666666666667</ele><time>2026-04-26T17:37:49.053Z</time></trkpt><trkpt lat="38.0469992" lon="13.3915998"><ele>348.0</ele><time>2026-04-26T17:37:52.053Z</time></trkpt><trkpt lat="38.0469962" lon="13.3917519"><ele>348.3333333333333</ele><time>2026-04-26T17:37:54.053Z</time></trkpt><trkpt lat="38.0469913" lon="13.3918389"><ele>348.66666666666663</ele><time>2026-04-26T17:37:55.053Z</time></trkpt><trkpt lat="38.04699" lon="13.3919382"><ele>349.0</ele><time>2026-04-26T17:37:56.053Z</time></trkpt><trkpt lat="38.0469933" lon="13.3920379"><ele>349.0</ele><time>2026-04-26T17:37:57.054Z</time></trkpt><trkpt lat="38.0469912" lon="13.3921369"><ele>349.0</ele><time>2026-04-26T17:37:58.054Z</time></trkpt><trkpt lat="38.0469936" lon="13.3922369"><ele>349.0</ele><time>2026-04-26T17:37:59.054Z</time></trkpt><trkpt lat="38.0469936" lon="13.3923285"><ele>349.0</ele><time>2026-04-26T17:38:00.053Z</time></trkpt><trkpt lat="38.0469895" lon="13.3924098"><ele>349.0</ele><time>2026-04-26T17:38:01.053Z</time></trkpt><trkpt lat="38.0469814" lon="13.3925564"><ele>349.0</ele><time>2026-04-26T17:38:03.053Z</time></trkpt><trkpt lat="38.0469686" lon="13.3926807"><ele>348.79999999999995</ele><time>2026-04-26T17:38:05.053Z</time></trkpt><trkpt lat="38.0469646" lon="13.3927712"><ele>348.59999999999997</ele><time>2026-04-26T17:38:07.053Z</time></trkpt><trkpt lat="38.0469602" lon="13.3928841"><ele>348.4</ele><time>2026-04-26T17:38:10.053Z</time></trkpt><trkpt lat="38.0469419" lon="13.3929947"><ele>348.2</ele><time>2026-04-26T17:38:13.053Z</time></trkpt><trkpt lat="38.0469429" lon="13.3931653"><ele>348.0</ele><time>2026-04-26T17:38:27.053Z</time></trkpt><trkpt lat="38.0469356" lon="13.3933289"><ele>348.0</ele><time>2026-04-26T17:38:29.054Z</time></trkpt><trkpt lat="38.0469231" lon="13.3934165"><ele>348.0</ele><time>2026-04-26T17:38:30.053Z</time></trkpt><trkpt lat="38.0469146" lon="13.3935135"><ele>348.0</ele><time>2026-04-26T17:38:31.053Z</time></trkpt><trkpt lat="38.0469081" lon="13.3936098"><ele>348.0</ele><time>2026-04-26T17:38:32.053Z</time></trkpt><trkpt lat="38.0468962" lon="13.3937093"><ele>348.0</ele><time>2026-04-26T17:38:33.053Z</time></trkpt><trkpt lat="38.0468695" lon="13.3938073"><ele>348.0</ele><time>2026-04-26T17:38:34.053Z</time></trkpt><trkpt lat="38.046861" lon="13.3938961"><ele>348.5</ele><time>2026-04-26T17:38:35.053Z</time></trkpt><trkpt lat="38.0468616" lon="13.393992"><ele>349.0</ele><time>2026-04-26T17:38:36.053Z</time></trkpt><trkpt lat="38.0468618" lon="13.3940852"><ele>349.5</ele><time>2026-04-26T17:38:37.054Z</time></trkpt><trkpt lat="38.0468554" lon="13.3941827"><ele>350.0</ele><time>2026-04-26T17:38:38.053Z</time></trkpt><trkpt lat="38.0468599" lon="13.3942978"><ele>350.5</ele><time>2026-04-26T17:38:39.053Z</time></trkpt><trkpt lat="38.0468621" lon="13.3944017"><ele>351.0</ele><time>2026-04-26T17:38:40.054Z</time></trkpt><trkpt lat="38.0468573" lon="13.3945058"><ele>351.0</ele><time>2026-04-26T17:38:41.054Z</time></trkpt><trkpt lat="38.0468454" lon="13.394615"><ele>351.0</ele><time>2026-04-26T17:38:42.053Z</time></trkpt><trkpt lat="38.046815" lon="13.3947418"><ele>351.0</ele><time>2026-04-26T17:38:43.053Z</time></trkpt><trkpt lat="38.0467884" lon="13.3948655"><ele>351.0</ele><time>2026-04-26T17:38:44.054Z</time></trkpt><trkpt lat="38.0467476" lon="13.3949719"><ele>351.0</ele><time>2026-04-26T17:38:45.053Z</time></trkpt><trkpt lat="38.0466939" lon="13.3950604"><ele>352.0</ele><time>2026-04-26T17:38:46.053Z</time></trkpt><trkpt lat="38.0466324" lon="13.3951385"><ele>353.0</ele><time>2026-04-26T17:38:47.053Z</time></trkpt><trkpt lat="38.0465789" lon="13.3952128"><ele>354.0</ele><time>2026-04-26T17:38:48.053Z</time></trkpt><trkpt lat="38.0465355" lon="13.3952957"><ele>355.0</ele><time>2026-04-26T17:38:49.053Z</time></trkpt><trkpt lat="38.046485" lon="13.3953894"><ele>356.0</ele><time>2026-04-26T17:38:50.053Z</time></trkpt><trkpt lat="38.046431" lon="13.3954812"><ele>357.0</ele><time>2026-04-26T17:38:51.053Z</time></trkpt><trkpt lat="38.0463792" lon="13.3955702"><ele>357.0</ele><time>2026-04-26T17:38:52.053Z</time></trkpt><trkpt lat="38.0463173" lon="13.395658"><ele>357.0</ele><time>2026-04-26T17:38:53.053Z</time></trkpt><trkpt lat="38.0462557" lon="13.395752"><ele>357.0</ele><time>2026-04-26T17:38:54.053Z</time></trkpt><trkpt lat="38.0461978" lon="13.3958523"><ele>357.0</ele><time>2026-04-26T17:38:55.053Z</time></trkpt><trkpt lat="38.04614" lon="13.395957"><ele>357.0</ele><time>2026-04-26T17:38:56.053Z</time></trkpt><trkpt lat="38.0460823" lon="13.3960657"><ele>357.0</ele><time>2026-04-26T17:38:57.053Z</time></trkpt><trkpt lat="38.0460226" lon="13.3961685"><ele>357.0</ele><time>2026-04-26T17:38:58.053Z</time></trkpt><trkpt lat="38.0459619" lon="13.3962745"><ele>357.0</ele><time>2026-04-26T17:38:59.053Z</time></trkpt><trkpt lat="38.0459088" lon="13.3963809"><ele>357.0</ele><time>2026-04-26T17:39:00.053Z</time></trkpt><trkpt lat="38.045873" lon="13.3964917"><ele>357.0</ele><time>2026-04-26T17:39:01.053Z</time></trkpt><trkpt lat="38.0458468" lon="13.3966151"><ele>359.6</ele><time>2026-04-26T17:39:02.053Z</time></trkpt><trkpt lat="38.0458221" lon="13.3967474"><ele>362.20000000000005</ele><time>2026-04-26T17:39:03.053Z</time></trkpt><trkpt lat="38.0458092" lon="13.3968756"><ele>364.8</ele><time>2026-04-26T17:39:04.053Z</time></trkpt><trkpt lat="38.045809" lon="13.396998"><ele>367.4</ele><time>2026-04-26T17:39:05.053Z</time></trkpt><trkpt lat="38.0458042" lon="13.3971131"><ele>370.0</ele><time>2026-04-26T17:39:06.053Z</time></trkpt><trkpt lat="38.0458074" lon="13.3972128"><ele>371.16666666666663</ele><time>2026-04-26T17:39:07.053Z</time></trkpt><trkpt lat="38.0458101" lon="13.3973108"><ele>372.3333333333333</ele><time>2026-04-26T17:39:08.054Z</time></trkpt><trkpt lat="38.0458149" lon="13.3974209"><ele>373.5</ele><time>2026-04-26T17:39:09.053Z</time></trkpt><trkpt lat="38.0458229" lon="13.397519"><ele>374.6666666666667</ele><time>2026-04-26T17:39:10.054Z</time></trkpt><trkpt lat="38.0458516" lon="13.3976044"><ele>375.83333333333337</ele><time>2026-04-26T17:39:11.053Z</time></trkpt><trkpt lat="38.0458843" lon="13.3976823"><ele>377.0</ele><time>2026-04-26T17:39:12.053Z</time></trkpt><trkpt lat="38.0459562" lon="13.3977991"><ele>377.0</ele><time>2026-04-26T17:39:14.053Z</time></trkpt><trkpt lat="38.0460226" lon="13.3978624"><ele>377.0</ele><time>2026-04-26T17:39:16.053Z</time></trkpt><trkpt lat="38.0461" lon="13.3979359"><ele>377.0</ele><time>2026-04-26T17:39:18.054Z</time></trkpt><trkpt lat="38.0461843" lon="13.3980105"><ele>377.0</ele><time>2026-04-26T17:39:20.053Z</time></trkpt><trkpt lat="38.0462458" lon="13.3980618"><ele>377.0</ele><time>2026-04-26T17:39:21.053Z</time></trkpt><trkpt lat="38.0463332" lon="13.3981219"><ele>377.5</ele><time>2026-04-26T17:39:22.053Z</time></trkpt><trkpt lat="38.0464314" lon="13.3982068"><ele>378.0</ele><time>2026-04-26T17:39:23.053Z</time></trkpt><trkpt lat="38.046526" lon="13.3982858"><ele>378.5</ele><time>2026-04-26T17:39:24.053Z</time></trkpt><trkpt lat="38.046616" lon="13.3983571"><ele>379.0</ele><time>2026-04-26T17:39:25.054Z</time></trkpt><trkpt lat="38.0467498" lon="13.3985047"><ele>377.6</ele><time>2026-04-26T17:39:27.053Z</time></trkpt><trkpt lat="38.0467851" lon="13.3986078"><ele>376.2</ele><time>2026-04-26T17:39:28.053Z</time></trkpt><trkpt lat="38.0467945" lon="13.3987433"><ele>374.8</ele><time>2026-04-26T17:39:29.053Z</time></trkpt><trkpt lat="38.0467808" lon="13.3988931"><ele>373.40000000000003</ele><time>2026-04-26T17:39:30.054Z</time></trkpt><trkpt lat="38.0467606" lon="13.3990569"><ele>372.0</ele><time>2026-04-26T17:39:31.053Z</time></trkpt><trkpt lat="38.0467532" lon="13.3992387"><ele>371.75</ele><time>2026-04-26T17:39:32.053Z</time></trkpt><trkpt lat="38.0467549" lon="13.3994195"><ele>371.5</ele><time>2026-04-26T17:39:33.053Z</time></trkpt><trkpt lat="38.0467728" lon="13.3995902"><ele>371.25</ele><time>2026-04-26T17:39:34.054Z</time></trkpt><trkpt lat="38.0468027" lon="13.3997541"><ele>371.0</ele><time>2026-04-26T17:39:35.053Z</time></trkpt><trkpt lat="38.0468411" lon="13.3999323"><ele>368.6666666666667</ele><time>2026-04-26T17:39:36.053Z</time></trkpt><trkpt lat="38.0468918" lon="13.4001112"><ele>366.3333333333333</ele><time>2026-04-26T17:39:37.053Z</time></trkpt><trkpt lat="38.0469571" lon="13.4002999"><ele>364.0</ele><time>2026-04-26T17:39:38.053Z</time></trkpt><trkpt lat="38.0470341" lon="13.4005126"><ele>361.3333333333333</ele><time>2026-04-26T17:39:39.053Z</time></trkpt><trkpt lat="38.0471181" lon="13.4007452"><ele>358.6666666666667</ele><time>2026-04-26T17:39:40.053Z</time></trkpt><trkpt lat="38.0472083" lon="13.4009805"><ele>356.0</ele><time>2026-04-26T17:39:41.053Z</time></trkpt><trkpt lat="38.0473078" lon="13.4012242"><ele>356.0</ele><time>2026-04-26T17:39:42.053Z</time></trkpt><trkpt lat="38.0474223" lon="13.4014793"><ele>356.0</ele><time>2026-04-26T17:39:43.053Z</time></trkpt><trkpt lat="38.0475442" lon="13.4017499"><ele>356.0</ele><time>2026-04-26T17:39:44.053Z</time></trkpt><trkpt lat="38.0476721" lon="13.4020183"><ele>356.0</ele><time>2026-04-26T17:39:45.054Z</time></trkpt><trkpt lat="38.0477936" lon="13.40228"><ele>349.0</ele><time>2026-04-26T17:39:46.053Z</time></trkpt><trkpt lat="38.0479111" lon="13.4025319"><ele>342.0</ele><time>2026-04-26T17:39:47.053Z</time></trkpt><trkpt lat="38.048026" lon="13.4027698"><ele>342.0</ele><time>2026-04-26T17:39:48.053Z</time></trkpt><trkpt lat="38.0481348" lon="13.4029972"><ele>342.0</ele><time>2026-04-26T17:39:49.053Z</time></trkpt><trkpt lat="38.0482371" lon="13.4032157"><ele>342.0</ele><time>2026-04-26T17:39:50.053Z</time></trkpt><trkpt lat="38.0483342" lon="13.4034259"><ele>344.3333333333333</ele><time>2026-04-26T17:39:51.053Z</time></trkpt><trkpt lat="38.0484298" lon="13.4036283"><ele>346.66666666666663</ele><time>2026-04-26T17:39:52.053Z</time></trkpt><trkpt lat="38.0485219" lon="13.4038277"><ele>349.0</ele><time>2026-04-26T17:39:53.053Z</time></trkpt><trkpt lat="38.0486152" lon="13.4040251"><ele>344.3333333333333</ele><time>2026-04-26T17:39:54.053Z</time></trkpt><trkpt lat="38.0487043" lon="13.4042168"><ele>339.6666666666667</ele><time>2026-04-26T17:39:55.053Z</time></trkpt><trkpt lat="38.0487941" lon="13.4044146"><ele>335.0</ele><time>2026-04-26T17:39:56.053Z</time></trkpt><trkpt lat="38.0488832" lon="13.4046215"><ele>331.33333333333337</ele><time>2026-04-26T17:39:57.054Z</time></trkpt><trkpt lat="38.0489582" lon="13.4048505"><ele>327.6666666666667</ele><time>2026-04-26T17:39:58.053Z</time></trkpt><trkpt lat="38.0490209" lon="13.4051022"><ele>324.0</ele><time>2026-04-26T17:39:59.053Z</time></trkpt><trkpt lat="38.0490806" lon="13.4053657"><ele>328.6666666666667</ele><time>2026-04-26T17:40:00.053Z</time></trkpt><trkpt lat="38.0491402" lon="13.4056272"><ele>333.33333333333337</ele><time>2026-04-26T17:40:01.053Z</time></trkpt><trkpt lat="38.0491976" lon="13.4058966"><ele>338.0</ele><time>2026-04-26T17:40:02.053Z</time></trkpt><trkpt lat="38.0492555" lon="13.4061662"><ele>333.0</ele><time>2026-04-26T17:40:03.054Z</time></trkpt><trkpt lat="38.0493202" lon="13.4064369"><ele>328.0</ele><time>2026-04-26T17:40:04.054Z</time></trkpt><trkpt lat="38.0493886" lon="13.4067085"><ele>323.0</ele><time>2026-04-26T17:40:05.053Z</time></trkpt><trkpt lat="38.0494591" lon="13.4069784"><ele>319.33333333333337</ele><time>2026-04-26T17:40:06.053Z</time></trkpt><trkpt lat="38.0495316" lon="13.4072446"><ele>315.6666666666667</ele><time>2026-04-26T17:40:07.053Z</time></trkpt><trkpt lat="38.0496065" lon="13.4075078"><ele>312.0</ele><time>2026-04-26T17:40:08.053Z</time></trkpt><trkpt lat="38.0496794" lon="13.4077729"><ele>308.6666666666667</ele><time>2026-04-26T17:40:09.053Z</time></trkpt><trkpt lat="38.0497521" lon="13.4080361"><ele>305.33333333333337</ele><time>2026-04-26T17:40:10.054Z</time></trkpt><trkpt lat="38.0498302" lon="13.4082966"><ele>302.0</ele><time>2026-04-26T17:40:11.053Z</time></trkpt><trkpt lat="38.0499167" lon="13.4085471"><ele>307.33333333333337</ele><time>2026-04-26T17:40:12.053Z</time></trkpt><trkpt lat="38.0500086" lon="13.4087912"><ele>312.6666666666667</ele><time>2026-04-26T17:40:13.053Z</time></trkpt><trkpt lat="38.0501022" lon="13.4090312"><ele>318.0</ele><time>2026-04-26T17:40:14.053Z</time></trkpt><trkpt lat="38.0501933" lon="13.4092626"><ele>318.0</ele><time>2026-04-26T17:40:15.053Z</time></trkpt><trkpt lat="38.0502867" lon="13.4094875"><ele>318.0</ele><time>2026-04-26T17:40:16.053Z</time></trkpt><trkpt lat="38.050375" lon="13.4097108"><ele>318.0</ele><time>2026-04-26T17:40:17.054Z</time></trkpt><trkpt lat="38.0504617" lon="13.4099304"><ele>312.0</ele><time>2026-04-26T17:40:18.053Z</time></trkpt><trkpt lat="38.050548" lon="13.4101508"><ele>306.0</ele><time>2026-04-26T17:40:19.053Z</time></trkpt><trkpt lat="38.0506308" lon="13.4103698"><ele>300.0</ele><time>2026-04-26T17:40:20.053Z</time></trkpt><trkpt lat="38.0507113" lon="13.4105812"><ele>297.6666666666667</ele><time>2026-04-26T17:40:21.053Z</time></trkpt><trkpt lat="38.0507904" lon="13.4107837"><ele>295.33333333333337</ele><time>2026-04-26T17:40:22.053Z</time></trkpt><trkpt lat="38.0508673" lon="13.4109813"><ele>293.0</ele><time>2026-04-26T17:40:23.054Z</time></trkpt><trkpt lat="38.0509431" lon="13.4111721"><ele>295.0</ele><time>2026-04-26T17:40:24.054Z</time></trkpt><trkpt lat="38.0510163" lon="13.4113592"><ele>297.0</ele><time>2026-04-26T17:40:25.053Z</time></trkpt><trkpt lat="38.0510851" lon="13.41154"><ele>299.0</ele><time>2026-04-26T17:40:26.053Z</time></trkpt><trkpt lat="38.0511516" lon="13.4117161"><ele>299.0</ele><time>2026-04-26T17:40:27.053Z</time></trkpt><trkpt lat="38.0512133" lon="13.4118919"><ele>299.0</ele><time>2026-04-26T17:40:28.053Z</time></trkpt><trkpt lat="38.051268" lon="13.4120604"><ele>299.0</ele><time>2026-04-26T17:40:29.053Z</time></trkpt><trkpt lat="38.0513051" lon="13.4122343"><ele>299.0</ele><time>2026-04-26T17:40:30.053Z</time></trkpt><trkpt lat="38.0513225" lon="13.4124304"><ele>296.0</ele><time>2026-04-26T17:40:31.054Z</time></trkpt><trkpt lat="38.0513257" lon="13.4126343"><ele>293.0</ele><time>2026-04-26T17:40:32.054Z</time></trkpt><trkpt lat="38.0513289" lon="13.4128365"><ele>290.0</ele><time>2026-04-26T17:40:33.053Z</time></trkpt><trkpt lat="38.0513279" lon="13.4130414"><ele>290.0</ele><time>2026-04-26T17:40:34.053Z</time></trkpt><trkpt lat="38.0513282" lon="13.4132512"><ele>290.0</ele><time>2026-04-26T17:40:35.053Z</time></trkpt><trkpt lat="38.0513306" lon="13.4134682"><ele>290.0</ele><time>2026-04-26T17:40:36.053Z</time></trkpt><trkpt lat="38.0513359" lon="13.4136992"><ele>287.6666666666667</ele><time>2026-04-26T17:40:37.053Z</time></trkpt><trkpt lat="38.0513477" lon="13.4139469"><ele>285.3333333333333</ele><time>2026-04-26T17:40:38.053Z</time></trkpt><trkpt lat="38.0513566" lon="13.4142223"><ele>283.0</ele><time>2026-04-26T17:40:39.054Z</time></trkpt><trkpt lat="38.0513586" lon="13.4145225"><ele>283.5</ele><time>2026-04-26T17:40:40.053Z</time></trkpt><trkpt lat="38.0513589" lon="13.4148239"><ele>284.0</ele><time>2026-04-26T17:40:41.054Z</time></trkpt><trkpt lat="38.0513586" lon="13.4151184"><ele>284.0</ele><time>2026-04-26T17:40:42.053Z</time></trkpt><trkpt lat="38.0513595" lon="13.4153977"><ele>284.0</ele><time>2026-04-26T17:40:43.053Z</time></trkpt><trkpt lat="38.0513638" lon="13.4156661"><ele>284.0</ele><time>2026-04-26T17:40:44.053Z</time></trkpt><trkpt lat="38.0513698" lon="13.4159175"><ele>281.0</ele><time>2026-04-26T17:40:45.053Z</time></trkpt><trkpt lat="38.051375" lon="13.4161512"><ele>278.0</ele><time>2026-04-26T17:40:46.053Z</time></trkpt><trkpt lat="38.0513757" lon="13.4163697"><ele>275.0</ele><time>2026-04-26T17:40:47.054Z</time></trkpt><trkpt lat="38.0513841" lon="13.4165709"><ele>275.0</ele><time>2026-04-26T17:40:48.053Z</time></trkpt><trkpt lat="38.0513878" lon="13.4167591"><ele>275.0</ele><time>2026-04-26T17:40:49.053Z</time></trkpt><trkpt lat="38.051388" lon="13.4169402"><ele>275.0</ele><time>2026-04-26T17:40:50.053Z</time></trkpt><trkpt lat="38.0513905" lon="13.4171224"><ele>275.0</ele><time>2026-04-26T17:40:51.054Z</time></trkpt><trkpt lat="38.0513909" lon="13.4173048"><ele>275.0</ele><time>2026-04-26T17:40:52.053Z</time></trkpt><trkpt lat="38.0513943" lon="13.4174918"><ele>275.0</ele><time>2026-04-26T17:40:53.054Z</time></trkpt><trkpt lat="38.0514006" lon="13.417683"><ele>275.0</ele><time>2026-04-26T17:40:54.053Z</time></trkpt><trkpt lat="38.0514073" lon="13.4178759"><ele>273.6666666666667</ele><time>2026-04-26T17:40:55.053Z</time></trkpt><trkpt lat="38.0514119" lon="13.4180772"><ele>272.3333333333333</ele><time>2026-04-26T17:40:56.053Z</time></trkpt><trkpt lat="38.0514166" lon="13.4183051"><ele>271.0</ele><time>2026-04-26T17:40:57.054Z</time></trkpt><trkpt lat="38.0514192" lon="13.4185677"><ele>270.0</ele><time>2026-04-26T17:40:58.053Z</time></trkpt><trkpt lat="38.0514094" lon="13.4188374"><ele>269.0</ele><time>2026-04-26T17:40:59.054Z</time></trkpt><trkpt lat="38.0513959" lon="13.4191142"><ele>268.0</ele><time>2026-04-26T17:41:00.053Z</time></trkpt><trkpt lat="38.051376" lon="13.4193929"><ele>267.0</ele><time>2026-04-26T17:41:01.053Z</time></trkpt><trkpt lat="38.0513621" lon="13.4196584"><ele>266.0</ele><time>2026-04-26T17:41:02.053Z</time></trkpt><trkpt lat="38.051341" lon="13.419912"><ele>265.0</ele><time>2026-04-26T17:41:03.053Z</time></trkpt><trkpt lat="38.0513218" lon="13.4201569"><ele>265.0</ele><time>2026-04-26T17:41:04.053Z</time></trkpt><trkpt lat="38.0513084" lon="13.4204029"><ele>265.0</ele><time>2026-04-26T17:41:05.053Z</time></trkpt><trkpt lat="38.0512959" lon="13.4206572"><ele>265.0</ele><time>2026-04-26T17:41:06.053Z</time></trkpt><trkpt lat="38.051285" lon="13.4209143"><ele>265.0</ele><time>2026-04-26T17:41:07.053Z</time></trkpt><trkpt lat="38.0512818" lon="13.421183"><ele>265.0</ele><time>2026-04-26T17:41:08.053Z</time></trkpt><trkpt lat="38.0512853" lon="13.4214547"><ele>265.0</ele><time>2026-04-26T17:41:09.053Z</time></trkpt><trkpt lat="38.0512996" lon="13.4217175"><ele>263.66666666666663</ele><time>2026-04-26T17:41:10.053Z</time></trkpt><trkpt lat="38.051322" lon="13.4219715"><ele>262.3333333333333</ele><time>2026-04-26T17:41:11.053Z</time></trkpt><trkpt lat="38.0513612" lon="13.4222211"><ele>261.0</ele><time>2026-04-26T17:41:12.053Z</time></trkpt><trkpt lat="38.051417" lon="13.4224612"><ele>260.3333333333333</ele><time>2026-04-26T17:41:13.053Z</time></trkpt><trkpt lat="38.0514736" lon="13.4226784"><ele>259.66666666666663</ele><time>2026-04-26T17:41:14.054Z</time></trkpt><trkpt lat="38.0515247" lon="13.4228759"><ele>259.0</ele><time>2026-04-26T17:41:15.053Z</time></trkpt><trkpt lat="38.0515731" lon="13.4230619"><ele>258.8</ele><time>2026-04-26T17:41:16.053Z</time></trkpt><trkpt lat="38.051617" lon="13.4232388"><ele>258.59999999999997</ele><time>2026-04-26T17:41:17.053Z</time></trkpt><trkpt lat="38.0516468" lon="13.4233928"><ele>258.4</ele><time>2026-04-26T17:41:18.054Z</time></trkpt><trkpt lat="38.0516702" lon="13.423508"><ele>258.2</ele><time>2026-04-26T17:41:19.053Z</time></trkpt><trkpt lat="38.0516849" lon="13.423611"><ele>258.0</ele><time>2026-04-26T17:41:20.054Z</time></trkpt><trkpt lat="38.0516775" lon="13.4237071"><ele>257.6</ele><time>2026-04-26T17:41:21.053Z</time></trkpt><trkpt lat="38.051649" lon="13.4237857"><ele>257.20000000000005</ele><time>2026-04-26T17:41:22.053Z</time></trkpt><trkpt lat="38.0516148" lon="13.4238741"><ele>256.8</ele><time>2026-04-26T17:41:23.053Z</time></trkpt><trkpt lat="38.0515785" lon="13.4239906"><ele>256.40000000000003</ele><time>2026-04-26T17:41:24.053Z</time></trkpt><trkpt lat="38.051548" lon="13.4241437"><ele>256.0</ele><time>2026-04-26T17:41:25.053Z</time></trkpt><trkpt lat="38.0515443" lon="13.4243328"><ele>256.0</ele><time>2026-04-26T17:41:26.054Z</time></trkpt><trkpt lat="38.0515382" lon="13.4245306"><ele>256.0</ele><time>2026-04-26T17:41:27.053Z</time></trkpt><trkpt lat="38.0515254" lon="13.424747"><ele>256.0</ele><time>2026-04-26T17:41:28.053Z</time></trkpt><trkpt lat="38.0515024" lon="13.4249802"><ele>255.33333333333331</ele><time>2026-04-26T17:41:29.053Z</time></trkpt><trkpt lat="38.0514754" lon="13.4252202"><ele>254.66666666666669</ele><time>2026-04-26T17:41:30.053Z</time></trkpt><trkpt lat="38.0514466" lon="13.4254632"><ele>254.0</ele><time>2026-04-26T17:41:31.053Z</time></trkpt><trkpt lat="38.0514166" lon="13.4257001"><ele>253.33333333333334</ele><time>2026-04-26T17:41:32.053Z</time></trkpt><trkpt lat="38.0513881" lon="13.4259316"><ele>252.66666666666669</ele><time>2026-04-26T17:41:33.053Z</time></trkpt><trkpt lat="38.0513601" lon="13.4261584"><ele>252.0</ele><time>2026-04-26T17:41:34.054Z</time></trkpt><trkpt lat="38.051328" lon="13.426384"><ele>252.0</ele><time>2026-04-26T17:41:35.053Z</time></trkpt><trkpt lat="38.0512984" lon="13.4266073"><ele>252.0</ele><time>2026-04-26T17:41:36.054Z</time></trkpt><trkpt lat="38.0512728" lon="13.4268245"><ele>252.0</ele><time>2026-04-26T17:41:37.053Z</time></trkpt><trkpt lat="38.0512482" lon="13.4270282"><ele>250.66666666666669</ele><time>2026-04-26T17:41:38.053Z</time></trkpt><trkpt lat="38.051235" lon="13.4272344"><ele>249.33333333333334</ele><time>2026-04-26T17:41:39.053Z</time></trkpt><trkpt lat="38.0512395" lon="13.4274493"><ele>248.0</ele><time>2026-04-26T17:41:40.053Z</time></trkpt><trkpt lat="38.0512681" lon="13.4276712"><ele>248.0</ele><time>2026-04-26T17:41:41.053Z</time></trkpt><trkpt lat="38.051304" lon="13.4278873"><ele>248.0</ele><time>2026-04-26T17:41:42.053Z</time></trkpt><trkpt lat="38.0513368" lon="13.4280888"><ele>248.0</ele><time>2026-04-26T17:41:43.053Z</time></trkpt><trkpt lat="38.0513731" lon="13.4282904"><ele>246.66666666666669</ele><time>2026-04-26T17:41:44.053Z</time></trkpt><trkpt lat="38.0514182" lon="13.4284923"><ele>245.33333333333331</ele><time>2026-04-26T17:41:45.053Z</time></trkpt><trkpt lat="38.0514697" lon="13.4286886"><ele>244.0</ele><time>2026-04-26T17:41:46.053Z</time></trkpt><trkpt lat="38.051528" lon="13.4288685"><ele>242.33333333333331</ele><time>2026-04-26T17:41:47.053Z</time></trkpt><trkpt lat="38.0515911" lon="13.4290324"><ele>240.66666666666669</ele><time>2026-04-26T17:41:48.053Z</time></trkpt><trkpt lat="38.0516731" lon="13.4291903"><ele>239.0</ele><time>2026-04-26T17:41:49.054Z</time></trkpt><trkpt lat="38.0517835" lon="13.4293418"><ele>239.66666666666669</ele><time>2026-04-26T17:41:50.053Z</time></trkpt><trkpt lat="38.0519185" lon="13.4294797"><ele>240.33333333333331</ele><time>2026-04-26T17:41:51.054Z</time></trkpt><trkpt lat="38.0520546" lon="13.4296078"><ele>241.0</ele><time>2026-04-26T17:41:52.053Z</time></trkpt><trkpt lat="38.0521816" lon="13.4297318"><ele>241.0</ele><time>2026-04-26T17:41:53.054Z</time></trkpt><trkpt lat="38.0523011" lon="13.4298549"><ele>241.0</ele><time>2026-04-26T17:41:54.053Z</time></trkpt><trkpt lat="38.0524126" lon="13.4299769"><ele>241.0</ele><time>2026-04-26T17:41:55.054Z</time></trkpt><trkpt lat="38.0525149" lon="13.4301147"><ele>242.66666666666666</ele><time>2026-04-26T17:41:56.053Z</time></trkpt><trkpt lat="38.05259" lon="13.4302725"><ele>244.33333333333331</ele><time>2026-04-26T17:41:57.054Z</time></trkpt><trkpt lat="38.0526365" lon="13.4304587"><ele>246.0</ele><time>2026-04-26T17:41:58.053Z</time></trkpt><trkpt lat="38.0526772" lon="13.430669"><ele>246.0</ele><time>2026-04-26T17:41:59.053Z</time></trkpt><trkpt lat="38.0526945" lon="13.43089"><ele>246.0</ele><time>2026-04-26T17:42:00.053Z</time></trkpt><trkpt lat="38.0526916" lon="13.4311276"><ele>246.0</ele><time>2026-04-26T17:42:01.053Z</time></trkpt><trkpt lat="38.0526645" lon="13.4313784"><ele>245.33333333333331</ele><time>2026-04-26T17:42:02.053Z</time></trkpt><trkpt lat="38.0526238" lon="13.4316283"><ele>244.66666666666666</ele><time>2026-04-26T17:42:03.053Z</time></trkpt><trkpt lat="38.0525844" lon="13.4318768"><ele>244.0</ele><time>2026-04-26T17:42:04.053Z</time></trkpt><trkpt lat="38.052543" lon="13.4321301"><ele>243.66666666666666</ele><time>2026-04-26T17:42:05.053Z</time></trkpt><trkpt lat="38.0525032" lon="13.4323825"><ele>243.33333333333331</ele><time>2026-04-26T17:42:06.053Z</time></trkpt><trkpt lat="38.0524793" lon="13.4326381"><ele>243.0</ele><time>2026-04-26T17:42:07.054Z</time></trkpt><trkpt lat="38.0524698" lon="13.4328841"><ele>244.0</ele><time>2026-04-26T17:42:08.053Z</time></trkpt><trkpt lat="38.0524593" lon="13.4331137"><ele>245.0</ele><time>2026-04-26T17:42:09.054Z</time></trkpt><trkpt lat="38.0524567" lon="13.4333326"><ele>246.0</ele><time>2026-04-26T17:42:10.053Z</time></trkpt><trkpt lat="38.0524468" lon="13.4335331"><ele>243.33333333333331</ele><time>2026-04-26T17:42:11.054Z</time></trkpt><trkpt lat="38.05243" lon="13.4337262"><ele>240.66666666666666</ele><time>2026-04-26T17:42:12.053Z</time></trkpt><trkpt lat="38.052397" lon="13.4339148"><ele>238.0</ele><time>2026-04-26T17:42:13.053Z</time></trkpt><trkpt lat="38.0523378" lon="13.4340993"><ele>238.0</ele><time>2026-04-26T17:42:14.053Z</time></trkpt><trkpt lat="38.0522441" lon="13.434289"><ele>238.0</ele><time>2026-04-26T17:42:15.053Z</time></trkpt><trkpt lat="38.0521286" lon="13.4344908"><ele>238.0</ele><time>2026-04-26T17:42:16.053Z</time></trkpt><trkpt lat="38.0520108" lon="13.4346923"><ele>238.0</ele><time>2026-04-26T17:42:17.053Z</time></trkpt><trkpt lat="38.0518906" lon="13.434901"><ele>238.0</ele><time>2026-04-26T17:42:18.053Z</time></trkpt><trkpt lat="38.051763" lon="13.4351209"><ele>238.0</ele><time>2026-04-26T17:42:19.053Z</time></trkpt><trkpt lat="38.0516217" lon="13.4353428"><ele>239.66666666666666</ele><time>2026-04-26T17:42:20.054Z</time></trkpt><trkpt lat="38.0514749" lon="13.4355567"><ele>241.33333333333331</ele><time>2026-04-26T17:42:21.053Z</time></trkpt><trkpt lat="38.0513255" lon="13.4357439"><ele>243.0</ele><time>2026-04-26T17:42:22.053Z</time></trkpt><trkpt lat="38.0511871" lon="13.435905"><ele>243.0</ele><time>2026-04-26T17:42:23.053Z</time></trkpt><trkpt lat="38.0510633" lon="13.4360587"><ele>243.0</ele><time>2026-04-26T17:42:24.054Z</time></trkpt><trkpt lat="38.0509537" lon="13.436216"><ele>243.0</ele><time>2026-04-26T17:42:25.054Z</time></trkpt><trkpt lat="38.0508639" lon="13.4363935"><ele>242.0</ele><time>2026-04-26T17:42:26.053Z</time></trkpt><trkpt lat="38.0507818" lon="13.436592"><ele>241.0</ele><time>2026-04-26T17:42:27.053Z</time></trkpt><trkpt lat="38.0506929" lon="13.4368183"><ele>240.0</ele><time>2026-04-26T17:42:28.053Z</time></trkpt><trkpt lat="38.0505997" lon="13.4370561"><ele>240.0</ele><time>2026-04-26T17:42:29.053Z</time></trkpt><trkpt lat="38.0505088" lon="13.4372764"><ele>240.0</ele><time>2026-04-26T17:42:30.053Z</time></trkpt><trkpt lat="38.0504176" lon="13.4374947"><ele>240.0</ele><time>2026-04-26T17:42:31.053Z</time></trkpt><trkpt lat="38.0503228" lon="13.4377182"><ele>240.0</ele><time>2026-04-26T17:42:32.053Z</time></trkpt><trkpt lat="38.0502225" lon="13.437942"><ele>240.0</ele><time>2026-04-26T17:42:33.053Z</time></trkpt><trkpt lat="38.0501046" lon="13.4381692"><ele>240.0</ele><time>2026-04-26T17:42:34.053Z</time></trkpt><trkpt lat="38.0499768" lon="13.4383981"><ele>240.0</ele><time>2026-04-26T17:42:35.053Z</time></trkpt><trkpt lat="38.0498444" lon="13.4386294"><ele>240.0</ele><time>2026-04-26T17:42:36.053Z</time></trkpt><trkpt lat="38.049709" lon="13.4388606"><ele>242.0</ele><time>2026-04-26T17:42:37.053Z</time></trkpt><trkpt lat="38.0495713" lon="13.439097"><ele>244.0</ele><time>2026-04-26T17:42:38.053Z</time></trkpt><trkpt lat="38.0494231" lon="13.4393252"><ele>244.0</ele><time>2026-04-26T17:42:39.054Z</time></trkpt><trkpt lat="38.0492701" lon="13.4395557"><ele>244.0</ele><time>2026-04-26T17:42:40.053Z</time></trkpt><trkpt lat="38.049121" lon="13.4397812"><ele>242.0</ele><time>2026-04-26T17:42:41.053Z</time></trkpt><trkpt lat="38.0489669" lon="13.4400056"><ele>240.0</ele><time>2026-04-26T17:42:42.054Z</time></trkpt><trkpt lat="38.0488154" lon="13.4402299"><ele>240.0</ele><time>2026-04-26T17:42:43.053Z</time></trkpt><trkpt lat="38.0486654" lon="13.4404549"><ele>240.0</ele><time>2026-04-26T17:42:44.054Z</time></trkpt><trkpt lat="38.0485181" lon="13.4406748"><ele>239.5</ele><time>2026-04-26T17:42:45.053Z</time></trkpt><trkpt lat="38.048364" lon="13.4408907"><ele>239.0</ele><time>2026-04-26T17:42:46.053Z</time></trkpt><trkpt lat="38.0481971" lon="13.4411026"><ele>240.5</ele><time>2026-04-26T17:42:47.054Z</time></trkpt><trkpt lat="38.0480183" lon="13.441305"><ele>242.0</ele><time>2026-04-26T17:42:48.053Z</time></trkpt><trkpt lat="38.0478247" lon="13.4415022"><ele>242.0</ele><time>2026-04-26T17:42:49.053Z</time></trkpt><trkpt lat="38.0476252" lon="13.4417062"><ele>242.0</ele><time>2026-04-26T17:42:50.053Z</time></trkpt><trkpt lat="38.0474224" lon="13.4419119"><ele>241.5</ele><time>2026-04-26T17:42:51.053Z</time></trkpt><trkpt lat="38.0472204" lon="13.442121"><ele>241.0</ele><time>2026-04-26T17:42:52.053Z</time></trkpt><trkpt lat="38.0470241" lon="13.4423243"><ele>241.0</ele><time>2026-04-26T17:42:53.053Z</time></trkpt><trkpt lat="38.0468363" lon="13.4425224"><ele>241.0</ele><time>2026-04-26T17:42:54.053Z</time></trkpt><trkpt lat="38.0466566" lon="13.4427117"><ele>241.0</ele><time>2026-04-26T17:42:55.054Z</time></trkpt><trkpt lat="38.0464756" lon="13.4428985"><ele>241.0</ele><time>2026-04-26T17:42:56.053Z</time></trkpt><trkpt lat="38.0462993" lon="13.4430851"><ele>241.0</ele><time>2026-04-26T17:42:57.053Z</time></trkpt><trkpt lat="38.0461314" lon="13.4432629"><ele>241.0</ele><time>2026-04-26T17:42:58.053Z</time></trkpt><trkpt lat="38.0459651" lon="13.4434358"><ele>241.0</ele><time>2026-04-26T17:42:59.053Z</time></trkpt><trkpt lat="38.0458042" lon="13.4436052"><ele>241.0</ele><time>2026-04-26T17:43:00.053Z</time></trkpt><trkpt lat="38.0456484" lon="13.4437704"><ele>241.0</ele><time>2026-04-26T17:43:01.053Z</time></trkpt><trkpt lat="38.0454987" lon="13.4439265"><ele>241.0</ele><time>2026-04-26T17:43:02.053Z</time></trkpt><trkpt lat="38.0453484" lon="13.4440861"><ele>241.0</ele><time>2026-04-26T17:43:03.053Z</time></trkpt><trkpt lat="38.0451997" lon="13.4442412"><ele>241.0</ele><time>2026-04-26T17:43:04.053Z</time></trkpt><trkpt lat="38.0450623" lon="13.4443864"><ele>241.0</ele><time>2026-04-26T17:43:05.053Z</time></trkpt><trkpt lat="38.0449301" lon="13.444511"><ele>240.33333333333331</ele><time>2026-04-26T17:43:06.053Z</time></trkpt><trkpt lat="38.0447904" lon="13.4446121"><ele>239.66666666666669</ele><time>2026-04-26T17:43:07.054Z</time></trkpt><trkpt lat="38.0446295" lon="13.4446868"><ele>239.0</ele><time>2026-04-26T17:43:08.053Z</time></trkpt><trkpt lat="38.0444544" lon="13.4447529"><ele>240.0</ele><time>2026-04-26T17:43:09.053Z</time></trkpt><trkpt lat="38.0442774" lon="13.4448142"><ele>241.0</ele><time>2026-04-26T17:43:10.054Z</time></trkpt><trkpt lat="38.0440948" lon="13.4448754"><ele>242.0</ele><time>2026-04-26T17:43:11.053Z</time></trkpt><trkpt lat="38.0439215" lon="13.4449363"><ele>242.0</ele><time>2026-04-26T17:43:12.053Z</time></trkpt><trkpt lat="38.0437566" lon="13.4449765"><ele>242.0</ele><time>2026-04-26T17:43:13.053Z</time></trkpt><trkpt lat="38.0436054" lon="13.4450232"><ele>242.0</ele><time>2026-04-26T17:43:14.053Z</time></trkpt><trkpt lat="38.0434546" lon="13.4450693"><ele>242.0</ele><time>2026-04-26T17:43:15.053Z</time></trkpt><trkpt lat="38.0433123" lon="13.4451135"><ele>242.0</ele><time>2026-04-26T17:43:16.053Z</time></trkpt><trkpt lat="38.0431699" lon="13.4451562"><ele>242.0</ele><time>2026-04-26T17:43:17.053Z</time></trkpt><trkpt lat="38.0430328" lon="13.4452033"><ele>242.0</ele><time>2026-04-26T17:43:18.053Z</time></trkpt><trkpt lat="38.0429078" lon="13.4452459"><ele>242.16666666666669</ele><time>2026-04-26T17:43:19.053Z</time></trkpt><trkpt lat="38.0428043" lon="13.4452857"><ele>242.33333333333334</ele><time>2026-04-26T17:43:20.054Z</time></trkpt><trkpt lat="38.0427376" lon="13.4453061"><ele>242.5</ele><time>2026-04-26T17:43:21.053Z</time></trkpt><trkpt lat="38.0426597" lon="13.4453678"><ele>242.66666666666669</ele><time>2026-04-26T17:43:23.053Z</time></trkpt><trkpt lat="38.042664" lon="13.4454489"><ele>242.83333333333334</ele><time>2026-04-26T17:43:25.053Z</time></trkpt><trkpt lat="38.0426911" lon="13.445554"><ele>243.0</ele><time>2026-04-26T17:43:26.053Z</time></trkpt><trkpt lat="38.0427199" lon="13.4456959"><ele>243.66666666666669</ele><time>2026-04-26T17:43:27.053Z</time></trkpt><trkpt lat="38.0427547" lon="13.4458619"><ele>244.33333333333334</ele><time>2026-04-26T17:43:28.053Z</time></trkpt><trkpt lat="38.0427966" lon="13.4460443"><ele>245.0</ele><time>2026-04-26T17:43:29.053Z</time></trkpt><trkpt lat="38.0428557" lon="13.4462484"><ele>246.0</ele><time>2026-04-26T17:43:30.053Z</time></trkpt><trkpt lat="38.0429323" lon="13.4464706"><ele>247.0</ele><time>2026-04-26T17:43:31.053Z</time></trkpt><trkpt lat="38.0430345" lon="13.4466983"><ele>248.0</ele><time>2026-04-26T17:43:32.053Z</time></trkpt><trkpt lat="38.0431414" lon="13.4469311"><ele>249.33333333333334</ele><time>2026-04-26T17:43:33.054Z</time></trkpt><trkpt lat="38.0432363" lon="13.4471517"><ele>250.66666666666669</ele><time>2026-04-26T17:43:34.053Z</time></trkpt><trkpt lat="38.04332" lon="13.4473509"><ele>252.0</ele><time>2026-04-26T17:43:35.053Z</time></trkpt><trkpt lat="38.0433945" lon="13.4475368"><ele>252.0</ele><time>2026-04-26T17:43:36.053Z</time></trkpt><trkpt lat="38.0434622" lon="13.4477084"><ele>252.0</ele><time>2026-04-26T17:43:37.054Z</time></trkpt><trkpt lat="38.0435236" lon="13.4478753"><ele>252.0</ele><time>2026-04-26T17:43:38.053Z</time></trkpt><trkpt lat="38.0435851" lon="13.4480322"><ele>252.0</ele><time>2026-04-26T17:43:39.053Z</time></trkpt><trkpt lat="38.0436439" lon="13.4481761"><ele>253.33333333333331</ele><time>2026-04-26T17:43:40.053Z</time></trkpt><trkpt lat="38.0437261" lon="13.4483102"><ele>254.66666666666666</ele><time>2026-04-26T17:43:41.053Z</time></trkpt><trkpt lat="38.0438332" lon="13.4484428"><ele>256.0</ele><time>2026-04-26T17:43:42.053Z</time></trkpt><trkpt lat="38.0439607" lon="13.4485786"><ele>256.0</ele><time>2026-04-26T17:43:43.053Z</time></trkpt><trkpt lat="38.0440967" lon="13.4487336"><ele>256.0</ele><time>2026-04-26T17:43:44.053Z</time></trkpt><trkpt lat="38.0442318" lon="13.4488939"><ele>256.0</ele><time>2026-04-26T17:43:45.053Z</time></trkpt><trkpt lat="38.0443723" lon="13.4490542"><ele>257.66666666666663</ele><time>2026-04-26T17:43:46.053Z</time></trkpt><trkpt lat="38.0445099" lon="13.4492087"><ele>259.3333333333333</ele><time>2026-04-26T17:43:47.053Z</time></trkpt><trkpt lat="38.0446407" lon="13.4493488"><ele>261.0</ele><time>2026-04-26T17:43:48.053Z</time></trkpt><trkpt lat="38.0447557" lon="13.44949"><ele>262.6666666666667</ele><time>2026-04-26T17:43:49.053Z</time></trkpt><trkpt lat="38.0448689" lon="13.4496318"><ele>264.33333333333337</ele><time>2026-04-26T17:43:50.053Z</time></trkpt><trkpt lat="38.0449844" lon="13.4497911"><ele>266.0</ele><time>2026-04-26T17:43:51.053Z</time></trkpt><trkpt lat="38.0450979" lon="13.4499508"><ele>266.0</ele><time>2026-04-26T17:43:52.053Z</time></trkpt><trkpt lat="38.0451944" lon="13.4501032"><ele>266.0</ele><time>2026-04-26T17:43:53.053Z</time></trkpt><trkpt lat="38.0452841" lon="13.4502537"><ele>266.0</ele><time>2026-04-26T17:43:54.053Z</time></trkpt><trkpt lat="38.0453739" lon="13.4504197"><ele>266.6666666666667</ele><time>2026-04-26T17:43:55.053Z</time></trkpt><trkpt lat="38.0454677" lon="13.4506002"><ele>267.3333333333333</ele><time>2026-04-26T17:43:56.053Z</time></trkpt><trkpt lat="38.0455561" lon="13.4507751"><ele>268.0</ele><time>2026-04-26T17:43:57.053Z</time></trkpt><trkpt lat="38.0456419" lon="13.4509475"><ele>268.0</ele><time>2026-04-26T17:43:58.054Z</time></trkpt><trkpt lat="38.0457214" lon="13.4511188"><ele>268.0</ele><time>2026-04-26T17:43:59.054Z</time></trkpt><trkpt lat="38.0457946" lon="13.4512835"><ele>268.0</ele><time>2026-04-26T17:44:00.054Z</time></trkpt><trkpt lat="38.0458689" lon="13.4514489"><ele>264.3333333333333</ele><time>2026-04-26T17:44:01.053Z</time></trkpt><trkpt lat="38.0459483" lon="13.4516115"><ele>260.6666666666667</ele><time>2026-04-26T17:44:02.053Z</time></trkpt><trkpt lat="38.0460307" lon="13.4517747"><ele>257.0</ele><time>2026-04-26T17:44:03.053Z</time></trkpt><trkpt lat="38.0461202" lon="13.45193"><ele>257.0</ele><time>2026-04-26T17:44:04.053Z</time></trkpt><trkpt lat="38.0462034" lon="13.4520781"><ele>257.0</ele><time>2026-04-26T17:44:05.053Z</time></trkpt><trkpt lat="38.0462732" lon="13.4522007"><ele>257.0</ele><time>2026-04-26T17:44:06.054Z</time></trkpt><trkpt lat="38.0463402" lon="13.4523135"><ele>257.0</ele><time>2026-04-26T17:44:07.053Z</time></trkpt><trkpt lat="38.0464046" lon="13.4524138"><ele>256.6</ele><time>2026-04-26T17:44:08.053Z</time></trkpt><trkpt lat="38.0464541" lon="13.4524907"><ele>256.2</ele><time>2026-04-26T17:44:09.053Z</time></trkpt><trkpt lat="38.0464999" lon="13.4525607"><ele>255.8</ele><time>2026-04-26T17:44:10.053Z</time></trkpt><trkpt lat="38.0465608" lon="13.4526375"><ele>255.4</ele><time>2026-04-26T17:44:11.053Z</time></trkpt><trkpt lat="38.0466372" lon="13.4527363"><ele>255.0</ele><time>2026-04-26T17:44:12.053Z</time></trkpt><trkpt lat="38.0467307" lon="13.4528704"><ele>251.5</ele><time>2026-04-26T17:44:13.053Z</time></trkpt><trkpt lat="38.0468284" lon="13.4530138"><ele>248.0</ele><time>2026-04-26T17:44:14.053Z</time></trkpt><trkpt lat="38.0469209" lon="13.4531617"><ele>244.5</ele><time>2026-04-26T17:44:15.053Z</time></trkpt><trkpt lat="38.047006" lon="13.4533041"><ele>241.0</ele><time>2026-04-26T17:44:16.053Z</time></trkpt><trkpt lat="38.0470879" lon="13.4534454"><ele>241.0</ele><time>2026-04-26T17:44:17.053Z</time></trkpt><trkpt lat="38.0471686" lon="13.4535847"><ele>241.0</ele><time>2026-04-26T17:44:18.053Z</time></trkpt><trkpt lat="38.0472434" lon="13.453713"><ele>241.0</ele><time>2026-04-26T17:44:19.053Z</time></trkpt><trkpt lat="38.0473133" lon="13.453826"><ele>241.0</ele><time>2026-04-26T17:44:20.053Z</time></trkpt><trkpt lat="38.047375" lon="13.4539243"><ele>239.20000000000002</ele><time>2026-04-26T17:44:21.053Z</time></trkpt><trkpt lat="38.0474318" lon="13.4540198"><ele>237.40000000000003</ele><time>2026-04-26T17:44:22.053Z</time></trkpt><trkpt lat="38.0474804" lon="13.4541234"><ele>235.6</ele><time>2026-04-26T17:44:23.053Z</time></trkpt><trkpt lat="38.0475275" lon="13.4542267"><ele>233.8</ele><time>2026-04-26T17:44:24.054Z</time></trkpt><trkpt lat="38.0475698" lon="13.454336"><ele>232.0</ele><time>2026-04-26T17:44:25.053Z</time></trkpt><trkpt lat="38.0476096" lon="13.4544402"><ele>230.8</ele><time>2026-04-26T17:44:26.053Z</time></trkpt><trkpt lat="38.04765" lon="13.4545448"><ele>229.6</ele><time>2026-04-26T17:44:27.053Z</time></trkpt><trkpt lat="38.0476873" lon="13.4546471"><ele>228.40000000000003</ele><time>2026-04-26T17:44:28.053Z</time></trkpt><trkpt lat="38.0477273" lon="13.4547514"><ele>227.20000000000002</ele><time>2026-04-26T17:44:29.053Z</time></trkpt><trkpt lat="38.0477685" lon="13.4548559"><ele>226.0</ele><time>2026-04-26T17:44:30.053Z</time></trkpt><trkpt lat="38.0478054" lon="13.4549558"><ele>223.8</ele><time>2026-04-26T17:44:31.054Z</time></trkpt><trkpt lat="38.0478456" lon="13.4550549"><ele>221.60000000000002</ele><time>2026-04-26T17:44:32.054Z</time></trkpt><trkpt lat="38.0478865" lon="13.455166"><ele>219.4</ele><time>2026-04-26T17:44:33.053Z</time></trkpt><trkpt lat="38.0479353" lon="13.455285"><ele>217.2</ele><time>2026-04-26T17:44:34.053Z</time></trkpt><trkpt lat="38.0479922" lon="13.4554122"><ele>215.0</ele><time>2026-04-26T17:44:35.054Z</time></trkpt><trkpt lat="38.0480626" lon="13.4555313"><ele>213.4</ele><time>2026-04-26T17:44:36.053Z</time></trkpt><trkpt lat="38.0481383" lon="13.4556422"><ele>211.8</ele><time>2026-04-26T17:44:37.054Z</time></trkpt><trkpt lat="38.0482153" lon="13.4557486"><ele>210.2</ele><time>2026-04-26T17:44:38.053Z</time></trkpt><trkpt lat="38.0482921" lon="13.4558521"><ele>208.6</ele><time>2026-04-26T17:44:39.053Z</time></trkpt><trkpt lat="38.0483588" lon="13.4559541"><ele>207.0</ele><time>2026-04-26T17:44:40.053Z</time></trkpt><trkpt lat="38.0484168" lon="13.45604"><ele>207.0</ele><time>2026-04-26T17:44:41.053Z</time></trkpt><trkpt lat="38.0484662" lon="13.4561164"><ele>207.0</ele><time>2026-04-26T17:44:42.053Z</time></trkpt><trkpt lat="38.0485132" lon="13.4561902"><ele>207.0</ele><time>2026-04-26T17:44:43.053Z</time></trkpt><trkpt lat="38.0485599" lon="13.4562708"><ele>207.0</ele><time>2026-04-26T17:44:44.053Z</time></trkpt><trkpt lat="38.0486049" lon="13.4563565"><ele>207.0</ele><time>2026-04-26T17:44:45.053Z</time></trkpt><trkpt lat="38.0486483" lon="13.4564494"><ele>207.0</ele><time>2026-04-26T17:44:46.053Z</time></trkpt><trkpt lat="38.0486893" lon="13.4565488"><ele>204.5</ele><time>2026-04-26T17:44:47.053Z</time></trkpt><trkpt lat="38.048728" lon="13.4566509"><ele>202.0</ele><time>2026-04-26T17:44:48.053Z</time></trkpt><trkpt lat="38.0487681" lon="13.4567569"><ele>199.5</ele><time>2026-04-26T17:44:49.053Z</time></trkpt><trkpt lat="38.0488195" lon="13.4568543"><ele>197.0</ele><time>2026-04-26T17:44:50.053Z</time></trkpt><trkpt lat="38.0488796" lon="13.4569336"><ele>194.5</ele><time>2026-04-26T17:44:51.053Z</time></trkpt><trkpt lat="38.0489487" lon="13.4570038"><ele>192.0</ele><time>2026-04-26T17:44:52.053Z</time></trkpt><trkpt lat="38.0490181" lon="13.457064"><ele>192.0</ele><time>2026-04-26T17:44:53.053Z</time></trkpt><trkpt lat="38.0490815" lon="13.4571121"><ele>192.0</ele><time>2026-04-26T17:44:54.053Z</time></trkpt><trkpt lat="38.049158" lon="13.4571724"><ele>192.0</ele><time>2026-04-26T17:44:56.053Z</time></trkpt><trkpt lat="38.0492352" lon="13.4572479"><ele>192.0</ele><time>2026-04-26T17:44:58.053Z</time></trkpt><trkpt lat="38.0492814" lon="13.4573091"><ele>192.0</ele><time>2026-04-26T17:44:59.053Z</time></trkpt><trkpt lat="38.04933" lon="13.4573862"><ele>192.0</ele><time>2026-04-26T17:45:00.053Z</time></trkpt><trkpt lat="38.0493943" lon="13.4574876"><ele>190.2</ele><time>2026-04-26T17:45:01.053Z</time></trkpt><trkpt lat="38.0494662" lon="13.4576018"><ele>188.39999999999998</ele><time>2026-04-26T17:45:02.053Z</time></trkpt><trkpt lat="38.0495344" lon="13.4577117"><ele>186.60000000000002</ele><time>2026-04-26T17:45:03.054Z</time></trkpt><trkpt lat="38.0496108" lon="13.4578032"><ele>184.8</ele><time>2026-04-26T17:45:04.054Z</time></trkpt><trkpt lat="38.0496903" lon="13.4578815"><ele>183.0</ele><time>2026-04-26T17:45:05.053Z</time></trkpt><trkpt lat="38.049772" lon="13.4579468"><ele>182.8</ele><time>2026-04-26T17:45:06.053Z</time></trkpt><trkpt lat="38.0498466" lon="13.4580083"><ele>182.60000000000002</ele><time>2026-04-26T17:45:07.053Z</time></trkpt><trkpt lat="38.0499234" lon="13.4580831"><ele>182.39999999999998</ele><time>2026-04-26T17:45:08.054Z</time></trkpt><trkpt lat="38.0499987" lon="13.4581696"><ele>182.2</ele><time>2026-04-26T17:45:09.053Z</time></trkpt><trkpt lat="38.0500732" lon="13.4582653"><ele>182.0</ele><time>2026-04-26T17:45:10.053Z</time></trkpt><trkpt lat="38.0501458" lon="13.4583501"><ele>182.0</ele><time>2026-04-26T17:45:11.054Z</time></trkpt><trkpt lat="38.0502246" lon="13.4584317"><ele>182.0</ele><time>2026-04-26T17:45:12.054Z</time></trkpt><trkpt lat="38.0503065" lon="13.4585116"><ele>182.0</ele><time>2026-04-26T17:45:13.054Z</time></trkpt><trkpt lat="38.0503873" lon="13.458585"><ele>182.0</ele><time>2026-04-26T17:45:14.053Z</time></trkpt><trkpt lat="38.0504657" lon="13.4586581"><ele>182.0</ele><time>2026-04-26T17:45:15.053Z</time></trkpt><trkpt lat="38.0505482" lon="13.4587249"><ele>182.0</ele><time>2026-04-26T17:45:16.053Z</time></trkpt><trkpt lat="38.0506316" lon="13.4587801"><ele>182.0</ele><time>2026-04-26T17:45:17.053Z</time></trkpt><trkpt lat="38.0507173" lon="13.4588258"><ele>182.0</ele><time>2026-04-26T17:45:18.053Z</time></trkpt><trkpt lat="38.0508024" lon="13.4588721"><ele>182.0</ele><time>2026-04-26T17:45:19.053Z</time></trkpt><trkpt lat="38.0508773" lon="13.4589202"><ele>182.0</ele><time>2026-04-26T17:45:20.053Z</time></trkpt><trkpt lat="38.0509329" lon="13.4589661"><ele>182.0</ele><time>2026-04-26T17:45:21.053Z</time></trkpt><trkpt lat="38.0509961" lon="13.4590155"><ele>179.8</ele><time>2026-04-26T17:45:23.053Z</time></trkpt><trkpt lat="38.0510909" lon="13.4590649"><ele>177.6</ele><time>2026-04-26T17:45:28.053Z</time></trkpt><trkpt lat="38.0511535" lon="13.4590841"><ele>175.4</ele><time>2026-04-26T17:45:29.053Z</time></trkpt><trkpt lat="38.0512292" lon="13.4591415"><ele>173.20000000000002</ele><time>2026-04-26T17:45:30.053Z</time></trkpt><trkpt lat="38.0513165" lon="13.4592059"><ele>171.0</ele><time>2026-04-26T17:45:31.054Z</time></trkpt><trkpt lat="38.0514171" lon="13.4592719"><ele>171.0</ele><time>2026-04-26T17:45:32.053Z</time></trkpt><trkpt lat="38.0515309" lon="13.4593502"><ele>171.0</ele><time>2026-04-26T17:45:33.053Z</time></trkpt><trkpt lat="38.0516412" lon="13.4594427"><ele>171.0</ele><time>2026-04-26T17:45:34.053Z</time></trkpt><trkpt lat="38.0517441" lon="13.4595364"><ele>171.0</ele><time>2026-04-26T17:45:35.054Z</time></trkpt><trkpt lat="38.0518429" lon="13.4596266"><ele>167.5</ele><time>2026-04-26T17:45:36.053Z</time></trkpt><trkpt lat="38.0519408" lon="13.4597158"><ele>164.0</ele><time>2026-04-26T17:45:37.053Z</time></trkpt><trkpt lat="38.0520405" lon="13.4598049"><ele>160.5</ele><time>2026-04-26T17:45:38.053Z</time></trkpt><trkpt lat="38.0521496" lon="13.4598958"><ele>157.0</ele><time>2026-04-26T17:45:39.053Z</time></trkpt><trkpt lat="38.0522642" lon="13.4599899"><ele>157.0</ele><time>2026-04-26T17:45:40.053Z</time></trkpt><trkpt lat="38.0523758" lon="13.460086"><ele>157.0</ele><time>2026-04-26T17:45:41.053Z</time></trkpt><trkpt lat="38.0524803" lon="13.4601767"><ele>157.0</ele><time>2026-04-26T17:45:42.053Z</time></trkpt><trkpt lat="38.0525777" lon="13.4602514"><ele>157.0</ele><time>2026-04-26T17:45:43.053Z</time></trkpt><trkpt lat="38.0526721" lon="13.4603152"><ele>158.39999999999998</ele><time>2026-04-26T17:45:44.053Z</time></trkpt><trkpt lat="38.0527631" lon="13.4603813"><ele>159.79999999999998</ele><time>2026-04-26T17:45:45.053Z</time></trkpt><trkpt lat="38.0528435" lon="13.4604469"><ele>161.2</ele><time>2026-04-26T17:45:46.053Z</time></trkpt><trkpt lat="38.0529123" lon="13.4605005"><ele>162.6</ele><time>2026-04-26T17:45:47.053Z</time></trkpt><trkpt lat="38.0529921" lon="13.4605666"><ele>164.0</ele><time>2026-04-26T17:45:49.053Z</time></trkpt><trkpt lat="38.053095" lon="13.4606299"><ele>161.83333333333331</ele><time>2026-04-26T17:45:59.053Z</time></trkpt><trkpt lat="38.0531667" lon="13.4606849"><ele>159.66666666666666</ele><time>2026-04-26T17:46:01.053Z</time></trkpt><trkpt lat="38.0532659" lon="13.4607869"><ele>157.5</ele><time>2026-04-26T17:46:03.053Z</time></trkpt><trkpt lat="38.0533177" lon="13.4608519"><ele>155.33333333333334</ele><time>2026-04-26T17:46:04.053Z</time></trkpt><trkpt lat="38.0533637" lon="13.4609189"><ele>153.16666666666669</ele><time>2026-04-26T17:46:05.053Z</time></trkpt><trkpt lat="38.0534045" lon="13.460984"><ele>151.0</ele><time>2026-04-26T17:46:06.053Z</time></trkpt><trkpt lat="38.0534914" lon="13.4611046"><ele>151.0</ele><time>2026-04-26T17:46:08.053Z</time></trkpt><trkpt lat="38.0535515" lon="13.4611572"><ele>151.0</ele><time>2026-04-26T17:46:09.053Z</time></trkpt><trkpt lat="38.0536201" lon="13.4612044"><ele>151.0</ele><time>2026-04-26T17:46:10.053Z</time></trkpt><trkpt lat="38.0536834" lon="13.461244"><ele>151.0</ele><time>2026-04-26T17:46:11.053Z</time></trkpt><trkpt lat="38.0537777" lon="13.461314"><ele>151.0</ele><time>2026-04-26T17:46:13.054Z</time></trkpt><trkpt lat="38.0539262" lon="13.4614155"><ele>149.2</ele><time>2026-04-26T17:46:35.053Z</time></trkpt><trkpt lat="38.0539968" lon="13.4614398"><ele>147.39999999999998</ele><time>2026-04-26T17:46:36.053Z</time></trkpt><trkpt lat="38.0540766" lon="13.4614588"><ele>145.6</ele><time>2026-04-26T17:46:37.054Z</time></trkpt><trkpt lat="38.0541602" lon="13.4614745"><ele>143.79999999999998</ele><time>2026-04-26T17:46:38.054Z</time></trkpt><trkpt lat="38.0542577" lon="13.461503"><ele>142.0</ele><time>2026-04-26T17:46:39.053Z</time></trkpt><trkpt lat="38.0543822" lon="13.461541"><ele>142.0</ele><time>2026-04-26T17:46:40.053Z</time></trkpt><trkpt lat="38.0545327" lon="13.4615817"><ele>142.0</ele><time>2026-04-26T17:46:41.053Z</time></trkpt><trkpt lat="38.054694" lon="13.4616245"><ele>142.0</ele><time>2026-04-26T17:46:42.053Z</time></trkpt><trkpt lat="38.0548534" lon="13.4616711"><ele>143.25</ele><time>2026-04-26T17:46:43.053Z</time></trkpt><trkpt lat="38.0549992" lon="13.4617129"><ele>144.5</ele><time>2026-04-26T17:46:44.053Z</time></trkpt><trkpt lat="38.0551387" lon="13.461742"><ele>145.75</ele><time>2026-04-26T17:46:45.054Z</time></trkpt><trkpt lat="38.0552776" lon="13.4617463"><ele>147.0</ele><time>2026-04-26T17:46:46.054Z</time></trkpt><trkpt lat="38.0554185" lon="13.461722"><ele>147.0</ele><time>2026-04-26T17:46:47.053Z</time></trkpt><trkpt lat="38.0555607" lon="13.4616747"><ele>147.0</ele><time>2026-04-26T17:46:48.053Z</time></trkpt><trkpt lat="38.0556892" lon="13.4616044"><ele>147.0</ele><time>2026-04-26T17:46:49.053Z</time></trkpt><trkpt lat="38.0558027" lon="13.4615273"><ele>147.0</ele><time>2026-04-26T17:46:50.054Z</time></trkpt><trkpt lat="38.0559156" lon="13.461438"><ele>147.5</ele><time>2026-04-26T17:46:51.053Z</time></trkpt><trkpt lat="38.0560159" lon="13.4613461"><ele>148.0</ele><time>2026-04-26T17:46:52.053Z</time></trkpt><trkpt lat="38.0561145" lon="13.4612469"><ele>148.5</ele><time>2026-04-26T17:46:53.053Z</time></trkpt><trkpt lat="38.0562279" lon="13.4611552"><ele>149.0</ele><time>2026-04-26T17:46:54.054Z</time></trkpt><trkpt lat="38.0563506" lon="13.4610772"><ele>150.25</ele><time>2026-04-26T17:46:55.053Z</time></trkpt><trkpt lat="38.0564931" lon="13.4610254"><ele>151.5</ele><time>2026-04-26T17:46:56.053Z</time></trkpt><trkpt lat="38.0566387" lon="13.4610057"><ele>152.75</ele><time>2026-04-26T17:46:57.053Z</time></trkpt><trkpt lat="38.0567853" lon="13.4610096"><ele>154.0</ele><time>2026-04-26T17:46:58.053Z</time></trkpt><trkpt lat="38.0569285" lon="13.4610427"><ele>154.0</ele><time>2026-04-26T17:46:59.053Z</time></trkpt><trkpt lat="38.0570749" lon="13.4611139"><ele>154.0</ele><time>2026-04-26T17:47:00.053Z</time></trkpt><trkpt lat="38.0572145" lon="13.4612062"><ele>154.0</ele><time>2026-04-26T17:47:01.053Z</time></trkpt><trkpt lat="38.0573475" lon="13.4613018"><ele>150.66666666666669</ele><time>2026-04-26T17:47:02.054Z</time></trkpt><trkpt lat="38.0574794" lon="13.4613939"><ele>147.33333333333334</ele><time>2026-04-26T17:47:03.054Z</time></trkpt><trkpt lat="38.0576245" lon="13.4614724"><ele>144.0</ele><time>2026-04-26T17:47:04.053Z</time></trkpt><trkpt lat="38.0577755" lon="13.4615258"><ele>144.0</ele><time>2026-04-26T17:47:05.053Z</time></trkpt><trkpt lat="38.0579355" lon="13.4615455"><ele>144.0</ele><time>2026-04-26T17:47:06.053Z</time></trkpt><trkpt lat="38.0580938" lon="13.4615441"><ele>144.0</ele><time>2026-04-26T17:47:07.053Z</time></trkpt><trkpt lat="38.0582524" lon="13.4615349"><ele>146.33333333333334</ele><time>2026-04-26T17:47:08.053Z</time></trkpt><trkpt lat="38.0584197" lon="13.4615206"><ele>148.66666666666669</ele><time>2026-04-26T17:47:09.053Z</time></trkpt><trkpt lat="38.0586014" lon="13.4615016"><ele>151.0</ele><time>2026-04-26T17:47:10.053Z</time></trkpt><trkpt lat="38.0587857" lon="13.4614838"><ele>151.0</ele><time>2026-04-26T17:47:11.053Z</time></trkpt><trkpt lat="38.058965" lon="13.461464"><ele>151.0</ele><time>2026-04-26T17:47:12.053Z</time></trkpt><trkpt lat="38.0591349" lon="13.4614274"><ele>151.0</ele><time>2026-04-26T17:47:13.053Z</time></trkpt><trkpt lat="38.0593005" lon="13.4613877"><ele>151.0</ele><time>2026-04-26T17:47:14.053Z</time></trkpt><trkpt lat="38.0594697" lon="13.461339"><ele>151.0</ele><time>2026-04-26T17:47:15.053Z</time></trkpt><trkpt lat="38.0596464" lon="13.4612875"><ele>151.0</ele><time>2026-04-26T17:47:16.053Z</time></trkpt><trkpt lat="38.0598257" lon="13.4612326"><ele>153.0</ele><time>2026-04-26T17:47:17.053Z</time></trkpt><trkpt lat="38.0600137" lon="13.461172"><ele>155.0</ele><time>2026-04-26T17:47:18.053Z</time></trkpt><trkpt lat="38.0601993" lon="13.4611082"><ele>157.0</ele><time>2026-04-26T17:47:19.054Z</time></trkpt><trkpt lat="38.0603815" lon="13.4610392"><ele>157.0</ele><time>2026-04-26T17:47:20.053Z</time></trkpt><trkpt lat="38.06056" lon="13.4609612"><ele>157.0</ele><time>2026-04-26T17:47:21.053Z</time></trkpt><trkpt lat="38.060733" lon="13.4608838"><ele>157.0</ele><time>2026-04-26T17:47:22.054Z</time></trkpt><trkpt lat="38.0609047" lon="13.460802"><ele>157.0</ele><time>2026-04-26T17:47:23.053Z</time></trkpt><trkpt lat="38.0610772" lon="13.4607161"><ele>157.0</ele><time>2026-04-26T17:47:24.053Z</time></trkpt><trkpt lat="38.0612452" lon="13.4606329"><ele>157.0</ele><time>2026-04-26T17:47:25.053Z</time></trkpt><trkpt lat="38.0614117" lon="13.4605536"><ele>157.0</ele><time>2026-04-26T17:47:26.053Z</time></trkpt><trkpt lat="38.0615752" lon="13.4604749"><ele>157.0</ele><time>2026-04-26T17:47:27.053Z</time></trkpt><trkpt lat="38.0617312" lon="13.4604027"><ele>157.0</ele><time>2026-04-26T17:47:28.053Z</time></trkpt><trkpt lat="38.061882" lon="13.4603334"><ele>154.33333333333334</ele><time>2026-04-26T17:47:29.053Z</time></trkpt><trkpt lat="38.0620266" lon="13.4602663"><ele>151.66666666666666</ele><time>2026-04-26T17:47:30.053Z</time></trkpt><trkpt lat="38.0621682" lon="13.4601992"><ele>149.0</ele><time>2026-04-26T17:47:31.054Z</time></trkpt><trkpt lat="38.06231" lon="13.460133"><ele>149.66666666666666</ele><time>2026-04-26T17:47:32.053Z</time></trkpt><trkpt lat="38.0624525" lon="13.4600681"><ele>150.33333333333334</ele><time>2026-04-26T17:47:33.053Z</time></trkpt><trkpt lat="38.0625953" lon="13.460008"><ele>151.0</ele><time>2026-04-26T17:47:34.053Z</time></trkpt><trkpt lat="38.0627432" lon="13.45995"><ele>151.0</ele><time>2026-04-26T17:47:35.054Z</time></trkpt><trkpt lat="38.0629094" lon="13.4598866"><ele>151.0</ele><time>2026-04-26T17:47:36.053Z</time></trkpt><trkpt lat="38.0631016" lon="13.4598184"><ele>151.0</ele><time>2026-04-26T17:47:37.054Z</time></trkpt><trkpt lat="38.0633163" lon="13.459752"><ele>150.5</ele><time>2026-04-26T17:47:38.054Z</time></trkpt><trkpt lat="38.0635493" lon="13.4596633"><ele>150.0</ele><time>2026-04-26T17:47:39.053Z</time></trkpt><trkpt lat="38.0637772" lon="13.4595952"><ele>148.0</ele><time>2026-04-26T17:47:40.053Z</time></trkpt><trkpt lat="38.0640004" lon="13.4595216"><ele>146.0</ele><time>2026-04-26T17:47:41.054Z</time></trkpt><trkpt lat="38.064211" lon="13.4594552"><ele>144.0</ele><time>2026-04-26T17:47:42.053Z</time></trkpt><trkpt lat="38.0644114" lon="13.4593983"><ele>142.33333333333334</ele><time>2026-04-26T17:47:43.053Z</time></trkpt><trkpt lat="38.064609" lon="13.4593315"><ele>140.66666666666669</ele><time>2026-04-26T17:47:44.053Z</time></trkpt><trkpt lat="38.0647941" lon="13.4592761"><ele>139.0</ele><time>2026-04-26T17:47:45.053Z</time></trkpt><trkpt lat="38.0649782" lon="13.4592228"><ele>138.0</ele><time>2026-04-26T17:47:46.053Z</time></trkpt><trkpt lat="38.0651565" lon="13.459172"><ele>137.0</ele><time>2026-04-26T17:47:47.053Z</time></trkpt><trkpt lat="38.0653312" lon="13.4591163"><ele>136.0</ele><time>2026-04-26T17:47:48.053Z</time></trkpt><trkpt lat="38.0655084" lon="13.4590622"><ele>136.0</ele><time>2026-04-26T17:47:49.053Z</time></trkpt><trkpt lat="38.0656912" lon="13.4590083"><ele>136.0</ele><time>2026-04-26T17:47:50.053Z</time></trkpt><trkpt lat="38.0658795" lon="13.4589679"><ele>136.0</ele><time>2026-04-26T17:47:51.054Z</time></trkpt><trkpt lat="38.0660712" lon="13.4589252"><ele>133.66666666666669</ele><time>2026-04-26T17:47:52.053Z</time></trkpt><trkpt lat="38.0662666" lon="13.4588819"><ele>131.33333333333334</ele><time>2026-04-26T17:47:53.053Z</time></trkpt><trkpt lat="38.0664582" lon="13.458853"><ele>129.0</ele><time>2026-04-26T17:47:54.053Z</time></trkpt><trkpt lat="38.0666553" lon="13.4588351"><ele>126.0</ele><time>2026-04-26T17:47:55.053Z</time></trkpt><trkpt lat="38.0668325" lon="13.4588162"><ele>123.0</ele><time>2026-04-26T17:47:56.053Z</time></trkpt><trkpt lat="38.0670006" lon="13.4588022"><ele>120.0</ele><time>2026-04-26T17:47:57.054Z</time></trkpt><trkpt lat="38.067161" lon="13.4587902"><ele>119.0</ele><time>2026-04-26T17:47:58.053Z</time></trkpt><trkpt lat="38.0673092" lon="13.4587783"><ele>118.0</ele><time>2026-04-26T17:47:59.053Z</time></trkpt><trkpt lat="38.0674528" lon="13.4587619"><ele>117.0</ele><time>2026-04-26T17:48:00.053Z</time></trkpt><trkpt lat="38.0675893" lon="13.4587422"><ele>116.0</ele><time>2026-04-26T17:48:01.054Z</time></trkpt><trkpt lat="38.0677136" lon="13.4587216"><ele>115.19999999999999</ele><time>2026-04-26T17:48:02.053Z</time></trkpt><trkpt lat="38.0678326" lon="13.4587096"><ele>114.39999999999999</ele><time>2026-04-26T17:48:03.053Z</time></trkpt><trkpt lat="38.0679405" lon="13.4587076"><ele>113.6</ele><time>2026-04-26T17:48:04.053Z</time></trkpt><trkpt lat="38.0680484" lon="13.458699"><ele>112.8</ele><time>2026-04-26T17:48:05.054Z</time></trkpt><trkpt lat="38.0681538" lon="13.4586923"><ele>112.0</ele><time>2026-04-26T17:48:06.054Z</time></trkpt><trkpt lat="38.0682545" lon="13.4586793"><ele>111.16666666666667</ele><time>2026-04-26T17:48:07.053Z</time></trkpt><trkpt lat="38.0683424" lon="13.4586834"><ele>110.33333333333334</ele><time>2026-04-26T17:48:08.053Z</time></trkpt><trkpt lat="38.0684338" lon="13.458682"><ele>109.5</ele><time>2026-04-26T17:48:09.053Z</time></trkpt><trkpt lat="38.0685249" lon="13.458679"><ele>108.66666666666666</ele><time>2026-04-26T17:48:10.053Z</time></trkpt><trkpt lat="38.0686158" lon="13.4586646"><ele>107.83333333333333</ele><time>2026-04-26T17:48:11.053Z</time></trkpt><trkpt lat="38.0686995" lon="13.4586537"><ele>107.0</ele><time>2026-04-26T17:48:12.053Z</time></trkpt><trkpt lat="38.0687809" lon="13.4586416"><ele>106.99999999999999</ele><time>2026-04-26T17:48:13.053Z</time></trkpt><trkpt lat="38.06886" lon="13.4586423"><ele>107.0</ele><time>2026-04-26T17:48:14.053Z</time></trkpt><trkpt lat="38.0689428" lon="13.4586369"><ele>107.0</ele><time>2026-04-26T17:48:15.053Z</time></trkpt><trkpt lat="38.0690308" lon="13.4586324"><ele>107.0</ele><time>2026-04-26T17:48:16.053Z</time></trkpt><trkpt lat="38.0691279" lon="13.4586185"><ele>106.99999999999999</ele><time>2026-04-26T17:48:17.053Z</time></trkpt><trkpt lat="38.0692202" lon="13.4585807"><ele>107.0</ele><time>2026-04-26T17:48:18.053Z</time></trkpt><trkpt lat="38.0693086" lon="13.4585287"><ele>106.25</ele><time>2026-04-26T17:48:19.053Z</time></trkpt><trkpt lat="38.0694032" lon="13.4584702"><ele>105.5</ele><time>2026-04-26T17:48:20.053Z</time></trkpt><trkpt lat="38.0694993" lon="13.4583879"><ele>104.75</ele><time>2026-04-26T17:48:21.053Z</time></trkpt><trkpt lat="38.0695866" lon="13.458292"><ele>104.0</ele><time>2026-04-26T17:48:22.053Z</time></trkpt><trkpt lat="38.069666" lon="13.4581879"><ele>104.0</ele><time>2026-04-26T17:48:23.053Z</time></trkpt><trkpt lat="38.0697434" lon="13.4580816"><ele>104.0</ele><time>2026-04-26T17:48:24.053Z</time></trkpt><trkpt lat="38.0698281" lon="13.4579769"><ele>104.0</ele><time>2026-04-26T17:48:25.053Z</time></trkpt><trkpt lat="38.0699218" lon="13.457864"><ele>104.0</ele><time>2026-04-26T17:48:26.053Z</time></trkpt><trkpt lat="38.0700227" lon="13.4577459"><ele>102.0</ele><time>2026-04-26T17:48:27.053Z</time></trkpt><trkpt lat="38.0701231" lon="13.4576212"><ele>100.0</ele><time>2026-04-26T17:48:28.053Z</time></trkpt><trkpt lat="38.0702299" lon="13.4574714"><ele>98.0</ele><time>2026-04-26T17:48:29.053Z</time></trkpt><trkpt lat="38.0703434" lon="13.4573286"><ele>98.0</ele><time>2026-04-26T17:48:30.053Z</time></trkpt><trkpt lat="38.0704471" lon="13.4571922"><ele>98.0</ele><time>2026-04-26T17:48:31.054Z</time></trkpt><trkpt lat="38.0705446" lon="13.4570807"><ele>98.0</ele><time>2026-04-26T17:48:32.053Z</time></trkpt><trkpt lat="38.0706264" lon="13.4569704"><ele>98.0</ele><time>2026-04-26T17:48:33.053Z</time></trkpt><trkpt lat="38.0707009" lon="13.4568815"><ele>97.0</ele><time>2026-04-26T17:48:34.053Z</time></trkpt><trkpt lat="38.0707744" lon="13.4567959"><ele>96.0</ele><time>2026-04-26T17:48:35.053Z</time></trkpt><trkpt lat="38.0708498" lon="13.456715"><ele>95.0</ele><time>2026-04-26T17:48:36.053Z</time></trkpt><trkpt lat="38.0709217" lon="13.4566305"><ele>94.0</ele><time>2026-04-26T17:48:37.053Z</time></trkpt><trkpt lat="38.0709957" lon="13.456556"><ele>93.0</ele><time>2026-04-26T17:48:38.053Z</time></trkpt><trkpt lat="38.0710631" lon="13.4564715"><ele>93.0</ele><time>2026-04-26T17:48:39.053Z</time></trkpt><trkpt lat="38.0711264" lon="13.4563936"><ele>93.0</ele><time>2026-04-26T17:48:40.054Z</time></trkpt><trkpt lat="38.0711854" lon="13.456318"><ele>93.0</ele><time>2026-04-26T17:48:41.053Z</time></trkpt><trkpt lat="38.0712393" lon="13.4562466"><ele>93.0</ele><time>2026-04-26T17:48:42.053Z</time></trkpt><trkpt lat="38.0713008" lon="13.4561772"><ele>93.0</ele><time>2026-04-26T17:48:43.053Z</time></trkpt><trkpt lat="38.0713619" lon="13.4561006"><ele>93.0</ele><time>2026-04-26T17:48:44.053Z</time></trkpt><trkpt lat="38.0714187" lon="13.4560242"><ele>93.00000000000001</ele><time>2026-04-26T17:48:45.053Z</time></trkpt><trkpt lat="38.0714779" lon="13.4559508"><ele>93.0</ele><time>2026-04-26T17:48:46.053Z</time></trkpt><trkpt lat="38.0715338" lon="13.4558792"><ele>93.0</ele><time>2026-04-26T17:48:47.053Z</time></trkpt><trkpt lat="38.0715769" lon="13.45582"><ele>93.0</ele><time>2026-04-26T17:48:48.053Z</time></trkpt><trkpt lat="38.0716323" lon="13.4557607"><ele>93.0</ele><time>2026-04-26T17:48:50.053Z</time></trkpt><trkpt lat="38.0716992" lon="13.4557816"><ele>93.00000000000001</ele><time>2026-04-26T17:48:53.054Z</time></trkpt><trkpt lat="38.071748" lon="13.4558571"><ele>93.0</ele><time>2026-04-26T17:48:55.053Z</time></trkpt><trkpt lat="38.0717872" lon="13.4559202"><ele>91.83333333333333</ele><time>2026-04-26T17:48:56.054Z</time></trkpt><trkpt lat="38.0718283" lon="13.4560049"><ele>90.66666666666667</ele><time>2026-04-26T17:48:57.053Z</time></trkpt><trkpt lat="38.0718747" lon="13.4560887"><ele>89.5</ele><time>2026-04-26T17:48:58.053Z</time></trkpt><trkpt lat="38.0719242" lon="13.45619"><ele>88.33333333333334</ele><time>2026-04-26T17:48:59.053Z</time></trkpt><trkpt lat="38.0719742" lon="13.4562934"><ele>87.16666666666667</ele><time>2026-04-26T17:49:00.053Z</time></trkpt><trkpt lat="38.07202" lon="13.4563944"><ele>86.0</ele><time>2026-04-26T17:49:01.053Z</time></trkpt><trkpt lat="38.0720718" lon="13.4565011"><ele>85.8</ele><time>2026-04-26T17:49:02.053Z</time></trkpt><trkpt lat="38.0721223" lon="13.4566124"><ele>85.6</ele><time>2026-04-26T17:49:03.054Z</time></trkpt><trkpt lat="38.0721704" lon="13.4567154"><ele>85.4</ele><time>2026-04-26T17:49:04.053Z</time></trkpt><trkpt lat="38.072219" lon="13.456803"><ele>85.2</ele><time>2026-04-26T17:49:05.053Z</time></trkpt><trkpt lat="38.0722602" lon="13.456882"><ele>85.0</ele><time>2026-04-26T17:49:06.053Z</time></trkpt><trkpt lat="38.0723076" lon="13.4569939"><ele>85.0</ele><time>2026-04-26T17:49:08.053Z</time></trkpt><trkpt lat="38.0723438" lon="13.4570678"><ele>85.0</ele><time>2026-04-26T17:49:10.053Z</time></trkpt><trkpt lat="38.0723761" lon="13.4571589"><ele>85.0</ele><time>2026-04-26T17:49:12.053Z</time></trkpt><trkpt lat="38.0724157" lon="13.4572642"><ele>85.0</ele><time>2026-04-26T17:49:14.053Z</time></trkpt><trkpt lat="38.0724396" lon="13.45737"><ele>85.0</ele><time>2026-04-26T17:49:16.053Z</time></trkpt><trkpt lat="38.0724983" lon="13.4574196"><ele>85.0</ele><time>2026-04-26T17:49:18.054Z</time></trkpt><trkpt lat="38.0725959" lon="13.4573704"><ele>84.5</ele><time>2026-04-26T17:49:20.053Z</time></trkpt><trkpt lat="38.0726725" lon="13.4573099"><ele>84.0</ele><time>2026-04-26T17:49:21.053Z</time></trkpt><trkpt lat="38.0727406" lon="13.4572392"><ele>83.5</ele><time>2026-04-26T17:49:22.053Z</time></trkpt><trkpt lat="38.0728048" lon="13.4571824"><ele>83.0</ele><time>2026-04-26T17:49:23.053Z</time></trkpt><trkpt lat="38.0728754" lon="13.4571245"><ele>82.5</ele><time>2026-04-26T17:49:24.053Z</time></trkpt><trkpt lat="38.0729441" lon="13.4570668"><ele>82.0</ele><time>2026-04-26T17:49:25.053Z</time></trkpt><trkpt lat="38.0730058" lon="13.4570181"><ele>81.8</ele><time>2026-04-26T17:49:26.054Z</time></trkpt><trkpt lat="38.0730686" lon="13.4569737"><ele>81.6</ele><time>2026-04-26T17:49:27.053Z</time></trkpt><trkpt lat="38.0731229" lon="13.4569307"><ele>81.39999999999999</ele><time>2026-04-26T17:49:28.053Z</time></trkpt><trkpt lat="38.0732145" lon="13.456823"><ele>81.19999999999999</ele><time>2026-04-26T17:49:30.053Z</time></trkpt><trkpt lat="38.0732943" lon="13.4567289"><ele>81.0</ele><time>2026-04-26T17:49:32.053Z</time></trkpt><trkpt lat="38.0733601" lon="13.4566547"><ele>80.2</ele><time>2026-04-26T17:49:34.053Z</time></trkpt><trkpt lat="38.0734746" lon="13.4565954"><ele>79.39999999999999</ele><time>2026-04-26T17:49:36.053Z</time></trkpt><trkpt lat="38.0735466" lon="13.4565498"><ele>78.6</ele><time>2026-04-26T17:49:37.054Z</time></trkpt><trkpt lat="38.0736307" lon="13.456506"><ele>77.8</ele><time>2026-04-26T17:49:38.053Z</time></trkpt><trkpt lat="38.0737165" lon="13.4564606"><ele>77.0</ele><time>2026-04-26T17:49:39.053Z</time></trkpt><trkpt lat="38.0738092" lon="13.4564224"><ele>77.0</ele><time>2026-04-26T17:49:40.053Z</time></trkpt><trkpt lat="38.0738972" lon="13.4563877"><ele>77.0</ele><time>2026-04-26T17:49:41.053Z</time></trkpt><trkpt lat="38.0739728" lon="13.4563507"><ele>77.0</ele><time>2026-04-26T17:49:42.054Z</time></trkpt><trkpt lat="38.0740395" lon="13.4563074"><ele>77.0</ele><time>2026-04-26T17:49:43.053Z</time></trkpt><trkpt lat="38.0741005" lon="13.4562552"><ele>77.0</ele><time>2026-04-26T17:49:44.053Z</time></trkpt><trkpt lat="38.0741617" lon="13.456196"><ele>77.0</ele><time>2026-04-26T17:49:45.053Z</time></trkpt><trkpt lat="38.0742166" lon="13.4561312"><ele>76.16666666666667</ele><time>2026-04-26T17:49:46.053Z</time></trkpt><trkpt lat="38.0742677" lon="13.4560676"><ele>75.33333333333334</ele><time>2026-04-26T17:49:47.053Z</time></trkpt><trkpt lat="38.0743134" lon="13.4560041"><ele>74.5</ele><time>2026-04-26T17:49:48.053Z</time></trkpt><trkpt lat="38.0743618" lon="13.4559455"><ele>73.66666666666667</ele><time>2026-04-26T17:49:49.053Z</time></trkpt><trkpt lat="38.0744332" lon="13.4558525"><ele>72.83333333333333</ele><time>2026-04-26T17:49:51.053Z</time></trkpt><trkpt lat="38.0744751" lon="13.4557893"><ele>72.0</ele><time>2026-04-26T17:49:53.053Z</time></trkpt><trkpt lat="38.0746018" lon="13.4555966"><ele>72.0</ele><time>2026-04-26T17:50:15.053Z</time></trkpt><trkpt lat="38.0746597" lon="13.4555163"><ele>72.0</ele><time>2026-04-26T17:50:16.053Z</time></trkpt><trkpt lat="38.0747443" lon="13.4554357"><ele>72.0</ele><time>2026-04-26T17:50:17.054Z</time></trkpt><trkpt lat="38.074847" lon="13.4553397"><ele>72.0</ele><time>2026-04-26T17:50:18.053Z</time></trkpt><trkpt lat="38.0749571" lon="13.4552494"><ele>70.0</ele><time>2026-04-26T17:50:19.053Z</time></trkpt><trkpt lat="38.0750587" lon="13.4551657"><ele>68.0</ele><time>2026-04-26T17:50:20.053Z</time></trkpt><trkpt lat="38.07517" lon="13.4550776"><ele>66.0</ele><time>2026-04-26T17:50:21.053Z</time></trkpt><trkpt lat="38.0753038" lon="13.4549682"><ele>64.0</ele><time>2026-04-26T17:50:22.053Z</time></trkpt><trkpt lat="38.0754518" lon="13.4548488"><ele>64.0</ele><time>2026-04-26T17:50:23.053Z</time></trkpt><trkpt lat="38.0756069" lon="13.4547254"><ele>64.0</ele><time>2026-04-26T17:50:24.053Z</time></trkpt><trkpt lat="38.0757523" lon="13.4546021"><ele>64.0</ele><time>2026-04-26T17:50:25.053Z</time></trkpt><trkpt lat="38.0758948" lon="13.4544838"><ele>64.0</ele><time>2026-04-26T17:50:26.053Z</time></trkpt><trkpt lat="38.0760345" lon="13.4543699"><ele>64.0</ele><time>2026-04-26T17:50:27.053Z</time></trkpt><trkpt lat="38.0761753" lon="13.4542559"><ele>64.0</ele><time>2026-04-26T17:50:28.053Z</time></trkpt><trkpt lat="38.0763189" lon="13.454139"><ele>64.0</ele><time>2026-04-26T17:50:29.053Z</time></trkpt><trkpt lat="38.0764596" lon="13.4540218"><ele>64.0</ele><time>2026-04-26T17:50:30.053Z</time></trkpt><trkpt lat="38.0766014" lon="13.4539038"><ele>64.0</ele><time>2026-04-26T17:50:31.053Z</time></trkpt><trkpt lat="38.0767436" lon="13.4537904"><ele>63.666666666666664</ele><time>2026-04-26T17:50:32.053Z</time></trkpt><trkpt lat="38.0768828" lon="13.4536761"><ele>63.33333333333333</ele><time>2026-04-26T17:50:33.053Z</time></trkpt><trkpt lat="38.077025" lon="13.4535612"><ele>63.0</ele><time>2026-04-26T17:50:34.053Z</time></trkpt><trkpt lat="38.0771683" lon="13.4534464"><ele>63.0</ele><time>2026-04-26T17:50:35.053Z</time></trkpt><trkpt lat="38.0773077" lon="13.4533273"><ele>63.0</ele><time>2026-04-26T17:50:36.053Z</time></trkpt><trkpt lat="38.0774416" lon="13.453207"><ele>63.0</ele><time>2026-04-26T17:50:37.053Z</time></trkpt><trkpt lat="38.0775722" lon="13.4530843"><ele>61.0</ele><time>2026-04-26T17:50:38.053Z</time></trkpt><trkpt lat="38.0776968" lon="13.4529605"><ele>59.0</ele><time>2026-04-26T17:50:39.053Z</time></trkpt><trkpt lat="38.0778175" lon="13.4528305"><ele>57.0</ele><time>2026-04-26T17:50:40.053Z</time></trkpt><trkpt lat="38.077937" lon="13.4526981"><ele>57.0</ele><time>2026-04-26T17:50:41.053Z</time></trkpt><trkpt lat="38.0780563" lon="13.4525584"><ele>57.0</ele><time>2026-04-26T17:50:42.053Z</time></trkpt><trkpt lat="38.0781718" lon="13.452413"><ele>57.0</ele><time>2026-04-26T17:50:43.053Z</time></trkpt><trkpt lat="38.0782852" lon="13.4522622"><ele>55.66666666666667</ele><time>2026-04-26T17:50:44.053Z</time></trkpt><trkpt lat="38.0783936" lon="13.4521087"><ele>54.333333333333336</ele><time>2026-04-26T17:50:45.053Z</time></trkpt><trkpt lat="38.0784969" lon="13.4519557"><ele>53.0</ele><time>2026-04-26T17:50:46.054Z</time></trkpt><trkpt lat="38.0785997" lon="13.4518055"><ele>53.0</ele><time>2026-04-26T17:50:47.053Z</time></trkpt><trkpt lat="38.0787007" lon="13.4516448"><ele>53.0</ele><time>2026-04-26T17:50:48.053Z</time></trkpt><trkpt lat="38.0787973" lon="13.4514787"><ele>53.0</ele><time>2026-04-26T17:50:49.053Z</time></trkpt><trkpt lat="38.0788911" lon="13.4513057"><ele>52.66666666666667</ele><time>2026-04-26T17:50:50.053Z</time></trkpt><trkpt lat="38.0789797" lon="13.451133"><ele>52.33333333333333</ele><time>2026-04-26T17:50:51.053Z</time></trkpt><trkpt lat="38.0790649" lon="13.4509599"><ele>52.0</ele><time>2026-04-26T17:50:52.053Z</time></trkpt><trkpt lat="38.079143" lon="13.4507862"><ele>51.0</ele><time>2026-04-26T17:50:53.053Z</time></trkpt><trkpt lat="38.0792136" lon="13.4506157"><ele>50.0</ele><time>2026-04-26T17:50:54.053Z</time></trkpt><trkpt lat="38.0792793" lon="13.4504466"><ele>49.0</ele><time>2026-04-26T17:50:55.053Z</time></trkpt><trkpt lat="38.07934" lon="13.4502819"><ele>48.0</ele><time>2026-04-26T17:50:56.054Z</time></trkpt><trkpt lat="38.0793969" lon="13.4501109"><ele>48.0</ele><time>2026-04-26T17:50:57.053Z</time></trkpt><trkpt lat="38.0794485" lon="13.4499374"><ele>48.0</ele><time>2026-04-26T17:50:58.053Z</time></trkpt><trkpt lat="38.0794935" lon="13.449756"><ele>48.0</ele><time>2026-04-26T17:50:59.053Z</time></trkpt><trkpt lat="38.0795413" lon="13.449573"><ele>48.0</ele><time>2026-04-26T17:51:00.053Z</time></trkpt><trkpt lat="38.0795881" lon="13.4493904"><ele>47.75</ele><time>2026-04-26T17:51:01.053Z</time></trkpt><trkpt lat="38.0796347" lon="13.4492161"><ele>47.5</ele><time>2026-04-26T17:51:02.053Z</time></trkpt><trkpt lat="38.0796787" lon="13.4490353"><ele>47.25</ele><time>2026-04-26T17:51:03.053Z</time></trkpt><trkpt lat="38.0797202" lon="13.4488617"><ele>47.0</ele><time>2026-04-26T17:51:04.053Z</time></trkpt><trkpt lat="38.0797641" lon="13.4486882"><ele>47.0</ele><time>2026-04-26T17:51:05.053Z</time></trkpt><trkpt lat="38.0798101" lon="13.4485123"><ele>47.0</ele><time>2026-04-26T17:51:06.053Z</time></trkpt><trkpt lat="38.0798572" lon="13.4483379"><ele>47.0</ele><time>2026-04-26T17:51:07.053Z</time></trkpt><trkpt lat="38.079898" lon="13.4481643"><ele>47.0</ele><time>2026-04-26T17:51:08.054Z</time></trkpt><trkpt lat="38.0799418" lon="13.4480033"><ele>46.5</ele><time>2026-04-26T17:51:09.053Z</time></trkpt><trkpt lat="38.0799859" lon="13.4478432"><ele>46.0</ele><time>2026-04-26T17:51:10.053Z</time></trkpt><trkpt lat="38.0800306" lon="13.4476789"><ele>45.5</ele><time>2026-04-26T17:51:11.053Z</time></trkpt><trkpt lat="38.080075" lon="13.4475105"><ele>45.0</ele><time>2026-04-26T17:51:12.053Z</time></trkpt><trkpt lat="38.0801238" lon="13.4473448"><ele>45.0</ele><time>2026-04-26T17:51:13.053Z</time></trkpt><trkpt lat="38.0801694" lon="13.4471783"><ele>45.0</ele><time>2026-04-26T17:51:14.053Z</time></trkpt><trkpt lat="38.0802106" lon="13.4470069"><ele>45.0</ele><time>2026-04-26T17:51:15.053Z</time></trkpt><trkpt lat="38.0802521" lon="13.4468236"><ele>45.0</ele><time>2026-04-26T17:51:16.053Z</time></trkpt><trkpt lat="38.0802936" lon="13.446636"><ele>44.333333333333336</ele><time>2026-04-26T17:51:17.053Z</time></trkpt><trkpt lat="38.0803301" lon="13.4464404"><ele>43.66666666666667</ele><time>2026-04-26T17:51:18.053Z</time></trkpt><trkpt lat="38.0803623" lon="13.446235"><ele>43.0</ele><time>2026-04-26T17:51:19.053Z</time></trkpt><trkpt lat="38.080383" lon="13.4460193"><ele>43.0</ele><time>2026-04-26T17:51:20.053Z</time></trkpt><trkpt lat="38.0804087" lon="13.4458027"><ele>43.0</ele><time>2026-04-26T17:51:21.053Z</time></trkpt><trkpt lat="38.0804293" lon="13.4455852"><ele>43.0</ele><time>2026-04-26T17:51:22.053Z</time></trkpt><trkpt lat="38.0804437" lon="13.445364"><ele>43.0</ele><time>2026-04-26T17:51:23.053Z</time></trkpt><trkpt lat="38.0804494" lon="13.4451491"><ele>43.0</ele><time>2026-04-26T17:51:24.053Z</time></trkpt><trkpt lat="38.080448" lon="13.4449398"><ele>43.0</ele><time>2026-04-26T17:51:25.053Z</time></trkpt><trkpt lat="38.0804423" lon="13.444731"><ele>42.66666666666667</ele><time>2026-04-26T17:51:26.053Z</time></trkpt><trkpt lat="38.0804316" lon="13.4445184"><ele>42.333333333333336</ele><time>2026-04-26T17:51:27.054Z</time></trkpt><trkpt lat="38.0804171" lon="13.4443026"><ele>42.0</ele><time>2026-04-26T17:51:28.053Z</time></trkpt><trkpt lat="38.0804034" lon="13.4440918"><ele>42.0</ele><time>2026-04-26T17:51:29.053Z</time></trkpt><trkpt lat="38.080391" lon="13.4438825"><ele>42.0</ele><time>2026-04-26T17:51:30.053Z</time></trkpt><trkpt lat="38.0803763" lon="13.4436774"><ele>42.0</ele><time>2026-04-26T17:51:31.053Z</time></trkpt><trkpt lat="38.0803636" lon="13.4434808"><ele>42.25</ele><time>2026-04-26T17:51:32.053Z</time></trkpt><trkpt lat="38.0803519" lon="13.4432913"><ele>42.5</ele><time>2026-04-26T17:51:33.054Z</time></trkpt><trkpt lat="38.0803419" lon="13.443105"><ele>42.75</ele><time>2026-04-26T17:51:34.054Z</time></trkpt><trkpt lat="38.0803306" lon="13.4429207"><ele>43.0</ele><time>2026-04-26T17:51:35.053Z</time></trkpt><trkpt lat="38.0803182" lon="13.4427361"><ele>42.75</ele><time>2026-04-26T17:51:36.053Z</time></trkpt><trkpt lat="38.0803051" lon="13.4425534"><ele>42.5</ele><time>2026-04-26T17:51:37.053Z</time></trkpt><trkpt lat="38.0802902" lon="13.4423744"><ele>42.25</ele><time>2026-04-26T17:51:38.053Z</time></trkpt><trkpt lat="38.080279" lon="13.4421953"><ele>42.0</ele><time>2026-04-26T17:51:39.053Z</time></trkpt><trkpt lat="38.0802682" lon="13.4420111"><ele>42.0</ele><time>2026-04-26T17:51:40.053Z</time></trkpt><trkpt lat="38.0802581" lon="13.4418191"><ele>42.0</ele><time>2026-04-26T17:51:41.053Z</time></trkpt><trkpt lat="38.0802484" lon="13.4416264"><ele>42.0</ele><time>2026-04-26T17:51:42.054Z</time></trkpt><trkpt lat="38.080237" lon="13.4414404"><ele>42.333333333333336</ele><time>2026-04-26T17:51:43.053Z</time></trkpt><trkpt lat="38.0802312" lon="13.4412525"><ele>42.66666666666667</ele><time>2026-04-26T17:51:44.053Z</time></trkpt><trkpt lat="38.0802269" lon="13.4410531"><ele>43.0</ele><time>2026-04-26T17:51:45.053Z</time></trkpt><trkpt lat="38.0802265" lon="13.4408409"><ele>43.0</ele><time>2026-04-26T17:51:46.053Z</time></trkpt><trkpt lat="38.0802415" lon="13.4406261"><ele>43.0</ele><time>2026-04-26T17:51:47.053Z</time></trkpt><trkpt lat="38.0802731" lon="13.4404117"><ele>43.0</ele><time>2026-04-26T17:51:48.053Z</time></trkpt><trkpt lat="38.0803191" lon="13.440213"><ele>43.333333333333336</ele><time>2026-04-26T17:51:49.053Z</time></trkpt><trkpt lat="38.080379" lon="13.4400139"><ele>43.666666666666664</ele><time>2026-04-26T17:51:50.053Z</time></trkpt><trkpt lat="38.0804525" lon="13.4398251"><ele>44.0</ele><time>2026-04-26T17:51:51.053Z</time></trkpt><trkpt lat="38.0805491" lon="13.4396479"><ele>45.0</ele><time>2026-04-26T17:51:52.053Z</time></trkpt><trkpt lat="38.0806598" lon="13.4394846"><ele>46.0</ele><time>2026-04-26T17:51:53.053Z</time></trkpt><trkpt lat="38.0807787" lon="13.4393247"><ele>47.0</ele><time>2026-04-26T17:51:54.053Z</time></trkpt><trkpt lat="38.0809075" lon="13.439185"><ele>44.666666666666664</ele><time>2026-04-26T17:51:55.054Z</time></trkpt><trkpt lat="38.0810415" lon="13.4390769"><ele>42.333333333333336</ele><time>2026-04-26T17:51:56.054Z</time></trkpt><trkpt lat="38.0811999" lon="13.4389825"><ele>40.0</ele><time>2026-04-26T17:51:57.053Z</time></trkpt><trkpt lat="38.081378" lon="13.4388889"><ele>40.0</ele><time>2026-04-26T17:51:58.054Z</time></trkpt><trkpt lat="38.0815591" lon="13.4388085"><ele>40.0</ele><time>2026-04-26T17:51:59.053Z</time></trkpt><trkpt lat="38.0817326" lon="13.4387404"><ele>40.0</ele><time>2026-04-26T17:52:00.053Z</time></trkpt><trkpt lat="38.0818951" lon="13.4386722"><ele>39.66666666666667</ele><time>2026-04-26T17:52:01.054Z</time></trkpt><trkpt lat="38.0820515" lon="13.4386137"><ele>39.333333333333336</ele><time>2026-04-26T17:52:02.053Z</time></trkpt><trkpt lat="38.082201" lon="13.4385637"><ele>39.0</ele><time>2026-04-26T17:52:03.053Z</time></trkpt><trkpt lat="38.0823389" lon="13.4385176"><ele>38.75</ele><time>2026-04-26T17:52:04.053Z</time></trkpt><trkpt lat="38.082478" lon="13.4384818"><ele>38.5</ele><time>2026-04-26T17:52:05.053Z</time></trkpt><trkpt lat="38.082608" lon="13.4384495"><ele>38.25</ele><time>2026-04-26T17:52:06.053Z</time></trkpt><trkpt lat="38.0827357" lon="13.4384153"><ele>38.0</ele><time>2026-04-26T17:52:07.053Z</time></trkpt><trkpt lat="38.0828636" lon="13.4383831"><ele>38.0</ele><time>2026-04-26T17:52:08.053Z</time></trkpt><trkpt lat="38.0829891" lon="13.4383652"><ele>38.0</ele><time>2026-04-26T17:52:09.053Z</time></trkpt><trkpt lat="38.0831105" lon="13.4383754"><ele>38.0</ele><time>2026-04-26T17:52:10.053Z</time></trkpt><trkpt lat="38.0832266" lon="13.4384264"><ele>38.0</ele><time>2026-04-26T17:52:11.053Z</time></trkpt><trkpt lat="38.0833287" lon="13.4385137"><ele>37.5</ele><time>2026-04-26T17:52:12.054Z</time></trkpt><trkpt lat="38.0833907" lon="13.4386243"><ele>37.0</ele><time>2026-04-26T17:52:13.053Z</time></trkpt><trkpt lat="38.0834271" lon="13.438762"><ele>36.5</ele><time>2026-04-26T17:52:14.053Z</time></trkpt><trkpt lat="38.0834369" lon="13.4389229"><ele>36.0</ele><time>2026-04-26T17:52:15.054Z</time></trkpt><trkpt lat="38.0834033" lon="13.4390796"><ele>36.0</ele><time>2026-04-26T17:52:16.053Z</time></trkpt><trkpt lat="38.0833245" lon="13.4392269"><ele>36.0</ele><time>2026-04-26T17:52:17.053Z</time></trkpt><trkpt lat="38.0832181" lon="13.4393237"><ele>36.0</ele><time>2026-04-26T17:52:18.053Z</time></trkpt><trkpt lat="38.0830867" lon="13.439366"><ele>36.0</ele><time>2026-04-26T17:52:19.053Z</time></trkpt><trkpt lat="38.0829532" lon="13.4393492"><ele>36.5</ele><time>2026-04-26T17:52:20.053Z</time></trkpt><trkpt lat="38.0828214" lon="13.4392898"><ele>37.0</ele><time>2026-04-26T17:52:21.053Z</time></trkpt><trkpt lat="38.0826959" lon="13.4391866"><ele>37.5</ele><time>2026-04-26T17:52:22.053Z</time></trkpt><trkpt lat="38.0825925" lon="13.4390643"><ele>38.0</ele><time>2026-04-26T17:52:23.054Z</time></trkpt><trkpt lat="38.0825138" lon="13.4389126"><ele>38.0</ele><time>2026-04-26T17:52:24.053Z</time></trkpt><trkpt lat="38.0824612" lon="13.4387753"><ele>38.0</ele><time>2026-04-26T17:52:25.053Z</time></trkpt><trkpt lat="38.0824219" lon="13.4386538"><ele>38.0</ele><time>2026-04-26T17:52:26.053Z</time></trkpt><trkpt lat="38.0823928" lon="13.4385424"><ele>38.0</ele><time>2026-04-26T17:52:27.053Z</time></trkpt><trkpt lat="38.0823672" lon="13.4384364"><ele>38.0</ele><time>2026-04-26T17:52:28.053Z</time></trkpt><trkpt lat="38.0823444" lon="13.4383352"><ele>38.166666666666664</ele><time>2026-04-26T17:52:29.053Z</time></trkpt><trkpt lat="38.0823211" lon="13.4382395"><ele>38.33333333333333</ele><time>2026-04-26T17:52:30.053Z</time></trkpt><trkpt lat="38.0823001" lon="13.4381436"><ele>38.5</ele><time>2026-04-26T17:52:31.053Z</time></trkpt><trkpt lat="38.0822808" lon="13.4380521"><ele>38.666666666666664</ele><time>2026-04-26T17:52:32.054Z</time></trkpt><trkpt lat="38.0822658" lon="13.4379617"><ele>38.833333333333336</ele><time>2026-04-26T17:52:33.053Z</time></trkpt><trkpt lat="38.0822521" lon="13.4378745"><ele>39.0</ele><time>2026-04-26T17:52:34.053Z</time></trkpt><trkpt lat="38.0822131" lon="13.4377295"><ele>39.166666666666664</ele><time>2026-04-26T17:52:36.053Z</time></trkpt><trkpt lat="38.082184" lon="13.4376022"><ele>39.333333333333336</ele><time>2026-04-26T17:52:38.053Z</time></trkpt><trkpt lat="38.0821569" lon="13.4374745"><ele>39.5</ele><time>2026-04-26T17:52:40.053Z</time></trkpt><trkpt lat="38.08214" lon="13.4373834"><ele>39.66666666666667</ele><time>2026-04-26T17:52:43.053Z</time></trkpt><trkpt lat="38.0820949" lon="13.4373154"><ele>39.833333333333336</ele><time>2026-04-26T17:52:47.054Z</time></trkpt><trkpt lat="38.0820872" lon="13.4372336"><ele>40.0</ele><time>2026-04-26T17:52:53.053Z</time></trkpt><trkpt lat="38.0820651" lon="13.4371398"><ele>40.0</ele><time>2026-04-26T17:53:32.053Z</time></trkpt><trkpt lat="38.0820395" lon="13.4370358"><ele>40.0</ele><time>2026-04-26T17:53:35.053Z</time></trkpt><trkpt lat="38.0820157" lon="13.4368977"><ele>40.0</ele><time>2026-04-26T17:54:00.053Z</time></trkpt><trkpt lat="38.0819991" lon="13.4368156"><ele>40.0</ele><time>2026-04-26T17:54:02.053Z</time></trkpt><trkpt lat="38.0819695" lon="13.4367269"><ele>40.0</ele><time>2026-04-26T17:54:11.054Z</time></trkpt><trkpt lat="38.0819399" lon="13.4366418"><ele>40.0</ele><time>2026-04-26T17:54:16.053Z</time></trkpt><trkpt lat="38.081922" lon="13.4365609"><ele>40.0</ele><time>2026-04-26T17:54:21.053Z</time></trkpt><trkpt lat="38.0819101" lon="13.4364776"><ele>40.0</ele><time>2026-04-26T17:54:35.053Z</time></trkpt><trkpt lat="38.081897" lon="13.4363938"><ele>40.0</ele><time>2026-04-26T17:54:42.053Z</time></trkpt><trkpt lat="38.0818671" lon="13.4363068"><ele>40.0</ele><time>2026-04-26T17:54:45.054Z</time></trkpt><trkpt lat="38.0818316" lon="13.4362269"><ele>40.0</ele><time>2026-04-26T17:54:48.053Z</time></trkpt><trkpt lat="38.0818046" lon="13.4361329"><ele>40.0</ele><time>2026-04-26T17:54:51.053Z</time></trkpt><trkpt lat="38.0817837" lon="13.436053"><ele>40.0</ele><time>2026-04-26T17:54:58.053Z</time></trkpt><trkpt lat="38.0817616" lon="13.4359747"><ele>40.2</ele><time>2026-04-26T17:55:03.053Z</time></trkpt><trkpt lat="38.0817246" lon="13.4358594"><ele>40.4</ele><time>2026-04-26T17:55:06.053Z</time></trkpt><trkpt lat="38.081697" lon="13.4357512"><ele>40.599999999999994</ele><time>2026-04-26T17:55:10.053Z</time></trkpt><trkpt lat="38.0816773" lon="13.4356346"><ele>40.8</ele><time>2026-04-26T17:55:12.053Z</time></trkpt><trkpt lat="38.0816463" lon="13.4355179"><ele>41.0</ele><time>2026-04-26T17:55:14.053Z</time></trkpt><trkpt lat="38.0816375" lon="13.4353708"><ele>41.5</ele><time>2026-04-26T17:55:16.054Z</time></trkpt><trkpt lat="38.0816396" lon="13.4352586"><ele>42.0</ele><time>2026-04-26T17:55:18.053Z</time></trkpt><trkpt lat="38.08161" lon="13.4351627"><ele>42.5</ele><time>2026-04-26T17:55:21.053Z</time></trkpt><trkpt lat="38.0815323" lon="13.4351213"><ele>43.0</ele><time>2026-04-26T17:55:24.053Z</time></trkpt><trkpt lat="38.0814262" lon="13.4351473"><ele>43.5</ele><time>2026-04-26T17:55:26.053Z</time></trkpt><trkpt lat="38.0813681" lon="13.4351817"><ele>44.0</ele><time>2026-04-26T17:55:27.053Z</time></trkpt><trkpt lat="38.0812786" lon="13.4352531"><ele>44.33333333333333</ele><time>2026-04-26T17:55:29.054Z</time></trkpt><trkpt lat="38.0811951" lon="13.4353202"><ele>44.666666666666664</ele><time>2026-04-26T17:55:31.053Z</time></trkpt><trkpt lat="38.0811419" lon="13.4353703"><ele>45.0</ele><time>2026-04-26T17:55:33.053Z</time></trkpt><trkpt lat="38.0811114" lon="13.4354466"><ele>45.333333333333336</ele><time>2026-04-26T17:55:36.053Z</time></trkpt><trkpt lat="38.0811407" lon="13.4355557"><ele>45.66666666666667</ele><time>2026-04-26T17:55:39.053Z</time></trkpt><trkpt lat="38.0811993" lon="13.4356159"><ele>46.0</ele><time>2026-04-26T17:55:41.052Z</time></trkpt><trkpt lat="38.0812558" lon="13.435652"><ele>46.16666666666667</ele><time>2026-04-26T17:55:42.052Z</time></trkpt><trkpt lat="38.0813195" lon="13.4357015"><ele>46.333333333333336</ele><time>2026-04-26T17:55:43.053Z</time></trkpt><trkpt lat="38.0813793" lon="13.4357708"><ele>46.5</ele><time>2026-04-26T17:55:44.052Z</time></trkpt><trkpt lat="38.081429" lon="13.4358683"><ele>46.666666666666664</ele><time>2026-04-26T17:55:45.053Z</time></trkpt><trkpt lat="38.0814732" lon="13.4359773"><ele>46.83333333333333</ele><time>2026-04-26T17:55:46.052Z</time></trkpt><trkpt lat="38.0815148" lon="13.436094"><ele>47.0</ele><time>2026-04-26T17:55:47.052Z</time></trkpt><trkpt lat="38.0815463" lon="13.4362041"><ele>46.6</ele><time>2026-04-26T17:55:48.052Z</time></trkpt><trkpt lat="38.0815757" lon="13.4363124"><ele>46.2</ele><time>2026-04-26T17:55:49.053Z</time></trkpt><trkpt lat="38.0816026" lon="13.4364279"><ele>45.8</ele><time>2026-04-26T17:55:50.052Z</time></trkpt><trkpt lat="38.081619" lon="13.4365518"><ele>45.4</ele><time>2026-04-26T17:55:51.053Z</time></trkpt><trkpt lat="38.0816215" lon="13.4366875"><ele>45.0</ele><time>2026-04-26T17:55:52.052Z</time></trkpt><trkpt lat="38.0816139" lon="13.436824"><ele>45.0</ele><time>2026-04-26T17:55:53.052Z</time></trkpt><trkpt lat="38.0816022" lon="13.436955"><ele>45.0</ele><time>2026-04-26T17:55:54.052Z</time></trkpt><trkpt lat="38.0815772" lon="13.4370806"><ele>45.0</ele><time>2026-04-26T17:55:55.052Z</time></trkpt><trkpt lat="38.0815426" lon="13.4372092"><ele>45.0</ele><time>2026-04-26T17:55:56.052Z</time></trkpt><trkpt lat="38.0815003" lon="13.4373298"><ele>45.0</ele><time>2026-04-26T17:55:57.052Z</time></trkpt><trkpt lat="38.0814545" lon="13.4374485"><ele>44.2</ele><time>2026-04-26T17:55:58.052Z</time></trkpt><trkpt lat="38.0814033" lon="13.4375609"><ele>43.4</ele><time>2026-04-26T17:55:59.052Z</time></trkpt><trkpt lat="38.0813519" lon="13.4376697"><ele>42.599999999999994</ele><time>2026-04-26T17:56:00.052Z</time></trkpt><trkpt lat="38.0813061" lon="13.4377771"><ele>41.8</ele><time>2026-04-26T17:56:01.052Z</time></trkpt><trkpt lat="38.0812596" lon="13.4378802"><ele>41.0</ele><time>2026-04-26T17:56:02.052Z</time></trkpt><trkpt lat="38.0812238" lon="13.4379677"><ele>41.4</ele><time>2026-04-26T17:56:03.052Z</time></trkpt><trkpt lat="38.0811819" lon="13.4380511"><ele>41.8</ele><time>2026-04-26T17:56:04.052Z</time></trkpt><trkpt lat="38.0811331" lon="13.4381667"><ele>42.199999999999996</ele><time>2026-04-26T17:56:05.052Z</time></trkpt><trkpt lat="38.0810731" lon="13.43829"><ele>42.599999999999994</ele><time>2026-04-26T17:56:06.052Z</time></trkpt><trkpt lat="38.080995" lon="13.4384513"><ele>43.0</ele><time>2026-04-26T17:56:07.052Z</time></trkpt><trkpt lat="38.0809023" lon="13.4386329"><ele>43.0</ele><time>2026-04-26T17:56:08.053Z</time></trkpt><trkpt lat="38.0808085" lon="13.4387906"><ele>43.0</ele><time>2026-04-26T17:56:09.052Z</time></trkpt><trkpt lat="38.0807366" lon="13.4389133"><ele>43.0</ele><time>2026-04-26T17:56:10.052Z</time></trkpt><trkpt lat="38.0806844" lon="13.4390062"><ele>43.0</ele><time>2026-04-26T17:56:11.052Z</time></trkpt><trkpt lat="38.0806423" lon="13.4390914"><ele>43.0</ele><time>2026-04-26T17:56:12.052Z</time></trkpt><trkpt lat="38.0805968" lon="13.4391867"><ele>43.16666666666667</ele><time>2026-04-26T17:56:13.052Z</time></trkpt><trkpt lat="38.0805433" lon="13.4392866"><ele>43.333333333333336</ele><time>2026-04-26T17:56:14.052Z</time></trkpt><trkpt lat="38.0804923" lon="13.4393715"><ele>43.5</ele><time>2026-04-26T17:56:15.053Z</time></trkpt><trkpt lat="38.0804488" lon="13.43945"><ele>43.666666666666664</ele><time>2026-04-26T17:56:16.052Z</time></trkpt><trkpt lat="38.0804086" lon="13.4395343"><ele>43.83333333333333</ele><time>2026-04-26T17:56:17.052Z</time></trkpt><trkpt lat="38.0803644" lon="13.43963"><ele>44.0</ele><time>2026-04-26T17:56:18.053Z</time></trkpt><trkpt lat="38.0803047" lon="13.4397345"><ele>44.0</ele><time>2026-04-26T17:56:19.052Z</time></trkpt><trkpt lat="38.0802237" lon="13.439871"><ele>44.0</ele><time>2026-04-26T17:56:20.052Z</time></trkpt><trkpt lat="38.080136" lon="13.4400309"><ele>44.0</ele><time>2026-04-26T17:56:21.052Z</time></trkpt><trkpt lat="38.0800711" lon="13.4402076"><ele>44.0</ele><time>2026-04-26T17:56:22.052Z</time></trkpt><trkpt lat="38.080013" lon="13.4403828"><ele>43.666666666666664</ele><time>2026-04-26T17:56:23.053Z</time></trkpt><trkpt lat="38.0799528" lon="13.4405994"><ele>43.333333333333336</ele><time>2026-04-26T17:56:24.053Z</time></trkpt><trkpt lat="38.0798901" lon="13.4408282"><ele>43.0</ele><time>2026-04-26T17:56:25.052Z</time></trkpt><trkpt lat="38.0798352" lon="13.4410432"><ele>43.599999999999994</ele><time>2026-04-26T17:56:26.052Z</time></trkpt><trkpt lat="38.0797961" lon="13.4412215"><ele>44.199999999999996</ele><time>2026-04-26T17:56:27.053Z</time></trkpt><trkpt lat="38.0797669" lon="13.4413498"><ele>44.8</ele><time>2026-04-26T17:56:28.052Z</time></trkpt><trkpt lat="38.0797493" lon="13.4414373"><ele>45.4</ele><time>2026-04-26T17:56:29.052Z</time></trkpt><trkpt lat="38.0797066" lon="13.4415803"><ele>46.0</ele><time>2026-04-26T17:56:33.052Z</time></trkpt><trkpt lat="38.0796635" lon="13.4416811"><ele>46.0</ele><time>2026-04-26T17:56:34.052Z</time></trkpt><trkpt lat="38.0796298" lon="13.4418111"><ele>46.0</ele><time>2026-04-26T17:56:35.052Z</time></trkpt><trkpt lat="38.0795828" lon="13.4419592"><ele>46.0</ele><time>2026-04-26T17:56:36.052Z</time></trkpt><trkpt lat="38.0795352" lon="13.4421146"><ele>46.0</ele><time>2026-04-26T17:56:37.052Z</time></trkpt><trkpt lat="38.0794817" lon="13.4422824"><ele>46.0</ele><time>2026-04-26T17:56:38.053Z</time></trkpt><trkpt lat="38.0794303" lon="13.4424556"><ele>46.0</ele><time>2026-04-26T17:56:39.052Z</time></trkpt><trkpt lat="38.0793798" lon="13.4426316"><ele>46.0</ele><time>2026-04-26T17:56:40.052Z</time></trkpt><trkpt lat="38.0793311" lon="13.44279"><ele>46.0</ele><time>2026-04-26T17:56:41.052Z</time></trkpt><trkpt lat="38.0792758" lon="13.442937"><ele>46.5</ele><time>2026-04-26T17:56:42.052Z</time></trkpt><trkpt lat="38.0792344" lon="13.4430797"><ele>47.0</ele><time>2026-04-26T17:56:43.052Z</time></trkpt><trkpt lat="38.0791914" lon="13.4432249"><ele>47.5</ele><time>2026-04-26T17:56:44.053Z</time></trkpt><trkpt lat="38.0791496" lon="13.4433737"><ele>48.0</ele><time>2026-04-26T17:56:45.053Z</time></trkpt><trkpt lat="38.0791098" lon="13.4435209"><ele>49.5</ele><time>2026-04-26T17:56:46.052Z</time></trkpt><trkpt lat="38.0790754" lon="13.4436575"><ele>51.0</ele><time>2026-04-26T17:56:47.053Z</time></trkpt><trkpt lat="38.0790271" lon="13.443801"><ele>52.5</ele><time>2026-04-26T17:56:48.052Z</time></trkpt><trkpt lat="38.0789723" lon="13.4439579"><ele>54.0</ele><time>2026-04-26T17:56:49.052Z</time></trkpt><trkpt lat="38.0789102" lon="13.4441206"><ele>54.25</ele><time>2026-04-26T17:56:50.052Z</time></trkpt><trkpt lat="38.0788504" lon="13.4442902"><ele>54.5</ele><time>2026-04-26T17:56:51.053Z</time></trkpt><trkpt lat="38.0787918" lon="13.4444578"><ele>54.75</ele><time>2026-04-26T17:56:52.052Z</time></trkpt><trkpt lat="38.0787366" lon="13.4446234"><ele>55.0</ele><time>2026-04-26T17:56:53.052Z</time></trkpt><trkpt lat="38.0786828" lon="13.4447889"><ele>55.0</ele><time>2026-04-26T17:56:54.053Z</time></trkpt><trkpt lat="38.07863" lon="13.4449491"><ele>55.0</ele><time>2026-04-26T17:56:55.052Z</time></trkpt><trkpt lat="38.0785814" lon="13.4451035"><ele>55.0</ele><time>2026-04-26T17:56:56.052Z</time></trkpt><trkpt lat="38.0785334" lon="13.4452499"><ele>55.0</ele><time>2026-04-26T17:56:57.052Z</time></trkpt><trkpt lat="38.0784837" lon="13.4453803"><ele>54.6</ele><time>2026-04-26T17:56:58.052Z</time></trkpt><trkpt lat="38.0784387" lon="13.4455076"><ele>54.2</ele><time>2026-04-26T17:56:59.052Z</time></trkpt><trkpt lat="38.0783981" lon="13.4456296"><ele>53.8</ele><time>2026-04-26T17:57:00.052Z</time></trkpt><trkpt lat="38.0783583" lon="13.4457572"><ele>53.4</ele><time>2026-04-26T17:57:01.052Z</time></trkpt><trkpt lat="38.0783218" lon="13.4458814"><ele>53.0</ele><time>2026-04-26T17:57:02.052Z</time></trkpt><trkpt lat="38.0782879" lon="13.4460028"><ele>53.333333333333336</ele><time>2026-04-26T17:57:03.052Z</time></trkpt><trkpt lat="38.0782506" lon="13.4461073"><ele>53.66666666666667</ele><time>2026-04-26T17:57:04.052Z</time></trkpt><trkpt lat="38.078222" lon="13.4462066"><ele>54.0</ele><time>2026-04-26T17:57:05.052Z</time></trkpt><trkpt lat="38.0781863" lon="13.4463113"><ele>54.33333333333333</ele><time>2026-04-26T17:57:06.052Z</time></trkpt><trkpt lat="38.0781537" lon="13.4464214"><ele>54.666666666666664</ele><time>2026-04-26T17:57:07.052Z</time></trkpt><trkpt lat="38.0781208" lon="13.4465206"><ele>55.0</ele><time>2026-04-26T17:57:08.052Z</time></trkpt><trkpt lat="38.0780921" lon="13.4466146"><ele>55.166666666666664</ele><time>2026-04-26T17:57:09.052Z</time></trkpt><trkpt lat="38.078059" lon="13.4467021"><ele>55.33333333333333</ele><time>2026-04-26T17:57:10.052Z</time></trkpt><trkpt lat="38.0780328" lon="13.4467944"><ele>55.5</ele><time>2026-04-26T17:57:11.052Z</time></trkpt><trkpt lat="38.077995" lon="13.4468926"><ele>55.66666666666667</ele><time>2026-04-26T17:57:12.052Z</time></trkpt><trkpt lat="38.0779654" lon="13.4469897"><ele>55.833333333333336</ele><time>2026-04-26T17:57:13.052Z</time></trkpt><trkpt lat="38.0779364" lon="13.4470759"><ele>56.0</ele><time>2026-04-26T17:57:14.052Z</time></trkpt><trkpt lat="38.0779106" lon="13.4471501"><ele>56.0</ele><time>2026-04-26T17:57:15.052Z</time></trkpt><trkpt lat="38.0778937" lon="13.4473066"><ele>55.99999999999999</ele><time>2026-04-26T17:57:17.052Z</time></trkpt><trkpt lat="38.0779509" lon="13.4474258"><ele>55.99999999999999</ele><time>2026-04-26T17:57:19.052Z</time></trkpt><trkpt lat="38.0780028" lon="13.4474862"><ele>56.0</ele><time>2026-04-26T17:57:20.052Z</time></trkpt><trkpt lat="38.0780772" lon="13.4475599"><ele>56.0</ele><time>2026-04-26T17:57:21.052Z</time></trkpt><trkpt lat="38.078167" lon="13.4476212"><ele>56.0</ele><time>2026-04-26T17:57:22.052Z</time></trkpt><trkpt lat="38.0782625" lon="13.4476922"><ele>55.99999999999999</ele><time>2026-04-26T17:57:23.052Z</time></trkpt><trkpt lat="38.0783539" lon="13.4477521"><ele>55.99999999999999</ele><time>2026-04-26T17:57:24.052Z</time></trkpt><trkpt lat="38.0784491" lon="13.4478151"><ele>56.0</ele><time>2026-04-26T17:57:25.052Z</time></trkpt><trkpt lat="38.0785435" lon="13.4478793"><ele>56.0</ele><time>2026-04-26T17:57:26.053Z</time></trkpt><trkpt lat="38.0786313" lon="13.4479354"><ele>55.199999999999996</ele><time>2026-04-26T17:57:27.052Z</time></trkpt><trkpt lat="38.0787241" lon="13.4479809"><ele>54.39999999999999</ele><time>2026-04-26T17:57:28.052Z</time></trkpt><trkpt lat="38.078803" lon="13.4480306"><ele>53.6</ele><time>2026-04-26T17:57:29.052Z</time></trkpt><trkpt lat="38.0788895" lon="13.4480768"><ele>52.8</ele><time>2026-04-26T17:57:30.052Z</time></trkpt><trkpt lat="38.0789882" lon="13.448123"><ele>52.0</ele><time>2026-04-26T17:57:31.052Z</time></trkpt><trkpt lat="38.0791004" lon="13.4481778"><ele>51.6</ele><time>2026-04-26T17:57:32.052Z</time></trkpt><trkpt lat="38.079216" lon="13.448229"><ele>51.2</ele><time>2026-04-26T17:57:33.053Z</time></trkpt><trkpt lat="38.0793255" lon="13.4482777"><ele>50.8</ele><time>2026-04-26T17:57:34.052Z</time></trkpt><trkpt lat="38.0794303" lon="13.4483181"><ele>50.4</ele><time>2026-04-26T17:57:35.052Z</time></trkpt><trkpt lat="38.0795247" lon="13.4483586"><ele>50.0</ele><time>2026-04-26T17:57:36.052Z</time></trkpt><trkpt lat="38.0796186" lon="13.4483879"><ele>50.0</ele><time>2026-04-26T17:57:37.052Z</time></trkpt><trkpt lat="38.0797122" lon="13.4484272"><ele>50.0</ele><time>2026-04-26T17:57:38.052Z</time></trkpt><trkpt lat="38.0797996" lon="13.4484723"><ele>50.0</ele><time>2026-04-26T17:57:39.052Z</time></trkpt><trkpt lat="38.0799065" lon="13.4485143"><ele>50.0</ele><time>2026-04-26T17:57:40.052Z</time></trkpt><trkpt lat="38.0800372" lon="13.4485579"><ele>50.0</ele><time>2026-04-26T17:57:41.052Z</time></trkpt><trkpt lat="38.0801823" lon="13.4486046"><ele>49.0</ele><time>2026-04-26T17:57:42.052Z</time></trkpt><trkpt lat="38.0803303" lon="13.4486565"><ele>48.0</ele><time>2026-04-26T17:57:43.052Z</time></trkpt><trkpt lat="38.0804861" lon="13.4487019"><ele>47.0</ele><time>2026-04-26T17:57:44.052Z</time></trkpt><trkpt lat="38.0806507" lon="13.4487371"><ele>46.0</ele><time>2026-04-26T17:57:45.052Z</time></trkpt><trkpt lat="38.0808213" lon="13.4487702"><ele>45.0</ele><time>2026-04-26T17:57:46.052Z</time></trkpt><trkpt lat="38.0809925" lon="13.4487887"><ele>44.0</ele><time>2026-04-26T17:57:47.052Z</time></trkpt><trkpt lat="38.0811506" lon="13.4488035"><ele>44.0</ele><time>2026-04-26T17:57:48.052Z</time></trkpt><trkpt lat="38.0812996" lon="13.4488063"><ele>44.0</ele><time>2026-04-26T17:57:49.053Z</time></trkpt><trkpt lat="38.0814334" lon="13.4488174"><ele>44.0</ele><time>2026-04-26T17:57:50.052Z</time></trkpt><trkpt lat="38.0815607" lon="13.4488244"><ele>44.0</ele><time>2026-04-26T17:57:51.052Z</time></trkpt><trkpt lat="38.0816745" lon="13.4488305"><ele>43.2</ele><time>2026-04-26T17:57:52.052Z</time></trkpt><trkpt lat="38.0817816" lon="13.4488414"><ele>42.400000000000006</ele><time>2026-04-26T17:57:53.052Z</time></trkpt><trkpt lat="38.0818779" lon="13.4488652"><ele>41.6</ele><time>2026-04-26T17:57:54.052Z</time></trkpt><trkpt lat="38.0819746" lon="13.4488915"><ele>40.8</ele><time>2026-04-26T17:57:55.052Z</time></trkpt><trkpt lat="38.0820628" lon="13.4489195"><ele>40.0</ele><time>2026-04-26T17:57:56.052Z</time></trkpt><trkpt lat="38.0821539" lon="13.4489598"><ele>40.0</ele><time>2026-04-26T17:57:57.052Z</time></trkpt><trkpt lat="38.0822413" lon="13.4490296"><ele>40.0</ele><time>2026-04-26T17:57:58.052Z</time></trkpt><trkpt lat="38.0823238" lon="13.4491062"><ele>40.0</ele><time>2026-04-26T17:57:59.053Z</time></trkpt><trkpt lat="38.0824024" lon="13.4491751"><ele>40.0</ele><time>2026-04-26T17:58:00.052Z</time></trkpt><trkpt lat="38.0824822" lon="13.4492427"><ele>40.0</ele><time>2026-04-26T17:58:01.052Z</time></trkpt><trkpt lat="38.082564" lon="13.4493092"><ele>39.2</ele><time>2026-04-26T17:58:02.052Z</time></trkpt><trkpt lat="38.0826511" lon="13.4493773"><ele>38.4</ele><time>2026-04-26T17:58:03.052Z</time></trkpt><trkpt lat="38.082743" lon="13.4494372"><ele>37.6</ele><time>2026-04-26T17:58:04.052Z</time></trkpt><trkpt lat="38.0828376" lon="13.4494804"><ele>36.8</ele><time>2026-04-26T17:58:05.053Z</time></trkpt><trkpt lat="38.0829277" lon="13.4495099"><ele>36.0</ele><time>2026-04-26T17:58:06.053Z</time></trkpt><trkpt lat="38.0830284" lon="13.4495195"><ele>36.0</ele><time>2026-04-26T17:58:07.052Z</time></trkpt><trkpt lat="38.0831403" lon="13.4495263"><ele>36.0</ele><time>2026-04-26T17:58:08.052Z</time></trkpt><trkpt lat="38.083268" lon="13.4495314"><ele>36.0</ele><time>2026-04-26T17:58:09.052Z</time></trkpt><trkpt lat="38.0833986" lon="13.4495329"><ele>36.0</ele><time>2026-04-26T17:58:10.053Z</time></trkpt><trkpt lat="38.0835227" lon="13.4495484"><ele>35.4</ele><time>2026-04-26T17:58:11.052Z</time></trkpt><trkpt lat="38.0836435" lon="13.4495533"><ele>34.8</ele><time>2026-04-26T17:58:12.052Z</time></trkpt><trkpt lat="38.0837535" lon="13.4495755"><ele>34.199999999999996</ele><time>2026-04-26T17:58:13.053Z</time></trkpt><trkpt lat="38.0838567" lon="13.4495934"><ele>33.6</ele><time>2026-04-26T17:58:14.052Z</time></trkpt><trkpt lat="38.0839557" lon="13.4496042"><ele>33.0</ele><time>2026-04-26T17:58:15.053Z</time></trkpt><trkpt lat="38.0840502" lon="13.4496138"><ele>33.0</ele><time>2026-04-26T17:58:16.052Z</time></trkpt><trkpt lat="38.0841338" lon="13.449625"><ele>33.0</ele><time>2026-04-26T17:58:17.052Z</time></trkpt><trkpt lat="38.0842148" lon="13.4496446"><ele>33.0</ele><time>2026-04-26T17:58:18.052Z</time></trkpt><trkpt lat="38.0843044" lon="13.4496526"><ele>33.0</ele><time>2026-04-26T17:58:19.052Z</time></trkpt><trkpt lat="38.0843999" lon="13.4496585"><ele>33.0</ele><time>2026-04-26T17:58:20.052Z</time></trkpt><trkpt lat="38.0844904" lon="13.4496648"><ele>33.0</ele><time>2026-04-26T17:58:21.053Z</time></trkpt><trkpt lat="38.0845765" lon="13.4496725"><ele>33.0</ele><time>2026-04-26T17:58:22.052Z</time></trkpt><trkpt lat="38.0846514" lon="13.449677"><ele>33.0</ele><time>2026-04-26T17:58:23.052Z</time></trkpt><trkpt lat="38.084724" lon="13.4496845"><ele>33.0</ele><time>2026-04-26T17:58:24.053Z</time></trkpt><trkpt lat="38.0847905" lon="13.4496894"><ele>33.0</ele><time>2026-04-26T17:58:25.052Z</time></trkpt><trkpt lat="38.0849222" lon="13.4496991"><ele>33.0</ele><time>2026-04-26T17:58:27.052Z</time></trkpt><trkpt lat="38.0849899" lon="13.4497042"><ele>33.0</ele><time>2026-04-26T17:58:28.052Z</time></trkpt><trkpt lat="38.0850569" lon="13.449709"><ele>32.6</ele><time>2026-04-26T17:58:29.052Z</time></trkpt><trkpt lat="38.0851704" lon="13.4497113"><ele>32.199999999999996</ele><time>2026-04-26T17:58:31.052Z</time></trkpt><trkpt lat="38.0852585" lon="13.449712"><ele>31.8</ele><time>2026-04-26T17:58:33.052Z</time></trkpt><trkpt lat="38.0853324" lon="13.4497069"><ele>31.4</ele><time>2026-04-26T17:58:36.052Z</time></trkpt><trkpt lat="38.0854084" lon="13.449726"><ele>31.0</ele><time>2026-04-26T17:58:39.052Z</time></trkpt><trkpt lat="38.0854975" lon="13.4498037"><ele>31.0</ele><time>2026-04-26T17:58:44.052Z</time></trkpt><trkpt lat="38.0855639" lon="13.4498136"><ele>31.000000000000004</ele><time>2026-04-26T17:58:47.052Z</time></trkpt><trkpt lat="38.0856161" lon="13.4498696"><ele>31.0</ele><time>2026-04-26T17:58:58.052Z</time></trkpt><trkpt lat="38.0857023" lon="13.4498913"><ele>31.0</ele><time>2026-04-26T18:00:24.052Z</time></trkpt><trkpt lat="38.0857687" lon="13.4498971"><ele>31.000000000000004</ele><time>2026-04-26T18:00:25.053Z</time></trkpt><trkpt lat="38.0858419" lon="13.4499022"><ele>31.0</ele><time>2026-04-26T18:00:26.052Z</time></trkpt><trkpt lat="38.085923" lon="13.4499107"><ele>31.0</ele><time>2026-04-26T18:00:27.052Z</time></trkpt><trkpt lat="38.0860105" lon="13.4499151"><ele>30.500000000000004</ele><time>2026-04-26T18:00:28.053Z</time></trkpt><trkpt lat="38.0860888" lon="13.4499122"><ele>30.0</ele><time>2026-04-26T18:00:29.053Z</time></trkpt><trkpt lat="38.0861692" lon="13.4499078"><ele>29.5</ele><time>2026-04-26T18:00:30.053Z</time></trkpt><trkpt lat="38.086258" lon="13.4499056"><ele>29.0</ele><time>2026-04-26T18:00:31.052Z</time></trkpt><trkpt lat="38.0863463" lon="13.4499021"><ele>28.500000000000004</ele><time>2026-04-26T18:00:32.052Z</time></trkpt><trkpt lat="38.0864327" lon="13.4499006"><ele>28.0</ele><time>2026-04-26T18:00:33.052Z</time></trkpt><trkpt lat="38.0865158" lon="13.4499034"><ele>28.0</ele><time>2026-04-26T18:00:34.052Z</time></trkpt><trkpt lat="38.0866013" lon="13.4499043"><ele>27.999999999999996</ele><time>2026-04-26T18:00:35.052Z</time></trkpt><trkpt lat="38.0866896" lon="13.4499094"><ele>27.999999999999996</ele><time>2026-04-26T18:00:36.052Z</time></trkpt><trkpt lat="38.0867833" lon="13.4499137"><ele>28.0</ele><time>2026-04-26T18:00:37.052Z</time></trkpt><trkpt lat="38.0868762" lon="13.4499246"><ele>28.0</ele><time>2026-04-26T18:00:38.052Z</time></trkpt><trkpt lat="38.0869659" lon="13.449944"><ele>28.0</ele><time>2026-04-26T18:00:39.052Z</time></trkpt><trkpt lat="38.0870487" lon="13.4499824"><ele>27.999999999999996</ele><time>2026-04-26T18:00:40.053Z</time></trkpt><trkpt lat="38.0871206" lon="13.45004"><ele>27.999999999999996</ele><time>2026-04-26T18:00:41.052Z</time></trkpt><trkpt lat="38.0871893" lon="13.4501169"><ele>28.0</ele><time>2026-04-26T18:00:42.052Z</time></trkpt><trkpt lat="38.0872541" lon="13.4502048"><ele>28.0</ele><time>2026-04-26T18:00:43.052Z</time></trkpt><trkpt lat="38.0873182" lon="13.4502995"><ele>28.0</ele><time>2026-04-26T18:00:44.052Z</time></trkpt><trkpt lat="38.0873844" lon="13.4504006"><ele>27.999999999999996</ele><time>2026-04-26T18:00:45.052Z</time></trkpt><trkpt lat="38.0874516" lon="13.4504982"><ele>27.999999999999996</ele><time>2026-04-26T18:00:46.052Z</time></trkpt><trkpt lat="38.0875069" lon="13.4505848"><ele>28.0</ele><time>2026-04-26T18:00:47.052Z</time></trkpt><trkpt lat="38.0875638" lon="13.4506764"><ele>28.0</ele><time>2026-04-26T18:00:48.052Z</time></trkpt><trkpt lat="38.0876151" lon="13.4507797"><ele>27.833333333333336</ele><time>2026-04-26T18:00:49.052Z</time></trkpt><trkpt lat="38.08766" lon="13.4508859"><ele>27.666666666666668</ele><time>2026-04-26T18:00:50.052Z</time></trkpt><trkpt lat="38.087699" lon="13.4509922"><ele>27.5</ele><time>2026-04-26T18:00:51.052Z</time></trkpt><trkpt lat="38.0877359" lon="13.451095"><ele>27.333333333333336</ele><time>2026-04-26T18:00:52.052Z</time></trkpt><trkpt lat="38.0877723" lon="13.4511891"><ele>27.166666666666668</ele><time>2026-04-26T18:00:53.052Z</time></trkpt><trkpt lat="38.0878136" lon="13.4512857"><ele>27.0</ele><time>2026-04-26T18:00:54.052Z</time></trkpt><trkpt lat="38.0878599" lon="13.4513802"><ele>27.0</ele><time>2026-04-26T18:00:55.052Z</time></trkpt><trkpt lat="38.087906" lon="13.4514754"><ele>27.0</ele><time>2026-04-26T18:00:56.052Z</time></trkpt><trkpt lat="38.0879595" lon="13.4515726"><ele>27.0</ele><time>2026-04-26T18:00:57.052Z</time></trkpt><trkpt lat="38.0880109" lon="13.451663"><ele>27.0</ele><time>2026-04-26T18:00:58.052Z</time></trkpt><trkpt lat="38.0880589" lon="13.451738"><ele>27.0</ele><time>2026-04-26T18:00:59.053Z</time></trkpt><trkpt lat="38.0881011" lon="13.4518097"><ele>27.0</ele><time>2026-04-26T18:01:00.053Z</time></trkpt><trkpt lat="38.0881373" lon="13.4518836"><ele>27.0</ele><time>2026-04-26T18:01:01.053Z</time></trkpt><trkpt lat="38.0881728" lon="13.4519598"><ele>27.0</ele><time>2026-04-26T18:01:02.052Z</time></trkpt><trkpt lat="38.0882086" lon="13.4520317"><ele>27.0</ele><time>2026-04-26T18:01:03.052Z</time></trkpt><trkpt lat="38.0882409" lon="13.4521034"><ele>27.0</ele><time>2026-04-26T18:01:04.052Z</time></trkpt><trkpt lat="38.0882956" lon="13.4522158"><ele>27.0</ele><time>2026-04-26T18:01:06.052Z</time></trkpt><trkpt lat="38.088326" lon="13.4523317"><ele>27.0</ele><time>2026-04-26T18:01:08.052Z</time></trkpt><trkpt lat="38.0882697" lon="13.4524759"><ele>27.0</ele><time>2026-04-26T18:01:10.052Z</time></trkpt><trkpt lat="38.0882319" lon="13.4525524"><ele>27.0</ele><time>2026-04-26T18:01:11.052Z</time></trkpt><trkpt lat="38.0882009" lon="13.4526393"><ele>27.0</ele><time>2026-04-26T18:01:12.052Z</time></trkpt><trkpt lat="38.08817" lon="13.4527328"><ele>27.0</ele><time>2026-04-26T18:01:13.052Z</time></trkpt><trkpt lat="38.0881419" lon="13.4528331"><ele>27.0</ele><time>2026-04-26T18:01:14.052Z</time></trkpt><trkpt lat="38.0881015" lon="13.4529328"><ele>27.0</ele><time>2026-04-26T18:01:15.052Z</time></trkpt><trkpt lat="38.0880619" lon="13.4530423"><ele>27.200000000000003</ele><time>2026-04-26T18:01:16.052Z</time></trkpt><trkpt lat="38.0880232" lon="13.453151"><ele>27.400000000000002</ele><time>2026-04-26T18:01:17.052Z</time></trkpt><trkpt lat="38.0879857" lon="13.4532642"><ele>27.599999999999998</ele><time>2026-04-26T18:01:18.052Z</time></trkpt><trkpt lat="38.0879467" lon="13.4533849"><ele>27.799999999999997</ele><time>2026-04-26T18:01:19.052Z</time></trkpt><trkpt lat="38.0879296" lon="13.453493"><ele>28.0</ele><time>2026-04-26T18:01:20.053Z</time></trkpt><trkpt lat="38.0878882" lon="13.4536147"><ele>28.0</ele><time>2026-04-26T18:01:21.052Z</time></trkpt><trkpt lat="38.0878526" lon="13.4537527"><ele>28.0</ele><time>2026-04-26T18:01:22.052Z</time></trkpt><trkpt lat="38.0878042" lon="13.453885"><ele>28.0</ele><time>2026-04-26T18:01:23.052Z</time></trkpt><trkpt lat="38.0877606" lon="13.454025"><ele>28.0</ele><time>2026-04-26T18:01:24.052Z</time></trkpt><trkpt lat="38.0877125" lon="13.4541561"><ele>28.25</ele><time>2026-04-26T18:01:25.052Z</time></trkpt><trkpt lat="38.0876618" lon="13.4542898"><ele>28.5</ele><time>2026-04-26T18:01:26.053Z</time></trkpt><trkpt lat="38.0876157" lon="13.4544376"><ele>28.75</ele><time>2026-04-26T18:01:27.052Z</time></trkpt><trkpt lat="38.0875733" lon="13.4545906"><ele>29.0</ele><time>2026-04-26T18:01:28.052Z</time></trkpt><trkpt lat="38.0875165" lon="13.4547342"><ele>28.5</ele><time>2026-04-26T18:01:29.052Z</time></trkpt><trkpt lat="38.0874667" lon="13.4548756"><ele>28.0</ele><time>2026-04-26T18:01:30.052Z</time></trkpt><trkpt lat="38.0874225" lon="13.4550248"><ele>27.5</ele><time>2026-04-26T18:01:31.052Z</time></trkpt><trkpt lat="38.0873735" lon="13.455155"><ele>27.0</ele><time>2026-04-26T18:01:32.052Z</time></trkpt><trkpt lat="38.0873247" lon="13.4552743"><ele>26.8</ele><time>2026-04-26T18:01:33.053Z</time></trkpt><trkpt lat="38.0872852" lon="13.4553642"><ele>26.6</ele><time>2026-04-26T18:01:34.052Z</time></trkpt><trkpt lat="38.087251" lon="13.4554739"><ele>26.400000000000002</ele><time>2026-04-26T18:01:36.052Z</time></trkpt><trkpt lat="38.0872427" lon="13.4555963"><ele>26.200000000000003</ele><time>2026-04-26T18:01:38.052Z</time></trkpt><trkpt lat="38.0872399" lon="13.4557291"><ele>26.0</ele><time>2026-04-26T18:01:40.053Z</time></trkpt><trkpt lat="38.087257" lon="13.455834"><ele>26.75</ele><time>2026-04-26T18:01:42.052Z</time></trkpt><trkpt lat="38.0872851" lon="13.4559109"><ele>27.5</ele><time>2026-04-26T18:01:44.052Z</time></trkpt><trkpt lat="38.0873516" lon="13.4560719"><ele>28.25</ele><time>2026-04-26T18:01:46.052Z</time></trkpt><trkpt lat="38.0873892" lon="13.4562413"><ele>29.0</ele><time>2026-04-26T18:01:47.052Z</time></trkpt><trkpt lat="38.0874279" lon="13.4564364"><ele>29.0</ele><time>2026-04-26T18:01:48.052Z</time></trkpt><trkpt lat="38.0874722" lon="13.456629"><ele>29.0</ele><time>2026-04-26T18:01:49.053Z</time></trkpt><trkpt lat="38.0875043" lon="13.4568354"><ele>29.0</ele><time>2026-04-26T18:01:50.052Z</time></trkpt><trkpt lat="38.0875364" lon="13.4570503"><ele>29.333333333333332</ele><time>2026-04-26T18:01:51.052Z</time></trkpt><trkpt lat="38.0875597" lon="13.4572561"><ele>29.666666666666664</ele><time>2026-04-26T18:01:52.052Z</time></trkpt><trkpt lat="38.0875847" lon="13.4574399"><ele>30.0</ele><time>2026-04-26T18:01:53.052Z</time></trkpt><trkpt lat="38.0876199" lon="13.4576241"><ele>30.0</ele><time>2026-04-26T18:01:54.052Z</time></trkpt><trkpt lat="38.087656" lon="13.457832"><ele>30.0</ele><time>2026-04-26T18:01:55.052Z</time></trkpt><trkpt lat="38.0876932" lon="13.4583244"><ele>29.75</ele><time>2026-04-26T18:01:56.053Z</time></trkpt><trkpt lat="38.0877189" lon="13.4584638"><ele>29.5</ele><time>2026-04-26T18:01:57.053Z</time></trkpt><trkpt lat="38.0877337" lon="13.4585985"><ele>29.25</ele><time>2026-04-26T18:01:58.052Z</time></trkpt><trkpt lat="38.0877516" lon="13.4587518"><ele>29.0</ele><time>2026-04-26T18:01:59.052Z</time></trkpt><trkpt lat="38.0877756" lon="13.4589264"><ele>29.0</ele><time>2026-04-26T18:02:00.053Z</time></trkpt><trkpt lat="38.0877964" lon="13.459106"><ele>29.0</ele><time>2026-04-26T18:02:01.052Z</time></trkpt><trkpt lat="38.087818" lon="13.4592916"><ele>29.0</ele><time>2026-04-26T18:02:02.052Z</time></trkpt><trkpt lat="38.0878399" lon="13.4594859"><ele>29.0</ele><time>2026-04-26T18:02:03.052Z</time></trkpt><trkpt lat="38.087863" lon="13.459679"><ele>28.5</ele><time>2026-04-26T18:02:04.052Z</time></trkpt><trkpt lat="38.0878887" lon="13.4598676"><ele>28.0</ele><time>2026-04-26T18:02:05.052Z</time></trkpt><trkpt lat="38.0879111" lon="13.4600479"><ele>27.5</ele><time>2026-04-26T18:02:06.052Z</time></trkpt><trkpt lat="38.0879355" lon="13.4602169"><ele>27.0</ele><time>2026-04-26T18:02:07.052Z</time></trkpt><trkpt lat="38.0879607" lon="13.4603731"><ele>26.75</ele><time>2026-04-26T18:02:08.052Z</time></trkpt><trkpt lat="38.0879859" lon="13.4605193"><ele>26.5</ele><time>2026-04-26T18:02:09.053Z</time></trkpt><trkpt lat="38.0880098" lon="13.4606714"><ele>26.25</ele><time>2026-04-26T18:02:10.052Z</time></trkpt><trkpt lat="38.088032" lon="13.4608244"><ele>26.0</ele><time>2026-04-26T18:02:11.052Z</time></trkpt><trkpt lat="38.0880504" lon="13.4609804"><ele>26.0</ele><time>2026-04-26T18:02:12.052Z</time></trkpt><trkpt lat="38.0880808" lon="13.4611391"><ele>26.0</ele><time>2026-04-26T18:02:13.052Z</time></trkpt><trkpt lat="38.0881089" lon="13.4612974"><ele>26.0</ele><time>2026-04-26T18:02:14.052Z</time></trkpt><trkpt lat="38.0881316" lon="13.4614557"><ele>26.0</ele><time>2026-04-26T18:02:15.052Z</time></trkpt><trkpt lat="38.0881538" lon="13.4616198"><ele>26.0</ele><time>2026-04-26T18:02:16.052Z</time></trkpt><trkpt lat="38.0881766" lon="13.4617807"><ele>26.0</ele><time>2026-04-26T18:02:17.053Z</time></trkpt><trkpt lat="38.0881995" lon="13.4619469"><ele>26.0</ele><time>2026-04-26T18:02:18.053Z</time></trkpt><trkpt lat="38.0882266" lon="13.4621079"><ele>26.0</ele><time>2026-04-26T18:02:19.052Z</time></trkpt><trkpt lat="38.088248" lon="13.4622701"><ele>26.0</ele><time>2026-04-26T18:02:20.052Z</time></trkpt><trkpt lat="38.0882709" lon="13.4624331"><ele>26.0</ele><time>2026-04-26T18:02:21.052Z</time></trkpt><trkpt lat="38.0882879" lon="13.462594"><ele>26.0</ele><time>2026-04-26T18:02:22.052Z</time></trkpt><trkpt lat="38.088309" lon="13.4627457"><ele>26.0</ele><time>2026-04-26T18:02:23.052Z</time></trkpt><trkpt lat="38.0883252" lon="13.4628856"><ele>26.25</ele><time>2026-04-26T18:02:24.052Z</time></trkpt><trkpt lat="38.0883453" lon="13.4630267"><ele>26.5</ele><time>2026-04-26T18:02:25.052Z</time></trkpt><trkpt lat="38.0883601" lon="13.4631819"><ele>26.75</ele><time>2026-04-26T18:02:26.052Z</time></trkpt><trkpt lat="38.0883815" lon="13.463336"><ele>27.0</ele><time>2026-04-26T18:02:27.052Z</time></trkpt><trkpt lat="38.0884048" lon="13.4634823"><ele>27.0</ele><time>2026-04-26T18:02:28.052Z</time></trkpt><trkpt lat="38.0884285" lon="13.4635994"><ele>27.000000000000004</ele><time>2026-04-26T18:02:29.052Z</time></trkpt><trkpt lat="38.0884321" lon="13.4637066"><ele>27.000000000000004</ele><time>2026-04-26T18:02:31.053Z</time></trkpt><trkpt lat="38.0884536" lon="13.4638536"><ele>27.0</ele><time>2026-04-26T18:02:39.052Z</time></trkpt><trkpt lat="38.0884672" lon="13.4639938"><ele>27.0</ele><time>2026-04-26T18:02:41.052Z</time></trkpt><trkpt lat="38.0884776" lon="13.4640822"><ele>27.0</ele><time>2026-04-26T18:02:42.052Z</time></trkpt><trkpt lat="38.0884909" lon="13.4641773"><ele>27.000000000000004</ele><time>2026-04-26T18:02:43.052Z</time></trkpt><trkpt lat="38.0885089" lon="13.4643128"><ele>27.000000000000004</ele><time>2026-04-26T18:02:44.052Z</time></trkpt><trkpt lat="38.0885341" lon="13.4644522"><ele>27.0</ele><time>2026-04-26T18:02:45.052Z</time></trkpt><trkpt lat="38.08856" lon="13.4646087"><ele>27.0</ele><time>2026-04-26T18:02:46.052Z</time></trkpt><trkpt lat="38.0885817" lon="13.4647654"><ele>27.75</ele><time>2026-04-26T18:02:47.052Z</time></trkpt><trkpt lat="38.0886029" lon="13.4649296"><ele>28.5</ele><time>2026-04-26T18:02:48.052Z</time></trkpt><trkpt lat="38.0886268" lon="13.4650898"><ele>29.25</ele><time>2026-04-26T18:02:49.053Z</time></trkpt><trkpt lat="38.0886509" lon="13.4652442"><ele>30.0</ele><time>2026-04-26T18:02:50.052Z</time></trkpt><trkpt lat="38.088673" lon="13.4653911"><ele>29.75</ele><time>2026-04-26T18:02:51.051Z</time></trkpt><trkpt lat="38.0886951" lon="13.4655393"><ele>29.5</ele><time>2026-04-26T18:02:52.051Z</time></trkpt><trkpt lat="38.0887118" lon="13.4656863"><ele>29.25</ele><time>2026-04-26T18:02:53.051Z</time></trkpt><trkpt lat="38.0887342" lon="13.4658336"><ele>29.0</ele><time>2026-04-26T18:02:54.051Z</time></trkpt><trkpt lat="38.0887552" lon="13.4659823"><ele>29.0</ele><time>2026-04-26T18:02:55.051Z</time></trkpt><trkpt lat="38.0887742" lon="13.466133"><ele>29.0</ele><time>2026-04-26T18:02:56.052Z</time></trkpt><trkpt lat="38.0887916" lon="13.4662809"><ele>29.0</ele><time>2026-04-26T18:02:57.051Z</time></trkpt><trkpt lat="38.0888126" lon="13.4664297"><ele>29.0</ele><time>2026-04-26T18:02:58.051Z</time></trkpt><trkpt lat="38.0888342" lon="13.4665737"><ele>29.4</ele><time>2026-04-26T18:02:59.051Z</time></trkpt><trkpt lat="38.0888567" lon="13.4667081"><ele>29.799999999999997</ele><time>2026-04-26T18:03:00.051Z</time></trkpt><trkpt lat="38.0888819" lon="13.4668359"><ele>30.200000000000003</ele><time>2026-04-26T18:03:01.051Z</time></trkpt><trkpt lat="38.0889053" lon="13.4669531"><ele>30.6</ele><time>2026-04-26T18:03:02.052Z</time></trkpt><trkpt lat="38.088926" lon="13.4670675"><ele>31.0</ele><time>2026-04-26T18:03:03.052Z</time></trkpt><trkpt lat="38.0889413" lon="13.467168"><ele>31.000000000000004</ele><time>2026-04-26T18:03:04.051Z</time></trkpt><trkpt lat="38.0889623" lon="13.4672985"><ele>31.0</ele><time>2026-04-26T18:03:06.051Z</time></trkpt><trkpt lat="38.0889724" lon="13.4673892"><ele>31.0</ele><time>2026-04-26T18:03:09.051Z</time></trkpt><trkpt lat="38.0889798" lon="13.4674969"><ele>31.0</ele><time>2026-04-26T18:03:13.051Z</time></trkpt><trkpt lat="38.08899" lon="13.4675768"><ele>31.000000000000004</ele><time>2026-04-26T18:03:15.051Z</time></trkpt><trkpt lat="38.0890076" lon="13.4676692"><ele>31.0</ele><time>2026-04-26T18:03:17.051Z</time></trkpt><trkpt lat="38.0890245" lon="13.4677738"><ele>31.000000000000004</ele><time>2026-04-26T18:03:19.051Z</time></trkpt><trkpt lat="38.0890409" lon="13.4678918"><ele>31.0</ele><time>2026-04-26T18:03:21.051Z</time></trkpt><trkpt lat="38.089049" lon="13.4680014"><ele>31.0</ele><time>2026-04-26T18:03:23.052Z</time></trkpt><trkpt lat="38.089063" lon="13.4681041"><ele>31.0</ele><time>2026-04-26T18:03:26.051Z</time></trkpt><trkpt lat="38.089069" lon="13.4682091"><ele>31.000000000000004</ele><time>2026-04-26T18:03:33.051Z</time></trkpt><trkpt lat="38.0890847" lon="13.468297"><ele>31.0</ele><time>2026-04-26T18:03:35.051Z</time></trkpt><trkpt lat="38.0891003" lon="13.4683875"><ele>30.666666666666668</ele><time>2026-04-26T18:03:38.052Z</time></trkpt><trkpt lat="38.089129" lon="13.4685236"><ele>30.333333333333336</ele><time>2026-04-26T18:03:41.051Z</time></trkpt><trkpt lat="38.0891652" lon="13.4686574"><ele>30.0</ele><time>2026-04-26T18:03:43.051Z</time></trkpt><trkpt lat="38.0891776" lon="13.4687409"><ele>29.666666666666664</ele><time>2026-04-26T18:03:44.051Z</time></trkpt><trkpt lat="38.0891904" lon="13.4688304"><ele>29.333333333333332</ele><time>2026-04-26T18:03:45.051Z</time></trkpt><trkpt lat="38.0891963" lon="13.4689116"><ele>29.0</ele><time>2026-04-26T18:03:46.051Z</time></trkpt><trkpt lat="38.0892005" lon="13.468992"><ele>28.999999999999996</ele><time>2026-04-26T18:03:47.051Z</time></trkpt><trkpt lat="38.0892106" lon="13.4690727"><ele>29.0</ele><time>2026-04-26T18:03:48.051Z</time></trkpt><trkpt lat="38.0892231" lon="13.4691573"><ele>29.0</ele><time>2026-04-26T18:03:49.051Z</time></trkpt><trkpt lat="38.089242" lon="13.46925"><ele>29.0</ele><time>2026-04-26T18:03:50.051Z</time></trkpt><trkpt lat="38.0892576" lon="13.4693378"><ele>28.999999999999996</ele><time>2026-04-26T18:03:51.051Z</time></trkpt><trkpt lat="38.0892733" lon="13.4694186"><ele>29.0</ele><time>2026-04-26T18:03:52.051Z</time></trkpt><trkpt lat="38.0892933" lon="13.469562"><ele>28.999999999999996</ele><time>2026-04-26T18:03:54.051Z</time></trkpt><trkpt lat="38.0893122" lon="13.4696394"><ele>29.0</ele><time>2026-04-26T18:03:55.051Z</time></trkpt><trkpt lat="38.0893201" lon="13.4697364"><ele>29.0</ele><time>2026-04-26T18:03:56.051Z</time></trkpt><trkpt lat="38.0893219" lon="13.4698333"><ele>29.0</ele><time>2026-04-26T18:03:57.051Z</time></trkpt><trkpt lat="38.0893315" lon="13.4699305"><ele>28.999999999999996</ele><time>2026-04-26T18:03:58.051Z</time></trkpt><trkpt lat="38.0893562" lon="13.4700289"><ele>29.0</ele><time>2026-04-26T18:03:59.052Z</time></trkpt><trkpt lat="38.0893927" lon="13.4701244"><ele>28.999999999999996</ele><time>2026-04-26T18:04:00.051Z</time></trkpt><trkpt lat="38.089432" lon="13.4702159"><ele>29.0</ele><time>2026-04-26T18:04:01.051Z</time></trkpt><trkpt lat="38.0894748" lon="13.4703041"><ele>29.0</ele><time>2026-04-26T18:04:02.051Z</time></trkpt><trkpt lat="38.0895154" lon="13.4703784"><ele>29.0</ele><time>2026-04-26T18:04:03.051Z</time></trkpt><trkpt lat="38.0895557" lon="13.4704606"><ele>28.999999999999996</ele><time>2026-04-26T18:04:04.052Z</time></trkpt><trkpt lat="38.0895924" lon="13.4705495"><ele>29.0</ele><time>2026-04-26T18:04:05.051Z</time></trkpt><trkpt lat="38.0896265" lon="13.4706368"><ele>29.333333333333332</ele><time>2026-04-26T18:04:06.052Z</time></trkpt><trkpt lat="38.0896559" lon="13.470721"><ele>29.666666666666664</ele><time>2026-04-26T18:04:07.051Z</time></trkpt><trkpt lat="38.0896784" lon="13.4708173"><ele>30.0</ele><time>2026-04-26T18:04:08.052Z</time></trkpt><trkpt lat="38.089695" lon="13.4709107"><ele>30.333333333333336</ele><time>2026-04-26T18:04:09.052Z</time></trkpt><trkpt lat="38.0897073" lon="13.4710109"><ele>30.666666666666668</ele><time>2026-04-26T18:04:10.051Z</time></trkpt><trkpt lat="38.0897305" lon="13.4711111"><ele>31.0</ele><time>2026-04-26T18:04:11.052Z</time></trkpt><trkpt lat="38.0897505" lon="13.4712156"><ele>30.833333333333336</ele><time>2026-04-26T18:04:12.051Z</time></trkpt><trkpt lat="38.0897648" lon="13.4713234"><ele>30.666666666666668</ele><time>2026-04-26T18:04:13.051Z</time></trkpt><trkpt lat="38.0897785" lon="13.4714308"><ele>30.5</ele><time>2026-04-26T18:04:14.052Z</time></trkpt><trkpt lat="38.0897835" lon="13.4715337"><ele>30.333333333333336</ele><time>2026-04-26T18:04:15.052Z</time></trkpt><trkpt lat="38.0897602" lon="13.4716367"><ele>30.166666666666668</ele><time>2026-04-26T18:04:16.051Z</time></trkpt><trkpt lat="38.089725" lon="13.4717435"><ele>30.0</ele><time>2026-04-26T18:04:17.052Z</time></trkpt><trkpt lat="38.0896806" lon="13.4718432"><ele>30.0</ele><time>2026-04-26T18:04:18.052Z</time></trkpt><trkpt lat="38.0896442" lon="13.4719537"><ele>30.0</ele><time>2026-04-26T18:04:19.051Z</time></trkpt><trkpt lat="38.08961" lon="13.4720655"><ele>30.0</ele><time>2026-04-26T18:04:20.051Z</time></trkpt><trkpt lat="38.0895688" lon="13.4721773"><ele>30.0</ele><time>2026-04-26T18:04:21.051Z</time></trkpt><trkpt lat="38.0895432" lon="13.4722988"><ele>30.0</ele><time>2026-04-26T18:04:22.051Z</time></trkpt><trkpt lat="38.0895328" lon="13.4724284"><ele>28.6</ele><time>2026-04-26T18:04:23.051Z</time></trkpt><trkpt lat="38.0895561" lon="13.4725562"><ele>27.2</ele><time>2026-04-26T18:04:24.051Z</time></trkpt><trkpt lat="38.0896187" lon="13.4726658"><ele>25.799999999999997</ele><time>2026-04-26T18:04:25.051Z</time></trkpt><trkpt lat="38.0896837" lon="13.4727702"><ele>24.4</ele><time>2026-04-26T18:04:26.051Z</time></trkpt><trkpt lat="38.0897424" lon="13.4728666"><ele>23.0</ele><time>2026-04-26T18:04:27.051Z</time></trkpt><trkpt lat="38.0897911" lon="13.4729735"><ele>22.4</ele><time>2026-04-26T18:04:28.051Z</time></trkpt><trkpt lat="38.0898441" lon="13.4730795"><ele>21.799999999999997</ele><time>2026-04-26T18:04:29.051Z</time></trkpt><trkpt lat="38.0898915" lon="13.4731758"><ele>21.2</ele><time>2026-04-26T18:04:30.051Z</time></trkpt><trkpt lat="38.0899401" lon="13.4732715"><ele>20.6</ele><time>2026-04-26T18:04:31.052Z</time></trkpt><trkpt lat="38.0899907" lon="13.4733653"><ele>20.0</ele><time>2026-04-26T18:04:32.051Z</time></trkpt><trkpt lat="38.0900446" lon="13.4734644"><ele>20.0</ele><time>2026-04-26T18:04:33.051Z</time></trkpt><trkpt lat="38.0900979" lon="13.4735623"><ele>20.0</ele><time>2026-04-26T18:04:34.051Z</time></trkpt><trkpt lat="38.0901526" lon="13.4736559"><ele>20.0</ele><time>2026-04-26T18:04:35.051Z</time></trkpt><trkpt lat="38.0902075" lon="13.4737413"><ele>20.0</ele><time>2026-04-26T18:04:36.051Z</time></trkpt><trkpt lat="38.0902562" lon="13.4738315"><ele>20.0</ele><time>2026-04-26T18:04:37.051Z</time></trkpt><trkpt lat="38.0903192" lon="13.4739279"><ele>19.25</ele><time>2026-04-26T18:04:38.051Z</time></trkpt><trkpt lat="38.0903934" lon="13.4740566"><ele>18.5</ele><time>2026-04-26T18:04:39.051Z</time></trkpt><trkpt lat="38.0904706" lon="13.4741892"><ele>17.75</ele><time>2026-04-26T18:04:40.051Z</time></trkpt><trkpt lat="38.090541" lon="13.4743269"><ele>17.0</ele><time>2026-04-26T18:04:41.051Z</time></trkpt><trkpt lat="38.0906062" lon="13.474436"><ele>17.0</ele><time>2026-04-26T18:04:42.051Z</time></trkpt><trkpt lat="38.0906589" lon="13.4745398"><ele>17.0</ele><time>2026-04-26T18:04:43.051Z</time></trkpt><trkpt lat="38.0907086" lon="13.4746369"><ele>17.0</ele><time>2026-04-26T18:04:44.051Z</time></trkpt><trkpt lat="38.090763" lon="13.4747339"><ele>17.0</ele><time>2026-04-26T18:04:45.051Z</time></trkpt><trkpt lat="38.0908122" lon="13.474824"><ele>17.0</ele><time>2026-04-26T18:04:46.051Z</time></trkpt><trkpt lat="38.0908581" lon="13.4749215"><ele>16.6</ele><time>2026-04-26T18:04:47.051Z</time></trkpt><trkpt lat="38.0909042" lon="13.4750307"><ele>16.2</ele><time>2026-04-26T18:04:48.051Z</time></trkpt><trkpt lat="38.0909511" lon="13.4751432"><ele>15.8</ele><time>2026-04-26T18:04:49.052Z</time></trkpt><trkpt lat="38.0910049" lon="13.4752602"><ele>15.4</ele><time>2026-04-26T18:04:50.051Z</time></trkpt><trkpt lat="38.0910641" lon="13.4753705"><ele>15.0</ele><time>2026-04-26T18:04:51.051Z</time></trkpt><trkpt lat="38.0911304" lon="13.4754789"><ele>14.666666666666666</ele><time>2026-04-26T18:04:52.051Z</time></trkpt><trkpt lat="38.091196" lon="13.4755652"><ele>14.333333333333332</ele><time>2026-04-26T18:04:53.051Z</time></trkpt><trkpt lat="38.0912587" lon="13.4756501"><ele>14.0</ele><time>2026-04-26T18:04:54.051Z</time></trkpt><trkpt lat="38.0913221" lon="13.4757255"><ele>13.666666666666666</ele><time>2026-04-26T18:04:55.052Z</time></trkpt><trkpt lat="38.0913824" lon="13.4757913"><ele>13.333333333333332</ele><time>2026-04-26T18:04:56.052Z</time></trkpt><trkpt lat="38.0914454" lon="13.4758669"><ele>13.0</ele><time>2026-04-26T18:04:57.051Z</time></trkpt><trkpt lat="38.0915084" lon="13.4759481"><ele>12.999999999999998</ele><time>2026-04-26T18:04:58.051Z</time></trkpt><trkpt lat="38.0915642" lon="13.4760327"><ele>13.0</ele><time>2026-04-26T18:04:59.052Z</time></trkpt><trkpt lat="38.0916165" lon="13.4761227"><ele>13.0</ele><time>2026-04-26T18:05:00.051Z</time></trkpt><trkpt lat="38.0916669" lon="13.4762231"><ele>13.0</ele><time>2026-04-26T18:05:01.052Z</time></trkpt><trkpt lat="38.0917109" lon="13.4763179"><ele>12.999999999999998</ele><time>2026-04-26T18:05:02.051Z</time></trkpt><trkpt lat="38.0917533" lon="13.4764108"><ele>13.0</ele><time>2026-04-26T18:05:03.051Z</time></trkpt><trkpt lat="38.0917927" lon="13.4765094"><ele>12.666666666666666</ele><time>2026-04-26T18:05:04.051Z</time></trkpt><trkpt lat="38.0918304" lon="13.4766105"><ele>12.333333333333332</ele><time>2026-04-26T18:05:05.051Z</time></trkpt><trkpt lat="38.0918632" lon="13.4767094"><ele>12.0</ele><time>2026-04-26T18:05:06.051Z</time></trkpt><trkpt lat="38.09189" lon="13.4768156"><ele>11.666666666666666</ele><time>2026-04-26T18:05:07.051Z</time></trkpt><trkpt lat="38.0919079" lon="13.4769271"><ele>11.333333333333332</ele><time>2026-04-26T18:05:08.051Z</time></trkpt><trkpt lat="38.0919102" lon="13.4770415"><ele>11.0</ele><time>2026-04-26T18:05:09.051Z</time></trkpt><trkpt lat="38.0919001" lon="13.4771609"><ele>10.8</ele><time>2026-04-26T18:05:10.051Z</time></trkpt><trkpt lat="38.0918838" lon="13.4772843"><ele>10.600000000000001</ele><time>2026-04-26T18:05:11.051Z</time></trkpt><trkpt lat="38.091856" lon="13.4774057"><ele>10.4</ele><time>2026-04-26T18:05:12.051Z</time></trkpt><trkpt lat="38.0918116" lon="13.4775134"><ele>10.2</ele><time>2026-04-26T18:05:13.051Z</time></trkpt><trkpt lat="38.0917582" lon="13.4776206"><ele>10.0</ele><time>2026-04-26T18:05:14.051Z</time></trkpt><trkpt lat="38.0916963" lon="13.4777199"><ele>10.0</ele><time>2026-04-26T18:05:15.051Z</time></trkpt><trkpt lat="38.0916373" lon="13.4778048"><ele>10.0</ele><time>2026-04-26T18:05:16.051Z</time></trkpt><trkpt lat="38.0915891" lon="13.4778779"><ele>10.0</ele><time>2026-04-26T18:05:17.051Z</time></trkpt><trkpt lat="38.0915145" lon="13.4779894"><ele>10.0</ele><time>2026-04-26T18:05:19.051Z</time></trkpt><trkpt lat="38.0914679" lon="13.4780707"><ele>10.0</ele><time>2026-04-26T18:05:21.051Z</time></trkpt><trkpt lat="38.0914257" lon="13.4781483"><ele>10.0</ele><time>2026-04-26T18:05:23.051Z</time></trkpt><trkpt lat="38.0913762" lon="13.4782452"><ele>12.0</ele><time>2026-04-26T18:05:25.051Z</time></trkpt><trkpt lat="38.0913425" lon="13.4784152"><ele>14.0</ele><time>2026-04-26T18:05:27.051Z</time></trkpt><trkpt lat="38.0913339" lon="13.4785803"><ele>16.0</ele><time>2026-04-26T18:05:28.051Z</time></trkpt><trkpt lat="38.0913386" lon="13.4787535"><ele>18.0</ele><time>2026-04-26T18:05:29.051Z</time></trkpt><trkpt lat="38.0913649" lon="13.4789328"><ele>18.75</ele><time>2026-04-26T18:05:30.051Z</time></trkpt><trkpt lat="38.0913951" lon="13.4791123"><ele>19.5</ele><time>2026-04-26T18:05:31.051Z</time></trkpt><trkpt lat="38.0914192" lon="13.4792926"><ele>20.25</ele><time>2026-04-26T18:05:32.051Z</time></trkpt><trkpt lat="38.0914426" lon="13.4794788"><ele>21.0</ele><time>2026-04-26T18:05:33.052Z</time></trkpt><trkpt lat="38.0914637" lon="13.4796585"><ele>21.666666666666668</ele><time>2026-04-26T18:05:34.051Z</time></trkpt><trkpt lat="38.0914849" lon="13.4798765"><ele>22.333333333333336</ele><time>2026-04-26T18:05:35.051Z</time></trkpt><trkpt lat="38.0915056" lon="13.4801194"><ele>23.0</ele><time>2026-04-26T18:05:36.051Z</time></trkpt><trkpt lat="38.0915318" lon="13.4803648"><ele>23.333333333333336</ele><time>2026-04-26T18:05:37.051Z</time></trkpt><trkpt lat="38.0915558" lon="13.4806124"><ele>23.666666666666668</ele><time>2026-04-26T18:05:38.052Z</time></trkpt><trkpt lat="38.0915779" lon="13.4808772"><ele>24.0</ele><time>2026-04-26T18:05:39.051Z</time></trkpt><trkpt lat="38.091608" lon="13.4811352"><ele>23.666666666666668</ele><time>2026-04-26T18:05:40.051Z</time></trkpt><trkpt lat="38.0916442" lon="13.4813935"><ele>23.333333333333336</ele><time>2026-04-26T18:05:41.051Z</time></trkpt><trkpt lat="38.0916882" lon="13.4816583"><ele>23.0</ele><time>2026-04-26T18:05:42.051Z</time></trkpt><trkpt lat="38.0917359" lon="13.481925"><ele>23.333333333333336</ele><time>2026-04-26T18:05:43.051Z</time></trkpt><trkpt lat="38.0917807" lon="13.4821885"><ele>23.666666666666668</ele><time>2026-04-26T18:05:44.051Z</time></trkpt><trkpt lat="38.0918215" lon="13.4824504"><ele>24.0</ele><time>2026-04-26T18:05:45.051Z</time></trkpt><trkpt lat="38.0918611" lon="13.4826808"><ele>24.0</ele><time>2026-04-26T18:05:46.052Z</time></trkpt><trkpt lat="38.0918937" lon="13.4829009"><ele>24.0</ele><time>2026-04-26T18:05:47.051Z</time></trkpt><trkpt lat="38.0919227" lon="13.4830972"><ele>24.0</ele><time>2026-04-26T18:05:48.051Z</time></trkpt><trkpt lat="38.0919549" lon="13.4832776"><ele>24.2</ele><time>2026-04-26T18:05:49.051Z</time></trkpt><trkpt lat="38.0919836" lon="13.4834412"><ele>24.4</ele><time>2026-04-26T18:05:50.051Z</time></trkpt><trkpt lat="38.0919983" lon="13.4835642"><ele>24.6</ele><time>2026-04-26T18:05:51.051Z</time></trkpt><trkpt lat="38.0920038" lon="13.4836929"><ele>24.8</ele><time>2026-04-26T18:05:52.051Z</time></trkpt><trkpt lat="38.092008" lon="13.4838326"><ele>25.0</ele><time>2026-04-26T18:05:53.052Z</time></trkpt><trkpt lat="38.0920111" lon="13.4839953"><ele>25.0</ele><time>2026-04-26T18:05:54.051Z</time></trkpt><trkpt lat="38.0920039" lon="13.4841798"><ele>25.0</ele><time>2026-04-26T18:05:55.051Z</time></trkpt><trkpt lat="38.0919908" lon="13.4843615"><ele>25.0</ele><time>2026-04-26T18:05:56.051Z</time></trkpt><trkpt lat="38.0919727" lon="13.4845348"><ele>25.0</ele><time>2026-04-26T18:05:57.051Z</time></trkpt><trkpt lat="38.0919536" lon="13.4846935"><ele>25.0</ele><time>2026-04-26T18:05:58.051Z</time></trkpt><trkpt lat="38.0919351" lon="13.4848341"><ele>25.0</ele><time>2026-04-26T18:05:59.051Z</time></trkpt><trkpt lat="38.0919195" lon="13.4849683"><ele>25.0</ele><time>2026-04-26T18:06:00.051Z</time></trkpt><trkpt lat="38.0919082" lon="13.4850941"><ele>25.0</ele><time>2026-04-26T18:06:01.052Z</time></trkpt><trkpt lat="38.0919041" lon="13.4852061"><ele>25.0</ele><time>2026-04-26T18:06:02.051Z</time></trkpt><trkpt lat="38.0919018" lon="13.4853313"><ele>24.5</ele><time>2026-04-26T18:06:03.051Z</time></trkpt><trkpt lat="38.0919016" lon="13.4854955"><ele>24.0</ele><time>2026-04-26T18:06:04.051Z</time></trkpt><trkpt lat="38.0919014" lon="13.4856771"><ele>23.5</ele><time>2026-04-26T18:06:05.051Z</time></trkpt><trkpt lat="38.0918937" lon="13.4858716"><ele>23.0</ele><time>2026-04-26T18:06:06.051Z</time></trkpt><trkpt lat="38.0918813" lon="13.4860655"><ele>23.0</ele><time>2026-04-26T18:06:07.051Z</time></trkpt><trkpt lat="38.0918634" lon="13.4862589"><ele>23.0</ele><time>2026-04-26T18:06:08.051Z</time></trkpt><trkpt lat="38.0918358" lon="13.4864456"><ele>23.0</ele><time>2026-04-26T18:06:09.051Z</time></trkpt><trkpt lat="38.0918035" lon="13.486628"><ele>23.25</ele><time>2026-04-26T18:06:10.052Z</time></trkpt><trkpt lat="38.0917685" lon="13.4868094"><ele>23.5</ele><time>2026-04-26T18:06:11.051Z</time></trkpt><trkpt lat="38.0917359" lon="13.4869776"><ele>23.75</ele><time>2026-04-26T18:06:12.051Z</time></trkpt><trkpt lat="38.0917012" lon="13.4871445"><ele>24.0</ele><time>2026-04-26T18:06:13.051Z</time></trkpt><trkpt lat="38.0916638" lon="13.4873027"><ele>24.25</ele><time>2026-04-26T18:06:14.051Z</time></trkpt><trkpt lat="38.0916175" lon="13.4874569"><ele>24.5</ele><time>2026-04-26T18:06:15.051Z</time></trkpt><trkpt lat="38.0915637" lon="13.4876005"><ele>24.75</ele><time>2026-04-26T18:06:16.051Z</time></trkpt><trkpt lat="38.0915053" lon="13.4877187"><ele>25.0</ele><time>2026-04-26T18:06:17.051Z</time></trkpt><trkpt lat="38.0914482" lon="13.4878302"><ele>26.333333333333336</ele><time>2026-04-26T18:06:18.051Z</time></trkpt><trkpt lat="38.091381" lon="13.4879676"><ele>27.666666666666664</ele><time>2026-04-26T18:06:19.051Z</time></trkpt><trkpt lat="38.0912903" lon="13.4881262"><ele>29.0</ele><time>2026-04-26T18:06:20.051Z</time></trkpt><trkpt lat="38.0911861" lon="13.4882943"><ele>29.0</ele><time>2026-04-26T18:06:21.051Z</time></trkpt><trkpt lat="38.0910847" lon="13.4884497"><ele>29.0</ele><time>2026-04-26T18:06:22.052Z</time></trkpt><trkpt lat="38.0909847" lon="13.4885878"><ele>29.0</ele><time>2026-04-26T18:06:23.051Z</time></trkpt><trkpt lat="38.090881" lon="13.4887177"><ele>29.0</ele><time>2026-04-26T18:06:24.051Z</time></trkpt><trkpt lat="38.0907763" lon="13.4888495"><ele>29.0</ele><time>2026-04-26T18:06:25.051Z</time></trkpt><trkpt lat="38.0906679" lon="13.4889773"><ele>29.0</ele><time>2026-04-26T18:06:26.051Z</time></trkpt><trkpt lat="38.0905561" lon="13.4890909"><ele>29.0</ele><time>2026-04-26T18:06:27.052Z</time></trkpt><trkpt lat="38.0904488" lon="13.4891984"><ele>29.0</ele><time>2026-04-26T18:06:28.051Z</time></trkpt><trkpt lat="38.0903386" lon="13.4893081"><ele>29.0</ele><time>2026-04-26T18:06:29.051Z</time></trkpt><trkpt lat="38.0902339" lon="13.4894297"><ele>29.0</ele><time>2026-04-26T18:06:30.051Z</time></trkpt><trkpt lat="38.0901432" lon="13.489554"><ele>29.0</ele><time>2026-04-26T18:06:31.051Z</time></trkpt><trkpt lat="38.0900713" lon="13.4896871"><ele>29.5</ele><time>2026-04-26T18:06:32.052Z</time></trkpt><trkpt lat="38.0900129" lon="13.4898281"><ele>30.0</ele><time>2026-04-26T18:06:33.051Z</time></trkpt><trkpt lat="38.0899589" lon="13.4899714"><ele>30.5</ele><time>2026-04-26T18:06:34.051Z</time></trkpt><trkpt lat="38.0899133" lon="13.4901211"><ele>31.0</ele><time>2026-04-26T18:06:35.051Z</time></trkpt><trkpt lat="38.089868" lon="13.490272"><ele>32.333333333333336</ele><time>2026-04-26T18:06:36.051Z</time></trkpt><trkpt lat="38.0898258" lon="13.4904406"><ele>33.666666666666664</ele><time>2026-04-26T18:06:37.051Z</time></trkpt><trkpt lat="38.0897738" lon="13.4906444"><ele>35.0</ele><time>2026-04-26T18:06:38.051Z</time></trkpt><trkpt lat="38.0897161" lon="13.4908731"><ele>35.0</ele><time>2026-04-26T18:06:39.051Z</time></trkpt><trkpt lat="38.0896475" lon="13.4911004"><ele>35.0</ele><time>2026-04-26T18:06:40.052Z</time></trkpt><trkpt lat="38.0895737" lon="13.4913426"><ele>35.0</ele><time>2026-04-26T18:06:41.052Z</time></trkpt><trkpt lat="38.0894971" lon="13.4915936"><ele>35.0</ele><time>2026-04-26T18:06:42.051Z</time></trkpt><trkpt lat="38.089423" lon="13.4918529"><ele>35.0</ele><time>2026-04-26T18:06:43.052Z</time></trkpt><trkpt lat="38.0893502" lon="13.4921077"><ele>35.0</ele><time>2026-04-26T18:06:44.051Z</time></trkpt><trkpt lat="38.0892794" lon="13.4923597"><ele>35.0</ele><time>2026-04-26T18:06:45.051Z</time></trkpt><trkpt lat="38.0892052" lon="13.4926128"><ele>35.0</ele><time>2026-04-26T18:06:46.051Z</time></trkpt><trkpt lat="38.0891358" lon="13.4928579"><ele>35.0</ele><time>2026-04-26T18:06:47.051Z</time></trkpt><trkpt lat="38.0890756" lon="13.4930696"><ele>35.5</ele><time>2026-04-26T18:06:48.051Z</time></trkpt><trkpt lat="38.0890216" lon="13.4932632"><ele>36.0</ele><time>2026-04-26T18:06:49.051Z</time></trkpt><trkpt lat="38.0889769" lon="13.4934318"><ele>36.5</ele><time>2026-04-26T18:06:50.051Z</time></trkpt><trkpt lat="38.0889433" lon="13.4935908"><ele>37.0</ele><time>2026-04-26T18:06:51.052Z</time></trkpt><trkpt lat="38.0889146" lon="13.4937372"><ele>36.800000000000004</ele><time>2026-04-26T18:06:52.051Z</time></trkpt><trkpt lat="38.0888958" lon="13.4938698"><ele>36.6</ele><time>2026-04-26T18:06:53.052Z</time></trkpt><trkpt lat="38.0888727" lon="13.4939953"><ele>36.400000000000006</ele><time>2026-04-26T18:06:54.051Z</time></trkpt><trkpt lat="38.0888579" lon="13.4941128"><ele>36.2</ele><time>2026-04-26T18:06:55.051Z</time></trkpt><trkpt lat="38.0888436" lon="13.4942335"><ele>36.0</ele><time>2026-04-26T18:06:56.051Z</time></trkpt><trkpt lat="38.0888316" lon="13.494357"><ele>36.0</ele><time>2026-04-26T18:06:57.051Z</time></trkpt><trkpt lat="38.0888167" lon="13.4944761"><ele>36.0</ele><time>2026-04-26T18:06:58.051Z</time></trkpt><trkpt lat="38.0887994" lon="13.4945926"><ele>36.0</ele><time>2026-04-26T18:06:59.051Z</time></trkpt><trkpt lat="38.088778" lon="13.4947207"><ele>36.0</ele><time>2026-04-26T18:07:00.052Z</time></trkpt><trkpt lat="38.0887598" lon="13.4948514"><ele>36.0</ele><time>2026-04-26T18:07:01.051Z</time></trkpt><trkpt lat="38.0887404" lon="13.4949876"><ele>35.75</ele><time>2026-04-26T18:07:02.052Z</time></trkpt><trkpt lat="38.0887206" lon="13.4951274"><ele>35.5</ele><time>2026-04-26T18:07:03.051Z</time></trkpt><trkpt lat="38.0887014" lon="13.4952682"><ele>35.25</ele><time>2026-04-26T18:07:04.051Z</time></trkpt><trkpt lat="38.0886803" lon="13.4954087"><ele>35.0</ele><time>2026-04-26T18:07:05.051Z</time></trkpt><trkpt lat="38.0886573" lon="13.4955525"><ele>34.75</ele><time>2026-04-26T18:07:06.051Z</time></trkpt><trkpt lat="38.0886337" lon="13.4956971"><ele>34.5</ele><time>2026-04-26T18:07:07.051Z</time></trkpt><trkpt lat="38.0886091" lon="13.4958388"><ele>34.25</ele><time>2026-04-26T18:07:08.051Z</time></trkpt><trkpt lat="38.0885945" lon="13.4959849"><ele>34.0</ele><time>2026-04-26T18:07:09.052Z</time></trkpt><trkpt lat="38.0885901" lon="13.4961278"><ele>34.0</ele><time>2026-04-26T18:07:10.051Z</time></trkpt><trkpt lat="38.0885978" lon="13.4962747"><ele>34.0</ele><time>2026-04-26T18:07:11.051Z</time></trkpt><trkpt lat="38.0886174" lon="13.496421"><ele>34.0</ele><time>2026-04-26T18:07:12.051Z</time></trkpt><trkpt lat="38.088644" lon="13.4965604"><ele>34.0</ele><time>2026-04-26T18:07:13.051Z</time></trkpt><trkpt lat="38.0886779" lon="13.496694"><ele>34.0</ele><time>2026-04-26T18:07:14.051Z</time></trkpt><trkpt lat="38.0887131" lon="13.4968299"><ele>34.0</ele><time>2026-04-26T18:07:15.051Z</time></trkpt><trkpt lat="38.0887459" lon="13.4969548"><ele>34.0</ele><time>2026-04-26T18:07:16.051Z</time></trkpt><trkpt lat="38.0887773" lon="13.4970739"><ele>34.0</ele><time>2026-04-26T18:07:17.051Z</time></trkpt><trkpt lat="38.0888118" lon="13.4971939"><ele>34.0</ele><time>2026-04-26T18:07:18.051Z</time></trkpt><trkpt lat="38.0888451" lon="13.4973154"><ele>34.2</ele><time>2026-04-26T18:07:19.051Z</time></trkpt><trkpt lat="38.0888829" lon="13.4974374"><ele>34.4</ele><time>2026-04-26T18:07:20.051Z</time></trkpt><trkpt lat="38.0889238" lon="13.4975615"><ele>34.6</ele><time>2026-04-26T18:07:21.051Z</time></trkpt><trkpt lat="38.0889685" lon="13.4976811"><ele>34.8</ele><time>2026-04-26T18:07:22.051Z</time></trkpt><trkpt lat="38.0890175" lon="13.4977912"><ele>35.0</ele><time>2026-04-26T18:07:23.051Z</time></trkpt><trkpt lat="38.0890704" lon="13.4978987"><ele>35.6</ele><time>2026-04-26T18:07:24.051Z</time></trkpt><trkpt lat="38.0891278" lon="13.4980056"><ele>36.2</ele><time>2026-04-26T18:07:25.051Z</time></trkpt><trkpt lat="38.0891824" lon="13.4981057"><ele>36.8</ele><time>2026-04-26T18:07:26.051Z</time></trkpt><trkpt lat="38.0892244" lon="13.4982027"><ele>37.4</ele><time>2026-04-26T18:07:27.051Z</time></trkpt><trkpt lat="38.089259" lon="13.4983099"><ele>38.0</ele><time>2026-04-26T18:07:28.051Z</time></trkpt><trkpt lat="38.0892797" lon="13.4984282"><ele>38.0</ele><time>2026-04-26T18:07:29.051Z</time></trkpt><trkpt lat="38.0893063" lon="13.498574"><ele>38.0</ele><time>2026-04-26T18:07:30.051Z</time></trkpt><trkpt lat="38.0893223" lon="13.498737"><ele>38.0</ele><time>2026-04-26T18:07:31.051Z</time></trkpt><trkpt lat="38.0893295" lon="13.4989038"><ele>38.0</ele><time>2026-04-26T18:07:32.051Z</time></trkpt><trkpt lat="38.0893307" lon="13.4990607"><ele>38.199999999999996</ele><time>2026-04-26T18:07:33.051Z</time></trkpt><trkpt lat="38.0893292" lon="13.4992059"><ele>38.4</ele><time>2026-04-26T18:07:34.051Z</time></trkpt><trkpt lat="38.089328" lon="13.4993364"><ele>38.599999999999994</ele><time>2026-04-26T18:07:35.051Z</time></trkpt><trkpt lat="38.0893261" lon="13.4994648"><ele>38.8</ele><time>2026-04-26T18:07:36.052Z</time></trkpt><trkpt lat="38.0893268" lon="13.4995892"><ele>39.0</ele><time>2026-04-26T18:07:37.051Z</time></trkpt><trkpt lat="38.0893268" lon="13.4997104"><ele>39.166666666666664</ele><time>2026-04-26T18:07:38.051Z</time></trkpt><trkpt lat="38.0893273" lon="13.499831"><ele>39.333333333333336</ele><time>2026-04-26T18:07:39.051Z</time></trkpt><trkpt lat="38.0893297" lon="13.4999472"><ele>39.5</ele><time>2026-04-26T18:07:40.051Z</time></trkpt><trkpt lat="38.0893287" lon="13.5000537"><ele>39.66666666666667</ele><time>2026-04-26T18:07:41.051Z</time></trkpt><trkpt lat="38.08932" lon="13.5001518"><ele>39.833333333333336</ele><time>2026-04-26T18:07:42.051Z</time></trkpt><trkpt lat="38.0893154" lon="13.5002344"><ele>40.0</ele><time>2026-04-26T18:07:43.051Z</time></trkpt><trkpt lat="38.0893181" lon="13.500376"><ele>40.75</ele><time>2026-04-26T18:07:45.051Z</time></trkpt><trkpt lat="38.0893162" lon="13.500517"><ele>41.5</ele><time>2026-04-26T18:07:47.051Z</time></trkpt><trkpt lat="38.0893074" lon="13.5006656"><ele>42.25</ele><time>2026-04-26T18:07:49.051Z</time></trkpt><trkpt lat="38.0892906" lon="13.5008394"><ele>43.0</ele><time>2026-04-26T18:07:51.051Z</time></trkpt><trkpt lat="38.0892865" lon="13.5009481"><ele>43.0</ele><time>2026-04-26T18:07:52.051Z</time></trkpt><trkpt lat="38.0892784" lon="13.5010672"><ele>43.0</ele><time>2026-04-26T18:07:53.051Z</time></trkpt><trkpt lat="38.0892609" lon="13.5011876"><ele>43.0</ele><time>2026-04-26T18:07:54.051Z</time></trkpt><trkpt lat="38.0892436" lon="13.5013096"><ele>43.0</ele><time>2026-04-26T18:07:55.052Z</time></trkpt><trkpt lat="38.0892238" lon="13.5014319"><ele>43.0</ele><time>2026-04-26T18:07:56.051Z</time></trkpt><trkpt lat="38.0892077" lon="13.5015487"><ele>43.833333333333336</ele><time>2026-04-26T18:07:57.052Z</time></trkpt><trkpt lat="38.0892027" lon="13.5016638"><ele>44.66666666666667</ele><time>2026-04-26T18:07:58.051Z</time></trkpt><trkpt lat="38.089218" lon="13.5017722"><ele>45.5</ele><time>2026-04-26T18:07:59.051Z</time></trkpt><trkpt lat="38.0892391" lon="13.5018736"><ele>46.333333333333336</ele><time>2026-04-26T18:08:00.052Z</time></trkpt><trkpt lat="38.0892596" lon="13.5019681"><ele>47.166666666666664</ele><time>2026-04-26T18:08:01.051Z</time></trkpt><trkpt lat="38.0892833" lon="13.502073"><ele>48.0</ele><time>2026-04-26T18:08:02.051Z</time></trkpt><trkpt lat="38.0893115" lon="13.502172"><ele>48.5</ele><time>2026-04-26T18:08:03.051Z</time></trkpt><trkpt lat="38.0893366" lon="13.5022728"><ele>49.0</ele><time>2026-04-26T18:08:04.051Z</time></trkpt><trkpt lat="38.0893504" lon="13.5023828"><ele>49.5</ele><time>2026-04-26T18:08:05.052Z</time></trkpt><trkpt lat="38.0893483" lon="13.502485"><ele>50.0</ele><time>2026-04-26T18:08:06.052Z</time></trkpt><trkpt lat="38.0893345" lon="13.5025878"><ele>50.5</ele><time>2026-04-26T18:08:07.051Z</time></trkpt><trkpt lat="38.089318" lon="13.502699"><ele>51.0</ele><time>2026-04-26T18:08:08.051Z</time></trkpt><trkpt lat="38.0892936" lon="13.5028036"><ele>51.0</ele><time>2026-04-26T18:08:09.051Z</time></trkpt><trkpt lat="38.0892665" lon="13.5029029"><ele>51.0</ele><time>2026-04-26T18:08:10.052Z</time></trkpt><trkpt lat="38.0892377" lon="13.5029962"><ele>51.0</ele><time>2026-04-26T18:08:11.051Z</time></trkpt><trkpt lat="38.08921" lon="13.503086"><ele>51.0</ele><time>2026-04-26T18:08:12.051Z</time></trkpt><trkpt lat="38.0891895" lon="13.5031744"><ele>51.0</ele><time>2026-04-26T18:08:13.052Z</time></trkpt><trkpt lat="38.0891693" lon="13.5032507"><ele>51.0</ele><time>2026-04-26T18:08:14.051Z</time></trkpt><trkpt lat="38.0891374" lon="13.5033783"><ele>51.166666666666664</ele><time>2026-04-26T18:08:16.052Z</time></trkpt><trkpt lat="38.0891217" lon="13.503496"><ele>51.33333333333333</ele><time>2026-04-26T18:08:18.051Z</time></trkpt><trkpt lat="38.0890932" lon="13.5036062"><ele>51.5</ele><time>2026-04-26T18:08:20.051Z</time></trkpt><trkpt lat="38.0890635" lon="13.5037455"><ele>51.666666666666664</ele><time>2026-04-26T18:08:22.051Z</time></trkpt><trkpt lat="38.0890405" lon="13.5038318"><ele>51.83333333333333</ele><time>2026-04-26T18:08:23.051Z</time></trkpt><trkpt lat="38.0890121" lon="13.5039232"><ele>52.0</ele><time>2026-04-26T18:08:24.051Z</time></trkpt><trkpt lat="38.0889878" lon="13.5040117"><ele>52.0</ele><time>2026-04-26T18:08:25.051Z</time></trkpt><trkpt lat="38.0889676" lon="13.5041045"><ele>52.0</ele><time>2026-04-26T18:08:26.051Z</time></trkpt><trkpt lat="38.0889458" lon="13.504252"><ele>52.0</ele><time>2026-04-26T18:08:28.051Z</time></trkpt><trkpt lat="38.0889511" lon="13.5043769"><ele>52.0</ele><time>2026-04-26T18:08:30.051Z</time></trkpt><trkpt lat="38.0889582" lon="13.5044565"><ele>52.0</ele><time>2026-04-26T18:08:32.051Z</time></trkpt><trkpt lat="38.0889762" lon="13.5045351"><ele>52.0</ele><time>2026-04-26T18:08:35.051Z</time></trkpt></trkseg></trk></gpx>